<?xml version="1.0" encoding="UTF-8" standalone="no" ?>
<gpx xmlns="http://www.topografix.com/GPX/1/1" xmlns:xsi="http://www.w3.org/2001/XMLSchema-instance" xsi:schemaLocation="http://www.topografix.com/GPX/1/1 http://www.topografix.com/GPX/1/1/gpx.xsd" version="1.1" creator="VisuGPX - https://www.visugpx.com">
  <metadata>
    <name>Domf champsecret 64km</name>
  </metadata>
  <trk>
    <name><![CDATA[Domf champsecret 64km_1]]></name>
    <trkseg>
      <trkpt lat="48.73097" lon="-0.5536">
        <ele>53.4</ele>
        <time>2014-05-27T12:50:21Z</time>
      </trkpt>
      <trkpt lat="48.73089" lon="-0.55358">
        <ele>195.6</ele>
        <time>2014-05-27T12:50:23Z</time>
      </trkpt>
      <trkpt lat="48.73081" lon="-0.55358">
        <ele>195.6</ele>
        <time>2014-05-27T12:50:25Z</time>
      </trkpt>
      <trkpt lat="48.73077" lon="-0.55358">
        <ele>195.6</ele>
        <time>2014-05-27T12:50:26Z</time>
      </trkpt>
      <trkpt lat="48.73038" lon="-0.55368">
        <ele>194.8</ele>
        <time>2014-05-27T12:50:34Z</time>
      </trkpt>
      <trkpt lat="48.73032" lon="-0.55368">
        <ele>194.6</ele>
        <time>2014-05-27T12:50:35Z</time>
      </trkpt>
      <trkpt lat="48.73027" lon="-0.55366">
        <ele>194.4</ele>
        <time>2014-05-27T12:50:36Z</time>
      </trkpt>
      <trkpt lat="48.73021" lon="-0.55364">
        <ele>194</ele>
        <time>2014-05-27T12:50:37Z</time>
      </trkpt>
      <trkpt lat="48.73016" lon="-0.55363">
        <ele>193.8</ele>
        <time>2014-05-27T12:50:38Z</time>
      </trkpt>
      <trkpt lat="48.73011" lon="-0.55361">
        <ele>193.6</ele>
        <time>2014-05-27T12:50:39Z</time>
      </trkpt>
      <trkpt lat="48.73006" lon="-0.55358">
        <ele>193.2</ele>
        <time>2014-05-27T12:50:40Z</time>
      </trkpt>
      <trkpt lat="48.73002" lon="-0.55354">
        <ele>192.8</ele>
        <time>2014-05-27T12:50:41Z</time>
      </trkpt>
      <trkpt lat="48.72977" lon="-0.55329">
        <ele>192.6</ele>
        <time>2014-05-27T12:50:48Z</time>
      </trkpt>
      <trkpt lat="48.7297" lon="-0.55322">
        <ele>192.6</ele>
        <time>2014-05-27T12:50:50Z</time>
      </trkpt>
      <trkpt lat="48.72955" lon="-0.55296">
        <ele>193.4</ele>
        <time>2014-05-27T12:50:56Z</time>
      </trkpt>
      <trkpt lat="48.72954" lon="-0.5529">
        <ele>193.6</ele>
        <time>2014-05-27T12:50:57Z</time>
      </trkpt>
      <trkpt lat="48.72953" lon="-0.55284">
        <ele>193.6</ele>
        <time>2014-05-27T12:50:58Z</time>
      </trkpt>
      <trkpt lat="48.72953" lon="-0.55278">
        <ele>193.8</ele>
        <time>2014-05-27T12:50:59Z</time>
      </trkpt>
      <trkpt lat="48.72953" lon="-0.55272">
        <ele>193.8</ele>
        <time>2014-05-27T12:51:00Z</time>
      </trkpt>
      <trkpt lat="48.72949" lon="-0.55267">
        <ele>194</ele>
        <time>2014-05-27T12:51:01Z</time>
      </trkpt>
      <trkpt lat="48.72948" lon="-0.55259">
        <ele>194</ele>
        <time>2014-05-27T12:51:02Z</time>
      </trkpt>
      <trkpt lat="48.72946" lon="-0.55252">
        <ele>194.2</ele>
        <time>2014-05-27T12:51:03Z</time>
      </trkpt>
      <trkpt lat="48.72925" lon="-0.55155">
        <ele>193.6</ele>
        <time>2014-05-27T12:51:16Z</time>
      </trkpt>
      <trkpt lat="48.72916" lon="-0.55123">
        <ele>193.6</ele>
        <time>2014-05-27T12:51:23Z</time>
      </trkpt>
      <trkpt lat="48.72914" lon="-0.55122">
        <ele>193.6</ele>
        <time>2014-05-27T12:51:24Z</time>
      </trkpt>
      <trkpt lat="48.72912" lon="-0.55123">
        <ele>193.6</ele>
        <time>2014-05-27T12:51:25Z</time>
      </trkpt>
      <trkpt lat="48.7291" lon="-0.55125">
        <ele>193.6</ele>
        <time>2014-05-27T12:51:26Z</time>
      </trkpt>
      <trkpt lat="48.72907" lon="-0.55128">
        <ele>193.8</ele>
        <time>2014-05-27T12:51:27Z</time>
      </trkpt>
      <trkpt lat="48.72905" lon="-0.55132">
        <ele>193.8</ele>
        <time>2014-05-27T12:51:28Z</time>
      </trkpt>
      <trkpt lat="48.72902" lon="-0.55137">
        <ele>193.8</ele>
        <time>2014-05-27T12:51:29Z</time>
      </trkpt>
      <trkpt lat="48.72899" lon="-0.55141">
        <ele>193.8</ele>
        <time>2014-05-27T12:51:30Z</time>
      </trkpt>
      <trkpt lat="48.72888" lon="-0.55154">
        <ele>193.6</ele>
        <time>2014-05-27T12:51:33Z</time>
      </trkpt>
      <trkpt lat="48.72833" lon="-0.55183">
        <ele>193.6</ele>
        <time>2014-05-27T12:51:45Z</time>
      </trkpt>
      <trkpt lat="48.72765" lon="-0.55221">
        <ele>195.2</ele>
        <time>2014-05-27T12:51:59Z</time>
      </trkpt>
      <trkpt lat="48.7273" lon="-0.55245">
        <ele>196</ele>
        <time>2014-05-27T12:52:06Z</time>
      </trkpt>
      <trkpt lat="48.72703" lon="-0.55262">
        <ele>196.4</ele>
        <time>2014-05-27T12:52:12Z</time>
      </trkpt>
      <trkpt lat="48.72698" lon="-0.55263">
        <ele>196.4</ele>
        <time>2014-05-27T12:52:13Z</time>
      </trkpt>
      <trkpt lat="48.72694" lon="-0.55267">
        <ele>196.6</ele>
        <time>2014-05-27T12:52:14Z</time>
      </trkpt>
      <trkpt lat="48.72689" lon="-0.5527">
        <ele>196.6</ele>
        <time>2014-05-27T12:52:15Z</time>
      </trkpt>
      <trkpt lat="48.72684" lon="-0.55274">
        <ele>196.8</ele>
        <time>2014-05-27T12:52:16Z</time>
      </trkpt>
      <trkpt lat="48.72664" lon="-0.55289">
        <ele>197.2</ele>
        <time>2014-05-27T12:52:20Z</time>
      </trkpt>
      <trkpt lat="48.7266" lon="-0.55294">
        <ele>197.6</ele>
        <time>2014-05-27T12:52:21Z</time>
      </trkpt>
      <trkpt lat="48.72651" lon="-0.55305">
        <ele>198.2</ele>
        <time>2014-05-27T12:52:23Z</time>
      </trkpt>
      <trkpt lat="48.72632" lon="-0.55337">
        <ele>199</ele>
        <time>2014-05-27T12:52:28Z</time>
      </trkpt>
      <trkpt lat="48.72629" lon="-0.55343">
        <ele>199.2</ele>
        <time>2014-05-27T12:52:29Z</time>
      </trkpt>
      <trkpt lat="48.72626" lon="-0.55349">
        <ele>199.4</ele>
        <time>2014-05-27T12:52:30Z</time>
      </trkpt>
      <trkpt lat="48.72596" lon="-0.55395">
        <ele>200.4</ele>
        <time>2014-05-27T12:52:38Z</time>
      </trkpt>
      <trkpt lat="48.72564" lon="-0.55416">
        <ele>200.6</ele>
        <time>2014-05-27T12:52:44Z</time>
      </trkpt>
      <trkpt lat="48.72559" lon="-0.55417">
        <ele>200.8</ele>
        <time>2014-05-27T12:52:45Z</time>
      </trkpt>
      <trkpt lat="48.7252" lon="-0.55423">
        <ele>201.8</ele>
        <time>2014-05-27T12:52:52Z</time>
      </trkpt>
      <trkpt lat="48.72515" lon="-0.55424">
        <ele>202</ele>
        <time>2014-05-27T12:52:53Z</time>
      </trkpt>
      <trkpt lat="48.72496" lon="-0.55431">
        <ele>202.6</ele>
        <time>2014-05-27T12:52:57Z</time>
      </trkpt>
      <trkpt lat="48.72492" lon="-0.55435">
        <ele>202.6</ele>
        <time>2014-05-27T12:52:58Z</time>
      </trkpt>
      <trkpt lat="48.72488" lon="-0.5544">
        <ele>202.8</ele>
        <time>2014-05-27T12:52:59Z</time>
      </trkpt>
      <trkpt lat="48.72486" lon="-0.55446">
        <ele>203</ele>
        <time>2014-05-27T12:53:00Z</time>
      </trkpt>
      <trkpt lat="48.72483" lon="-0.55452">
        <ele>203.2</ele>
        <time>2014-05-27T12:53:01Z</time>
      </trkpt>
      <trkpt lat="48.7248" lon="-0.55457">
        <ele>203.2</ele>
        <time>2014-05-27T12:53:02Z</time>
      </trkpt>
      <trkpt lat="48.72477" lon="-0.55462">
        <ele>203.4</ele>
        <time>2014-05-27T12:53:03Z</time>
      </trkpt>
      <trkpt lat="48.72474" lon="-0.55466">
        <ele>203.4</ele>
        <time>2014-05-27T12:53:04Z</time>
      </trkpt>
      <trkpt lat="48.72471" lon="-0.55469">
        <ele>203.6</ele>
        <time>2014-05-27T12:53:05Z</time>
      </trkpt>
      <trkpt lat="48.72467" lon="-0.5547">
        <ele>203.6</ele>
        <time>2014-05-27T12:53:06Z</time>
      </trkpt>
      <trkpt lat="48.72464" lon="-0.55472">
        <ele>203.8</ele>
        <time>2014-05-27T12:53:07Z</time>
      </trkpt>
      <trkpt lat="48.72461" lon="-0.55473">
        <ele>204</ele>
        <time>2014-05-27T12:53:08Z</time>
      </trkpt>
      <trkpt lat="48.72459" lon="-0.55475">
        <ele>204</ele>
        <time>2014-05-27T12:53:09Z</time>
      </trkpt>
      <trkpt lat="48.72457" lon="-0.55477">
        <ele>204.2</ele>
        <time>2014-05-27T12:53:10Z</time>
      </trkpt>
      <trkpt lat="48.72455" lon="-0.55477">
        <ele>204.4</ele>
        <time>2014-05-27T12:53:11Z</time>
      </trkpt>
      <trkpt lat="48.72453" lon="-0.55477">
        <ele>204.4</ele>
        <time>2014-05-27T12:53:12Z</time>
      </trkpt>
      <trkpt lat="48.72451" lon="-0.55477">
        <ele>204.4</ele>
        <time>2014-05-27T12:53:13Z</time>
      </trkpt>
      <trkpt lat="48.72449" lon="-0.55478">
        <ele>204.6</ele>
        <time>2014-05-27T12:53:15Z</time>
      </trkpt>
      <trkpt lat="48.72449" lon="-0.5548">
        <ele>204.6</ele>
        <time>2014-05-27T12:53:16Z</time>
      </trkpt>
      <trkpt lat="48.72449" lon="-0.55482">
        <ele>204.6</ele>
        <time>2014-05-27T12:53:17Z</time>
      </trkpt>
      <trkpt lat="48.72448" lon="-0.55484">
        <ele>204.8</ele>
        <time>2014-05-27T12:53:18Z</time>
      </trkpt>
      <trkpt lat="48.72446" lon="-0.55486">
        <ele>204.8</ele>
        <time>2014-05-27T12:53:19Z</time>
      </trkpt>
      <trkpt lat="48.72443" lon="-0.55486">
        <ele>204.8</ele>
        <time>2014-05-27T12:53:20Z</time>
      </trkpt>
      <trkpt lat="48.72441" lon="-0.55487">
        <ele>204.8</ele>
        <time>2014-05-27T12:53:21Z</time>
      </trkpt>
      <trkpt lat="48.72406" lon="-0.55506">
        <ele>205.2</ele>
        <time>2014-05-27T12:53:32Z</time>
      </trkpt>
      <trkpt lat="48.72344" lon="-0.55532">
        <ele>205.4</ele>
        <time>2014-05-27T12:53:45Z</time>
      </trkpt>
      <trkpt lat="48.7229" lon="-0.55557">
        <ele>206</ele>
        <time>2014-05-27T12:53:57Z</time>
      </trkpt>
      <trkpt lat="48.72268" lon="-0.55568">
        <ele>206.4</ele>
        <time>2014-05-27T12:54:03Z</time>
      </trkpt>
      <trkpt lat="48.72264" lon="-0.55571">
        <ele>206.4</ele>
        <time>2014-05-27T12:54:04Z</time>
      </trkpt>
      <trkpt lat="48.7226" lon="-0.55573">
        <ele>206.4</ele>
        <time>2014-05-27T12:54:05Z</time>
      </trkpt>
      <trkpt lat="48.72247" lon="-0.55581">
        <ele>206.6</ele>
        <time>2014-05-27T12:54:08Z</time>
      </trkpt>
      <trkpt lat="48.72243" lon="-0.55583">
        <ele>206.6</ele>
        <time>2014-05-27T12:54:09Z</time>
      </trkpt>
      <trkpt lat="48.72239" lon="-0.55585">
        <ele>206.6</ele>
        <time>2014-05-27T12:54:10Z</time>
      </trkpt>
      <trkpt lat="48.72194" lon="-0.55605">
        <ele>207.4</ele>
        <time>2014-05-27T12:54:21Z</time>
      </trkpt>
      <trkpt lat="48.72156" lon="-0.55618">
        <ele>208</ele>
        <time>2014-05-27T12:54:31Z</time>
      </trkpt>
      <trkpt lat="48.72132" lon="-0.55624">
        <ele>208</ele>
        <time>2014-05-27T12:54:38Z</time>
      </trkpt>
      <trkpt lat="48.72114" lon="-0.55627">
        <ele>208</ele>
        <time>2014-05-27T12:54:42Z</time>
      </trkpt>
      <trkpt lat="48.721" lon="-0.55626">
        <ele>208.2</ele>
        <time>2014-05-27T12:54:45Z</time>
      </trkpt>
      <trkpt lat="48.72051" lon="-0.55622">
        <ele>208.6</ele>
        <time>2014-05-27T12:54:50Z</time>
      </trkpt>
      <trkpt lat="48.71972" lon="-0.55604">
        <ele>209.8</ele>
        <time>2014-05-27T12:55:04Z</time>
      </trkpt>
      <trkpt lat="48.71954" lon="-0.55595">
        <ele>210.2</ele>
        <time>2014-05-27T12:55:08Z</time>
      </trkpt>
      <trkpt lat="48.71932" lon="-0.55585">
        <ele>210.4</ele>
        <time>2014-05-27T12:55:13Z</time>
      </trkpt>
      <trkpt lat="48.71898" lon="-0.55559">
        <ele>210.6</ele>
        <time>2014-05-27T12:55:21Z</time>
      </trkpt>
      <trkpt lat="48.71884" lon="-0.55548">
        <ele>210.6</ele>
        <time>2014-05-27T12:55:24Z</time>
      </trkpt>
      <trkpt lat="48.71859" lon="-0.55527">
        <ele>211.2</ele>
        <time>2014-05-27T12:55:30Z</time>
      </trkpt>
      <trkpt lat="48.71822" lon="-0.5549">
        <ele>211.8</ele>
        <time>2014-05-27T12:55:39Z</time>
      </trkpt>
      <trkpt lat="48.71763" lon="-0.55435">
        <ele>212.4</ele>
        <time>2014-05-27T12:55:52Z</time>
      </trkpt>
      <trkpt lat="48.71751" lon="-0.55424">
        <ele>212.6</ele>
        <time>2014-05-27T12:55:55Z</time>
      </trkpt>
      <trkpt lat="48.71746" lon="-0.5542">
        <ele>212.8</ele>
        <time>2014-05-27T12:55:56Z</time>
      </trkpt>
      <trkpt lat="48.7174" lon="-0.55415">
        <ele>212.8</ele>
        <time>2014-05-27T12:55:57Z</time>
      </trkpt>
      <trkpt lat="48.71719" lon="-0.55397">
        <ele>213</ele>
        <time>2014-05-27T12:56:01Z</time>
      </trkpt>
      <trkpt lat="48.71666" lon="-0.55356">
        <ele>213.6</ele>
        <time>2014-05-27T12:56:12Z</time>
      </trkpt>
      <trkpt lat="48.71648" lon="-0.55338">
        <ele>213.6</ele>
        <time>2014-05-27T12:56:17Z</time>
      </trkpt>
      <trkpt lat="48.71635" lon="-0.55325">
        <ele>213.8</ele>
        <time>2014-05-27T12:56:21Z</time>
      </trkpt>
      <trkpt lat="48.71594" lon="-0.55281">
        <ele>214</ele>
        <time>2014-05-27T12:56:32Z</time>
      </trkpt>
      <trkpt lat="48.71556" lon="-0.55236">
        <ele>214.2</ele>
        <time>2014-05-27T12:56:42Z</time>
      </trkpt>
      <trkpt lat="48.71518" lon="-0.55206">
        <ele>214.2</ele>
        <time>2014-05-27T12:56:51Z</time>
      </trkpt>
      <trkpt lat="48.71475" lon="-0.55181">
        <ele>214.2</ele>
        <time>2014-05-27T12:57:02Z</time>
      </trkpt>
      <trkpt lat="48.71471" lon="-0.55179">
        <ele>214.2</ele>
        <time>2014-05-27T12:57:03Z</time>
      </trkpt>
      <trkpt lat="48.71463" lon="-0.55176">
        <ele>214.2</ele>
        <time>2014-05-27T12:57:05Z</time>
      </trkpt>
      <trkpt lat="48.71451" lon="-0.55166">
        <ele>214.2</ele>
        <time>2014-05-27T12:57:08Z</time>
      </trkpt>
      <trkpt lat="48.71428" lon="-0.55146">
        <ele>213.6</ele>
        <time>2014-05-27T12:57:14Z</time>
      </trkpt>
      <trkpt lat="48.71409" lon="-0.55128">
        <ele>212.8</ele>
        <time>2014-05-27T12:57:19Z</time>
      </trkpt>
      <trkpt lat="48.714" lon="-0.55118">
        <ele>212.6</ele>
        <time>2014-05-27T12:57:22Z</time>
      </trkpt>
      <trkpt lat="48.71375" lon="-0.55086">
        <ele>212</ele>
        <time>2014-05-27T12:57:31Z</time>
      </trkpt>
      <trkpt lat="48.71339" lon="-0.55055">
        <ele>212.2</ele>
        <time>2014-05-27T12:57:39Z</time>
      </trkpt>
      <trkpt lat="48.71309" lon="-0.55029">
        <ele>211.6</ele>
        <time>2014-05-27T12:57:45Z</time>
      </trkpt>
      <trkpt lat="48.71248" lon="-0.54982">
        <ele>210.4</ele>
        <time>2014-05-27T12:57:56Z</time>
      </trkpt>
      <trkpt lat="48.71198" lon="-0.54943">
        <ele>209.8</ele>
        <time>2014-05-27T12:58:06Z</time>
      </trkpt>
      <trkpt lat="48.71171" lon="-0.54926">
        <ele>209.6</ele>
        <time>2014-05-27T12:58:11Z</time>
      </trkpt>
      <trkpt lat="48.71154" lon="-0.54918">
        <ele>209.6</ele>
        <time>2014-05-27T12:58:14Z</time>
      </trkpt>
      <trkpt lat="48.7111" lon="-0.54895">
        <ele>208.8</ele>
        <time>2014-05-27T12:58:22Z</time>
      </trkpt>
      <trkpt lat="48.71047" lon="-0.5487">
        <ele>208</ele>
        <time>2014-05-27T12:58:34Z</time>
      </trkpt>
      <trkpt lat="48.70965" lon="-0.54846">
        <ele>208</ele>
        <time>2014-05-27T12:58:50Z</time>
      </trkpt>
      <trkpt lat="48.70959" lon="-0.54845">
        <ele>208</ele>
        <time>2014-05-27T12:58:51Z</time>
      </trkpt>
      <trkpt lat="48.70949" lon="-0.54843">
        <ele>207.8</ele>
        <time>2014-05-27T12:58:53Z</time>
      </trkpt>
      <trkpt lat="48.70882" lon="-0.54841">
        <ele>207.8</ele>
        <time>2014-05-27T12:59:06Z</time>
      </trkpt>
      <trkpt lat="48.7086" lon="-0.5484">
        <ele>207.6</ele>
        <time>2014-05-27T12:59:10Z</time>
      </trkpt>
      <trkpt lat="48.70806" lon="-0.54847">
        <ele>207.6</ele>
        <time>2014-05-27T12:59:21Z</time>
      </trkpt>
      <trkpt lat="48.70743" lon="-0.54866">
        <ele>207.8</ele>
        <time>2014-05-27T12:59:36Z</time>
      </trkpt>
      <trkpt lat="48.70739" lon="-0.54865">
        <ele>207.8</ele>
        <time>2014-05-27T12:59:37Z</time>
      </trkpt>
      <trkpt lat="48.70722" lon="-0.54863">
        <ele>207.6</ele>
        <time>2014-05-27T12:59:44Z</time>
      </trkpt>
      <trkpt lat="48.7072" lon="-0.54861">
        <ele>207.6</ele>
        <time>2014-05-27T12:59:45Z</time>
      </trkpt>
      <trkpt lat="48.70718" lon="-0.5486">
        <ele>207.6</ele>
        <time>2014-05-27T12:59:46Z</time>
      </trkpt>
      <trkpt lat="48.70717" lon="-0.54861">
        <ele>207.6</ele>
        <time>2014-05-27T12:59:47Z</time>
      </trkpt>
      <trkpt lat="48.70716" lon="-0.54863">
        <ele>207.6</ele>
        <time>2014-05-27T12:59:48Z</time>
      </trkpt>
      <trkpt lat="48.70715" lon="-0.54865">
        <ele>207.4</ele>
        <time>2014-05-27T12:59:49Z</time>
      </trkpt>
      <trkpt lat="48.70712" lon="-0.54867">
        <ele>207.4</ele>
        <time>2014-05-27T12:59:50Z</time>
      </trkpt>
      <trkpt lat="48.70709" lon="-0.5487">
        <ele>207.4</ele>
        <time>2014-05-27T12:59:51Z</time>
      </trkpt>
      <trkpt lat="48.70706" lon="-0.54872">
        <ele>207.4</ele>
        <time>2014-05-27T12:59:52Z</time>
      </trkpt>
      <trkpt lat="48.70687" lon="-0.54881">
        <ele>207</ele>
        <time>2014-05-27T12:59:57Z</time>
      </trkpt>
      <trkpt lat="48.70649" lon="-0.54898">
        <ele>206.8</ele>
        <time>2014-05-27T13:00:06Z</time>
      </trkpt>
      <trkpt lat="48.70626" lon="-0.5491">
        <ele>206.6</ele>
        <time>2014-05-27T13:00:11Z</time>
      </trkpt>
      <trkpt lat="48.70621" lon="-0.54912">
        <ele>206.6</ele>
        <time>2014-05-27T13:00:12Z</time>
      </trkpt>
      <trkpt lat="48.70617" lon="-0.54914">
        <ele>206.6</ele>
        <time>2014-05-27T13:00:13Z</time>
      </trkpt>
      <trkpt lat="48.70613" lon="-0.54916">
        <ele>206.4</ele>
        <time>2014-05-27T13:00:14Z</time>
      </trkpt>
      <trkpt lat="48.70608" lon="-0.54919">
        <ele>206.4</ele>
        <time>2014-05-27T13:00:15Z</time>
      </trkpt>
      <trkpt lat="48.70598" lon="-0.54924">
        <ele>206.2</ele>
        <time>2014-05-27T13:00:17Z</time>
      </trkpt>
      <trkpt lat="48.70593" lon="-0.54927">
        <ele>206.2</ele>
        <time>2014-05-27T13:00:18Z</time>
      </trkpt>
      <trkpt lat="48.7056" lon="-0.54949">
        <ele>205.6</ele>
        <time>2014-05-27T13:00:25Z</time>
      </trkpt>
      <trkpt lat="48.70554" lon="-0.54952">
        <ele>205.6</ele>
        <time>2014-05-27T13:00:26Z</time>
      </trkpt>
      <trkpt lat="48.7055" lon="-0.54955">
        <ele>205.4</ele>
        <time>2014-05-27T13:00:27Z</time>
      </trkpt>
      <trkpt lat="48.7053" lon="-0.54967">
        <ele>205.2</ele>
        <time>2014-05-27T13:00:31Z</time>
      </trkpt>
      <trkpt lat="48.70524" lon="-0.54969">
        <ele>205.2</ele>
        <time>2014-05-27T13:00:32Z</time>
      </trkpt>
      <trkpt lat="48.70519" lon="-0.54973">
        <ele>205</ele>
        <time>2014-05-27T13:00:33Z</time>
      </trkpt>
      <trkpt lat="48.70514" lon="-0.54975">
        <ele>205</ele>
        <time>2014-05-27T13:00:34Z</time>
      </trkpt>
      <trkpt lat="48.70509" lon="-0.54978">
        <ele>205</ele>
        <time>2014-05-27T13:00:35Z</time>
      </trkpt>
      <trkpt lat="48.70504" lon="-0.54982">
        <ele>204.8</ele>
        <time>2014-05-27T13:00:36Z</time>
      </trkpt>
      <trkpt lat="48.70466" lon="-0.55004">
        <ele>204.6</ele>
        <time>2014-05-27T13:00:43Z</time>
      </trkpt>
      <trkpt lat="48.7046" lon="-0.55007">
        <ele>204.4</ele>
        <time>2014-05-27T13:00:44Z</time>
      </trkpt>
      <trkpt lat="48.7042" lon="-0.55034">
        <ele>203.8</ele>
        <time>2014-05-27T13:00:51Z</time>
      </trkpt>
      <trkpt lat="48.70408" lon="-0.5504">
        <ele>203.8</ele>
        <time>2014-05-27T13:00:53Z</time>
      </trkpt>
      <trkpt lat="48.70392" lon="-0.55051">
        <ele>203.6</ele>
        <time>2014-05-27T13:00:56Z</time>
      </trkpt>
      <trkpt lat="48.70324" lon="-0.55092">
        <ele>203.4</ele>
        <time>2014-05-27T13:01:08Z</time>
      </trkpt>
      <trkpt lat="48.70308" lon="-0.55101">
        <ele>203.2</ele>
        <time>2014-05-27T13:01:11Z</time>
      </trkpt>
      <trkpt lat="48.70274" lon="-0.55123">
        <ele>203</ele>
        <time>2014-05-27T13:01:18Z</time>
      </trkpt>
      <trkpt lat="48.70232" lon="-0.55156">
        <ele>203.4</ele>
        <time>2014-05-27T13:01:29Z</time>
      </trkpt>
      <trkpt lat="48.70189" lon="-0.55183">
        <ele>203.4</ele>
        <time>2014-05-27T13:01:41Z</time>
      </trkpt>
      <trkpt lat="48.70162" lon="-0.55198">
        <ele>203.6</ele>
        <time>2014-05-27T13:01:51Z</time>
      </trkpt>
      <trkpt lat="48.70149" lon="-0.55203">
        <ele>203.6</ele>
        <time>2014-05-27T13:01:54Z</time>
      </trkpt>
      <trkpt lat="48.70135" lon="-0.55211">
        <ele>203.4</ele>
        <time>2014-05-27T13:01:57Z</time>
      </trkpt>
      <trkpt lat="48.70111" lon="-0.55224">
        <ele>203</ele>
        <time>2014-05-27T13:02:02Z</time>
      </trkpt>
      <trkpt lat="48.70097" lon="-0.55233">
        <ele>203</ele>
        <time>2014-05-27T13:02:05Z</time>
      </trkpt>
      <trkpt lat="48.7004" lon="-0.55268">
        <ele>203.2</ele>
        <time>2014-05-27T13:02:17Z</time>
      </trkpt>
      <trkpt lat="48.70027" lon="-0.55277">
        <ele>203.2</ele>
        <time>2014-05-27T13:02:20Z</time>
      </trkpt>
      <trkpt lat="48.69982" lon="-0.55303">
        <ele>203</ele>
        <time>2014-05-27T13:02:29Z</time>
      </trkpt>
      <trkpt lat="48.69926" lon="-0.5534">
        <ele>202</ele>
        <time>2014-05-27T13:02:41Z</time>
      </trkpt>
      <trkpt lat="48.69917" lon="-0.55346">
        <ele>201.8</ele>
        <time>2014-05-27T13:02:43Z</time>
      </trkpt>
      <trkpt lat="48.69908" lon="-0.55352">
        <ele>201.6</ele>
        <time>2014-05-27T13:02:45Z</time>
      </trkpt>
      <trkpt lat="48.69876" lon="-0.55374">
        <ele>201.4</ele>
        <time>2014-05-27T13:02:52Z</time>
      </trkpt>
      <trkpt lat="48.6982" lon="-0.55408">
        <ele>201.2</ele>
        <time>2014-05-27T13:03:03Z</time>
      </trkpt>
      <trkpt lat="48.69799" lon="-0.5542">
        <ele>201.2</ele>
        <time>2014-05-27T13:03:07Z</time>
      </trkpt>
      <trkpt lat="48.69785" lon="-0.55429">
        <ele>201.2</ele>
        <time>2014-05-27T13:03:10Z</time>
      </trkpt>
      <trkpt lat="48.69729" lon="-0.55468">
        <ele>201</ele>
        <time>2014-05-27T13:03:22Z</time>
      </trkpt>
      <trkpt lat="48.69712" lon="-0.55481">
        <ele>201</ele>
        <time>2014-05-27T13:03:26Z</time>
      </trkpt>
      <trkpt lat="48.69694" lon="-0.55495">
        <ele>201</ele>
        <time>2014-05-27T13:03:30Z</time>
      </trkpt>
      <trkpt lat="48.69645" lon="-0.55526">
        <ele>201</ele>
        <time>2014-05-27T13:03:41Z</time>
      </trkpt>
      <trkpt lat="48.69612" lon="-0.55549">
        <ele>201</ele>
        <time>2014-05-27T13:03:48Z</time>
      </trkpt>
      <trkpt lat="48.69563" lon="-0.55583">
        <ele>201</ele>
        <time>2014-05-27T13:03:59Z</time>
      </trkpt>
      <trkpt lat="48.69507" lon="-0.55613">
        <ele>201.2</ele>
        <time>2014-05-27T13:04:08Z</time>
      </trkpt>
      <trkpt lat="48.69449" lon="-0.55649">
        <ele>200.8</ele>
        <time>2014-05-27T13:04:19Z</time>
      </trkpt>
      <trkpt lat="48.6944" lon="-0.55656">
        <ele>200.8</ele>
        <time>2014-05-27T13:04:21Z</time>
      </trkpt>
      <trkpt lat="48.69423" lon="-0.55665">
        <ele>200.8</ele>
        <time>2014-05-27T13:04:24Z</time>
      </trkpt>
      <trkpt lat="48.69384" lon="-0.55693">
        <ele>200.8</ele>
        <time>2014-05-27T13:04:32Z</time>
      </trkpt>
      <trkpt lat="48.69341" lon="-0.5572">
        <ele>201.4</ele>
        <time>2014-05-27T13:04:41Z</time>
      </trkpt>
      <trkpt lat="48.6933" lon="-0.55729">
        <ele>201.4</ele>
        <time>2014-05-27T13:04:44Z</time>
      </trkpt>
      <trkpt lat="48.69284" lon="-0.5576">
        <ele>201.4</ele>
        <time>2014-05-27T13:04:54Z</time>
      </trkpt>
      <trkpt lat="48.69278" lon="-0.55763">
        <ele>201.6</ele>
        <time>2014-05-27T13:04:55Z</time>
      </trkpt>
      <trkpt lat="48.69254" lon="-0.5578">
        <ele>201.8</ele>
        <time>2014-05-27T13:05:00Z</time>
      </trkpt>
      <trkpt lat="48.69204" lon="-0.55809">
        <ele>202</ele>
        <time>2014-05-27T13:05:10Z</time>
      </trkpt>
      <trkpt lat="48.69174" lon="-0.55828">
        <ele>201.8</ele>
        <time>2014-05-27T13:05:16Z</time>
      </trkpt>
      <trkpt lat="48.69152" lon="-0.5584">
        <ele>202</ele>
        <time>2014-05-27T13:05:21Z</time>
      </trkpt>
      <trkpt lat="48.69116" lon="-0.55865">
        <ele>202.6</ele>
        <time>2014-05-27T13:05:29Z</time>
      </trkpt>
      <trkpt lat="48.69088" lon="-0.55886">
        <ele>202.6</ele>
        <time>2014-05-27T13:05:36Z</time>
      </trkpt>
      <trkpt lat="48.69071" lon="-0.55897">
        <ele>202.6</ele>
        <time>2014-05-27T13:05:40Z</time>
      </trkpt>
      <trkpt lat="48.69051" lon="-0.55907">
        <ele>202.6</ele>
        <time>2014-05-27T13:05:44Z</time>
      </trkpt>
      <trkpt lat="48.69036" lon="-0.55915">
        <ele>202.8</ele>
        <time>2014-05-27T13:05:47Z</time>
      </trkpt>
      <trkpt lat="48.68992" lon="-0.55943">
        <ele>203.2</ele>
        <time>2014-05-27T13:05:57Z</time>
      </trkpt>
      <trkpt lat="48.6895" lon="-0.55973">
        <ele>203.6</ele>
        <time>2014-05-27T13:06:07Z</time>
      </trkpt>
      <trkpt lat="48.68893" lon="-0.56">
        <ele>203.2</ele>
        <time>2014-05-27T13:06:16Z</time>
      </trkpt>
      <trkpt lat="48.68876" lon="-0.56007">
        <ele>203.2</ele>
        <time>2014-05-27T13:06:19Z</time>
      </trkpt>
      <trkpt lat="48.68872" lon="-0.5601">
        <ele>203.2</ele>
        <time>2014-05-27T13:06:20Z</time>
      </trkpt>
      <trkpt lat="48.68869" lon="-0.56013">
        <ele>203.2</ele>
        <time>2014-05-27T13:06:21Z</time>
      </trkpt>
      <trkpt lat="48.68863" lon="-0.56015">
        <ele>203.2</ele>
        <time>2014-05-27T13:06:22Z</time>
      </trkpt>
      <trkpt lat="48.6886" lon="-0.56016">
        <ele>203.2</ele>
        <time>2014-05-27T13:06:23Z</time>
      </trkpt>
      <trkpt lat="48.68851" lon="-0.56018">
        <ele>203.2</ele>
        <time>2014-05-27T13:06:24Z</time>
      </trkpt>
      <trkpt lat="48.68847" lon="-0.5602">
        <ele>203.2</ele>
        <time>2014-05-27T13:06:25Z</time>
      </trkpt>
      <trkpt lat="48.68842" lon="-0.56022">
        <ele>203.2</ele>
        <time>2014-05-27T13:06:26Z</time>
      </trkpt>
      <trkpt lat="48.68837" lon="-0.56025">
        <ele>203.2</ele>
        <time>2014-05-27T13:06:27Z</time>
      </trkpt>
      <trkpt lat="48.68803" lon="-0.56043">
        <ele>203</ele>
        <time>2014-05-27T13:06:37Z</time>
      </trkpt>
      <trkpt lat="48.68802" lon="-0.56046">
        <ele>203</ele>
        <time>2014-05-27T13:06:38Z</time>
      </trkpt>
      <trkpt lat="48.68788" lon="-0.5606">
        <ele>202.8</ele>
        <time>2014-05-27T13:06:49Z</time>
      </trkpt>
      <trkpt lat="48.68761" lon="-0.56082">
        <ele>202</ele>
        <time>2014-05-27T13:07:00Z</time>
      </trkpt>
      <trkpt lat="48.6874" lon="-0.56095">
        <ele>201.8</ele>
        <time>2014-05-27T13:07:05Z</time>
      </trkpt>
      <trkpt lat="48.68698" lon="-0.56121">
        <ele>201.4</ele>
        <time>2014-05-27T13:07:14Z</time>
      </trkpt>
      <trkpt lat="48.68671" lon="-0.56143">
        <ele>201.2</ele>
        <time>2014-05-27T13:07:19Z</time>
      </trkpt>
      <trkpt lat="48.6866" lon="-0.56153">
        <ele>201.2</ele>
        <time>2014-05-27T13:07:21Z</time>
      </trkpt>
      <trkpt lat="48.68611" lon="-0.56207">
        <ele>201.2</ele>
        <time>2014-05-27T13:07:32Z</time>
      </trkpt>
      <trkpt lat="48.68603" lon="-0.56219">
        <ele>201.2</ele>
        <time>2014-05-27T13:07:34Z</time>
      </trkpt>
      <trkpt lat="48.68584" lon="-0.56249">
        <ele>200.8</ele>
        <time>2014-05-27T13:07:39Z</time>
      </trkpt>
      <trkpt lat="48.68562" lon="-0.56281">
        <ele>200.6</ele>
        <time>2014-05-27T13:07:44Z</time>
      </trkpt>
      <trkpt lat="48.68531" lon="-0.56331">
        <ele>200</ele>
        <time>2014-05-27T13:07:53Z</time>
      </trkpt>
      <trkpt lat="48.68519" lon="-0.56349">
        <ele>199.8</ele>
        <time>2014-05-27T13:07:56Z</time>
      </trkpt>
      <trkpt lat="48.68507" lon="-0.56366">
        <ele>199.6</ele>
        <time>2014-05-27T13:07:59Z</time>
      </trkpt>
      <trkpt lat="48.68483" lon="-0.56396">
        <ele>199.2</ele>
        <time>2014-05-27T13:08:04Z</time>
      </trkpt>
      <trkpt lat="48.68447" lon="-0.56447">
        <ele>198.8</ele>
        <time>2014-05-27T13:08:13Z</time>
      </trkpt>
      <trkpt lat="48.6843" lon="-0.56471">
        <ele>198.6</ele>
        <time>2014-05-27T13:08:17Z</time>
      </trkpt>
      <trkpt lat="48.68413" lon="-0.56498">
        <ele>198.2</ele>
        <time>2014-05-27T13:08:21Z</time>
      </trkpt>
      <trkpt lat="48.68357" lon="-0.56561">
        <ele>198.2</ele>
        <time>2014-05-27T13:08:32Z</time>
      </trkpt>
      <trkpt lat="48.68333" lon="-0.5659">
        <ele>198.2</ele>
        <time>2014-05-27T13:08:37Z</time>
      </trkpt>
      <trkpt lat="48.68323" lon="-0.56601">
        <ele>198</ele>
        <time>2014-05-27T13:08:39Z</time>
      </trkpt>
      <trkpt lat="48.68302" lon="-0.56632">
        <ele>198</ele>
        <time>2014-05-27T13:08:44Z</time>
      </trkpt>
      <trkpt lat="48.68278" lon="-0.56666">
        <ele>197.8</ele>
        <time>2014-05-27T13:08:50Z</time>
      </trkpt>
      <trkpt lat="48.68231" lon="-0.56724">
        <ele>197.4</ele>
        <time>2014-05-27T13:09:00Z</time>
      </trkpt>
      <trkpt lat="48.68217" lon="-0.56741">
        <ele>197.2</ele>
        <time>2014-05-27T13:09:03Z</time>
      </trkpt>
      <trkpt lat="48.68203" lon="-0.56775">
        <ele>196.8</ele>
        <time>2014-05-27T13:09:09Z</time>
      </trkpt>
      <trkpt lat="48.68173" lon="-0.56835">
        <ele>196.8</ele>
        <time>2014-05-27T13:09:21Z</time>
      </trkpt>
      <trkpt lat="48.68166" lon="-0.56849">
        <ele>196.6</ele>
        <time>2014-05-27T13:09:27Z</time>
      </trkpt>
      <trkpt lat="48.68165" lon="-0.56851">
        <ele>196.6</ele>
        <time>2014-05-27T13:09:28Z</time>
      </trkpt>
      <trkpt lat="48.68165" lon="-0.56854">
        <ele>196.6</ele>
        <time>2014-05-27T13:09:29Z</time>
      </trkpt>
      <trkpt lat="48.6816" lon="-0.56866">
        <ele>196.8</ele>
        <time>2014-05-27T13:09:32Z</time>
      </trkpt>
      <trkpt lat="48.68156" lon="-0.56877">
        <ele>196.4</ele>
        <time>2014-05-27T13:09:34Z</time>
      </trkpt>
      <trkpt lat="48.68136" lon="-0.56916">
        <ele>196</ele>
        <time>2014-05-27T13:09:41Z</time>
      </trkpt>
      <trkpt lat="48.68122" lon="-0.5694">
        <ele>195.6</ele>
        <time>2014-05-27T13:09:45Z</time>
      </trkpt>
      <trkpt lat="48.68117" lon="-0.56952">
        <ele>195.6</ele>
        <time>2014-05-27T13:09:47Z</time>
      </trkpt>
      <trkpt lat="48.68102" lon="-0.56995">
        <ele>195.4</ele>
        <time>2014-05-27T13:09:54Z</time>
      </trkpt>
      <trkpt lat="48.68084" lon="-0.57026">
        <ele>195.6</ele>
        <time>2014-05-27T13:09:59Z</time>
      </trkpt>
      <trkpt lat="48.68076" lon="-0.57038">
        <ele>195.4</ele>
        <time>2014-05-27T13:10:01Z</time>
      </trkpt>
      <trkpt lat="48.68063" lon="-0.57059">
        <ele>195.4</ele>
        <time>2014-05-27T13:10:04Z</time>
      </trkpt>
      <trkpt lat="48.68045" lon="-0.57088">
        <ele>195.2</ele>
        <time>2014-05-27T13:10:08Z</time>
      </trkpt>
      <trkpt lat="48.68035" lon="-0.57109">
        <ele>195</ele>
        <time>2014-05-27T13:10:11Z</time>
      </trkpt>
      <trkpt lat="48.68018" lon="-0.57137">
        <ele>194.8</ele>
        <time>2014-05-27T13:10:15Z</time>
      </trkpt>
      <trkpt lat="48.67983" lon="-0.57195">
        <ele>194.6</ele>
        <time>2014-05-27T13:10:24Z</time>
      </trkpt>
      <trkpt lat="48.67978" lon="-0.57208">
        <ele>194.4</ele>
        <time>2014-05-27T13:10:26Z</time>
      </trkpt>
      <trkpt lat="48.67972" lon="-0.57224">
        <ele>194.4</ele>
        <time>2014-05-27T13:10:28Z</time>
      </trkpt>
      <trkpt lat="48.67952" lon="-0.57271">
        <ele>194</ele>
        <time>2014-05-27T13:10:34Z</time>
      </trkpt>
      <trkpt lat="48.67939" lon="-0.57302">
        <ele>193.6</ele>
        <time>2014-05-27T13:10:38Z</time>
      </trkpt>
      <trkpt lat="48.67902" lon="-0.57395">
        <ele>193.2</ele>
        <time>2014-05-27T13:10:49Z</time>
      </trkpt>
      <trkpt lat="48.67884" lon="-0.57435">
        <ele>193.2</ele>
        <time>2014-05-27T13:10:54Z</time>
      </trkpt>
      <trkpt lat="48.67864" lon="-0.575">
        <ele>193</ele>
        <time>2014-05-27T13:11:03Z</time>
      </trkpt>
      <trkpt lat="48.67841" lon="-0.57571">
        <ele>193.2</ele>
        <time>2014-05-27T13:11:12Z</time>
      </trkpt>
      <trkpt lat="48.67838" lon="-0.57587">
        <ele>193</ele>
        <time>2014-05-27T13:11:14Z</time>
      </trkpt>
      <trkpt lat="48.67832" lon="-0.57618">
        <ele>192.8</ele>
        <time>2014-05-27T13:11:18Z</time>
      </trkpt>
      <trkpt lat="48.67821" lon="-0.57656">
        <ele>192.4</ele>
        <time>2014-05-27T13:11:23Z</time>
      </trkpt>
      <trkpt lat="48.67802" lon="-0.57731">
        <ele>192</ele>
        <time>2014-05-27T13:11:33Z</time>
      </trkpt>
      <trkpt lat="48.67799" lon="-0.5774">
        <ele>192</ele>
        <time>2014-05-27T13:11:34Z</time>
      </trkpt>
      <trkpt lat="48.67792" lon="-0.57767">
        <ele>191.8</ele>
        <time>2014-05-27T13:11:37Z</time>
      </trkpt>
      <trkpt lat="48.67772" lon="-0.57822">
        <ele>191.6</ele>
        <time>2014-05-27T13:11:44Z</time>
      </trkpt>
      <trkpt lat="48.67769" lon="-0.5783">
        <ele>191.6</ele>
        <time>2014-05-27T13:11:45Z</time>
      </trkpt>
      <trkpt lat="48.67765" lon="-0.57838">
        <ele>191.6</ele>
        <time>2014-05-27T13:11:46Z</time>
      </trkpt>
      <trkpt lat="48.67752" lon="-0.57869">
        <ele>191.6</ele>
        <time>2014-05-27T13:11:50Z</time>
      </trkpt>
      <trkpt lat="48.67749" lon="-0.57876">
        <ele>191.4</ele>
        <time>2014-05-27T13:11:51Z</time>
      </trkpt>
      <trkpt lat="48.67745" lon="-0.57882">
        <ele>191.2</ele>
        <time>2014-05-27T13:11:52Z</time>
      </trkpt>
      <trkpt lat="48.67738" lon="-0.57895">
        <ele>190.8</ele>
        <time>2014-05-27T13:11:54Z</time>
      </trkpt>
      <trkpt lat="48.67734" lon="-0.57902">
        <ele>190.6</ele>
        <time>2014-05-27T13:11:55Z</time>
      </trkpt>
      <trkpt lat="48.67729" lon="-0.57908">
        <ele>190.6</ele>
        <time>2014-05-27T13:11:56Z</time>
      </trkpt>
      <trkpt lat="48.6772" lon="-0.57921">
        <ele>190.4</ele>
        <time>2014-05-27T13:11:58Z</time>
      </trkpt>
      <trkpt lat="48.6771" lon="-0.57934">
        <ele>190.4</ele>
        <time>2014-05-27T13:12:00Z</time>
      </trkpt>
      <trkpt lat="48.67699" lon="-0.57953">
        <ele>190.2</ele>
        <time>2014-05-27T13:12:03Z</time>
      </trkpt>
      <trkpt lat="48.67695" lon="-0.5796">
        <ele>190.2</ele>
        <time>2014-05-27T13:12:04Z</time>
      </trkpt>
      <trkpt lat="48.67687" lon="-0.57972">
        <ele>190</ele>
        <time>2014-05-27T13:12:06Z</time>
      </trkpt>
      <trkpt lat="48.67683" lon="-0.57978">
        <ele>190</ele>
        <time>2014-05-27T13:12:07Z</time>
      </trkpt>
      <trkpt lat="48.67647" lon="-0.58025">
        <ele>190.4</ele>
        <time>2014-05-27T13:12:15Z</time>
      </trkpt>
      <trkpt lat="48.6764" lon="-0.58031">
        <ele>190.4</ele>
        <time>2014-05-27T13:12:16Z</time>
      </trkpt>
      <trkpt lat="48.67636" lon="-0.58037">
        <ele>190.4</ele>
        <time>2014-05-27T13:12:17Z</time>
      </trkpt>
      <trkpt lat="48.67626" lon="-0.58047">
        <ele>190.6</ele>
        <time>2014-05-27T13:12:19Z</time>
      </trkpt>
      <trkpt lat="48.67588" lon="-0.58086">
        <ele>190.2</ele>
        <time>2014-05-27T13:12:27Z</time>
      </trkpt>
      <trkpt lat="48.67557" lon="-0.58112">
        <ele>190.2</ele>
        <time>2014-05-27T13:12:34Z</time>
      </trkpt>
      <trkpt lat="48.6753" lon="-0.58128">
        <ele>190.4</ele>
        <time>2014-05-27T13:12:40Z</time>
      </trkpt>
      <trkpt lat="48.67527" lon="-0.58132">
        <ele>190.2</ele>
        <time>2014-05-27T13:12:41Z</time>
      </trkpt>
      <trkpt lat="48.6751" lon="-0.58144">
        <ele>190.2</ele>
        <time>2014-05-27T13:12:46Z</time>
      </trkpt>
      <trkpt lat="48.67501" lon="-0.58147">
        <ele>190.2</ele>
        <time>2014-05-27T13:12:48Z</time>
      </trkpt>
      <trkpt lat="48.67488" lon="-0.58154">
        <ele>190.2</ele>
        <time>2014-05-27T13:12:51Z</time>
      </trkpt>
      <trkpt lat="48.67483" lon="-0.58156">
        <ele>190.2</ele>
        <time>2014-05-27T13:12:52Z</time>
      </trkpt>
      <trkpt lat="48.67435" lon="-0.58174">
        <ele>189.8</ele>
        <time>2014-05-27T13:13:02Z</time>
      </trkpt>
      <trkpt lat="48.6743" lon="-0.58175">
        <ele>189.8</ele>
        <time>2014-05-27T13:13:03Z</time>
      </trkpt>
      <trkpt lat="48.67426" lon="-0.58175">
        <ele>189.6</ele>
        <time>2014-05-27T13:13:04Z</time>
      </trkpt>
      <trkpt lat="48.67422" lon="-0.58176">
        <ele>189.6</ele>
        <time>2014-05-27T13:13:05Z</time>
      </trkpt>
      <trkpt lat="48.67419" lon="-0.58178">
        <ele>189.6</ele>
        <time>2014-05-27T13:13:06Z</time>
      </trkpt>
      <trkpt lat="48.67415" lon="-0.58179">
        <ele>189.6</ele>
        <time>2014-05-27T13:13:07Z</time>
      </trkpt>
      <trkpt lat="48.6736" lon="-0.5819">
        <ele>189.2</ele>
        <time>2014-05-27T13:13:17Z</time>
      </trkpt>
      <trkpt lat="48.67313" lon="-0.58199">
        <ele>189.2</ele>
        <time>2014-05-27T13:13:27Z</time>
      </trkpt>
      <trkpt lat="48.67279" lon="-0.58204">
        <ele>189</ele>
        <time>2014-05-27T13:13:33Z</time>
      </trkpt>
      <trkpt lat="48.67272" lon="-0.58204">
        <ele>189</ele>
        <time>2014-05-27T13:13:34Z</time>
      </trkpt>
      <trkpt lat="48.67223" lon="-0.58203">
        <ele>188.8</ele>
        <time>2014-05-27T13:13:43Z</time>
      </trkpt>
      <trkpt lat="48.67218" lon="-0.58203">
        <ele>188.8</ele>
        <time>2014-05-27T13:13:44Z</time>
      </trkpt>
      <trkpt lat="48.67214" lon="-0.58203">
        <ele>188.8</ele>
        <time>2014-05-27T13:13:45Z</time>
      </trkpt>
      <trkpt lat="48.6721" lon="-0.58204">
        <ele>188.8</ele>
        <time>2014-05-27T13:13:46Z</time>
      </trkpt>
      <trkpt lat="48.67206" lon="-0.58204">
        <ele>188.8</ele>
        <time>2014-05-27T13:13:47Z</time>
      </trkpt>
      <trkpt lat="48.67186" lon="-0.58208">
        <ele>188.8</ele>
        <time>2014-05-27T13:13:57Z</time>
      </trkpt>
      <trkpt lat="48.67141" lon="-0.58217">
        <ele>188</ele>
        <time>2014-05-27T13:14:08Z</time>
      </trkpt>
      <trkpt lat="48.67132" lon="-0.5822">
        <ele>188.2</ele>
        <time>2014-05-27T13:14:10Z</time>
      </trkpt>
      <trkpt lat="48.67094" lon="-0.58226">
        <ele>188</ele>
        <time>2014-05-27T13:14:18Z</time>
      </trkpt>
      <trkpt lat="48.67084" lon="-0.58226">
        <ele>188</ele>
        <time>2014-05-27T13:14:20Z</time>
      </trkpt>
      <trkpt lat="48.67051" lon="-0.58232">
        <ele>188</ele>
        <time>2014-05-27T13:14:27Z</time>
      </trkpt>
      <trkpt lat="48.67033" lon="-0.58232">
        <ele>187.8</ele>
        <time>2014-05-27T13:14:31Z</time>
      </trkpt>
      <trkpt lat="48.67019" lon="-0.58232">
        <ele>187.8</ele>
        <time>2014-05-27T13:14:34Z</time>
      </trkpt>
      <trkpt lat="48.6701" lon="-0.58231">
        <ele>187.6</ele>
        <time>2014-05-27T13:14:36Z</time>
      </trkpt>
      <trkpt lat="48.66995" lon="-0.5823">
        <ele>187.4</ele>
        <time>2014-05-27T13:14:39Z</time>
      </trkpt>
      <trkpt lat="48.6698" lon="-0.58229">
        <ele>187.4</ele>
        <time>2014-05-27T13:14:42Z</time>
      </trkpt>
      <trkpt lat="48.66954" lon="-0.58225">
        <ele>187.2</ele>
        <time>2014-05-27T13:14:47Z</time>
      </trkpt>
      <trkpt lat="48.66912" lon="-0.58219">
        <ele>186.8</ele>
        <time>2014-05-27T13:14:54Z</time>
      </trkpt>
      <trkpt lat="48.66887" lon="-0.58213">
        <ele>186.4</ele>
        <time>2014-05-27T13:14:59Z</time>
      </trkpt>
      <trkpt lat="48.66883" lon="-0.58211">
        <ele>186.4</ele>
        <time>2014-05-27T13:15:00Z</time>
      </trkpt>
      <trkpt lat="48.66879" lon="-0.58209">
        <ele>186.4</ele>
        <time>2014-05-27T13:15:01Z</time>
      </trkpt>
      <trkpt lat="48.66856" lon="-0.58192">
        <ele>186.8</ele>
        <time>2014-05-27T13:15:08Z</time>
      </trkpt>
      <trkpt lat="48.66835" lon="-0.58177">
        <ele>186.4</ele>
        <time>2014-05-27T13:15:13Z</time>
      </trkpt>
      <trkpt lat="48.66809" lon="-0.58159">
        <ele>186.6</ele>
        <time>2014-05-27T13:15:18Z</time>
      </trkpt>
      <trkpt lat="48.6677" lon="-0.58129">
        <ele>187.2</ele>
        <time>2014-05-27T13:15:26Z</time>
      </trkpt>
      <trkpt lat="48.6675" lon="-0.58115">
        <ele>187.2</ele>
        <time>2014-05-27T13:15:30Z</time>
      </trkpt>
      <trkpt lat="48.66739" lon="-0.58108">
        <ele>187</ele>
        <time>2014-05-27T13:15:32Z</time>
      </trkpt>
      <trkpt lat="48.66722" lon="-0.58092">
        <ele>187</ele>
        <time>2014-05-27T13:15:36Z</time>
      </trkpt>
      <trkpt lat="48.66704" lon="-0.58073">
        <ele>186.8</ele>
        <time>2014-05-27T13:15:40Z</time>
      </trkpt>
      <trkpt lat="48.6668" lon="-0.58047">
        <ele>186.4</ele>
        <time>2014-05-27T13:15:46Z</time>
      </trkpt>
      <trkpt lat="48.66658" lon="-0.58025">
        <ele>186.4</ele>
        <time>2014-05-27T13:15:52Z</time>
      </trkpt>
      <trkpt lat="48.66627" lon="-0.58013">
        <ele>186</ele>
        <time>2014-05-27T13:15:57Z</time>
      </trkpt>
      <trkpt lat="48.66611" lon="-0.58012">
        <ele>186</ele>
        <time>2014-05-27T13:15:59Z</time>
      </trkpt>
      <trkpt lat="48.6658" lon="-0.58005">
        <ele>186.2</ele>
        <time>2014-05-27T13:16:03Z</time>
      </trkpt>
      <trkpt lat="48.66555" lon="-0.57998">
        <ele>186.2</ele>
        <time>2014-05-27T13:16:07Z</time>
      </trkpt>
      <trkpt lat="48.66523" lon="-0.57989">
        <ele>186</ele>
        <time>2014-05-27T13:16:14Z</time>
      </trkpt>
      <trkpt lat="48.66503" lon="-0.57986">
        <ele>186</ele>
        <time>2014-05-27T13:16:18Z</time>
      </trkpt>
      <trkpt lat="48.66468" lon="-0.57978">
        <ele>185.8</ele>
        <time>2014-05-27T13:16:25Z</time>
      </trkpt>
      <trkpt lat="48.66407" lon="-0.5798">
        <ele>185.4</ele>
        <time>2014-05-27T13:16:36Z</time>
      </trkpt>
      <trkpt lat="48.66394" lon="-0.57981">
        <ele>185.2</ele>
        <time>2014-05-27T13:16:38Z</time>
      </trkpt>
      <trkpt lat="48.6638" lon="-0.5798">
        <ele>185</ele>
        <time>2014-05-27T13:16:41Z</time>
      </trkpt>
      <trkpt lat="48.66354" lon="-0.57981">
        <ele>185</ele>
        <time>2014-05-27T13:16:46Z</time>
      </trkpt>
      <trkpt lat="48.66328" lon="-0.57984">
        <ele>184.8</ele>
        <time>2014-05-27T13:16:51Z</time>
      </trkpt>
      <trkpt lat="48.66316" lon="-0.57986">
        <ele>184.8</ele>
        <time>2014-05-27T13:16:53Z</time>
      </trkpt>
      <trkpt lat="48.66297" lon="-0.57988">
        <ele>184.8</ele>
        <time>2014-05-27T13:16:56Z</time>
      </trkpt>
      <trkpt lat="48.66281" lon="-0.57988">
        <ele>184.6</ele>
        <time>2014-05-27T13:16:59Z</time>
      </trkpt>
      <trkpt lat="48.6622" lon="-0.57995">
        <ele>184.4</ele>
        <time>2014-05-27T13:17:09Z</time>
      </trkpt>
      <trkpt lat="48.66179" lon="-0.57998">
        <ele>184</ele>
        <time>2014-05-27T13:17:16Z</time>
      </trkpt>
      <trkpt lat="48.66135" lon="-0.58002">
        <ele>183.6</ele>
        <time>2014-05-27T13:17:23Z</time>
      </trkpt>
      <trkpt lat="48.66086" lon="-0.58005">
        <ele>183.4</ele>
        <time>2014-05-27T13:17:31Z</time>
      </trkpt>
      <trkpt lat="48.66074" lon="-0.58006">
        <ele>183.4</ele>
        <time>2014-05-27T13:17:33Z</time>
      </trkpt>
      <trkpt lat="48.66044" lon="-0.58005">
        <ele>183</ele>
        <time>2014-05-27T13:17:39Z</time>
      </trkpt>
      <trkpt lat="48.66035" lon="-0.58006">
        <ele>183</ele>
        <time>2014-05-27T13:17:41Z</time>
      </trkpt>
      <trkpt lat="48.6599" lon="-0.58012">
        <ele>182.8</ele>
        <time>2014-05-27T13:17:50Z</time>
      </trkpt>
      <trkpt lat="48.65985" lon="-0.58013">
        <ele>182.6</ele>
        <time>2014-05-27T13:17:51Z</time>
      </trkpt>
      <trkpt lat="48.65961" lon="-0.58016">
        <ele>182.6</ele>
        <time>2014-05-27T13:17:56Z</time>
      </trkpt>
      <trkpt lat="48.6592" lon="-0.58015">
        <ele>183</ele>
        <time>2014-05-27T13:18:08Z</time>
      </trkpt>
      <trkpt lat="48.65882" lon="-0.58022">
        <ele>182.6</ele>
        <time>2014-05-27T13:18:16Z</time>
      </trkpt>
      <trkpt lat="48.65871" lon="-0.58023">
        <ele>182.6</ele>
        <time>2014-05-27T13:18:18Z</time>
      </trkpt>
      <trkpt lat="48.65855" lon="-0.58024">
        <ele>182.4</ele>
        <time>2014-05-27T13:18:21Z</time>
      </trkpt>
      <trkpt lat="48.65803" lon="-0.58025">
        <ele>182</ele>
        <time>2014-05-27T13:18:32Z</time>
      </trkpt>
      <trkpt lat="48.65798" lon="-0.58026">
        <ele>182</ele>
        <time>2014-05-27T13:18:33Z</time>
      </trkpt>
      <trkpt lat="48.65734" lon="-0.58034">
        <ele>181.6</ele>
        <time>2014-05-27T13:18:45Z</time>
      </trkpt>
      <trkpt lat="48.65699" lon="-0.58039">
        <ele>181.4</ele>
        <time>2014-05-27T13:18:51Z</time>
      </trkpt>
      <trkpt lat="48.65672" lon="-0.58038">
        <ele>181.4</ele>
        <time>2014-05-27T13:18:56Z</time>
      </trkpt>
      <trkpt lat="48.65635" lon="-0.58043">
        <ele>181.4</ele>
        <time>2014-05-27T13:19:02Z</time>
      </trkpt>
      <trkpt lat="48.65579" lon="-0.58046">
        <ele>181.6</ele>
        <time>2014-05-27T13:19:12Z</time>
      </trkpt>
      <trkpt lat="48.65562" lon="-0.58048">
        <ele>181.4</ele>
        <time>2014-05-27T13:19:15Z</time>
      </trkpt>
      <trkpt lat="48.65538" lon="-0.58049">
        <ele>181.2</ele>
        <time>2014-05-27T13:19:20Z</time>
      </trkpt>
      <trkpt lat="48.65527" lon="-0.58051">
        <ele>181.2</ele>
        <time>2014-05-27T13:19:22Z</time>
      </trkpt>
      <trkpt lat="48.65503" lon="-0.58056">
        <ele>181.4</ele>
        <time>2014-05-27T13:19:26Z</time>
      </trkpt>
      <trkpt lat="48.65475" lon="-0.5806">
        <ele>181.2</ele>
        <time>2014-05-27T13:19:32Z</time>
      </trkpt>
      <trkpt lat="48.65463" lon="-0.5806">
        <ele>181.2</ele>
        <time>2014-05-27T13:19:35Z</time>
      </trkpt>
      <trkpt lat="48.65458" lon="-0.58062">
        <ele>181.2</ele>
        <time>2014-05-27T13:19:36Z</time>
      </trkpt>
      <trkpt lat="48.65411" lon="-0.58075">
        <ele>181</ele>
        <time>2014-05-27T13:19:47Z</time>
      </trkpt>
      <trkpt lat="48.65347" lon="-0.581">
        <ele>180.8</ele>
        <time>2014-05-27T13:19:57Z</time>
      </trkpt>
      <trkpt lat="48.65342" lon="-0.58103">
        <ele>180.8</ele>
        <time>2014-05-27T13:19:58Z</time>
      </trkpt>
      <trkpt lat="48.65319" lon="-0.58112">
        <ele>180.6</ele>
        <time>2014-05-27T13:20:02Z</time>
      </trkpt>
      <trkpt lat="48.65304" lon="-0.58118">
        <ele>180.4</ele>
        <time>2014-05-27T13:20:05Z</time>
      </trkpt>
      <trkpt lat="48.65285" lon="-0.58128">
        <ele>180</ele>
        <time>2014-05-27T13:20:09Z</time>
      </trkpt>
      <trkpt lat="48.65281" lon="-0.5813">
        <ele>180</ele>
        <time>2014-05-27T13:20:10Z</time>
      </trkpt>
      <trkpt lat="48.65272" lon="-0.58135">
        <ele>180</ele>
        <time>2014-05-27T13:20:12Z</time>
      </trkpt>
      <trkpt lat="48.65248" lon="-0.58141">
        <ele>180.2</ele>
        <time>2014-05-27T13:20:17Z</time>
      </trkpt>
      <trkpt lat="48.65242" lon="-0.58142">
        <ele>180.2</ele>
        <time>2014-05-27T13:20:18Z</time>
      </trkpt>
      <trkpt lat="48.65233" lon="-0.58144">
        <ele>180</ele>
        <time>2014-05-27T13:20:20Z</time>
      </trkpt>
      <trkpt lat="48.65212" lon="-0.58144">
        <ele>179.8</ele>
        <time>2014-05-27T13:20:24Z</time>
      </trkpt>
      <trkpt lat="48.65198" lon="-0.58147">
        <ele>179.6</ele>
        <time>2014-05-27T13:20:26Z</time>
      </trkpt>
      <trkpt lat="48.65177" lon="-0.58147">
        <ele>179.6</ele>
        <time>2014-05-27T13:20:30Z</time>
      </trkpt>
      <trkpt lat="48.65126" lon="-0.58143">
        <ele>179.8</ele>
        <time>2014-05-27T13:20:41Z</time>
      </trkpt>
      <trkpt lat="48.65098" lon="-0.58141">
        <ele>179.8</ele>
        <time>2014-05-27T13:20:46Z</time>
      </trkpt>
      <trkpt lat="48.65093" lon="-0.5814">
        <ele>179.8</ele>
        <time>2014-05-27T13:20:47Z</time>
      </trkpt>
      <trkpt lat="48.65089" lon="-0.58139">
        <ele>179.8</ele>
        <time>2014-05-27T13:20:48Z</time>
      </trkpt>
      <trkpt lat="48.65048" lon="-0.58127">
        <ele>179.6</ele>
        <time>2014-05-27T13:20:55Z</time>
      </trkpt>
      <trkpt lat="48.65012" lon="-0.58113">
        <ele>180</ele>
        <time>2014-05-27T13:21:04Z</time>
      </trkpt>
      <trkpt lat="48.64984" lon="-0.58105">
        <ele>179.8</ele>
        <time>2014-05-27T13:21:14Z</time>
      </trkpt>
      <trkpt lat="48.64966" lon="-0.58092">
        <ele>179.8</ele>
        <time>2014-05-27T13:21:27Z</time>
      </trkpt>
      <trkpt lat="48.64965" lon="-0.58091">
        <ele>179.8</ele>
        <time>2014-05-27T13:21:28Z</time>
      </trkpt>
      <trkpt lat="48.64958" lon="-0.5809">
        <ele>180</ele>
        <time>2014-05-27T13:21:32Z</time>
      </trkpt>
      <trkpt lat="48.64956" lon="-0.5809">
        <ele>180.2</ele>
        <time>2014-05-27T13:21:33Z</time>
      </trkpt>
      <trkpt lat="48.64954" lon="-0.58089">
        <ele>180.2</ele>
        <time>2014-05-27T13:21:34Z</time>
      </trkpt>
      <trkpt lat="48.64952" lon="-0.58088">
        <ele>180.2</ele>
        <time>2014-05-27T13:21:35Z</time>
      </trkpt>
      <trkpt lat="48.6495" lon="-0.58087">
        <ele>180.2</ele>
        <time>2014-05-27T13:21:36Z</time>
      </trkpt>
      <trkpt lat="48.64948" lon="-0.58085">
        <ele>180.2</ele>
        <time>2014-05-27T13:21:37Z</time>
      </trkpt>
      <trkpt lat="48.64945" lon="-0.58086">
        <ele>180.4</ele>
        <time>2014-05-27T13:21:38Z</time>
      </trkpt>
      <trkpt lat="48.64944" lon="-0.58089">
        <ele>180.2</ele>
        <time>2014-05-27T13:21:39Z</time>
      </trkpt>
      <trkpt lat="48.64943" lon="-0.58091">
        <ele>180.2</ele>
        <time>2014-05-27T13:21:40Z</time>
      </trkpt>
      <trkpt lat="48.64942" lon="-0.58092">
        <ele>180.2</ele>
        <time>2014-05-27T13:21:41Z</time>
      </trkpt>
      <trkpt lat="48.64941" lon="-0.58092">
        <ele>180</ele>
        <time>2014-05-27T13:21:42Z</time>
      </trkpt>
      <trkpt lat="48.6494" lon="-0.58091">
        <ele>180</ele>
        <time>2014-05-27T13:21:43Z</time>
      </trkpt>
      <trkpt lat="48.64938" lon="-0.58089">
        <ele>180</ele>
        <time>2014-05-27T13:21:44Z</time>
      </trkpt>
      <trkpt lat="48.64912" lon="-0.58075">
        <ele>179.6</ele>
        <time>2014-05-27T13:21:52Z</time>
      </trkpt>
      <trkpt lat="48.64908" lon="-0.58073">
        <ele>179.6</ele>
        <time>2014-05-27T13:21:53Z</time>
      </trkpt>
      <trkpt lat="48.64904" lon="-0.58072">
        <ele>179.6</ele>
        <time>2014-05-27T13:21:54Z</time>
      </trkpt>
      <trkpt lat="48.64901" lon="-0.58071">
        <ele>179.6</ele>
        <time>2014-05-27T13:21:55Z</time>
      </trkpt>
      <trkpt lat="48.64897" lon="-0.5807">
        <ele>179.4</ele>
        <time>2014-05-27T13:21:56Z</time>
      </trkpt>
      <trkpt lat="48.64895" lon="-0.58068">
        <ele>179.4</ele>
        <time>2014-05-27T13:21:57Z</time>
      </trkpt>
      <trkpt lat="48.64892" lon="-0.58065">
        <ele>179.4</ele>
        <time>2014-05-27T13:21:58Z</time>
      </trkpt>
      <trkpt lat="48.64889" lon="-0.58064">
        <ele>179.4</ele>
        <time>2014-05-27T13:21:59Z</time>
      </trkpt>
      <trkpt lat="48.64868" lon="-0.58058">
        <ele>179.4</ele>
        <time>2014-05-27T13:22:04Z</time>
      </trkpt>
      <trkpt lat="48.64864" lon="-0.58057">
        <ele>179.4</ele>
        <time>2014-05-27T13:22:05Z</time>
      </trkpt>
      <trkpt lat="48.64859" lon="-0.58057">
        <ele>179.4</ele>
        <time>2014-05-27T13:22:06Z</time>
      </trkpt>
      <trkpt lat="48.64855" lon="-0.58055">
        <ele>179.4</ele>
        <time>2014-05-27T13:22:07Z</time>
      </trkpt>
      <trkpt lat="48.64851" lon="-0.58054">
        <ele>179.4</ele>
        <time>2014-05-27T13:22:08Z</time>
      </trkpt>
      <trkpt lat="48.64847" lon="-0.58052">
        <ele>179.6</ele>
        <time>2014-05-27T13:22:09Z</time>
      </trkpt>
      <trkpt lat="48.64843" lon="-0.5805">
        <ele>179.4</ele>
        <time>2014-05-27T13:22:10Z</time>
      </trkpt>
      <trkpt lat="48.6484" lon="-0.58048">
        <ele>179.4</ele>
        <time>2014-05-27T13:22:11Z</time>
      </trkpt>
      <trkpt lat="48.64836" lon="-0.58047">
        <ele>179.4</ele>
        <time>2014-05-27T13:22:12Z</time>
      </trkpt>
      <trkpt lat="48.64811" lon="-0.58038">
        <ele>179.4</ele>
        <time>2014-05-27T13:22:17Z</time>
      </trkpt>
      <trkpt lat="48.64806" lon="-0.58036">
        <ele>179.4</ele>
        <time>2014-05-27T13:22:18Z</time>
      </trkpt>
      <trkpt lat="48.64801" lon="-0.58034">
        <ele>179.4</ele>
        <time>2014-05-27T13:22:19Z</time>
      </trkpt>
      <trkpt lat="48.64782" lon="-0.58025">
        <ele>179.4</ele>
        <time>2014-05-27T13:22:23Z</time>
      </trkpt>
      <trkpt lat="48.64757" lon="-0.58016">
        <ele>179.8</ele>
        <time>2014-05-27T13:22:28Z</time>
      </trkpt>
      <trkpt lat="48.6471" lon="-0.57996">
        <ele>179.6</ele>
        <time>2014-05-27T13:22:38Z</time>
      </trkpt>
      <trkpt lat="48.6469" lon="-0.5799">
        <ele>179.6</ele>
        <time>2014-05-27T13:22:42Z</time>
      </trkpt>
      <trkpt lat="48.64678" lon="-0.57986">
        <ele>179.6</ele>
        <time>2014-05-27T13:22:44Z</time>
      </trkpt>
      <trkpt lat="48.64658" lon="-0.57982">
        <ele>179.6</ele>
        <time>2014-05-27T13:22:48Z</time>
      </trkpt>
      <trkpt lat="48.64646" lon="-0.57981">
        <ele>179.6</ele>
        <time>2014-05-27T13:22:50Z</time>
      </trkpt>
      <trkpt lat="48.64633" lon="-0.57981">
        <ele>179.6</ele>
        <time>2014-05-27T13:22:52Z</time>
      </trkpt>
      <trkpt lat="48.64612" lon="-0.57982">
        <ele>179.4</ele>
        <time>2014-05-27T13:22:56Z</time>
      </trkpt>
      <trkpt lat="48.64594" lon="-0.57982">
        <ele>179.2</ele>
        <time>2014-05-27T13:23:01Z</time>
      </trkpt>
      <trkpt lat="48.64546" lon="-0.57994">
        <ele>178.6</ele>
        <time>2014-05-27T13:23:12Z</time>
      </trkpt>
      <trkpt lat="48.64517" lon="-0.58007">
        <ele>178.4</ele>
        <time>2014-05-27T13:23:17Z</time>
      </trkpt>
      <trkpt lat="48.64479" lon="-0.58029">
        <ele>178.2</ele>
        <time>2014-05-27T13:23:25Z</time>
      </trkpt>
      <trkpt lat="48.64448" lon="-0.58057">
        <ele>178.6</ele>
        <time>2014-05-27T13:23:33Z</time>
      </trkpt>
      <trkpt lat="48.64434" lon="-0.58067">
        <ele>178.8</ele>
        <time>2014-05-27T13:23:38Z</time>
      </trkpt>
      <trkpt lat="48.64424" lon="-0.58074">
        <ele>179</ele>
        <time>2014-05-27T13:23:42Z</time>
      </trkpt>
      <trkpt lat="48.64388" lon="-0.58116">
        <ele>178.4</ele>
        <time>2014-05-27T13:23:51Z</time>
      </trkpt>
      <trkpt lat="48.64374" lon="-0.58137">
        <ele>178.2</ele>
        <time>2014-05-27T13:23:55Z</time>
      </trkpt>
      <trkpt lat="48.64369" lon="-0.58143">
        <ele>178</ele>
        <time>2014-05-27T13:23:56Z</time>
      </trkpt>
      <trkpt lat="48.64363" lon="-0.58149">
        <ele>178</ele>
        <time>2014-05-27T13:23:57Z</time>
      </trkpt>
      <trkpt lat="48.64355" lon="-0.58161">
        <ele>177.8</ele>
        <time>2014-05-27T13:23:59Z</time>
      </trkpt>
      <trkpt lat="48.64351" lon="-0.58167">
        <ele>177.8</ele>
        <time>2014-05-27T13:24:00Z</time>
      </trkpt>
      <trkpt lat="48.64333" lon="-0.58192">
        <ele>177.6</ele>
        <time>2014-05-27T13:24:04Z</time>
      </trkpt>
      <trkpt lat="48.64307" lon="-0.58235">
        <ele>177.4</ele>
        <time>2014-05-27T13:24:10Z</time>
      </trkpt>
      <trkpt lat="48.64284" lon="-0.58276">
        <ele>177</ele>
        <time>2014-05-27T13:24:16Z</time>
      </trkpt>
      <trkpt lat="48.64281" lon="-0.58283">
        <ele>177</ele>
        <time>2014-05-27T13:24:17Z</time>
      </trkpt>
      <trkpt lat="48.64277" lon="-0.58291">
        <ele>177</ele>
        <time>2014-05-27T13:24:18Z</time>
      </trkpt>
      <trkpt lat="48.6425" lon="-0.58335">
        <ele>176.6</ele>
        <time>2014-05-27T13:24:24Z</time>
      </trkpt>
      <trkpt lat="48.6424" lon="-0.58354">
        <ele>176.6</ele>
        <time>2014-05-27T13:24:27Z</time>
      </trkpt>
      <trkpt lat="48.64236" lon="-0.58361">
        <ele>176.6</ele>
        <time>2014-05-27T13:24:28Z</time>
      </trkpt>
      <trkpt lat="48.64225" lon="-0.58381">
        <ele>176.6</ele>
        <time>2014-05-27T13:24:31Z</time>
      </trkpt>
      <trkpt lat="48.64218" lon="-0.58396">
        <ele>176.4</ele>
        <time>2014-05-27T13:24:33Z</time>
      </trkpt>
      <trkpt lat="48.64215" lon="-0.58404">
        <ele>176.2</ele>
        <time>2014-05-27T13:24:34Z</time>
      </trkpt>
      <trkpt lat="48.64204" lon="-0.58425">
        <ele>176</ele>
        <time>2014-05-27T13:24:37Z</time>
      </trkpt>
      <trkpt lat="48.6418" lon="-0.58465">
        <ele>175.8</ele>
        <time>2014-05-27T13:24:43Z</time>
      </trkpt>
      <trkpt lat="48.64176" lon="-0.58473">
        <ele>175.8</ele>
        <time>2014-05-27T13:24:44Z</time>
      </trkpt>
      <trkpt lat="48.64173" lon="-0.5848">
        <ele>175.6</ele>
        <time>2014-05-27T13:24:45Z</time>
      </trkpt>
      <trkpt lat="48.64157" lon="-0.58504">
        <ele>175.6</ele>
        <time>2014-05-27T13:24:49Z</time>
      </trkpt>
      <trkpt lat="48.64138" lon="-0.58544">
        <ele>175.6</ele>
        <time>2014-05-27T13:24:55Z</time>
      </trkpt>
      <trkpt lat="48.64136" lon="-0.5855">
        <ele>175.4</ele>
        <time>2014-05-27T13:24:56Z</time>
      </trkpt>
      <trkpt lat="48.64129" lon="-0.58563">
        <ele>175.4</ele>
        <time>2014-05-27T13:24:58Z</time>
      </trkpt>
      <trkpt lat="48.64116" lon="-0.58586">
        <ele>175.4</ele>
        <time>2014-05-27T13:25:02Z</time>
      </trkpt>
      <trkpt lat="48.64114" lon="-0.58591">
        <ele>175.4</ele>
        <time>2014-05-27T13:25:03Z</time>
      </trkpt>
      <trkpt lat="48.64112" lon="-0.58597">
        <ele>175.6</ele>
        <time>2014-05-27T13:25:04Z</time>
      </trkpt>
      <trkpt lat="48.64111" lon="-0.58603">
        <ele>175.6</ele>
        <time>2014-05-27T13:25:05Z</time>
      </trkpt>
      <trkpt lat="48.64109" lon="-0.58608">
        <ele>175.6</ele>
        <time>2014-05-27T13:25:06Z</time>
      </trkpt>
      <trkpt lat="48.64106" lon="-0.58612">
        <ele>175.6</ele>
        <time>2014-05-27T13:25:07Z</time>
      </trkpt>
      <trkpt lat="48.64104" lon="-0.58615">
        <ele>175.4</ele>
        <time>2014-05-27T13:25:08Z</time>
      </trkpt>
      <trkpt lat="48.6409" lon="-0.5865">
        <ele>175.4</ele>
        <time>2014-05-27T13:25:17Z</time>
      </trkpt>
      <trkpt lat="48.64072" lon="-0.58687">
        <ele>175.4</ele>
        <time>2014-05-27T13:25:28Z</time>
      </trkpt>
      <trkpt lat="48.64037" lon="-0.58753">
        <ele>175</ele>
        <time>2014-05-27T13:25:40Z</time>
      </trkpt>
      <trkpt lat="48.64029" lon="-0.58766">
        <ele>175</ele>
        <time>2014-05-27T13:25:42Z</time>
      </trkpt>
      <trkpt lat="48.64025" lon="-0.58772">
        <ele>175</ele>
        <time>2014-05-27T13:25:43Z</time>
      </trkpt>
      <trkpt lat="48.63987" lon="-0.5884">
        <ele>175.2</ele>
        <time>2014-05-27T13:25:54Z</time>
      </trkpt>
      <trkpt lat="48.63985" lon="-0.58847">
        <ele>175.2</ele>
        <time>2014-05-27T13:25:55Z</time>
      </trkpt>
      <trkpt lat="48.63981" lon="-0.58853">
        <ele>175.2</ele>
        <time>2014-05-27T13:25:56Z</time>
      </trkpt>
      <trkpt lat="48.63978" lon="-0.5886">
        <ele>175.2</ele>
        <time>2014-05-27T13:25:57Z</time>
      </trkpt>
      <trkpt lat="48.63975" lon="-0.58866">
        <ele>175.2</ele>
        <time>2014-05-27T13:25:58Z</time>
      </trkpt>
      <trkpt lat="48.63972" lon="-0.58872">
        <ele>175.2</ele>
        <time>2014-05-27T13:25:59Z</time>
      </trkpt>
      <trkpt lat="48.63968" lon="-0.58879">
        <ele>175.2</ele>
        <time>2014-05-27T13:26:00Z</time>
      </trkpt>
      <trkpt lat="48.63964" lon="-0.58886">
        <ele>175.2</ele>
        <time>2014-05-27T13:26:01Z</time>
      </trkpt>
      <trkpt lat="48.63958" lon="-0.58901">
        <ele>175</ele>
        <time>2014-05-27T13:26:04Z</time>
      </trkpt>
      <trkpt lat="48.6394" lon="-0.58932">
        <ele>175</ele>
        <time>2014-05-27T13:26:09Z</time>
      </trkpt>
      <trkpt lat="48.63929" lon="-0.58951">
        <ele>175</ele>
        <time>2014-05-27T13:26:12Z</time>
      </trkpt>
      <trkpt lat="48.63918" lon="-0.5897">
        <ele>175.2</ele>
        <time>2014-05-27T13:26:15Z</time>
      </trkpt>
      <trkpt lat="48.63914" lon="-0.58983">
        <ele>175.2</ele>
        <time>2014-05-27T13:26:17Z</time>
      </trkpt>
      <trkpt lat="48.63906" lon="-0.58997">
        <ele>175.2</ele>
        <time>2014-05-27T13:26:19Z</time>
      </trkpt>
      <trkpt lat="48.63894" lon="-0.59014">
        <ele>175.2</ele>
        <time>2014-05-27T13:26:21Z</time>
      </trkpt>
      <trkpt lat="48.63885" lon="-0.5903">
        <ele>175.2</ele>
        <time>2014-05-27T13:26:23Z</time>
      </trkpt>
      <trkpt lat="48.63839" lon="-0.59108">
        <ele>175.4</ele>
        <time>2014-05-27T13:26:34Z</time>
      </trkpt>
      <trkpt lat="48.63828" lon="-0.59128">
        <ele>175.2</ele>
        <time>2014-05-27T13:26:37Z</time>
      </trkpt>
      <trkpt lat="48.63821" lon="-0.59137">
        <ele>175.2</ele>
        <time>2014-05-27T13:26:39Z</time>
      </trkpt>
      <trkpt lat="48.63782" lon="-0.59192">
        <ele>174.8</ele>
        <time>2014-05-27T13:26:49Z</time>
      </trkpt>
      <trkpt lat="48.63779" lon="-0.59198">
        <ele>174.8</ele>
        <time>2014-05-27T13:26:50Z</time>
      </trkpt>
      <trkpt lat="48.63746" lon="-0.59234">
        <ele>175</ele>
        <time>2014-05-27T13:26:57Z</time>
      </trkpt>
      <trkpt lat="48.63737" lon="-0.59242">
        <ele>175.2</ele>
        <time>2014-05-27T13:26:59Z</time>
      </trkpt>
      <trkpt lat="48.63718" lon="-0.59259">
        <ele>175.2</ele>
        <time>2014-05-27T13:27:03Z</time>
      </trkpt>
      <trkpt lat="48.63696" lon="-0.59277">
        <ele>175.2</ele>
        <time>2014-05-27T13:27:08Z</time>
      </trkpt>
      <trkpt lat="48.63682" lon="-0.59288">
        <ele>175.2</ele>
        <time>2014-05-27T13:27:11Z</time>
      </trkpt>
      <trkpt lat="48.63648" lon="-0.59316">
        <ele>175.6</ele>
        <time>2014-05-27T13:27:19Z</time>
      </trkpt>
      <trkpt lat="48.63634" lon="-0.59326">
        <ele>175.4</ele>
        <time>2014-05-27T13:27:22Z</time>
      </trkpt>
      <trkpt lat="48.63601" lon="-0.5935">
        <ele>175.4</ele>
        <time>2014-05-27T13:27:28Z</time>
      </trkpt>
      <trkpt lat="48.6359" lon="-0.59358">
        <ele>175.2</ele>
        <time>2014-05-27T13:27:30Z</time>
      </trkpt>
      <trkpt lat="48.63568" lon="-0.59377">
        <ele>174.6</ele>
        <time>2014-05-27T13:27:35Z</time>
      </trkpt>
      <trkpt lat="48.63533" lon="-0.59401">
        <ele>174.2</ele>
        <time>2014-05-27T13:27:42Z</time>
      </trkpt>
      <trkpt lat="48.63503" lon="-0.59414">
        <ele>173.6</ele>
        <time>2014-05-27T13:27:49Z</time>
      </trkpt>
      <trkpt lat="48.6347" lon="-0.59441">
        <ele>173</ele>
        <time>2014-05-27T13:27:56Z</time>
      </trkpt>
      <trkpt lat="48.63449" lon="-0.59463">
        <ele>172.8</ele>
        <time>2014-05-27T13:28:00Z</time>
      </trkpt>
      <trkpt lat="48.63434" lon="-0.59477">
        <ele>172.6</ele>
        <time>2014-05-27T13:28:03Z</time>
      </trkpt>
      <trkpt lat="48.63416" lon="-0.59497">
        <ele>172</ele>
        <time>2014-05-27T13:28:08Z</time>
      </trkpt>
      <trkpt lat="48.63377" lon="-0.59522">
        <ele>171.4</ele>
        <time>2014-05-27T13:28:19Z</time>
      </trkpt>
      <trkpt lat="48.63346" lon="-0.59544">
        <ele>170.6</ele>
        <time>2014-05-27T13:28:27Z</time>
      </trkpt>
      <trkpt lat="48.63311" lon="-0.59566">
        <ele>170</ele>
        <time>2014-05-27T13:28:34Z</time>
      </trkpt>
      <trkpt lat="48.63285" lon="-0.59573">
        <ele>169.8</ele>
        <time>2014-05-27T13:28:37Z</time>
      </trkpt>
      <trkpt lat="48.63265" lon="-0.59581">
        <ele>169.4</ele>
        <time>2014-05-27T13:28:41Z</time>
      </trkpt>
      <trkpt lat="48.6323" lon="-0.59612">
        <ele>168</ele>
        <time>2014-05-27T13:28:51Z</time>
      </trkpt>
      <trkpt lat="48.63227" lon="-0.59617">
        <ele>168</ele>
        <time>2014-05-27T13:28:52Z</time>
      </trkpt>
      <trkpt lat="48.6319" lon="-0.59656">
        <ele>168.2</ele>
        <time>2014-05-27T13:29:05Z</time>
      </trkpt>
      <trkpt lat="48.63184" lon="-0.59662">
        <ele>168.2</ele>
        <time>2014-05-27T13:29:07Z</time>
      </trkpt>
      <trkpt lat="48.63181" lon="-0.59663">
        <ele>168.2</ele>
        <time>2014-05-27T13:29:08Z</time>
      </trkpt>
      <trkpt lat="48.63157" lon="-0.59677">
        <ele>168</ele>
        <time>2014-05-27T13:29:13Z</time>
      </trkpt>
      <trkpt lat="48.63126" lon="-0.59695">
        <ele>167.6</ele>
        <time>2014-05-27T13:29:19Z</time>
      </trkpt>
      <trkpt lat="48.63093" lon="-0.59715">
        <ele>166.8</ele>
        <time>2014-05-27T13:29:27Z</time>
      </trkpt>
      <trkpt lat="48.63058" lon="-0.59729">
        <ele>166</ele>
        <time>2014-05-27T13:29:34Z</time>
      </trkpt>
      <trkpt lat="48.63047" lon="-0.5973">
        <ele>165.8</ele>
        <time>2014-05-27T13:29:36Z</time>
      </trkpt>
      <trkpt lat="48.63022" lon="-0.5973">
        <ele>165.2</ele>
        <time>2014-05-27T13:29:41Z</time>
      </trkpt>
      <trkpt lat="48.63014" lon="-0.59728">
        <ele>165</ele>
        <time>2014-05-27T13:29:43Z</time>
      </trkpt>
      <trkpt lat="48.62973" lon="-0.59729">
        <ele>164.4</ele>
        <time>2014-05-27T13:29:50Z</time>
      </trkpt>
      <trkpt lat="48.62949" lon="-0.59724">
        <ele>164</ele>
        <time>2014-05-27T13:29:54Z</time>
      </trkpt>
      <trkpt lat="48.6289" lon="-0.59715">
        <ele>163</ele>
        <time>2014-05-27T13:30:03Z</time>
      </trkpt>
      <trkpt lat="48.6286" lon="-0.5971">
        <ele>162.6</ele>
        <time>2014-05-27T13:30:07Z</time>
      </trkpt>
      <trkpt lat="48.62811" lon="-0.59695">
        <ele>161.4</ele>
        <time>2014-05-27T13:30:14Z</time>
      </trkpt>
      <trkpt lat="48.62794" lon="-0.59684">
        <ele>161</ele>
        <time>2014-05-27T13:30:17Z</time>
      </trkpt>
      <trkpt lat="48.62774" lon="-0.59668">
        <ele>160.8</ele>
        <time>2014-05-27T13:30:21Z</time>
      </trkpt>
      <trkpt lat="48.62713" lon="-0.59641">
        <ele>159.8</ele>
        <time>2014-05-27T13:30:29Z</time>
      </trkpt>
      <trkpt lat="48.62678" lon="-0.59623">
        <ele>159.2</ele>
        <time>2014-05-27T13:30:34Z</time>
      </trkpt>
      <trkpt lat="48.62654" lon="-0.59607">
        <ele>158.6</ele>
        <time>2014-05-27T13:30:38Z</time>
      </trkpt>
      <trkpt lat="48.62631" lon="-0.59586">
        <ele>158.2</ele>
        <time>2014-05-27T13:30:43Z</time>
      </trkpt>
      <trkpt lat="48.62625" lon="-0.59586">
        <ele>158.2</ele>
        <time>2014-05-27T13:30:44Z</time>
      </trkpt>
      <trkpt lat="48.62621" lon="-0.59585">
        <ele>158.4</ele>
        <time>2014-05-27T13:30:45Z</time>
      </trkpt>
      <trkpt lat="48.62617" lon="-0.59583">
        <ele>158.4</ele>
        <time>2014-05-27T13:30:46Z</time>
      </trkpt>
      <trkpt lat="48.62613" lon="-0.59581">
        <ele>158.4</ele>
        <time>2014-05-27T13:30:47Z</time>
      </trkpt>
      <trkpt lat="48.62591" lon="-0.59564">
        <ele>158.8</ele>
        <time>2014-05-27T13:30:55Z</time>
      </trkpt>
      <trkpt lat="48.62579" lon="-0.59559">
        <ele>158.8</ele>
        <time>2014-05-27T13:30:57Z</time>
      </trkpt>
      <trkpt lat="48.62574" lon="-0.59555">
        <ele>158.6</ele>
        <time>2014-05-27T13:30:58Z</time>
      </trkpt>
      <trkpt lat="48.62552" lon="-0.59537">
        <ele>157.6</ele>
        <time>2014-05-27T13:31:02Z</time>
      </trkpt>
      <trkpt lat="48.62523" lon="-0.59511">
        <ele>157.4</ele>
        <time>2014-05-27T13:31:08Z</time>
      </trkpt>
      <trkpt lat="48.62508" lon="-0.59496">
        <ele>157.2</ele>
        <time>2014-05-27T13:31:11Z</time>
      </trkpt>
      <trkpt lat="48.62492" lon="-0.59485">
        <ele>157</ele>
        <time>2014-05-27T13:31:14Z</time>
      </trkpt>
      <trkpt lat="48.62464" lon="-0.5946">
        <ele>156.4</ele>
        <time>2014-05-27T13:31:20Z</time>
      </trkpt>
      <trkpt lat="48.62437" lon="-0.59441">
        <ele>156.2</ele>
        <time>2014-05-27T13:31:25Z</time>
      </trkpt>
      <trkpt lat="48.62418" lon="-0.59427">
        <ele>156</ele>
        <time>2014-05-27T13:31:29Z</time>
      </trkpt>
      <trkpt lat="48.62375" lon="-0.59402">
        <ele>155.6</ele>
        <time>2014-05-27T13:31:38Z</time>
      </trkpt>
      <trkpt lat="48.62359" lon="-0.59395">
        <ele>155.4</ele>
        <time>2014-05-27T13:31:41Z</time>
      </trkpt>
      <trkpt lat="48.6233" lon="-0.59387">
        <ele>154.8</ele>
        <time>2014-05-27T13:31:46Z</time>
      </trkpt>
      <trkpt lat="48.62318" lon="-0.59384">
        <ele>154.6</ele>
        <time>2014-05-27T13:31:48Z</time>
      </trkpt>
      <trkpt lat="48.62283" lon="-0.59376">
        <ele>154.8</ele>
        <time>2014-05-27T13:31:54Z</time>
      </trkpt>
      <trkpt lat="48.62266" lon="-0.59371">
        <ele>155</ele>
        <time>2014-05-27T13:31:57Z</time>
      </trkpt>
      <trkpt lat="48.62245" lon="-0.5937">
        <ele>155.2</ele>
        <time>2014-05-27T13:32:01Z</time>
      </trkpt>
      <trkpt lat="48.62227" lon="-0.59369">
        <ele>155.4</ele>
        <time>2014-05-27T13:32:05Z</time>
      </trkpt>
      <trkpt lat="48.62217" lon="-0.5937">
        <ele>155.4</ele>
        <time>2014-05-27T13:32:07Z</time>
      </trkpt>
      <trkpt lat="48.62152" lon="-0.5938">
        <ele>156</ele>
        <time>2014-05-27T13:32:20Z</time>
      </trkpt>
      <trkpt lat="48.62138" lon="-0.59383">
        <ele>156.2</ele>
        <time>2014-05-27T13:32:23Z</time>
      </trkpt>
      <trkpt lat="48.62132" lon="-0.59385">
        <ele>156.2</ele>
        <time>2014-05-27T13:32:24Z</time>
      </trkpt>
      <trkpt lat="48.62119" lon="-0.59391">
        <ele>156.4</ele>
        <time>2014-05-27T13:32:27Z</time>
      </trkpt>
      <trkpt lat="48.62098" lon="-0.59401">
        <ele>156.6</ele>
        <time>2014-05-27T13:32:32Z</time>
      </trkpt>
      <trkpt lat="48.62093" lon="-0.59403">
        <ele>156.6</ele>
        <time>2014-05-27T13:32:33Z</time>
      </trkpt>
      <trkpt lat="48.62088" lon="-0.59407">
        <ele>156.8</ele>
        <time>2014-05-27T13:32:34Z</time>
      </trkpt>
      <trkpt lat="48.62078" lon="-0.59413">
        <ele>156.8</ele>
        <time>2014-05-27T13:32:36Z</time>
      </trkpt>
      <trkpt lat="48.62074" lon="-0.59416">
        <ele>157</ele>
        <time>2014-05-27T13:32:37Z</time>
      </trkpt>
      <trkpt lat="48.6207" lon="-0.59419">
        <ele>157</ele>
        <time>2014-05-27T13:32:38Z</time>
      </trkpt>
      <trkpt lat="48.62065" lon="-0.59423">
        <ele>157</ele>
        <time>2014-05-27T13:32:39Z</time>
      </trkpt>
      <trkpt lat="48.62062" lon="-0.59426">
        <ele>157</ele>
        <time>2014-05-27T13:32:40Z</time>
      </trkpt>
      <trkpt lat="48.62054" lon="-0.59433">
        <ele>157</ele>
        <time>2014-05-27T13:32:42Z</time>
      </trkpt>
      <trkpt lat="48.6203" lon="-0.59454">
        <ele>157</ele>
        <time>2014-05-27T13:32:47Z</time>
      </trkpt>
      <trkpt lat="48.6202" lon="-0.59463">
        <ele>157</ele>
        <time>2014-05-27T13:32:49Z</time>
      </trkpt>
      <trkpt lat="48.61978" lon="-0.59508">
        <ele>156.4</ele>
        <time>2014-05-27T13:32:59Z</time>
      </trkpt>
      <trkpt lat="48.61928" lon="-0.59562">
        <ele>155.8</ele>
        <time>2014-05-27T13:33:10Z</time>
      </trkpt>
      <trkpt lat="48.6192" lon="-0.59572">
        <ele>155.8</ele>
        <time>2014-05-27T13:33:12Z</time>
      </trkpt>
      <trkpt lat="48.61905" lon="-0.59586">
        <ele>155.8</ele>
        <time>2014-05-27T13:33:16Z</time>
      </trkpt>
      <trkpt lat="48.61895" lon="-0.59604">
        <ele>155.6</ele>
        <time>2014-05-27T13:33:22Z</time>
      </trkpt>
      <trkpt lat="48.61875" lon="-0.59625">
        <ele>155.4</ele>
        <time>2014-05-27T13:33:30Z</time>
      </trkpt>
      <trkpt lat="48.61851" lon="-0.59646">
        <ele>154.6</ele>
        <time>2014-05-27T13:33:35Z</time>
      </trkpt>
      <trkpt lat="48.61816" lon="-0.5967">
        <ele>154.2</ele>
        <time>2014-05-27T13:33:42Z</time>
      </trkpt>
      <trkpt lat="48.61802" lon="-0.59679">
        <ele>154</ele>
        <time>2014-05-27T13:33:45Z</time>
      </trkpt>
      <trkpt lat="48.61797" lon="-0.59682">
        <ele>153.8</ele>
        <time>2014-05-27T13:33:46Z</time>
      </trkpt>
      <trkpt lat="48.61786" lon="-0.59688">
        <ele>153.8</ele>
        <time>2014-05-27T13:33:48Z</time>
      </trkpt>
      <trkpt lat="48.6178" lon="-0.59691">
        <ele>153.8</ele>
        <time>2014-05-27T13:33:49Z</time>
      </trkpt>
      <trkpt lat="48.6175" lon="-0.59704">
        <ele>153.4</ele>
        <time>2014-05-27T13:33:55Z</time>
      </trkpt>
      <trkpt lat="48.6174" lon="-0.59707">
        <ele>153.2</ele>
        <time>2014-05-27T13:33:57Z</time>
      </trkpt>
      <trkpt lat="48.61735" lon="-0.59709">
        <ele>153.2</ele>
        <time>2014-05-27T13:33:58Z</time>
      </trkpt>
      <trkpt lat="48.61729" lon="-0.59711">
        <ele>153.2</ele>
        <time>2014-05-27T13:33:59Z</time>
      </trkpt>
      <trkpt lat="48.61724" lon="-0.59713">
        <ele>153</ele>
        <time>2014-05-27T13:34:00Z</time>
      </trkpt>
      <trkpt lat="48.61713" lon="-0.59715">
        <ele>153</ele>
        <time>2014-05-27T13:34:02Z</time>
      </trkpt>
      <trkpt lat="48.617" lon="-0.59717">
        <ele>152.8</ele>
        <time>2014-05-27T13:34:04Z</time>
      </trkpt>
      <trkpt lat="48.61689" lon="-0.59718">
        <ele>152.8</ele>
        <time>2014-05-27T13:34:06Z</time>
      </trkpt>
      <trkpt lat="48.61632" lon="-0.5972">
        <ele>152.2</ele>
        <time>2014-05-27T13:34:15Z</time>
      </trkpt>
      <trkpt lat="48.61574" lon="-0.59717">
        <ele>150.8</ele>
        <time>2014-05-27T13:34:24Z</time>
      </trkpt>
      <trkpt lat="48.61512" lon="-0.59723">
        <ele>150.2</ele>
        <time>2014-05-27T13:34:34Z</time>
      </trkpt>
      <trkpt lat="48.61482" lon="-0.59728">
        <ele>150</ele>
        <time>2014-05-27T13:34:39Z</time>
      </trkpt>
      <trkpt lat="48.61442" lon="-0.59739">
        <ele>149.6</ele>
        <time>2014-05-27T13:34:46Z</time>
      </trkpt>
      <trkpt lat="48.61387" lon="-0.59769">
        <ele>149.2</ele>
        <time>2014-05-27T13:34:56Z</time>
      </trkpt>
      <trkpt lat="48.61358" lon="-0.5979">
        <ele>148.6</ele>
        <time>2014-05-27T13:35:02Z</time>
      </trkpt>
      <trkpt lat="48.61317" lon="-0.59831">
        <ele>148</ele>
        <time>2014-05-27T13:35:10Z</time>
      </trkpt>
      <trkpt lat="48.61272" lon="-0.59888">
        <ele>147.6</ele>
        <time>2014-05-27T13:35:20Z</time>
      </trkpt>
      <trkpt lat="48.61238" lon="-0.59944">
        <ele>146.6</ele>
        <time>2014-05-27T13:35:28Z</time>
      </trkpt>
      <trkpt lat="48.61141" lon="-0.60067">
        <ele>146</ele>
        <time>2014-05-27T13:35:38Z</time>
      </trkpt>
      <trkpt lat="48.61126" lon="-0.60106">
        <ele>145.6</ele>
        <time>2014-05-27T13:35:43Z</time>
      </trkpt>
      <trkpt lat="48.61123" lon="-0.60113">
        <ele>145.6</ele>
        <time>2014-05-27T13:35:44Z</time>
      </trkpt>
      <trkpt lat="48.61121" lon="-0.60119">
        <ele>145.6</ele>
        <time>2014-05-27T13:35:45Z</time>
      </trkpt>
      <trkpt lat="48.61116" lon="-0.60124">
        <ele>145.6</ele>
        <time>2014-05-27T13:35:46Z</time>
      </trkpt>
      <trkpt lat="48.61113" lon="-0.60128">
        <ele>145.6</ele>
        <time>2014-05-27T13:35:47Z</time>
      </trkpt>
      <trkpt lat="48.61111" lon="-0.60132">
        <ele>145.4</ele>
        <time>2014-05-27T13:35:48Z</time>
      </trkpt>
      <trkpt lat="48.6111" lon="-0.60136">
        <ele>145.4</ele>
        <time>2014-05-27T13:35:49Z</time>
      </trkpt>
      <trkpt lat="48.6111" lon="-0.6014">
        <ele>145.4</ele>
        <time>2014-05-27T13:35:50Z</time>
      </trkpt>
      <trkpt lat="48.61099" lon="-0.60172">
        <ele>145.8</ele>
        <time>2014-05-27T13:35:56Z</time>
      </trkpt>
      <trkpt lat="48.61098" lon="-0.60177">
        <ele>146</ele>
        <time>2014-05-27T13:35:57Z</time>
      </trkpt>
      <trkpt lat="48.61092" lon="-0.60199">
        <ele>145.8</ele>
        <time>2014-05-27T13:36:00Z</time>
      </trkpt>
      <trkpt lat="48.61073" lon="-0.60249">
        <ele>145</ele>
        <time>2014-05-27T13:36:06Z</time>
      </trkpt>
      <trkpt lat="48.61035" lon="-0.6036">
        <ele>145</ele>
        <time>2014-05-27T13:36:19Z</time>
      </trkpt>
      <trkpt lat="48.61008" lon="-0.60445">
        <ele>145.2</ele>
        <time>2014-05-27T13:36:29Z</time>
      </trkpt>
      <trkpt lat="48.60998" lon="-0.60497">
        <ele>145.2</ele>
        <time>2014-05-27T13:36:36Z</time>
      </trkpt>
      <trkpt lat="48.60992" lon="-0.60521">
        <ele>145.4</ele>
        <time>2014-05-27T13:36:39Z</time>
      </trkpt>
      <trkpt lat="48.60976" lon="-0.60568">
        <ele>145</ele>
        <time>2014-05-27T13:36:45Z</time>
      </trkpt>
      <trkpt lat="48.60946" lon="-0.60649">
        <ele>144.6</ele>
        <time>2014-05-27T13:36:54Z</time>
      </trkpt>
      <trkpt lat="48.60917" lon="-0.60727">
        <ele>144.4</ele>
        <time>2014-05-27T13:37:03Z</time>
      </trkpt>
      <trkpt lat="48.60886" lon="-0.60822">
        <ele>143.8</ele>
        <time>2014-05-27T13:37:14Z</time>
      </trkpt>
      <trkpt lat="48.60855" lon="-0.60918">
        <ele>144.2</ele>
        <time>2014-05-27T13:37:25Z</time>
      </trkpt>
      <trkpt lat="48.60849" lon="-0.60935">
        <ele>144.4</ele>
        <time>2014-05-27T13:37:27Z</time>
      </trkpt>
      <trkpt lat="48.60828" lon="-0.61012">
        <ele>144</ele>
        <time>2014-05-27T13:37:37Z</time>
      </trkpt>
      <trkpt lat="48.60824" lon="-0.61025">
        <ele>143.8</ele>
        <time>2014-05-27T13:37:39Z</time>
      </trkpt>
      <trkpt lat="48.60813" lon="-0.61071">
        <ele>144</ele>
        <time>2014-05-27T13:37:47Z</time>
      </trkpt>
      <trkpt lat="48.60812" lon="-0.61074">
        <ele>144.2</ele>
        <time>2014-05-27T13:37:48Z</time>
      </trkpt>
      <trkpt lat="48.60802" lon="-0.61095">
        <ele>144.8</ele>
        <time>2014-05-27T13:37:55Z</time>
      </trkpt>
      <trkpt lat="48.60789" lon="-0.61137">
        <ele>144.4</ele>
        <time>2014-05-27T13:38:02Z</time>
      </trkpt>
      <trkpt lat="48.6077" lon="-0.61206">
        <ele>143.8</ele>
        <time>2014-05-27T13:38:12Z</time>
      </trkpt>
      <trkpt lat="48.6076" lon="-0.61242">
        <ele>143.8</ele>
        <time>2014-05-27T13:38:17Z</time>
      </trkpt>
      <trkpt lat="48.60734" lon="-0.61335">
        <ele>143.2</ele>
        <time>2014-05-27T13:38:29Z</time>
      </trkpt>
      <trkpt lat="48.60658" lon="-0.61463">
        <ele>143</ele>
        <time>2014-05-27T13:38:41Z</time>
      </trkpt>
      <trkpt lat="48.60613" lon="-0.61604">
        <ele>143</ele>
        <time>2014-05-27T13:38:59Z</time>
      </trkpt>
      <trkpt lat="48.6058" lon="-0.61718">
        <ele>143</ele>
        <time>2014-05-27T13:39:13Z</time>
      </trkpt>
      <trkpt lat="48.60572" lon="-0.61751">
        <ele>142.8</ele>
        <time>2014-05-27T13:39:17Z</time>
      </trkpt>
      <trkpt lat="48.60566" lon="-0.61775">
        <ele>142.8</ele>
        <time>2014-05-27T13:39:20Z</time>
      </trkpt>
      <trkpt lat="48.60561" lon="-0.61808">
        <ele>143.2</ele>
        <time>2014-05-27T13:39:24Z</time>
      </trkpt>
      <trkpt lat="48.60555" lon="-0.61857">
        <ele>143.6</ele>
        <time>2014-05-27T13:39:30Z</time>
      </trkpt>
      <trkpt lat="48.60546" lon="-0.61909">
        <ele>143.4</ele>
        <time>2014-05-27T13:39:37Z</time>
      </trkpt>
      <trkpt lat="48.60536" lon="-0.61943">
        <ele>143</ele>
        <time>2014-05-27T13:39:42Z</time>
      </trkpt>
      <trkpt lat="48.60525" lon="-0.61971">
        <ele>142.8</ele>
        <time>2014-05-27T13:39:46Z</time>
      </trkpt>
      <trkpt lat="48.6052" lon="-0.61986">
        <ele>142.8</ele>
        <time>2014-05-27T13:39:48Z</time>
      </trkpt>
      <trkpt lat="48.60518" lon="-0.62002">
        <ele>142.8</ele>
        <time>2014-05-27T13:39:50Z</time>
      </trkpt>
      <trkpt lat="48.60514" lon="-0.62026">
        <ele>143</ele>
        <time>2014-05-27T13:39:53Z</time>
      </trkpt>
      <trkpt lat="48.60512" lon="-0.62043">
        <ele>143</ele>
        <time>2014-05-27T13:39:55Z</time>
      </trkpt>
      <trkpt lat="48.60512" lon="-0.62088">
        <ele>143.2</ele>
        <time>2014-05-27T13:40:00Z</time>
      </trkpt>
      <trkpt lat="48.60513" lon="-0.62114">
        <ele>143.2</ele>
        <time>2014-05-27T13:40:03Z</time>
      </trkpt>
      <trkpt lat="48.60515" lon="-0.62157">
        <ele>142.8</ele>
        <time>2014-05-27T13:40:08Z</time>
      </trkpt>
      <trkpt lat="48.60516" lon="-0.62174">
        <ele>142.8</ele>
        <time>2014-05-27T13:40:10Z</time>
      </trkpt>
      <trkpt lat="48.60517" lon="-0.62243">
        <ele>142.6</ele>
        <time>2014-05-27T13:40:18Z</time>
      </trkpt>
      <trkpt lat="48.60516" lon="-0.62252">
        <ele>142.6</ele>
        <time>2014-05-27T13:40:19Z</time>
      </trkpt>
      <trkpt lat="48.60515" lon="-0.6227">
        <ele>142.6</ele>
        <time>2014-05-27T13:40:21Z</time>
      </trkpt>
      <trkpt lat="48.60512" lon="-0.62386">
        <ele>142.8</ele>
        <time>2014-05-27T13:40:34Z</time>
      </trkpt>
      <trkpt lat="48.60511" lon="-0.62402">
        <ele>143</ele>
        <time>2014-05-27T13:40:36Z</time>
      </trkpt>
      <trkpt lat="48.60509" lon="-0.62483">
        <ele>143.2</ele>
        <time>2014-05-27T13:40:46Z</time>
      </trkpt>
      <trkpt lat="48.60509" lon="-0.62529">
        <ele>143.2</ele>
        <time>2014-05-27T13:40:52Z</time>
      </trkpt>
      <trkpt lat="48.60507" lon="-0.62556">
        <ele>143</ele>
        <time>2014-05-27T13:40:57Z</time>
      </trkpt>
      <trkpt lat="48.60508" lon="-0.62585">
        <ele>143</ele>
        <time>2014-05-27T13:41:05Z</time>
      </trkpt>
      <trkpt lat="48.60503" lon="-0.62641">
        <ele>142.6</ele>
        <time>2014-05-27T13:41:16Z</time>
      </trkpt>
      <trkpt lat="48.60503" lon="-0.62647">
        <ele>142.6</ele>
        <time>2014-05-27T13:41:17Z</time>
      </trkpt>
      <trkpt lat="48.60503" lon="-0.62668">
        <ele>142.6</ele>
        <time>2014-05-27T13:41:20Z</time>
      </trkpt>
      <trkpt lat="48.605" lon="-0.62739">
        <ele>142.4</ele>
        <time>2014-05-27T13:41:29Z</time>
      </trkpt>
      <trkpt lat="48.60496" lon="-0.62769">
        <ele>142.4</ele>
        <time>2014-05-27T13:41:33Z</time>
      </trkpt>
      <trkpt lat="48.60489" lon="-0.62817">
        <ele>142.2</ele>
        <time>2014-05-27T13:41:39Z</time>
      </trkpt>
      <trkpt lat="48.60487" lon="-0.62842">
        <ele>142</ele>
        <time>2014-05-27T13:41:42Z</time>
      </trkpt>
      <trkpt lat="48.60484" lon="-0.62857">
        <ele>142</ele>
        <time>2014-05-27T13:41:44Z</time>
      </trkpt>
      <trkpt lat="48.60479" lon="-0.62884">
        <ele>141.8</ele>
        <time>2014-05-27T13:41:48Z</time>
      </trkpt>
      <trkpt lat="48.60473" lon="-0.62903">
        <ele>141.8</ele>
        <time>2014-05-27T13:41:51Z</time>
      </trkpt>
      <trkpt lat="48.60464" lon="-0.62947">
        <ele>141.6</ele>
        <time>2014-05-27T13:41:57Z</time>
      </trkpt>
      <trkpt lat="48.60457" lon="-0.62996">
        <ele>141.6</ele>
        <time>2014-05-27T13:42:03Z</time>
      </trkpt>
      <trkpt lat="48.60451" lon="-0.63028">
        <ele>141.4</ele>
        <time>2014-05-27T13:42:07Z</time>
      </trkpt>
      <trkpt lat="48.6044" lon="-0.63067">
        <ele>141.6</ele>
        <time>2014-05-27T13:42:12Z</time>
      </trkpt>
      <trkpt lat="48.60428" lon="-0.6312">
        <ele>141.8</ele>
        <time>2014-05-27T13:42:19Z</time>
      </trkpt>
      <trkpt lat="48.6042" lon="-0.63148">
        <ele>142</ele>
        <time>2014-05-27T13:42:23Z</time>
      </trkpt>
      <trkpt lat="48.60415" lon="-0.63172">
        <ele>141.8</ele>
        <time>2014-05-27T13:42:26Z</time>
      </trkpt>
      <trkpt lat="48.60413" lon="-0.63187">
        <ele>141.6</ele>
        <time>2014-05-27T13:42:28Z</time>
      </trkpt>
      <trkpt lat="48.6041" lon="-0.63202">
        <ele>141.4</ele>
        <time>2014-05-27T13:42:30Z</time>
      </trkpt>
      <trkpt lat="48.60401" lon="-0.6323">
        <ele>141.4</ele>
        <time>2014-05-27T13:42:34Z</time>
      </trkpt>
      <trkpt lat="48.60392" lon="-0.63257">
        <ele>141.4</ele>
        <time>2014-05-27T13:42:38Z</time>
      </trkpt>
      <trkpt lat="48.60384" lon="-0.6328">
        <ele>141.4</ele>
        <time>2014-05-27T13:42:41Z</time>
      </trkpt>
      <trkpt lat="48.60377" lon="-0.63303">
        <ele>141.4</ele>
        <time>2014-05-27T13:42:44Z</time>
      </trkpt>
      <trkpt lat="48.60365" lon="-0.63332">
        <ele>141.4</ele>
        <time>2014-05-27T13:42:48Z</time>
      </trkpt>
      <trkpt lat="48.60357" lon="-0.63354">
        <ele>141.4</ele>
        <time>2014-05-27T13:42:51Z</time>
      </trkpt>
      <trkpt lat="48.60343" lon="-0.63403">
        <ele>141.4</ele>
        <time>2014-05-27T13:42:59Z</time>
      </trkpt>
      <trkpt lat="48.60327" lon="-0.63454">
        <ele>141.4</ele>
        <time>2014-05-27T13:43:07Z</time>
      </trkpt>
      <trkpt lat="48.60321" lon="-0.6347">
        <ele>141.4</ele>
        <time>2014-05-27T13:43:09Z</time>
      </trkpt>
      <trkpt lat="48.60307" lon="-0.63508">
        <ele>141</ele>
        <time>2014-05-27T13:43:14Z</time>
      </trkpt>
      <trkpt lat="48.6029" lon="-0.63545">
        <ele>141</ele>
        <time>2014-05-27T13:43:19Z</time>
      </trkpt>
      <trkpt lat="48.60262" lon="-0.63588">
        <ele>140.8</ele>
        <time>2014-05-27T13:43:26Z</time>
      </trkpt>
      <trkpt lat="48.60242" lon="-0.63625">
        <ele>140.6</ele>
        <time>2014-05-27T13:43:31Z</time>
      </trkpt>
      <trkpt lat="48.60229" lon="-0.63654">
        <ele>140.4</ele>
        <time>2014-05-27T13:43:35Z</time>
      </trkpt>
      <trkpt lat="48.60224" lon="-0.63662">
        <ele>140.4</ele>
        <time>2014-05-27T13:43:36Z</time>
      </trkpt>
      <trkpt lat="48.6022" lon="-0.63669">
        <ele>140.4</ele>
        <time>2014-05-27T13:43:37Z</time>
      </trkpt>
      <trkpt lat="48.60214" lon="-0.63685">
        <ele>140.4</ele>
        <time>2014-05-27T13:43:39Z</time>
      </trkpt>
      <trkpt lat="48.6021" lon="-0.63693">
        <ele>140.6</ele>
        <time>2014-05-27T13:43:40Z</time>
      </trkpt>
      <trkpt lat="48.60186" lon="-0.63749">
        <ele>140.8</ele>
        <time>2014-05-27T13:43:48Z</time>
      </trkpt>
      <trkpt lat="48.60182" lon="-0.63756">
        <ele>140.8</ele>
        <time>2014-05-27T13:43:49Z</time>
      </trkpt>
      <trkpt lat="48.60173" lon="-0.63776">
        <ele>140.8</ele>
        <time>2014-05-27T13:43:52Z</time>
      </trkpt>
      <trkpt lat="48.60154" lon="-0.6382">
        <ele>140.8</ele>
        <time>2014-05-27T13:43:58Z</time>
      </trkpt>
      <trkpt lat="48.60132" lon="-0.63887">
        <ele>141.2</ele>
        <time>2014-05-27T13:44:07Z</time>
      </trkpt>
      <trkpt lat="48.60108" lon="-0.63967">
        <ele>141</ele>
        <time>2014-05-27T13:44:21Z</time>
      </trkpt>
      <trkpt lat="48.60104" lon="-0.63996">
        <ele>141</ele>
        <time>2014-05-27T13:44:27Z</time>
      </trkpt>
      <trkpt lat="48.60093" lon="-0.64041">
        <ele>141.4</ele>
        <time>2014-05-27T13:44:41Z</time>
      </trkpt>
      <trkpt lat="48.60088" lon="-0.64082">
        <ele>141</ele>
        <time>2014-05-27T13:44:49Z</time>
      </trkpt>
      <trkpt lat="48.60087" lon="-0.64092">
        <ele>141</ele>
        <time>2014-05-27T13:44:51Z</time>
      </trkpt>
      <trkpt lat="48.60089" lon="-0.64123">
        <ele>141</ele>
        <time>2014-05-27T13:44:56Z</time>
      </trkpt>
      <trkpt lat="48.60089" lon="-0.64142">
        <ele>140.8</ele>
        <time>2014-05-27T13:44:59Z</time>
      </trkpt>
      <trkpt lat="48.60112" lon="-0.64187">
        <ele>140.4</ele>
        <time>2014-05-27T13:45:08Z</time>
      </trkpt>
      <trkpt lat="48.60112" lon="-0.64226">
        <ele>140.4</ele>
        <time>2014-05-27T13:45:15Z</time>
      </trkpt>
      <trkpt lat="48.60108" lon="-0.6429">
        <ele>140.8</ele>
        <time>2014-05-27T13:45:26Z</time>
      </trkpt>
      <trkpt lat="48.60122" lon="-0.64351">
        <ele>140.6</ele>
        <time>2014-05-27T13:45:35Z</time>
      </trkpt>
      <trkpt lat="48.60124" lon="-0.64365">
        <ele>140.6</ele>
        <time>2014-05-27T13:45:37Z</time>
      </trkpt>
      <trkpt lat="48.60131" lon="-0.64426">
        <ele>140.8</ele>
        <time>2014-05-27T13:45:47Z</time>
      </trkpt>
      <trkpt lat="48.60132" lon="-0.64437">
        <ele>140.8</ele>
        <time>2014-05-27T13:45:49Z</time>
      </trkpt>
      <trkpt lat="48.6014" lon="-0.64507">
        <ele>140.6</ele>
        <time>2014-05-27T13:46:02Z</time>
      </trkpt>
      <trkpt lat="48.60148" lon="-0.64516">
        <ele>140.8</ele>
        <time>2014-05-27T13:46:07Z</time>
      </trkpt>
      <trkpt lat="48.60152" lon="-0.64523">
        <ele>140.8</ele>
        <time>2014-05-27T13:46:11Z</time>
      </trkpt>
      <trkpt lat="48.60153" lon="-0.64555">
        <ele>140.8</ele>
        <time>2014-05-27T13:46:17Z</time>
      </trkpt>
      <trkpt lat="48.60155" lon="-0.64596">
        <ele>140.6</ele>
        <time>2014-05-27T13:46:24Z</time>
      </trkpt>
      <trkpt lat="48.60156" lon="-0.64677">
        <ele>139.8</ele>
        <time>2014-05-27T13:46:39Z</time>
      </trkpt>
      <trkpt lat="48.6016" lon="-0.64714">
        <ele>140</ele>
        <time>2014-05-27T13:46:49Z</time>
      </trkpt>
      <trkpt lat="48.60157" lon="-0.64722">
        <ele>140.2</ele>
        <time>2014-05-27T13:46:51Z</time>
      </trkpt>
      <trkpt lat="48.60155" lon="-0.64724">
        <ele>140.2</ele>
        <time>2014-05-27T13:46:52Z</time>
      </trkpt>
      <trkpt lat="48.60152" lon="-0.64727">
        <ele>140.4</ele>
        <time>2014-05-27T13:46:53Z</time>
      </trkpt>
      <trkpt lat="48.60151" lon="-0.6473">
        <ele>140.4</ele>
        <time>2014-05-27T13:46:54Z</time>
      </trkpt>
      <trkpt lat="48.60149" lon="-0.64733">
        <ele>140.4</ele>
        <time>2014-05-27T13:46:55Z</time>
      </trkpt>
      <trkpt lat="48.60148" lon="-0.64736">
        <ele>140.4</ele>
        <time>2014-05-27T13:46:56Z</time>
      </trkpt>
      <trkpt lat="48.60147" lon="-0.64738">
        <ele>140.6</ele>
        <time>2014-05-27T13:46:57Z</time>
      </trkpt>
      <trkpt lat="48.60146" lon="-0.6474">
        <ele>140.6</ele>
        <time>2014-05-27T13:46:58Z</time>
      </trkpt>
      <trkpt lat="48.60145" lon="-0.64742">
        <ele>140.6</ele>
        <time>2014-05-27T13:46:59Z</time>
      </trkpt>
      <trkpt lat="48.60144" lon="-0.64751">
        <ele>140.6</ele>
        <time>2014-05-27T13:47:03Z</time>
      </trkpt>
      <trkpt lat="48.60143" lon="-0.64755">
        <ele>140.6</ele>
        <time>2014-05-27T13:47:04Z</time>
      </trkpt>
      <trkpt lat="48.60136" lon="-0.64774">
        <ele>140.2</ele>
        <time>2014-05-27T13:47:16Z</time>
      </trkpt>
      <trkpt lat="48.60136" lon="-0.64774">
        <ele>140.2</ele>
        <time>2014-05-27T13:47:18Z</time>
      </trkpt>
      <trkpt lat="48.60138" lon="-0.64789">
        <ele>140</ele>
        <time>2014-05-27T13:48:22Z</time>
      </trkpt>
      <trkpt lat="48.60131" lon="-0.64802">
        <ele>139.8</ele>
        <time>2014-05-27T13:48:25Z</time>
      </trkpt>
      <trkpt lat="48.60124" lon="-0.64816">
        <ele>139.8</ele>
        <time>2014-05-27T13:48:28Z</time>
      </trkpt>
      <trkpt lat="48.601" lon="-0.64867">
        <ele>139.4</ele>
        <time>2014-05-27T13:48:37Z</time>
      </trkpt>
      <trkpt lat="48.60089" lon="-0.64891">
        <ele>139.2</ele>
        <time>2014-05-27T13:48:41Z</time>
      </trkpt>
      <trkpt lat="48.6008" lon="-0.64907">
        <ele>139.2</ele>
        <time>2014-05-27T13:48:44Z</time>
      </trkpt>
      <trkpt lat="48.60059" lon="-0.64945">
        <ele>139.2</ele>
        <time>2014-05-27T13:48:51Z</time>
      </trkpt>
      <trkpt lat="48.60042" lon="-0.64969">
        <ele>139.2</ele>
        <time>2014-05-27T13:48:56Z</time>
      </trkpt>
      <trkpt lat="48.60021" lon="-0.64995">
        <ele>139.2</ele>
        <time>2014-05-27T13:49:02Z</time>
      </trkpt>
      <trkpt lat="48.59985" lon="-0.65026">
        <ele>139.2</ele>
        <time>2014-05-27T13:49:11Z</time>
      </trkpt>
      <trkpt lat="48.59959" lon="-0.65045">
        <ele>138.8</ele>
        <time>2014-05-27T13:49:18Z</time>
      </trkpt>
      <trkpt lat="48.59951" lon="-0.6505">
        <ele>138.6</ele>
        <time>2014-05-27T13:49:20Z</time>
      </trkpt>
      <trkpt lat="48.59944" lon="-0.65056">
        <ele>138.6</ele>
        <time>2014-05-27T13:49:22Z</time>
      </trkpt>
      <trkpt lat="48.59906" lon="-0.65088">
        <ele>138.4</ele>
        <time>2014-05-27T13:49:32Z</time>
      </trkpt>
      <trkpt lat="48.59882" lon="-0.65111">
        <ele>138.4</ele>
        <time>2014-05-27T13:49:39Z</time>
      </trkpt>
      <trkpt lat="48.5987" lon="-0.65121">
        <ele>138.2</ele>
        <time>2014-05-27T13:49:42Z</time>
      </trkpt>
      <trkpt lat="48.59866" lon="-0.65125">
        <ele>138.2</ele>
        <time>2014-05-27T13:49:43Z</time>
      </trkpt>
      <trkpt lat="48.59862" lon="-0.65129">
        <ele>138.2</ele>
        <time>2014-05-27T13:49:44Z</time>
      </trkpt>
      <trkpt lat="48.59848" lon="-0.65143">
        <ele>137.8</ele>
        <time>2014-05-27T13:49:48Z</time>
      </trkpt>
      <trkpt lat="48.59811" lon="-0.65185">
        <ele>137.8</ele>
        <time>2014-05-27T13:49:59Z</time>
      </trkpt>
      <trkpt lat="48.59786" lon="-0.65224">
        <ele>137.8</ele>
        <time>2014-05-27T13:50:09Z</time>
      </trkpt>
      <trkpt lat="48.59766" lon="-0.65266">
        <ele>137.6</ele>
        <time>2014-05-27T13:50:21Z</time>
      </trkpt>
      <trkpt lat="48.59754" lon="-0.65306">
        <ele>137.8</ele>
        <time>2014-05-27T13:50:32Z</time>
      </trkpt>
      <trkpt lat="48.59739" lon="-0.65347">
        <ele>137.8</ele>
        <time>2014-05-27T13:50:44Z</time>
      </trkpt>
      <trkpt lat="48.59716" lon="-0.65391">
        <ele>137.8</ele>
        <time>2014-05-27T13:50:55Z</time>
      </trkpt>
      <trkpt lat="48.59704" lon="-0.65416">
        <ele>137.6</ele>
        <time>2014-05-27T13:51:03Z</time>
      </trkpt>
      <trkpt lat="48.59701" lon="-0.65419">
        <ele>137.6</ele>
        <time>2014-05-27T13:51:04Z</time>
      </trkpt>
      <trkpt lat="48.59699" lon="-0.65422">
        <ele>137.6</ele>
        <time>2014-05-27T13:51:05Z</time>
      </trkpt>
      <trkpt lat="48.59697" lon="-0.65426">
        <ele>137.4</ele>
        <time>2014-05-27T13:51:06Z</time>
      </trkpt>
      <trkpt lat="48.59695" lon="-0.6543">
        <ele>137.4</ele>
        <time>2014-05-27T13:51:07Z</time>
      </trkpt>
      <trkpt lat="48.59693" lon="-0.65433">
        <ele>137.4</ele>
        <time>2014-05-27T13:51:08Z</time>
      </trkpt>
      <trkpt lat="48.59691" lon="-0.65436">
        <ele>137.4</ele>
        <time>2014-05-27T13:51:09Z</time>
      </trkpt>
      <trkpt lat="48.59688" lon="-0.6544">
        <ele>137.2</ele>
        <time>2014-05-27T13:51:10Z</time>
      </trkpt>
      <trkpt lat="48.59685" lon="-0.65443">
        <ele>137.2</ele>
        <time>2014-05-27T13:51:11Z</time>
      </trkpt>
      <trkpt lat="48.59683" lon="-0.65447">
        <ele>137.2</ele>
        <time>2014-05-27T13:51:12Z</time>
      </trkpt>
      <trkpt lat="48.5968" lon="-0.65451">
        <ele>137.2</ele>
        <time>2014-05-27T13:51:13Z</time>
      </trkpt>
      <trkpt lat="48.59678" lon="-0.65455">
        <ele>137.2</ele>
        <time>2014-05-27T13:51:14Z</time>
      </trkpt>
      <trkpt lat="48.59656" lon="-0.65485">
        <ele>137</ele>
        <time>2014-05-27T13:51:25Z</time>
      </trkpt>
      <trkpt lat="48.59654" lon="-0.65487">
        <ele>137</ele>
        <time>2014-05-27T13:51:26Z</time>
      </trkpt>
      <trkpt lat="48.59651" lon="-0.65489">
        <ele>137</ele>
        <time>2014-05-27T13:51:27Z</time>
      </trkpt>
      <trkpt lat="48.59627" lon="-0.65513">
        <ele>137.2</ele>
        <time>2014-05-27T13:51:38Z</time>
      </trkpt>
      <trkpt lat="48.596" lon="-0.65539">
        <ele>137.2</ele>
        <time>2014-05-27T13:51:50Z</time>
      </trkpt>
      <trkpt lat="48.59579" lon="-0.65554">
        <ele>137.2</ele>
        <time>2014-05-27T13:51:59Z</time>
      </trkpt>
      <trkpt lat="48.59578" lon="-0.65552">
        <ele>137</ele>
        <time>2014-05-27T13:52:01Z</time>
      </trkpt>
      <trkpt lat="48.59583" lon="-0.65548">
        <ele>137.2</ele>
        <time>2014-05-27T13:52:05Z</time>
      </trkpt>
      <trkpt lat="48.59587" lon="-0.65544">
        <ele>137.2</ele>
        <time>2014-05-27T13:52:08Z</time>
      </trkpt>
      <trkpt lat="48.59588" lon="-0.6555">
        <ele>137.2</ele>
        <time>2014-05-27T13:52:17Z</time>
      </trkpt>
      <trkpt lat="48.59571" lon="-0.6557">
        <ele>137.4</ele>
        <time>2014-05-27T13:53:48Z</time>
      </trkpt>
      <trkpt lat="48.5955" lon="-0.65571">
        <ele>137.4</ele>
        <time>2014-05-27T13:54:01Z</time>
      </trkpt>
      <trkpt lat="48.59525" lon="-0.65581">
        <ele>137</ele>
        <time>2014-05-27T13:54:13Z</time>
      </trkpt>
      <trkpt lat="48.59512" lon="-0.65583">
        <ele>137</ele>
        <time>2014-05-27T13:54:25Z</time>
      </trkpt>
      <trkpt lat="48.59518" lon="-0.65578">
        <ele>137</ele>
        <time>2014-05-27T13:54:33Z</time>
      </trkpt>
      <trkpt lat="48.59518" lon="-0.65577">
        <ele>137</ele>
        <time>2014-05-27T13:54:34Z</time>
      </trkpt>
      <trkpt lat="48.59511" lon="-0.65585">
        <ele>137.6</ele>
        <time>2014-05-27T13:55:52Z</time>
      </trkpt>
      <trkpt lat="48.59505" lon="-0.65588">
        <ele>137.6</ele>
        <time>2014-05-27T13:55:55Z</time>
      </trkpt>
      <trkpt lat="48.59472" lon="-0.656">
        <ele>137.4</ele>
        <time>2014-05-27T13:56:10Z</time>
      </trkpt>
      <trkpt lat="48.59439" lon="-0.65614">
        <ele>137</ele>
        <time>2014-05-27T13:56:25Z</time>
      </trkpt>
      <trkpt lat="48.59415" lon="-0.65628">
        <ele>137.2</ele>
        <time>2014-05-27T13:56:39Z</time>
      </trkpt>
      <trkpt lat="48.59385" lon="-0.65648">
        <ele>137.2</ele>
        <time>2014-05-27T13:56:55Z</time>
      </trkpt>
      <trkpt lat="48.59372" lon="-0.65658">
        <ele>137.2</ele>
        <time>2014-05-27T13:57:02Z</time>
      </trkpt>
      <trkpt lat="48.59371" lon="-0.65658">
        <ele>137.2</ele>
        <time>2014-05-27T13:57:03Z</time>
      </trkpt>
      <trkpt lat="48.59365" lon="-0.65659">
        <ele>137.2</ele>
        <time>2014-05-27T13:57:10Z</time>
      </trkpt>
      <trkpt lat="48.59358" lon="-0.65661">
        <ele>137.2</ele>
        <time>2014-05-27T13:57:16Z</time>
      </trkpt>
      <trkpt lat="48.5935" lon="-0.65669">
        <ele>137.2</ele>
        <time>2014-05-27T13:57:21Z</time>
      </trkpt>
      <trkpt lat="48.59349" lon="-0.65671">
        <ele>137.2</ele>
        <time>2014-05-27T13:57:22Z</time>
      </trkpt>
      <trkpt lat="48.59347" lon="-0.65673">
        <ele>137.2</ele>
        <time>2014-05-27T13:57:23Z</time>
      </trkpt>
      <trkpt lat="48.59345" lon="-0.65676">
        <ele>137.2</ele>
        <time>2014-05-27T13:57:24Z</time>
      </trkpt>
      <trkpt lat="48.59343" lon="-0.65678">
        <ele>137.2</ele>
        <time>2014-05-27T13:57:25Z</time>
      </trkpt>
      <trkpt lat="48.59316" lon="-0.65704">
        <ele>137</ele>
        <time>2014-05-27T13:57:39Z</time>
      </trkpt>
      <trkpt lat="48.59287" lon="-0.65735">
        <ele>136.8</ele>
        <time>2014-05-27T13:57:54Z</time>
      </trkpt>
      <trkpt lat="48.59261" lon="-0.65771">
        <ele>136.8</ele>
        <time>2014-05-27T13:58:07Z</time>
      </trkpt>
      <trkpt lat="48.5923" lon="-0.65804">
        <ele>136.6</ele>
        <time>2014-05-27T13:58:22Z</time>
      </trkpt>
      <trkpt lat="48.59216" lon="-0.65822">
        <ele>136.8</ele>
        <time>2014-05-27T13:58:32Z</time>
      </trkpt>
      <trkpt lat="48.59213" lon="-0.65822">
        <ele>137</ele>
        <time>2014-05-27T13:58:33Z</time>
      </trkpt>
      <trkpt lat="48.59217" lon="-0.65815">
        <ele>136.8</ele>
        <time>2014-05-27T13:58:37Z</time>
      </trkpt>
      <trkpt lat="48.59219" lon="-0.65813">
        <ele>137</ele>
        <time>2014-05-27T13:58:38Z</time>
      </trkpt>
      <trkpt lat="48.59221" lon="-0.65811">
        <ele>136.8</ele>
        <time>2014-05-27T13:58:39Z</time>
      </trkpt>
      <trkpt lat="48.5924" lon="-0.65791">
        <ele>136.6</ele>
        <time>2014-05-27T13:58:50Z</time>
      </trkpt>
      <trkpt lat="48.59239" lon="-0.65788">
        <ele>136.6</ele>
        <time>2014-05-27T13:58:51Z</time>
      </trkpt>
      <trkpt lat="48.59238" lon="-0.65787">
        <ele>136.6</ele>
        <time>2014-05-27T13:58:52Z</time>
      </trkpt>
      <trkpt lat="48.59237" lon="-0.65786">
        <ele>136.6</ele>
        <time>2014-05-27T13:58:53Z</time>
      </trkpt>
      <trkpt lat="48.59234" lon="-0.65785">
        <ele>136.6</ele>
        <time>2014-05-27T13:58:54Z</time>
      </trkpt>
      <trkpt lat="48.59231" lon="-0.65784">
        <ele>136.6</ele>
        <time>2014-05-27T13:58:55Z</time>
      </trkpt>
      <trkpt lat="48.59228" lon="-0.65786">
        <ele>136.6</ele>
        <time>2014-05-27T13:58:56Z</time>
      </trkpt>
      <trkpt lat="48.59225" lon="-0.65787">
        <ele>136.4</ele>
        <time>2014-05-27T13:58:57Z</time>
      </trkpt>
      <trkpt lat="48.59189" lon="-0.65791">
        <ele>135.2</ele>
        <time>2014-05-27T13:59:10Z</time>
      </trkpt>
      <trkpt lat="48.59151" lon="-0.65789">
        <ele>134.4</ele>
        <time>2014-05-27T13:59:27Z</time>
      </trkpt>
      <trkpt lat="48.59122" lon="-0.65778">
        <ele>133.8</ele>
        <time>2014-05-27T13:59:40Z</time>
      </trkpt>
      <trkpt lat="48.5912" lon="-0.65778">
        <ele>133.6</ele>
        <time>2014-05-27T13:59:41Z</time>
      </trkpt>
      <trkpt lat="48.59117" lon="-0.65777">
        <ele>133.6</ele>
        <time>2014-05-27T13:59:42Z</time>
      </trkpt>
      <trkpt lat="48.59115" lon="-0.65777">
        <ele>133.6</ele>
        <time>2014-05-27T13:59:43Z</time>
      </trkpt>
      <trkpt lat="48.59113" lon="-0.65778">
        <ele>133.6</ele>
        <time>2014-05-27T13:59:44Z</time>
      </trkpt>
      <trkpt lat="48.59082" lon="-0.65791">
        <ele>133.6</ele>
        <time>2014-05-27T13:59:58Z</time>
      </trkpt>
      <trkpt lat="48.59081" lon="-0.65793">
        <ele>133.6</ele>
        <time>2014-05-27T13:59:59Z</time>
      </trkpt>
      <trkpt lat="48.5908" lon="-0.65796">
        <ele>133.6</ele>
        <time>2014-05-27T14:00:00Z</time>
      </trkpt>
      <trkpt lat="48.59075" lon="-0.6581">
        <ele>133.6</ele>
        <time>2014-05-27T14:00:07Z</time>
      </trkpt>
      <trkpt lat="48.59074" lon="-0.65812">
        <ele>133.6</ele>
        <time>2014-05-27T14:00:08Z</time>
      </trkpt>
      <trkpt lat="48.59073" lon="-0.65813">
        <ele>133.6</ele>
        <time>2014-05-27T14:00:09Z</time>
      </trkpt>
      <trkpt lat="48.59072" lon="-0.65815">
        <ele>133.6</ele>
        <time>2014-05-27T14:00:13Z</time>
      </trkpt>
      <trkpt lat="48.59065" lon="-0.6582">
        <ele>133.6</ele>
        <time>2014-05-27T14:00:53Z</time>
      </trkpt>
      <trkpt lat="48.59063" lon="-0.65827">
        <ele>133.4</ele>
        <time>2014-05-27T14:01:01Z</time>
      </trkpt>
      <trkpt lat="48.59059" lon="-0.65834">
        <ele>133.6</ele>
        <time>2014-05-27T14:01:12Z</time>
      </trkpt>
      <trkpt lat="48.59058" lon="-0.65835">
        <ele>133.6</ele>
        <time>2014-05-27T14:01:13Z</time>
      </trkpt>
      <trkpt lat="48.59057" lon="-0.65837">
        <ele>133.6</ele>
        <time>2014-05-27T14:01:14Z</time>
      </trkpt>
      <trkpt lat="48.59056" lon="-0.65838">
        <ele>133.6</ele>
        <time>2014-05-27T14:01:15Z</time>
      </trkpt>
      <trkpt lat="48.59054" lon="-0.65843">
        <ele>133.6</ele>
        <time>2014-05-27T14:01:22Z</time>
      </trkpt>
      <trkpt lat="48.59046" lon="-0.65838">
        <ele>134</ele>
        <time>2014-05-27T14:01:40Z</time>
      </trkpt>
      <trkpt lat="48.59045" lon="-0.65835">
        <ele>134</ele>
        <time>2014-05-27T14:01:42Z</time>
      </trkpt>
      <trkpt lat="48.59046" lon="-0.6583">
        <ele>133.8</ele>
        <time>2014-05-27T14:01:49Z</time>
      </trkpt>
      <trkpt lat="48.59044" lon="-0.65828">
        <ele>134.8</ele>
        <time>2014-05-27T14:07:24Z</time>
      </trkpt>
      <trkpt lat="48.59045" lon="-0.65828">
        <ele>142.4</ele>
        <time>2014-05-27T14:07:25Z</time>
      </trkpt>
      <trkpt lat="48.59051" lon="-0.65828">
        <ele>142.4</ele>
        <time>2014-05-27T14:07:30Z</time>
      </trkpt>
      <trkpt lat="48.59053" lon="-0.65825">
        <ele>142.2</ele>
        <time>2014-05-27T14:08:49Z</time>
      </trkpt>
      <trkpt lat="48.59054" lon="-0.65821">
        <ele>142.2</ele>
        <time>2014-05-27T14:08:51Z</time>
      </trkpt>
      <trkpt lat="48.59061" lon="-0.65805">
        <ele>142.2</ele>
        <time>2014-05-27T14:09:03Z</time>
      </trkpt>
      <trkpt lat="48.59069" lon="-0.65807">
        <ele>142.4</ele>
        <time>2014-05-27T14:09:24Z</time>
      </trkpt>
      <trkpt lat="48.59071" lon="-0.65808">
        <ele>142.4</ele>
        <time>2014-05-27T14:09:25Z</time>
      </trkpt>
      <trkpt lat="48.59073" lon="-0.65808">
        <ele>142.4</ele>
        <time>2014-05-27T14:09:26Z</time>
      </trkpt>
      <trkpt lat="48.59074" lon="-0.65807">
        <ele>142.4</ele>
        <time>2014-05-27T14:09:27Z</time>
      </trkpt>
      <trkpt lat="48.59075" lon="-0.65805">
        <ele>142.4</ele>
        <time>2014-05-27T14:09:28Z</time>
      </trkpt>
      <trkpt lat="48.59076" lon="-0.65803">
        <ele>142.4</ele>
        <time>2014-05-27T14:09:29Z</time>
      </trkpt>
      <trkpt lat="48.59077" lon="-0.65801">
        <ele>142.4</ele>
        <time>2014-05-27T14:09:30Z</time>
      </trkpt>
      <trkpt lat="48.59078" lon="-0.65799">
        <ele>142.4</ele>
        <time>2014-05-27T14:09:31Z</time>
      </trkpt>
      <trkpt lat="48.59079" lon="-0.65798">
        <ele>142.4</ele>
        <time>2014-05-27T14:09:32Z</time>
      </trkpt>
      <trkpt lat="48.5908" lon="-0.65796">
        <ele>142.4</ele>
        <time>2014-05-27T14:09:33Z</time>
      </trkpt>
      <trkpt lat="48.59081" lon="-0.65795">
        <ele>142.4</ele>
        <time>2014-05-27T14:09:34Z</time>
      </trkpt>
      <trkpt lat="48.59082" lon="-0.65794">
        <ele>142.4</ele>
        <time>2014-05-27T14:09:35Z</time>
      </trkpt>
      <trkpt lat="48.59082" lon="-0.65792">
        <ele>142.4</ele>
        <time>2014-05-27T14:09:36Z</time>
      </trkpt>
      <trkpt lat="48.59083" lon="-0.65791">
        <ele>142.2</ele>
        <time>2014-05-27T14:09:37Z</time>
      </trkpt>
      <trkpt lat="48.59084" lon="-0.65789">
        <ele>142.2</ele>
        <time>2014-05-27T14:09:38Z</time>
      </trkpt>
      <trkpt lat="48.59086" lon="-0.65788">
        <ele>142.2</ele>
        <time>2014-05-27T14:09:39Z</time>
      </trkpt>
      <trkpt lat="48.59087" lon="-0.65786">
        <ele>142.2</ele>
        <time>2014-05-27T14:09:40Z</time>
      </trkpt>
      <trkpt lat="48.59089" lon="-0.65784">
        <ele>142.2</ele>
        <time>2014-05-27T14:09:41Z</time>
      </trkpt>
      <trkpt lat="48.59119" lon="-0.65779">
        <ele>141.8</ele>
        <time>2014-05-27T14:09:52Z</time>
      </trkpt>
      <trkpt lat="48.59144" lon="-0.65783">
        <ele>142</ele>
        <time>2014-05-27T14:10:02Z</time>
      </trkpt>
      <trkpt lat="48.59178" lon="-0.65787">
        <ele>142.8</ele>
        <time>2014-05-27T14:10:15Z</time>
      </trkpt>
      <trkpt lat="48.59199" lon="-0.65791">
        <ele>143</ele>
        <time>2014-05-27T14:10:22Z</time>
      </trkpt>
      <trkpt lat="48.59223" lon="-0.65784">
        <ele>143.6</ele>
        <time>2014-05-27T14:10:32Z</time>
      </trkpt>
      <trkpt lat="48.59227" lon="-0.65785">
        <ele>143.6</ele>
        <time>2014-05-27T14:10:33Z</time>
      </trkpt>
      <trkpt lat="48.59229" lon="-0.65786">
        <ele>143.8</ele>
        <time>2014-05-27T14:10:34Z</time>
      </trkpt>
      <trkpt lat="48.59231" lon="-0.65788">
        <ele>143.8</ele>
        <time>2014-05-27T14:10:35Z</time>
      </trkpt>
      <trkpt lat="48.59233" lon="-0.65787">
        <ele>144</ele>
        <time>2014-05-27T14:10:36Z</time>
      </trkpt>
      <trkpt lat="48.59235" lon="-0.65785">
        <ele>144.2</ele>
        <time>2014-05-27T14:10:37Z</time>
      </trkpt>
      <trkpt lat="48.59238" lon="-0.65782">
        <ele>144.4</ele>
        <time>2014-05-27T14:10:38Z</time>
      </trkpt>
      <trkpt lat="48.59273" lon="-0.65738">
        <ele>145.2</ele>
        <time>2014-05-27T14:10:51Z</time>
      </trkpt>
      <trkpt lat="48.5928" lon="-0.65728">
        <ele>145.4</ele>
        <time>2014-05-27T14:10:54Z</time>
      </trkpt>
      <trkpt lat="48.59311" lon="-0.657">
        <ele>145.4</ele>
        <time>2014-05-27T14:11:04Z</time>
      </trkpt>
      <trkpt lat="48.59345" lon="-0.6567">
        <ele>145.4</ele>
        <time>2014-05-27T14:11:15Z</time>
      </trkpt>
      <trkpt lat="48.59388" lon="-0.65636">
        <ele>145.6</ele>
        <time>2014-05-27T14:11:29Z</time>
      </trkpt>
      <trkpt lat="48.59424" lon="-0.65618">
        <ele>145.2</ele>
        <time>2014-05-27T14:11:41Z</time>
      </trkpt>
      <trkpt lat="48.59455" lon="-0.65604">
        <ele>145.4</ele>
        <time>2014-05-27T14:11:51Z</time>
      </trkpt>
      <trkpt lat="48.59495" lon="-0.6558">
        <ele>145.4</ele>
        <time>2014-05-27T14:12:03Z</time>
      </trkpt>
      <trkpt lat="48.59536" lon="-0.65571">
        <ele>145.8</ele>
        <time>2014-05-27T14:12:16Z</time>
      </trkpt>
      <trkpt lat="48.59542" lon="-0.65575">
        <ele>145.8</ele>
        <time>2014-05-27T14:12:24Z</time>
      </trkpt>
      <trkpt lat="48.5955" lon="-0.65563">
        <ele>146.2</ele>
        <time>2014-05-27T14:14:42Z</time>
      </trkpt>
      <trkpt lat="48.59551" lon="-0.65562">
        <ele>146.2</ele>
        <time>2014-05-27T14:14:43Z</time>
      </trkpt>
      <trkpt lat="48.59553" lon="-0.65562">
        <ele>146.2</ele>
        <time>2014-05-27T14:14:44Z</time>
      </trkpt>
      <trkpt lat="48.59554" lon="-0.65561">
        <ele>146.2</ele>
        <time>2014-05-27T14:14:45Z</time>
      </trkpt>
      <trkpt lat="48.59556" lon="-0.65561">
        <ele>146.2</ele>
        <time>2014-05-27T14:14:47Z</time>
      </trkpt>
      <trkpt lat="48.59557" lon="-0.65559">
        <ele>146.2</ele>
        <time>2014-05-27T14:14:48Z</time>
      </trkpt>
      <trkpt lat="48.59559" lon="-0.65558">
        <ele>146</ele>
        <time>2014-05-27T14:14:49Z</time>
      </trkpt>
      <trkpt lat="48.59584" lon="-0.6554">
        <ele>146</ele>
        <time>2014-05-27T14:15:01Z</time>
      </trkpt>
      <trkpt lat="48.59611" lon="-0.65512">
        <ele>146</ele>
        <time>2014-05-27T14:15:12Z</time>
      </trkpt>
      <trkpt lat="48.59642" lon="-0.65475">
        <ele>146</ele>
        <time>2014-05-27T14:15:22Z</time>
      </trkpt>
      <trkpt lat="48.59677" lon="-0.65417">
        <ele>146.2</ele>
        <time>2014-05-27T14:15:35Z</time>
      </trkpt>
      <trkpt lat="48.59703" lon="-0.65365">
        <ele>146.6</ele>
        <time>2014-05-27T14:15:46Z</time>
      </trkpt>
      <trkpt lat="48.5973" lon="-0.65316">
        <ele>146.8</ele>
        <time>2014-05-27T14:15:57Z</time>
      </trkpt>
      <trkpt lat="48.59754" lon="-0.65258">
        <ele>146.6</ele>
        <time>2014-05-27T14:16:08Z</time>
      </trkpt>
      <trkpt lat="48.59781" lon="-0.6521">
        <ele>146.8</ele>
        <time>2014-05-27T14:16:18Z</time>
      </trkpt>
      <trkpt lat="48.59823" lon="-0.65166">
        <ele>147.2</ele>
        <time>2014-05-27T14:16:29Z</time>
      </trkpt>
      <trkpt lat="48.59847" lon="-0.65135">
        <ele>147</ele>
        <time>2014-05-27T14:16:38Z</time>
      </trkpt>
      <trkpt lat="48.59895" lon="-0.65094">
        <ele>147.2</ele>
        <time>2014-05-27T14:16:51Z</time>
      </trkpt>
      <trkpt lat="48.59932" lon="-0.65065">
        <ele>147.2</ele>
        <time>2014-05-27T14:17:02Z</time>
      </trkpt>
      <trkpt lat="48.59973" lon="-0.65026">
        <ele>148</ele>
        <time>2014-05-27T14:17:15Z</time>
      </trkpt>
      <trkpt lat="48.60016" lon="-0.64976">
        <ele>148.4</ele>
        <time>2014-05-27T14:17:29Z</time>
      </trkpt>
      <trkpt lat="48.60046" lon="-0.64921">
        <ele>148.8</ele>
        <time>2014-05-27T14:17:42Z</time>
      </trkpt>
      <trkpt lat="48.60089" lon="-0.64863">
        <ele>149</ele>
        <time>2014-05-27T14:17:56Z</time>
      </trkpt>
      <trkpt lat="48.60107" lon="-0.64822">
        <ele>149</ele>
        <time>2014-05-27T14:18:06Z</time>
      </trkpt>
      <trkpt lat="48.6012" lon="-0.64776">
        <ele>149.4</ele>
        <time>2014-05-27T14:18:16Z</time>
      </trkpt>
      <trkpt lat="48.60123" lon="-0.64766">
        <ele>149.6</ele>
        <time>2014-05-27T14:18:19Z</time>
      </trkpt>
      <trkpt lat="48.60123" lon="-0.64764">
        <ele>149.6</ele>
        <time>2014-05-27T14:18:20Z</time>
      </trkpt>
      <trkpt lat="48.60124" lon="-0.64756">
        <ele>149.8</ele>
        <time>2014-05-27T14:18:23Z</time>
      </trkpt>
      <trkpt lat="48.60125" lon="-0.64754">
        <ele>149.8</ele>
        <time>2014-05-27T14:18:24Z</time>
      </trkpt>
      <trkpt lat="48.60125" lon="-0.64752">
        <ele>150</ele>
        <time>2014-05-27T14:18:25Z</time>
      </trkpt>
      <trkpt lat="48.60125" lon="-0.64746">
        <ele>150</ele>
        <time>2014-05-27T14:18:28Z</time>
      </trkpt>
      <trkpt lat="48.60124" lon="-0.64744">
        <ele>150</ele>
        <time>2014-05-27T14:18:29Z</time>
      </trkpt>
      <trkpt lat="48.60122" lon="-0.64742">
        <ele>150.2</ele>
        <time>2014-05-27T14:18:30Z</time>
      </trkpt>
      <trkpt lat="48.60119" lon="-0.64742">
        <ele>150.2</ele>
        <time>2014-05-27T14:18:31Z</time>
      </trkpt>
      <trkpt lat="48.60115" lon="-0.64741">
        <ele>150.2</ele>
        <time>2014-05-27T14:18:33Z</time>
      </trkpt>
      <trkpt lat="48.60113" lon="-0.64739">
        <ele>150.2</ele>
        <time>2014-05-27T14:18:34Z</time>
      </trkpt>
      <trkpt lat="48.60112" lon="-0.64737">
        <ele>150.2</ele>
        <time>2014-05-27T14:18:35Z</time>
      </trkpt>
      <trkpt lat="48.60111" lon="-0.64733">
        <ele>150.4</ele>
        <time>2014-05-27T14:18:36Z</time>
      </trkpt>
      <trkpt lat="48.60115" lon="-0.64701">
        <ele>152.6</ele>
        <time>2014-05-27T14:18:47Z</time>
      </trkpt>
      <trkpt lat="48.60114" lon="-0.64664">
        <ele>155.8</ele>
        <time>2014-05-27T14:18:58Z</time>
      </trkpt>
      <trkpt lat="48.60104" lon="-0.64645">
        <ele>158.2</ele>
        <time>2014-05-27T14:19:09Z</time>
      </trkpt>
      <trkpt lat="48.60083" lon="-0.6465">
        <ele>159</ele>
        <time>2014-05-27T14:19:18Z</time>
      </trkpt>
      <trkpt lat="48.60079" lon="-0.64691">
        <ele>161</ele>
        <time>2014-05-27T14:19:29Z</time>
      </trkpt>
      <trkpt lat="48.6006" lon="-0.64741">
        <ele>164</ele>
        <time>2014-05-27T14:19:44Z</time>
      </trkpt>
      <trkpt lat="48.60027" lon="-0.64759">
        <ele>167</ele>
        <time>2014-05-27T14:19:57Z</time>
      </trkpt>
      <trkpt lat="48.59992" lon="-0.6477">
        <ele>170</ele>
        <time>2014-05-27T14:20:12Z</time>
      </trkpt>
      <trkpt lat="48.59965" lon="-0.64777">
        <ele>172.8</ele>
        <time>2014-05-27T14:20:24Z</time>
      </trkpt>
      <trkpt lat="48.59944" lon="-0.64785">
        <ele>175</ele>
        <time>2014-05-27T14:20:36Z</time>
      </trkpt>
      <trkpt lat="48.59919" lon="-0.64818">
        <ele>176.6</ele>
        <time>2014-05-27T14:20:50Z</time>
      </trkpt>
      <trkpt lat="48.59903" lon="-0.64835">
        <ele>177.8</ele>
        <time>2014-05-27T14:20:57Z</time>
      </trkpt>
      <trkpt lat="48.59894" lon="-0.64836">
        <ele>178.2</ele>
        <time>2014-05-27T14:21:01Z</time>
      </trkpt>
      <trkpt lat="48.59851" lon="-0.64849">
        <ele>180.8</ele>
        <time>2014-05-27T14:21:17Z</time>
      </trkpt>
      <trkpt lat="48.59826" lon="-0.64834">
        <ele>183</ele>
        <time>2014-05-27T14:21:29Z</time>
      </trkpt>
      <trkpt lat="48.59821" lon="-0.64821">
        <ele>184.4</ele>
        <time>2014-05-27T14:21:34Z</time>
      </trkpt>
      <trkpt lat="48.5982" lon="-0.64818">
        <ele>184.6</ele>
        <time>2014-05-27T14:21:35Z</time>
      </trkpt>
      <trkpt lat="48.59819" lon="-0.64815">
        <ele>185</ele>
        <time>2014-05-27T14:21:36Z</time>
      </trkpt>
      <trkpt lat="48.59819" lon="-0.64785">
        <ele>188</ele>
        <time>2014-05-27T14:21:48Z</time>
      </trkpt>
      <trkpt lat="48.59824" lon="-0.64764">
        <ele>191.2</ele>
        <time>2014-05-27T14:22:00Z</time>
      </trkpt>
      <trkpt lat="48.59826" lon="-0.64758">
        <ele>192</ele>
        <time>2014-05-27T14:22:04Z</time>
      </trkpt>
      <trkpt lat="48.59826" lon="-0.64755">
        <ele>192.2</ele>
        <time>2014-05-27T14:22:05Z</time>
      </trkpt>
      <trkpt lat="48.59826" lon="-0.64752">
        <ele>192.4</ele>
        <time>2014-05-27T14:22:06Z</time>
      </trkpt>
      <trkpt lat="48.59825" lon="-0.64724">
        <ele>194.2</ele>
        <time>2014-05-27T14:22:21Z</time>
      </trkpt>
      <trkpt lat="48.59824" lon="-0.6469">
        <ele>195.4</ele>
        <time>2014-05-27T14:22:33Z</time>
      </trkpt>
      <trkpt lat="48.59824" lon="-0.64687">
        <ele>195.4</ele>
        <time>2014-05-27T14:22:34Z</time>
      </trkpt>
      <trkpt lat="48.59824" lon="-0.64684">
        <ele>195.6</ele>
        <time>2014-05-27T14:22:35Z</time>
      </trkpt>
      <trkpt lat="48.59824" lon="-0.64681">
        <ele>195.6</ele>
        <time>2014-05-27T14:22:36Z</time>
      </trkpt>
      <trkpt lat="48.59824" lon="-0.64678">
        <ele>195.6</ele>
        <time>2014-05-27T14:22:37Z</time>
      </trkpt>
      <trkpt lat="48.59824" lon="-0.64675">
        <ele>195.6</ele>
        <time>2014-05-27T14:22:38Z</time>
      </trkpt>
      <trkpt lat="48.59824" lon="-0.64673">
        <ele>195.6</ele>
        <time>2014-05-27T14:22:39Z</time>
      </trkpt>
      <trkpt lat="48.59824" lon="-0.6467">
        <ele>195.6</ele>
        <time>2014-05-27T14:22:40Z</time>
      </trkpt>
      <trkpt lat="48.59824" lon="-0.64666">
        <ele>195.8</ele>
        <time>2014-05-27T14:22:41Z</time>
      </trkpt>
      <trkpt lat="48.59826" lon="-0.64649">
        <ele>196.4</ele>
        <time>2014-05-27T14:22:47Z</time>
      </trkpt>
      <trkpt lat="48.59823" lon="-0.64616">
        <ele>197.4</ele>
        <time>2014-05-27T14:22:57Z</time>
      </trkpt>
      <trkpt lat="48.59827" lon="-0.64564">
        <ele>198.2</ele>
        <time>2014-05-27T14:23:11Z</time>
      </trkpt>
      <trkpt lat="48.59839" lon="-0.64527">
        <ele>198.8</ele>
        <time>2014-05-27T14:23:22Z</time>
      </trkpt>
      <trkpt lat="48.59854" lon="-0.64494">
        <ele>199.4</ele>
        <time>2014-05-27T14:23:33Z</time>
      </trkpt>
      <trkpt lat="48.59855" lon="-0.6448">
        <ele>199.6</ele>
        <time>2014-05-27T14:23:37Z</time>
      </trkpt>
      <trkpt lat="48.59847" lon="-0.64443">
        <ele>200.8</ele>
        <time>2014-05-27T14:23:47Z</time>
      </trkpt>
      <trkpt lat="48.59844" lon="-0.64434">
        <ele>201</ele>
        <time>2014-05-27T14:23:50Z</time>
      </trkpt>
      <trkpt lat="48.59835" lon="-0.64379">
        <ele>203</ele>
        <time>2014-05-27T14:24:03Z</time>
      </trkpt>
      <trkpt lat="48.59833" lon="-0.64358">
        <ele>203.6</ele>
        <time>2014-05-27T14:24:08Z</time>
      </trkpt>
      <trkpt lat="48.59829" lon="-0.64316">
        <ele>204.2</ele>
        <time>2014-05-27T14:24:19Z</time>
      </trkpt>
      <trkpt lat="48.59831" lon="-0.64295">
        <ele>204.8</ele>
        <time>2014-05-27T14:24:25Z</time>
      </trkpt>
      <trkpt lat="48.59831" lon="-0.64285">
        <ele>205.2</ele>
        <time>2014-05-27T14:24:28Z</time>
      </trkpt>
      <trkpt lat="48.59835" lon="-0.64267">
        <ele>205.4</ele>
        <time>2014-05-27T14:24:33Z</time>
      </trkpt>
      <trkpt lat="48.59844" lon="-0.64201">
        <ele>206.2</ele>
        <time>2014-05-27T14:24:49Z</time>
      </trkpt>
      <trkpt lat="48.59848" lon="-0.64152">
        <ele>207</ele>
        <time>2014-05-27T14:25:00Z</time>
      </trkpt>
      <trkpt lat="48.59848" lon="-0.64148">
        <ele>207.2</ele>
        <time>2014-05-27T14:25:01Z</time>
      </trkpt>
      <trkpt lat="48.5985" lon="-0.64109">
        <ele>207.8</ele>
        <time>2014-05-27T14:25:11Z</time>
      </trkpt>
      <trkpt lat="48.59854" lon="-0.64063">
        <ele>208.8</ele>
        <time>2014-05-27T14:25:23Z</time>
      </trkpt>
      <trkpt lat="48.59854" lon="-0.64059">
        <ele>209</ele>
        <time>2014-05-27T14:25:24Z</time>
      </trkpt>
      <trkpt lat="48.59858" lon="-0.63989">
        <ele>212.4</ele>
        <time>2014-05-27T14:25:38Z</time>
      </trkpt>
      <trkpt lat="48.59851" lon="-0.63935">
        <ele>215.4</ele>
        <time>2014-05-27T14:25:50Z</time>
      </trkpt>
      <trkpt lat="48.59848" lon="-0.63913">
        <ele>216.6</ele>
        <time>2014-05-27T14:25:56Z</time>
      </trkpt>
      <trkpt lat="48.59846" lon="-0.63889">
        <ele>217.8</ele>
        <time>2014-05-27T14:26:02Z</time>
      </trkpt>
      <trkpt lat="48.5984" lon="-0.63855">
        <ele>220.4</ele>
        <time>2014-05-27T14:26:11Z</time>
      </trkpt>
      <trkpt lat="48.59834" lon="-0.63824">
        <ele>222.4</ele>
        <time>2014-05-27T14:26:19Z</time>
      </trkpt>
      <trkpt lat="48.59831" lon="-0.63804">
        <ele>223.6</ele>
        <time>2014-05-27T14:26:24Z</time>
      </trkpt>
      <trkpt lat="48.59822" lon="-0.63765">
        <ele>225.6</ele>
        <time>2014-05-27T14:26:35Z</time>
      </trkpt>
      <trkpt lat="48.59813" lon="-0.6373">
        <ele>226.8</ele>
        <time>2014-05-27T14:26:47Z</time>
      </trkpt>
      <trkpt lat="48.59805" lon="-0.63691">
        <ele>227.6</ele>
        <time>2014-05-27T14:26:58Z</time>
      </trkpt>
      <trkpt lat="48.59792" lon="-0.6365">
        <ele>228.6</ele>
        <time>2014-05-27T14:27:08Z</time>
      </trkpt>
      <trkpt lat="48.5978" lon="-0.63614">
        <ele>229.6</ele>
        <time>2014-05-27T14:27:18Z</time>
      </trkpt>
      <trkpt lat="48.59775" lon="-0.636">
        <ele>230.4</ele>
        <time>2014-05-27T14:27:22Z</time>
      </trkpt>
      <trkpt lat="48.59775" lon="-0.63596">
        <ele>230.6</ele>
        <time>2014-05-27T14:27:23Z</time>
      </trkpt>
      <trkpt lat="48.59758" lon="-0.63544">
        <ele>232</ele>
        <time>2014-05-27T14:27:35Z</time>
      </trkpt>
      <trkpt lat="48.59741" lon="-0.63474">
        <ele>232.6</ele>
        <time>2014-05-27T14:27:49Z</time>
      </trkpt>
      <trkpt lat="48.59729" lon="-0.63414">
        <ele>232.8</ele>
        <time>2014-05-27T14:28:00Z</time>
      </trkpt>
      <trkpt lat="48.59721" lon="-0.63351">
        <ele>234.2</ele>
        <time>2014-05-27T14:28:11Z</time>
      </trkpt>
      <trkpt lat="48.59717" lon="-0.63315">
        <ele>234.8</ele>
        <time>2014-05-27T14:28:17Z</time>
      </trkpt>
      <trkpt lat="48.59707" lon="-0.6324">
        <ele>236.4</ele>
        <time>2014-05-27T14:28:30Z</time>
      </trkpt>
      <trkpt lat="48.59699" lon="-0.63183">
        <ele>237.8</ele>
        <time>2014-05-27T14:28:41Z</time>
      </trkpt>
      <trkpt lat="48.59697" lon="-0.63157">
        <ele>238.2</ele>
        <time>2014-05-27T14:28:46Z</time>
      </trkpt>
      <trkpt lat="48.59697" lon="-0.63152">
        <ele>238.4</ele>
        <time>2014-05-27T14:28:47Z</time>
      </trkpt>
      <trkpt lat="48.59697" lon="-0.63148">
        <ele>238.4</ele>
        <time>2014-05-27T14:28:48Z</time>
      </trkpt>
      <trkpt lat="48.59697" lon="-0.63144">
        <ele>238.4</ele>
        <time>2014-05-27T14:28:49Z</time>
      </trkpt>
      <trkpt lat="48.59697" lon="-0.6314">
        <ele>238.4</ele>
        <time>2014-05-27T14:28:50Z</time>
      </trkpt>
      <trkpt lat="48.59696" lon="-0.63084">
        <ele>238.2</ele>
        <time>2014-05-27T14:29:03Z</time>
      </trkpt>
      <trkpt lat="48.59695" lon="-0.63025">
        <ele>237.4</ele>
        <time>2014-05-27T14:29:14Z</time>
      </trkpt>
      <trkpt lat="48.59694" lon="-0.63018">
        <ele>237.4</ele>
        <time>2014-05-27T14:29:15Z</time>
      </trkpt>
      <trkpt lat="48.59694" lon="-0.63012">
        <ele>237.2</ele>
        <time>2014-05-27T14:29:16Z</time>
      </trkpt>
      <trkpt lat="48.59694" lon="-0.63005">
        <ele>237.2</ele>
        <time>2014-05-27T14:29:17Z</time>
      </trkpt>
      <trkpt lat="48.59693" lon="-0.62998">
        <ele>237</ele>
        <time>2014-05-27T14:29:18Z</time>
      </trkpt>
      <trkpt lat="48.59693" lon="-0.62991">
        <ele>237</ele>
        <time>2014-05-27T14:29:19Z</time>
      </trkpt>
      <trkpt lat="48.59692" lon="-0.62984">
        <ele>236.8</ele>
        <time>2014-05-27T14:29:20Z</time>
      </trkpt>
      <trkpt lat="48.59689" lon="-0.62918">
        <ele>236.4</ele>
        <time>2014-05-27T14:29:29Z</time>
      </trkpt>
      <trkpt lat="48.59684" lon="-0.62846">
        <ele>236</ele>
        <time>2014-05-27T14:29:41Z</time>
      </trkpt>
      <trkpt lat="48.59683" lon="-0.62843">
        <ele>236.2</ele>
        <time>2014-05-27T14:29:42Z</time>
      </trkpt>
      <trkpt lat="48.59681" lon="-0.62838">
        <ele>236.2</ele>
        <time>2014-05-27T14:29:44Z</time>
      </trkpt>
      <trkpt lat="48.59679" lon="-0.62837">
        <ele>236.2</ele>
        <time>2014-05-27T14:29:45Z</time>
      </trkpt>
      <trkpt lat="48.59679" lon="-0.62836">
        <ele>236.6</ele>
        <time>2014-05-27T14:29:49Z</time>
      </trkpt>
      <trkpt lat="48.5966" lon="-0.62835">
        <ele>236.8</ele>
        <time>2014-05-27T14:32:33Z</time>
      </trkpt>
      <trkpt lat="48.59658" lon="-0.62835">
        <ele>236.8</ele>
        <time>2014-05-27T14:32:34Z</time>
      </trkpt>
      <trkpt lat="48.59656" lon="-0.62835">
        <ele>236.8</ele>
        <time>2014-05-27T14:32:35Z</time>
      </trkpt>
      <trkpt lat="48.59654" lon="-0.62835">
        <ele>236.8</ele>
        <time>2014-05-27T14:32:36Z</time>
      </trkpt>
      <trkpt lat="48.59651" lon="-0.62836">
        <ele>236.8</ele>
        <time>2014-05-27T14:32:37Z</time>
      </trkpt>
      <trkpt lat="48.5962" lon="-0.6284">
        <ele>237</ele>
        <time>2014-05-27T14:32:48Z</time>
      </trkpt>
      <trkpt lat="48.59587" lon="-0.62834">
        <ele>236.6</ele>
        <time>2014-05-27T14:32:56Z</time>
      </trkpt>
      <trkpt lat="48.59577" lon="-0.62828">
        <ele>236.2</ele>
        <time>2014-05-27T14:32:58Z</time>
      </trkpt>
      <trkpt lat="48.59573" lon="-0.62823">
        <ele>235.8</ele>
        <time>2014-05-27T14:32:59Z</time>
      </trkpt>
      <trkpt lat="48.59568" lon="-0.62817">
        <ele>235.8</ele>
        <time>2014-05-27T14:33:00Z</time>
      </trkpt>
      <trkpt lat="48.59563" lon="-0.62812">
        <ele>235.6</ele>
        <time>2014-05-27T14:33:01Z</time>
      </trkpt>
      <trkpt lat="48.59558" lon="-0.62807">
        <ele>235.2</ele>
        <time>2014-05-27T14:33:02Z</time>
      </trkpt>
      <trkpt lat="48.59553" lon="-0.62803">
        <ele>235</ele>
        <time>2014-05-27T14:33:03Z</time>
      </trkpt>
      <trkpt lat="48.59542" lon="-0.62796">
        <ele>234.6</ele>
        <time>2014-05-27T14:33:05Z</time>
      </trkpt>
      <trkpt lat="48.59537" lon="-0.62794">
        <ele>234.2</ele>
        <time>2014-05-27T14:33:06Z</time>
      </trkpt>
      <trkpt lat="48.59531" lon="-0.62792">
        <ele>234</ele>
        <time>2014-05-27T14:33:07Z</time>
      </trkpt>
      <trkpt lat="48.59463" lon="-0.62786">
        <ele>230.6</ele>
        <time>2014-05-27T14:33:17Z</time>
      </trkpt>
      <trkpt lat="48.59399" lon="-0.62781">
        <ele>227.2</ele>
        <time>2014-05-27T14:33:25Z</time>
      </trkpt>
      <trkpt lat="48.59332" lon="-0.62792">
        <ele>224.8</ele>
        <time>2014-05-27T14:33:36Z</time>
      </trkpt>
      <trkpt lat="48.59275" lon="-0.62811">
        <ele>225.4</ele>
        <time>2014-05-27T14:33:47Z</time>
      </trkpt>
      <trkpt lat="48.59218" lon="-0.62831">
        <ele>226.8</ele>
        <time>2014-05-27T14:33:59Z</time>
      </trkpt>
      <trkpt lat="48.59201" lon="-0.62837">
        <ele>227.6</ele>
        <time>2014-05-27T14:34:03Z</time>
      </trkpt>
      <trkpt lat="48.59178" lon="-0.62841">
        <ele>228.4</ele>
        <time>2014-05-27T14:34:10Z</time>
      </trkpt>
      <trkpt lat="48.59176" lon="-0.62838">
        <ele>228.6</ele>
        <time>2014-05-27T14:34:11Z</time>
      </trkpt>
      <trkpt lat="48.59174" lon="-0.62835">
        <ele>228.8</ele>
        <time>2014-05-27T14:34:12Z</time>
      </trkpt>
      <trkpt lat="48.59169" lon="-0.62826">
        <ele>230</ele>
        <time>2014-05-27T14:34:20Z</time>
      </trkpt>
      <trkpt lat="48.59163" lon="-0.62824">
        <ele>230.4</ele>
        <time>2014-05-27T14:34:26Z</time>
      </trkpt>
      <trkpt lat="48.59161" lon="-0.62824">
        <ele>230.4</ele>
        <time>2014-05-27T14:34:27Z</time>
      </trkpt>
      <trkpt lat="48.59158" lon="-0.62824">
        <ele>230.4</ele>
        <time>2014-05-27T14:34:28Z</time>
      </trkpt>
      <trkpt lat="48.59155" lon="-0.62823">
        <ele>230.4</ele>
        <time>2014-05-27T14:34:29Z</time>
      </trkpt>
      <trkpt lat="48.59148" lon="-0.62817">
        <ele>230.6</ele>
        <time>2014-05-27T14:34:36Z</time>
      </trkpt>
      <trkpt lat="48.59148" lon="-0.62813">
        <ele>230.6</ele>
        <time>2014-05-27T14:34:37Z</time>
      </trkpt>
      <trkpt lat="48.59147" lon="-0.62809">
        <ele>230.6</ele>
        <time>2014-05-27T14:34:38Z</time>
      </trkpt>
      <trkpt lat="48.59145" lon="-0.62738">
        <ele>232</ele>
        <time>2014-05-27T14:34:51Z</time>
      </trkpt>
      <trkpt lat="48.59139" lon="-0.62634">
        <ele>234</ele>
        <time>2014-05-27T14:35:06Z</time>
      </trkpt>
      <trkpt lat="48.59131" lon="-0.6252">
        <ele>234.8</ele>
        <time>2014-05-27T14:35:22Z</time>
      </trkpt>
      <trkpt lat="48.5913" lon="-0.62513">
        <ele>234.8</ele>
        <time>2014-05-27T14:35:23Z</time>
      </trkpt>
      <trkpt lat="48.59129" lon="-0.62505">
        <ele>234.8</ele>
        <time>2014-05-27T14:35:24Z</time>
      </trkpt>
      <trkpt lat="48.59129" lon="-0.62498">
        <ele>235</ele>
        <time>2014-05-27T14:35:25Z</time>
      </trkpt>
      <trkpt lat="48.59129" lon="-0.6249">
        <ele>235</ele>
        <time>2014-05-27T14:35:26Z</time>
      </trkpt>
      <trkpt lat="48.59129" lon="-0.62483">
        <ele>235</ele>
        <time>2014-05-27T14:35:27Z</time>
      </trkpt>
      <trkpt lat="48.59129" lon="-0.62475">
        <ele>235</ele>
        <time>2014-05-27T14:35:28Z</time>
      </trkpt>
      <trkpt lat="48.59128" lon="-0.62458">
        <ele>235</ele>
        <time>2014-05-27T14:35:30Z</time>
      </trkpt>
      <trkpt lat="48.59128" lon="-0.6245">
        <ele>235</ele>
        <time>2014-05-27T14:35:31Z</time>
      </trkpt>
      <trkpt lat="48.59127" lon="-0.62442">
        <ele>234.8</ele>
        <time>2014-05-27T14:35:32Z</time>
      </trkpt>
      <trkpt lat="48.59126" lon="-0.62433">
        <ele>234.8</ele>
        <time>2014-05-27T14:35:33Z</time>
      </trkpt>
      <trkpt lat="48.59126" lon="-0.62425">
        <ele>234.8</ele>
        <time>2014-05-27T14:35:34Z</time>
      </trkpt>
      <trkpt lat="48.59126" lon="-0.62416">
        <ele>234.6</ele>
        <time>2014-05-27T14:35:35Z</time>
      </trkpt>
      <trkpt lat="48.59118" lon="-0.6231">
        <ele>234.6</ele>
        <time>2014-05-27T14:35:48Z</time>
      </trkpt>
      <trkpt lat="48.59117" lon="-0.62293">
        <ele>234.8</ele>
        <time>2014-05-27T14:35:50Z</time>
      </trkpt>
      <trkpt lat="48.59116" lon="-0.62285">
        <ele>234.8</ele>
        <time>2014-05-27T14:35:51Z</time>
      </trkpt>
      <trkpt lat="48.59115" lon="-0.6226">
        <ele>235</ele>
        <time>2014-05-27T14:35:54Z</time>
      </trkpt>
      <trkpt lat="48.59114" lon="-0.62252">
        <ele>235.2</ele>
        <time>2014-05-27T14:35:55Z</time>
      </trkpt>
      <trkpt lat="48.59114" lon="-0.62243">
        <ele>235.2</ele>
        <time>2014-05-27T14:35:56Z</time>
      </trkpt>
      <trkpt lat="48.59114" lon="-0.62234">
        <ele>235.4</ele>
        <time>2014-05-27T14:35:57Z</time>
      </trkpt>
      <trkpt lat="48.59113" lon="-0.62226">
        <ele>235.4</ele>
        <time>2014-05-27T14:35:58Z</time>
      </trkpt>
      <trkpt lat="48.59111" lon="-0.62181">
        <ele>236.4</ele>
        <time>2014-05-27T14:36:03Z</time>
      </trkpt>
      <trkpt lat="48.5911" lon="-0.62173">
        <ele>236.4</ele>
        <time>2014-05-27T14:36:04Z</time>
      </trkpt>
      <trkpt lat="48.59105" lon="-0.6211">
        <ele>237.6</ele>
        <time>2014-05-27T14:36:11Z</time>
      </trkpt>
      <trkpt lat="48.59105" lon="-0.62101">
        <ele>237.8</ele>
        <time>2014-05-27T14:36:12Z</time>
      </trkpt>
      <trkpt lat="48.59101" lon="-0.6202">
        <ele>240.6</ele>
        <time>2014-05-27T14:36:21Z</time>
      </trkpt>
      <trkpt lat="48.591" lon="-0.62002">
        <ele>240.8</ele>
        <time>2014-05-27T14:36:23Z</time>
      </trkpt>
      <trkpt lat="48.5909" lon="-0.6186">
        <ele>241</ele>
        <time>2014-05-27T14:36:40Z</time>
      </trkpt>
      <trkpt lat="48.59078" lon="-0.61707">
        <ele>237.4</ele>
        <time>2014-05-27T14:36:54Z</time>
      </trkpt>
      <trkpt lat="48.59072" lon="-0.61627">
        <ele>234.2</ele>
        <time>2014-05-27T14:37:00Z</time>
      </trkpt>
      <trkpt lat="48.59065" lon="-0.61584">
        <ele>233</ele>
        <time>2014-05-27T14:37:04Z</time>
      </trkpt>
      <trkpt lat="48.5906" lon="-0.61529">
        <ele>232.4</ele>
        <time>2014-05-27T14:37:10Z</time>
      </trkpt>
      <trkpt lat="48.59055" lon="-0.61509">
        <ele>232.6</ele>
        <time>2014-05-27T14:37:13Z</time>
      </trkpt>
      <trkpt lat="48.59055" lon="-0.61503">
        <ele>232.8</ele>
        <time>2014-05-27T14:37:14Z</time>
      </trkpt>
      <trkpt lat="48.59054" lon="-0.61497">
        <ele>232.8</ele>
        <time>2014-05-27T14:37:15Z</time>
      </trkpt>
      <trkpt lat="48.59049" lon="-0.61479">
        <ele>233.8</ele>
        <time>2014-05-27T14:37:24Z</time>
      </trkpt>
      <trkpt lat="48.59049" lon="-0.61479">
        <ele>233.8</ele>
        <time>2014-05-27T14:37:25Z</time>
      </trkpt>
      <trkpt lat="48.59045" lon="-0.61471">
        <ele>234.4</ele>
        <time>2014-05-27T14:49:06Z</time>
      </trkpt>
      <trkpt lat="48.59045" lon="-0.61469">
        <ele>234.4</ele>
        <time>2014-05-27T14:49:07Z</time>
      </trkpt>
      <trkpt lat="48.59045" lon="-0.61466">
        <ele>234.4</ele>
        <time>2014-05-27T14:49:08Z</time>
      </trkpt>
      <trkpt lat="48.59044" lon="-0.61464">
        <ele>234.4</ele>
        <time>2014-05-27T14:49:09Z</time>
      </trkpt>
      <trkpt lat="48.59044" lon="-0.61461">
        <ele>234.4</ele>
        <time>2014-05-27T14:49:10Z</time>
      </trkpt>
      <trkpt lat="48.59044" lon="-0.61459">
        <ele>234.2</ele>
        <time>2014-05-27T14:49:11Z</time>
      </trkpt>
      <trkpt lat="48.59042" lon="-0.61456">
        <ele>234.2</ele>
        <time>2014-05-27T14:49:12Z</time>
      </trkpt>
      <trkpt lat="48.59041" lon="-0.61454">
        <ele>234.2</ele>
        <time>2014-05-27T14:49:13Z</time>
      </trkpt>
      <trkpt lat="48.5904" lon="-0.61448">
        <ele>234.2</ele>
        <time>2014-05-27T14:49:15Z</time>
      </trkpt>
      <trkpt lat="48.59035" lon="-0.61411">
        <ele>235</ele>
        <time>2014-05-27T14:49:26Z</time>
      </trkpt>
      <trkpt lat="48.59027" lon="-0.61352">
        <ele>235.4</ele>
        <time>2014-05-27T14:49:38Z</time>
      </trkpt>
      <trkpt lat="48.59023" lon="-0.61293">
        <ele>237</ele>
        <time>2014-05-27T14:49:50Z</time>
      </trkpt>
      <trkpt lat="48.59012" lon="-0.61244">
        <ele>237.4</ele>
        <time>2014-05-27T14:49:59Z</time>
      </trkpt>
      <trkpt lat="48.59006" lon="-0.61233">
        <ele>237.4</ele>
        <time>2014-05-27T14:50:01Z</time>
      </trkpt>
      <trkpt lat="48.58985" lon="-0.61197">
        <ele>237</ele>
        <time>2014-05-27T14:50:08Z</time>
      </trkpt>
      <trkpt lat="48.58982" lon="-0.61192">
        <ele>237</ele>
        <time>2014-05-27T14:50:09Z</time>
      </trkpt>
      <trkpt lat="48.58975" lon="-0.61172">
        <ele>237</ele>
        <time>2014-05-27T14:50:12Z</time>
      </trkpt>
      <trkpt lat="48.58955" lon="-0.61105">
        <ele>237.4</ele>
        <time>2014-05-27T14:50:22Z</time>
      </trkpt>
      <trkpt lat="48.58939" lon="-0.61045">
        <ele>240.8</ele>
        <time>2014-05-27T14:50:32Z</time>
      </trkpt>
      <trkpt lat="48.58929" lon="-0.61018">
        <ele>242.8</ele>
        <time>2014-05-27T14:50:37Z</time>
      </trkpt>
      <trkpt lat="48.58927" lon="-0.61012">
        <ele>243.2</ele>
        <time>2014-05-27T14:50:38Z</time>
      </trkpt>
      <trkpt lat="48.58915" lon="-0.60973">
        <ele>244.8</ele>
        <time>2014-05-27T14:50:44Z</time>
      </trkpt>
      <trkpt lat="48.58914" lon="-0.60966">
        <ele>245</ele>
        <time>2014-05-27T14:50:45Z</time>
      </trkpt>
      <trkpt lat="48.58911" lon="-0.60947">
        <ele>245.4</ele>
        <time>2014-05-27T14:50:48Z</time>
      </trkpt>
      <trkpt lat="48.58911" lon="-0.6094">
        <ele>245.6</ele>
        <time>2014-05-27T14:50:49Z</time>
      </trkpt>
      <trkpt lat="48.58911" lon="-0.60933">
        <ele>245.8</ele>
        <time>2014-05-27T14:50:50Z</time>
      </trkpt>
      <trkpt lat="48.58909" lon="-0.60905">
        <ele>246</ele>
        <time>2014-05-27T14:50:54Z</time>
      </trkpt>
      <trkpt lat="48.58905" lon="-0.60868">
        <ele>246</ele>
        <time>2014-05-27T14:50:59Z</time>
      </trkpt>
      <trkpt lat="48.58896" lon="-0.60822">
        <ele>246</ele>
        <time>2014-05-27T14:51:05Z</time>
      </trkpt>
      <trkpt lat="48.58895" lon="-0.60814">
        <ele>246</ele>
        <time>2014-05-27T14:51:06Z</time>
      </trkpt>
      <trkpt lat="48.58893" lon="-0.60805">
        <ele>245.8</ele>
        <time>2014-05-27T14:51:07Z</time>
      </trkpt>
      <trkpt lat="48.5889" lon="-0.60781">
        <ele>245.6</ele>
        <time>2014-05-27T14:51:10Z</time>
      </trkpt>
      <trkpt lat="48.5889" lon="-0.60773">
        <ele>245.6</ele>
        <time>2014-05-27T14:51:11Z</time>
      </trkpt>
      <trkpt lat="48.58889" lon="-0.60765">
        <ele>245.6</ele>
        <time>2014-05-27T14:51:12Z</time>
      </trkpt>
      <trkpt lat="48.58888" lon="-0.60758">
        <ele>245.8</ele>
        <time>2014-05-27T14:51:13Z</time>
      </trkpt>
      <trkpt lat="48.58886" lon="-0.6075">
        <ele>245.8</ele>
        <time>2014-05-27T14:51:14Z</time>
      </trkpt>
      <trkpt lat="48.58885" lon="-0.60743">
        <ele>245.8</ele>
        <time>2014-05-27T14:51:15Z</time>
      </trkpt>
      <trkpt lat="48.58885" lon="-0.60734">
        <ele>245.8</ele>
        <time>2014-05-27T14:51:16Z</time>
      </trkpt>
      <trkpt lat="48.58884" lon="-0.60726">
        <ele>245.8</ele>
        <time>2014-05-27T14:51:17Z</time>
      </trkpt>
      <trkpt lat="48.58883" lon="-0.60718">
        <ele>245.8</ele>
        <time>2014-05-27T14:51:18Z</time>
      </trkpt>
      <trkpt lat="48.58882" lon="-0.6071">
        <ele>245.8</ele>
        <time>2014-05-27T14:51:19Z</time>
      </trkpt>
      <trkpt lat="48.58882" lon="-0.60702">
        <ele>245.8</ele>
        <time>2014-05-27T14:51:20Z</time>
      </trkpt>
      <trkpt lat="48.58881" lon="-0.60694">
        <ele>245.8</ele>
        <time>2014-05-27T14:51:21Z</time>
      </trkpt>
      <trkpt lat="48.5888" lon="-0.60686">
        <ele>245.8</ele>
        <time>2014-05-27T14:51:22Z</time>
      </trkpt>
      <trkpt lat="48.58879" lon="-0.60677">
        <ele>245.8</ele>
        <time>2014-05-27T14:51:23Z</time>
      </trkpt>
      <trkpt lat="48.58878" lon="-0.60668">
        <ele>245.8</ele>
        <time>2014-05-27T14:51:24Z</time>
      </trkpt>
      <trkpt lat="48.58877" lon="-0.60658">
        <ele>245.6</ele>
        <time>2014-05-27T14:51:25Z</time>
      </trkpt>
      <trkpt lat="48.58876" lon="-0.60649">
        <ele>245.6</ele>
        <time>2014-05-27T14:51:26Z</time>
      </trkpt>
      <trkpt lat="48.58875" lon="-0.6064">
        <ele>245.6</ele>
        <time>2014-05-27T14:51:27Z</time>
      </trkpt>
      <trkpt lat="48.58874" lon="-0.60631">
        <ele>245.6</ele>
        <time>2014-05-27T14:51:28Z</time>
      </trkpt>
      <trkpt lat="48.58869" lon="-0.60583">
        <ele>245.6</ele>
        <time>2014-05-27T14:51:34Z</time>
      </trkpt>
      <trkpt lat="48.58868" lon="-0.60574">
        <ele>245.6</ele>
        <time>2014-05-27T14:51:35Z</time>
      </trkpt>
      <trkpt lat="48.58867" lon="-0.60549">
        <ele>246</ele>
        <time>2014-05-27T14:51:38Z</time>
      </trkpt>
      <trkpt lat="48.58868" lon="-0.60542">
        <ele>246.2</ele>
        <time>2014-05-27T14:51:39Z</time>
      </trkpt>
      <trkpt lat="48.58867" lon="-0.60528">
        <ele>247</ele>
        <time>2014-05-27T14:51:41Z</time>
      </trkpt>
      <trkpt lat="48.58861" lon="-0.60464">
        <ele>249.4</ele>
        <time>2014-05-27T14:51:51Z</time>
      </trkpt>
      <trkpt lat="48.5886" lon="-0.60449">
        <ele>249.6</ele>
        <time>2014-05-27T14:51:53Z</time>
      </trkpt>
      <trkpt lat="48.5886" lon="-0.60441">
        <ele>249.6</ele>
        <time>2014-05-27T14:51:54Z</time>
      </trkpt>
      <trkpt lat="48.58855" lon="-0.6041">
        <ele>249.6</ele>
        <time>2014-05-27T14:51:58Z</time>
      </trkpt>
      <trkpt lat="48.58844" lon="-0.60312">
        <ele>250.2</ele>
        <time>2014-05-27T14:52:11Z</time>
      </trkpt>
      <trkpt lat="48.58843" lon="-0.60297">
        <ele>250.2</ele>
        <time>2014-05-27T14:52:13Z</time>
      </trkpt>
      <trkpt lat="48.58842" lon="-0.60289">
        <ele>250.2</ele>
        <time>2014-05-27T14:52:14Z</time>
      </trkpt>
      <trkpt lat="48.5884" lon="-0.60281">
        <ele>250.2</ele>
        <time>2014-05-27T14:52:15Z</time>
      </trkpt>
      <trkpt lat="48.58839" lon="-0.60273">
        <ele>250.2</ele>
        <time>2014-05-27T14:52:16Z</time>
      </trkpt>
      <trkpt lat="48.58838" lon="-0.60265">
        <ele>250.2</ele>
        <time>2014-05-27T14:52:17Z</time>
      </trkpt>
      <trkpt lat="48.58835" lon="-0.60244">
        <ele>250.2</ele>
        <time>2014-05-27T14:52:20Z</time>
      </trkpt>
      <trkpt lat="48.58833" lon="-0.60236">
        <ele>250.2</ele>
        <time>2014-05-27T14:52:21Z</time>
      </trkpt>
      <trkpt lat="48.58832" lon="-0.60229">
        <ele>250.2</ele>
        <time>2014-05-27T14:52:22Z</time>
      </trkpt>
      <trkpt lat="48.5883" lon="-0.60222">
        <ele>250.2</ele>
        <time>2014-05-27T14:52:23Z</time>
      </trkpt>
      <trkpt lat="48.58828" lon="-0.60215">
        <ele>250.2</ele>
        <time>2014-05-27T14:52:24Z</time>
      </trkpt>
      <trkpt lat="48.58827" lon="-0.60209">
        <ele>250.4</ele>
        <time>2014-05-27T14:52:25Z</time>
      </trkpt>
      <trkpt lat="48.58826" lon="-0.60202">
        <ele>250.4</ele>
        <time>2014-05-27T14:52:26Z</time>
      </trkpt>
      <trkpt lat="48.58824" lon="-0.60195">
        <ele>250.6</ele>
        <time>2014-05-27T14:52:27Z</time>
      </trkpt>
      <trkpt lat="48.58823" lon="-0.60188">
        <ele>250.8</ele>
        <time>2014-05-27T14:52:28Z</time>
      </trkpt>
      <trkpt lat="48.58814" lon="-0.60145">
        <ele>252</ele>
        <time>2014-05-27T14:52:35Z</time>
      </trkpt>
      <trkpt lat="48.58814" lon="-0.60139">
        <ele>252.2</ele>
        <time>2014-05-27T14:52:36Z</time>
      </trkpt>
      <trkpt lat="48.58813" lon="-0.60132">
        <ele>252.4</ele>
        <time>2014-05-27T14:52:37Z</time>
      </trkpt>
      <trkpt lat="48.58809" lon="-0.60116">
        <ele>252.4</ele>
        <time>2014-05-27T14:52:39Z</time>
      </trkpt>
      <trkpt lat="48.58806" lon="-0.60101">
        <ele>252.4</ele>
        <time>2014-05-27T14:52:41Z</time>
      </trkpt>
      <trkpt lat="48.58802" lon="-0.60074">
        <ele>252.2</ele>
        <time>2014-05-27T14:52:44Z</time>
      </trkpt>
      <trkpt lat="48.588" lon="-0.60065">
        <ele>252</ele>
        <time>2014-05-27T14:52:45Z</time>
      </trkpt>
      <trkpt lat="48.58798" lon="-0.60057">
        <ele>251.8</ele>
        <time>2014-05-27T14:52:46Z</time>
      </trkpt>
      <trkpt lat="48.58796" lon="-0.60049">
        <ele>251.8</ele>
        <time>2014-05-27T14:52:47Z</time>
      </trkpt>
      <trkpt lat="48.58795" lon="-0.60041">
        <ele>251.6</ele>
        <time>2014-05-27T14:52:48Z</time>
      </trkpt>
      <trkpt lat="48.58794" lon="-0.60033">
        <ele>251.2</ele>
        <time>2014-05-27T14:52:49Z</time>
      </trkpt>
      <trkpt lat="48.58793" lon="-0.60025">
        <ele>251</ele>
        <time>2014-05-27T14:52:50Z</time>
      </trkpt>
      <trkpt lat="48.58792" lon="-0.60018">
        <ele>250.8</ele>
        <time>2014-05-27T14:52:51Z</time>
      </trkpt>
      <trkpt lat="48.58791" lon="-0.60011">
        <ele>250.6</ele>
        <time>2014-05-27T14:52:52Z</time>
      </trkpt>
      <trkpt lat="48.5879" lon="-0.60003">
        <ele>250.4</ele>
        <time>2014-05-27T14:52:53Z</time>
      </trkpt>
      <trkpt lat="48.58788" lon="-0.59995">
        <ele>250.2</ele>
        <time>2014-05-27T14:52:54Z</time>
      </trkpt>
      <trkpt lat="48.58787" lon="-0.59987">
        <ele>250.2</ele>
        <time>2014-05-27T14:52:55Z</time>
      </trkpt>
      <trkpt lat="48.58783" lon="-0.59966">
        <ele>250</ele>
        <time>2014-05-27T14:52:58Z</time>
      </trkpt>
      <trkpt lat="48.58781" lon="-0.59958">
        <ele>249.8</ele>
        <time>2014-05-27T14:52:59Z</time>
      </trkpt>
      <trkpt lat="48.58778" lon="-0.59942">
        <ele>249.8</ele>
        <time>2014-05-27T14:53:01Z</time>
      </trkpt>
      <trkpt lat="48.58774" lon="-0.59918">
        <ele>249.8</ele>
        <time>2014-05-27T14:53:04Z</time>
      </trkpt>
      <trkpt lat="48.58772" lon="-0.59911">
        <ele>249.8</ele>
        <time>2014-05-27T14:53:05Z</time>
      </trkpt>
      <trkpt lat="48.58762" lon="-0.59879">
        <ele>250</ele>
        <time>2014-05-27T14:53:09Z</time>
      </trkpt>
      <trkpt lat="48.58745" lon="-0.59773">
        <ele>249.6</ele>
        <time>2014-05-27T14:53:21Z</time>
      </trkpt>
      <trkpt lat="48.58737" lon="-0.5974">
        <ele>249.4</ele>
        <time>2014-05-27T14:53:25Z</time>
      </trkpt>
      <trkpt lat="48.58716" lon="-0.59659">
        <ele>249.8</ele>
        <time>2014-05-27T14:53:35Z</time>
      </trkpt>
      <trkpt lat="48.58695" lon="-0.59585">
        <ele>250.2</ele>
        <time>2014-05-27T14:53:47Z</time>
      </trkpt>
      <trkpt lat="48.58694" lon="-0.59578">
        <ele>250.2</ele>
        <time>2014-05-27T14:53:48Z</time>
      </trkpt>
      <trkpt lat="48.58685" lon="-0.59535">
        <ele>250</ele>
        <time>2014-05-27T14:53:54Z</time>
      </trkpt>
      <trkpt lat="48.5867" lon="-0.59473">
        <ele>248.8</ele>
        <time>2014-05-27T14:54:05Z</time>
      </trkpt>
      <trkpt lat="48.58659" lon="-0.59427">
        <ele>247.8</ele>
        <time>2014-05-27T14:54:14Z</time>
      </trkpt>
      <trkpt lat="48.58656" lon="-0.5941">
        <ele>247.6</ele>
        <time>2014-05-27T14:54:16Z</time>
      </trkpt>
      <trkpt lat="48.58651" lon="-0.59384">
        <ele>247.2</ele>
        <time>2014-05-27T14:54:20Z</time>
      </trkpt>
      <trkpt lat="48.58646" lon="-0.59367">
        <ele>247</ele>
        <time>2014-05-27T14:54:23Z</time>
      </trkpt>
      <trkpt lat="48.5864" lon="-0.59324">
        <ele>247</ele>
        <time>2014-05-27T14:54:30Z</time>
      </trkpt>
      <trkpt lat="48.58637" lon="-0.59311">
        <ele>246.8</ele>
        <time>2014-05-27T14:54:32Z</time>
      </trkpt>
      <trkpt lat="48.58626" lon="-0.59283">
        <ele>246.4</ele>
        <time>2014-05-27T14:54:39Z</time>
      </trkpt>
      <trkpt lat="48.58623" lon="-0.59236">
        <ele>244.4</ele>
        <time>2014-05-27T14:54:51Z</time>
      </trkpt>
      <trkpt lat="48.5862" lon="-0.59216">
        <ele>243</ele>
        <time>2014-05-27T14:54:55Z</time>
      </trkpt>
      <trkpt lat="48.58612" lon="-0.59185">
        <ele>239.6</ele>
        <time>2014-05-27T14:55:02Z</time>
      </trkpt>
      <trkpt lat="48.58611" lon="-0.59167">
        <ele>237.6</ele>
        <time>2014-05-27T14:55:07Z</time>
      </trkpt>
      <trkpt lat="48.58602" lon="-0.59138">
        <ele>234.8</ele>
        <time>2014-05-27T14:55:17Z</time>
      </trkpt>
      <trkpt lat="48.58597" lon="-0.59121">
        <ele>232.4</ele>
        <time>2014-05-27T14:55:24Z</time>
      </trkpt>
      <trkpt lat="48.58593" lon="-0.59101">
        <ele>230.6</ele>
        <time>2014-05-27T14:55:39Z</time>
      </trkpt>
      <trkpt lat="48.58593" lon="-0.59094">
        <ele>230.4</ele>
        <time>2014-05-27T14:55:42Z</time>
      </trkpt>
      <trkpt lat="48.58593" lon="-0.5905">
        <ele>227.2</ele>
        <time>2014-05-27T14:55:54Z</time>
      </trkpt>
      <trkpt lat="48.58593" lon="-0.59042">
        <ele>226.6</ele>
        <time>2014-05-27T14:55:56Z</time>
      </trkpt>
      <trkpt lat="48.58596" lon="-0.59007">
        <ele>223.8</ele>
        <time>2014-05-27T14:56:06Z</time>
      </trkpt>
      <trkpt lat="48.58602" lon="-0.5899">
        <ele>221.6</ele>
        <time>2014-05-27T14:56:13Z</time>
      </trkpt>
      <trkpt lat="48.58601" lon="-0.5897">
        <ele>220.2</ele>
        <time>2014-05-27T14:56:18Z</time>
      </trkpt>
      <trkpt lat="48.58593" lon="-0.58939">
        <ele>218.2</ele>
        <time>2014-05-27T14:56:30Z</time>
      </trkpt>
      <trkpt lat="48.58588" lon="-0.58932">
        <ele>218</ele>
        <time>2014-05-27T14:56:34Z</time>
      </trkpt>
      <trkpt lat="48.58577" lon="-0.58925">
        <ele>218.6</ele>
        <time>2014-05-27T14:56:39Z</time>
      </trkpt>
      <trkpt lat="48.58563" lon="-0.58911">
        <ele>219.2</ele>
        <time>2014-05-27T14:56:46Z</time>
      </trkpt>
      <trkpt lat="48.58555" lon="-0.58902">
        <ele>220</ele>
        <time>2014-05-27T14:56:52Z</time>
      </trkpt>
      <trkpt lat="48.58543" lon="-0.58877">
        <ele>222</ele>
        <time>2014-05-27T14:57:03Z</time>
      </trkpt>
      <trkpt lat="48.58538" lon="-0.58858">
        <ele>222.6</ele>
        <time>2014-05-27T14:57:09Z</time>
      </trkpt>
      <trkpt lat="48.5853" lon="-0.58823">
        <ele>224.8</ele>
        <time>2014-05-27T14:57:20Z</time>
      </trkpt>
      <trkpt lat="48.58524" lon="-0.58799">
        <ele>226.6</ele>
        <time>2014-05-27T14:57:28Z</time>
      </trkpt>
      <trkpt lat="48.58532" lon="-0.58797">
        <ele>227.8</ele>
        <time>2014-05-27T14:57:35Z</time>
      </trkpt>
      <trkpt lat="48.58547" lon="-0.5879">
        <ele>229.2</ele>
        <time>2014-05-27T14:57:41Z</time>
      </trkpt>
      <trkpt lat="48.58559" lon="-0.58778">
        <ele>230.4</ele>
        <time>2014-05-27T14:57:45Z</time>
      </trkpt>
      <trkpt lat="48.58563" lon="-0.58772">
        <ele>231</ele>
        <time>2014-05-27T14:57:47Z</time>
      </trkpt>
      <trkpt lat="48.58574" lon="-0.58735">
        <ele>234.8</ele>
        <time>2014-05-27T14:57:55Z</time>
      </trkpt>
      <trkpt lat="48.58577" lon="-0.58718">
        <ele>236</ele>
        <time>2014-05-27T14:57:58Z</time>
      </trkpt>
      <trkpt lat="48.58578" lon="-0.58675">
        <ele>239.8</ele>
        <time>2014-05-27T14:58:06Z</time>
      </trkpt>
      <trkpt lat="48.58577" lon="-0.58664">
        <ele>240.6</ele>
        <time>2014-05-27T14:58:08Z</time>
      </trkpt>
      <trkpt lat="48.58579" lon="-0.586">
        <ele>243.2</ele>
        <time>2014-05-27T14:58:18Z</time>
      </trkpt>
      <trkpt lat="48.58578" lon="-0.58594">
        <ele>243.4</ele>
        <time>2014-05-27T14:58:19Z</time>
      </trkpt>
      <trkpt lat="48.58579" lon="-0.58539">
        <ele>245.2</ele>
        <time>2014-05-27T14:58:27Z</time>
      </trkpt>
      <trkpt lat="48.58581" lon="-0.58495">
        <ele>246.6</ele>
        <time>2014-05-27T14:58:33Z</time>
      </trkpt>
      <trkpt lat="48.58579" lon="-0.58475">
        <ele>247</ele>
        <time>2014-05-27T14:58:36Z</time>
      </trkpt>
      <trkpt lat="48.58572" lon="-0.58444">
        <ele>248.2</ele>
        <time>2014-05-27T14:58:41Z</time>
      </trkpt>
      <trkpt lat="48.58559" lon="-0.58376">
        <ele>250.2</ele>
        <time>2014-05-27T14:58:53Z</time>
      </trkpt>
      <trkpt lat="48.58547" lon="-0.58329">
        <ele>251.2</ele>
        <time>2014-05-27T14:59:01Z</time>
      </trkpt>
      <trkpt lat="48.58545" lon="-0.58286">
        <ele>251.8</ele>
        <time>2014-05-27T14:59:10Z</time>
      </trkpt>
      <trkpt lat="48.5854" lon="-0.58256">
        <ele>252.8</ele>
        <time>2014-05-27T14:59:19Z</time>
      </trkpt>
      <trkpt lat="48.58539" lon="-0.5825">
        <ele>252.8</ele>
        <time>2014-05-27T14:59:20Z</time>
      </trkpt>
      <trkpt lat="48.58537" lon="-0.58235">
        <ele>253</ele>
        <time>2014-05-27T14:59:22Z</time>
      </trkpt>
      <trkpt lat="48.5853" lon="-0.58204">
        <ele>253</ele>
        <time>2014-05-27T14:59:26Z</time>
      </trkpt>
      <trkpt lat="48.58521" lon="-0.58178">
        <ele>253.4</ele>
        <time>2014-05-27T14:59:30Z</time>
      </trkpt>
      <trkpt lat="48.58513" lon="-0.58152">
        <ele>254.2</ele>
        <time>2014-05-27T14:59:34Z</time>
      </trkpt>
      <trkpt lat="48.58511" lon="-0.58139">
        <ele>254.8</ele>
        <time>2014-05-27T14:59:36Z</time>
      </trkpt>
      <trkpt lat="48.58498" lon="-0.58099">
        <ele>255.6</ele>
        <time>2014-05-27T14:59:41Z</time>
      </trkpt>
      <trkpt lat="48.58493" lon="-0.58083">
        <ele>255.8</ele>
        <time>2014-05-27T14:59:43Z</time>
      </trkpt>
      <trkpt lat="48.58488" lon="-0.58068">
        <ele>256</ele>
        <time>2014-05-27T14:59:45Z</time>
      </trkpt>
      <trkpt lat="48.58472" lon="-0.58015">
        <ele>258.2</ele>
        <time>2014-05-27T14:59:54Z</time>
      </trkpt>
      <trkpt lat="48.58462" lon="-0.58">
        <ele>259.6</ele>
        <time>2014-05-27T15:00:05Z</time>
      </trkpt>
      <trkpt lat="48.58458" lon="-0.57993">
        <ele>260</ele>
        <time>2014-05-27T15:00:09Z</time>
      </trkpt>
      <trkpt lat="48.58448" lon="-0.57968">
        <ele>260.2</ele>
        <time>2014-05-27T15:00:16Z</time>
      </trkpt>
      <trkpt lat="48.58446" lon="-0.5796">
        <ele>260.4</ele>
        <time>2014-05-27T15:00:18Z</time>
      </trkpt>
      <trkpt lat="48.58442" lon="-0.57933">
        <ele>260.4</ele>
        <time>2014-05-27T15:00:24Z</time>
      </trkpt>
      <trkpt lat="48.58431" lon="-0.57897">
        <ele>261.6</ele>
        <time>2014-05-27T15:00:33Z</time>
      </trkpt>
      <trkpt lat="48.58428" lon="-0.57891">
        <ele>262</ele>
        <time>2014-05-27T15:00:35Z</time>
      </trkpt>
      <trkpt lat="48.58423" lon="-0.57879">
        <ele>262.2</ele>
        <time>2014-05-27T15:00:38Z</time>
      </trkpt>
      <trkpt lat="48.5842" lon="-0.57864">
        <ele>262.6</ele>
        <time>2014-05-27T15:00:42Z</time>
      </trkpt>
      <trkpt lat="48.58413" lon="-0.57853">
        <ele>263</ele>
        <time>2014-05-27T15:00:46Z</time>
      </trkpt>
      <trkpt lat="48.58405" lon="-0.57834">
        <ele>263.8</ele>
        <time>2014-05-27T15:00:51Z</time>
      </trkpt>
      <trkpt lat="48.58394" lon="-0.57808">
        <ele>263.8</ele>
        <time>2014-05-27T15:00:56Z</time>
      </trkpt>
      <trkpt lat="48.58375" lon="-0.57747">
        <ele>262.8</ele>
        <time>2014-05-27T15:01:06Z</time>
      </trkpt>
      <trkpt lat="48.58362" lon="-0.57699">
        <ele>262.6</ele>
        <time>2014-05-27T15:01:14Z</time>
      </trkpt>
      <trkpt lat="48.58352" lon="-0.57669">
        <ele>262.8</ele>
        <time>2014-05-27T15:01:18Z</time>
      </trkpt>
      <trkpt lat="48.58345" lon="-0.57647">
        <ele>262.8</ele>
        <time>2014-05-27T15:01:21Z</time>
      </trkpt>
      <trkpt lat="48.58327" lon="-0.576">
        <ele>263</ele>
        <time>2014-05-27T15:01:30Z</time>
      </trkpt>
      <trkpt lat="48.58318" lon="-0.57578">
        <ele>263.4</ele>
        <time>2014-05-27T15:01:35Z</time>
      </trkpt>
      <trkpt lat="48.58308" lon="-0.57547">
        <ele>264.2</ele>
        <time>2014-05-27T15:01:41Z</time>
      </trkpt>
      <trkpt lat="48.58288" lon="-0.57474">
        <ele>266.2</ele>
        <time>2014-05-27T15:01:52Z</time>
      </trkpt>
      <trkpt lat="48.58271" lon="-0.57421">
        <ele>267.4</ele>
        <time>2014-05-27T15:02:01Z</time>
      </trkpt>
      <trkpt lat="48.58269" lon="-0.57415">
        <ele>267.6</ele>
        <time>2014-05-27T15:02:02Z</time>
      </trkpt>
      <trkpt lat="48.58262" lon="-0.57361">
        <ele>268.2</ele>
        <time>2014-05-27T15:02:10Z</time>
      </trkpt>
      <trkpt lat="48.58252" lon="-0.57302">
        <ele>268.8</ele>
        <time>2014-05-27T15:02:19Z</time>
      </trkpt>
      <trkpt lat="48.58247" lon="-0.57258">
        <ele>268.4</ele>
        <time>2014-05-27T15:02:25Z</time>
      </trkpt>
      <trkpt lat="48.58239" lon="-0.5722">
        <ele>268</ele>
        <time>2014-05-27T15:02:30Z</time>
      </trkpt>
      <trkpt lat="48.58231" lon="-0.57177">
        <ele>267.8</ele>
        <time>2014-05-27T15:02:36Z</time>
      </trkpt>
      <trkpt lat="48.58219" lon="-0.57097">
        <ele>268.4</ele>
        <time>2014-05-27T15:02:48Z</time>
      </trkpt>
      <trkpt lat="48.58207" lon="-0.57038">
        <ele>267.2</ele>
        <time>2014-05-27T15:02:57Z</time>
      </trkpt>
      <trkpt lat="48.58198" lon="-0.57004">
        <ele>266</ele>
        <time>2014-05-27T15:03:02Z</time>
      </trkpt>
      <trkpt lat="48.58189" lon="-0.56971">
        <ele>265</ele>
        <time>2014-05-27T15:03:06Z</time>
      </trkpt>
      <trkpt lat="48.58183" lon="-0.56947">
        <ele>264.4</ele>
        <time>2014-05-27T15:03:09Z</time>
      </trkpt>
      <trkpt lat="48.58161" lon="-0.56858">
        <ele>262.8</ele>
        <time>2014-05-27T15:03:20Z</time>
      </trkpt>
      <trkpt lat="48.58148" lon="-0.56811">
        <ele>262</ele>
        <time>2014-05-27T15:03:28Z</time>
      </trkpt>
      <trkpt lat="48.58135" lon="-0.56761">
        <ele>262</ele>
        <time>2014-05-27T15:03:38Z</time>
      </trkpt>
      <trkpt lat="48.58132" lon="-0.56732">
        <ele>261.8</ele>
        <time>2014-05-27T15:03:42Z</time>
      </trkpt>
      <trkpt lat="48.58127" lon="-0.56706">
        <ele>262.6</ele>
        <time>2014-05-27T15:03:46Z</time>
      </trkpt>
      <trkpt lat="48.58111" lon="-0.56653">
        <ele>264.2</ele>
        <time>2014-05-27T15:03:54Z</time>
      </trkpt>
      <trkpt lat="48.58095" lon="-0.5658">
        <ele>267.6</ele>
        <time>2014-05-27T15:04:05Z</time>
      </trkpt>
      <trkpt lat="48.58085" lon="-0.5653">
        <ele>269.4</ele>
        <time>2014-05-27T15:04:14Z</time>
      </trkpt>
      <trkpt lat="48.58074" lon="-0.56479">
        <ele>270.2</ele>
        <time>2014-05-27T15:04:23Z</time>
      </trkpt>
      <trkpt lat="48.58067" lon="-0.5644">
        <ele>269.8</ele>
        <time>2014-05-27T15:04:29Z</time>
      </trkpt>
      <trkpt lat="48.58057" lon="-0.56385">
        <ele>269</ele>
        <time>2014-05-27T15:04:39Z</time>
      </trkpt>
      <trkpt lat="48.5805" lon="-0.56339">
        <ele>268.4</ele>
        <time>2014-05-27T15:04:46Z</time>
      </trkpt>
      <trkpt lat="48.58042" lon="-0.56311">
        <ele>268.2</ele>
        <time>2014-05-27T15:04:50Z</time>
      </trkpt>
      <trkpt lat="48.58036" lon="-0.56293">
        <ele>268</ele>
        <time>2014-05-27T15:04:53Z</time>
      </trkpt>
      <trkpt lat="48.58028" lon="-0.56235">
        <ele>267.6</ele>
        <time>2014-05-27T15:05:03Z</time>
      </trkpt>
      <trkpt lat="48.58015" lon="-0.56177">
        <ele>268.4</ele>
        <time>2014-05-27T15:05:13Z</time>
      </trkpt>
      <trkpt lat="48.58001" lon="-0.56113">
        <ele>269.8</ele>
        <time>2014-05-27T15:05:24Z</time>
      </trkpt>
      <trkpt lat="48.57998" lon="-0.56104">
        <ele>270.2</ele>
        <time>2014-05-27T15:05:26Z</time>
      </trkpt>
      <trkpt lat="48.57996" lon="-0.56082">
        <ele>271</ele>
        <time>2014-05-27T15:05:31Z</time>
      </trkpt>
      <trkpt lat="48.57982" lon="-0.56013">
        <ele>271.2</ele>
        <time>2014-05-27T15:05:42Z</time>
      </trkpt>
      <trkpt lat="48.57973" lon="-0.55944">
        <ele>270.2</ele>
        <time>2014-05-27T15:05:53Z</time>
      </trkpt>
      <trkpt lat="48.57966" lon="-0.5588">
        <ele>269</ele>
        <time>2014-05-27T15:06:04Z</time>
      </trkpt>
      <trkpt lat="48.57962" lon="-0.55864">
        <ele>268.8</ele>
        <time>2014-05-27T15:06:06Z</time>
      </trkpt>
      <trkpt lat="48.57955" lon="-0.55831">
        <ele>268</ele>
        <time>2014-05-27T15:06:12Z</time>
      </trkpt>
      <trkpt lat="48.57947" lon="-0.55793">
        <ele>267.6</ele>
        <time>2014-05-27T15:06:20Z</time>
      </trkpt>
      <trkpt lat="48.57942" lon="-0.55745">
        <ele>267.6</ele>
        <time>2014-05-27T15:06:29Z</time>
      </trkpt>
      <trkpt lat="48.5794" lon="-0.55728">
        <ele>268</ele>
        <time>2014-05-27T15:06:32Z</time>
      </trkpt>
      <trkpt lat="48.57936" lon="-0.55701">
        <ele>268.8</ele>
        <time>2014-05-27T15:06:36Z</time>
      </trkpt>
      <trkpt lat="48.57935" lon="-0.55684">
        <ele>269.2</ele>
        <time>2014-05-27T15:06:39Z</time>
      </trkpt>
      <trkpt lat="48.57932" lon="-0.55658">
        <ele>270</ele>
        <time>2014-05-27T15:06:43Z</time>
      </trkpt>
      <trkpt lat="48.57925" lon="-0.55595">
        <ele>270.6</ele>
        <time>2014-05-27T15:06:53Z</time>
      </trkpt>
      <trkpt lat="48.57925" lon="-0.55578">
        <ele>271.4</ele>
        <time>2014-05-27T15:06:57Z</time>
      </trkpt>
      <trkpt lat="48.57916" lon="-0.55521">
        <ele>273.4</ele>
        <time>2014-05-27T15:07:07Z</time>
      </trkpt>
      <trkpt lat="48.5791" lon="-0.55473">
        <ele>274.2</ele>
        <time>2014-05-27T15:07:14Z</time>
      </trkpt>
      <trkpt lat="48.57905" lon="-0.55411">
        <ele>276.4</ele>
        <time>2014-05-27T15:07:25Z</time>
      </trkpt>
      <trkpt lat="48.57902" lon="-0.55391">
        <ele>276.8</ele>
        <time>2014-05-27T15:07:29Z</time>
      </trkpt>
      <trkpt lat="48.57898" lon="-0.55327">
        <ele>278.4</ele>
        <time>2014-05-27T15:07:40Z</time>
      </trkpt>
      <trkpt lat="48.57896" lon="-0.55316">
        <ele>279.4</ele>
        <time>2014-05-27T15:07:42Z</time>
      </trkpt>
      <trkpt lat="48.5789" lon="-0.55275">
        <ele>280.4</ele>
        <time>2014-05-27T15:07:49Z</time>
      </trkpt>
      <trkpt lat="48.57881" lon="-0.55212">
        <ele>280.8</ele>
        <time>2014-05-27T15:08:00Z</time>
      </trkpt>
      <trkpt lat="48.57871" lon="-0.55166">
        <ele>280.4</ele>
        <time>2014-05-27T15:08:10Z</time>
      </trkpt>
      <trkpt lat="48.57861" lon="-0.55119">
        <ele>279.8</ele>
        <time>2014-05-27T15:08:19Z</time>
      </trkpt>
      <trkpt lat="48.57849" lon="-0.55065">
        <ele>280.2</ele>
        <time>2014-05-27T15:08:30Z</time>
      </trkpt>
      <trkpt lat="48.57837" lon="-0.5502">
        <ele>280.8</ele>
        <time>2014-05-27T15:08:39Z</time>
      </trkpt>
      <trkpt lat="48.57822" lon="-0.5496">
        <ele>283</ele>
        <time>2014-05-27T15:08:49Z</time>
      </trkpt>
      <trkpt lat="48.57814" lon="-0.54936">
        <ele>283.8</ele>
        <time>2014-05-27T15:08:53Z</time>
      </trkpt>
      <trkpt lat="48.57801" lon="-0.54908">
        <ele>284.4</ele>
        <time>2014-05-27T15:08:58Z</time>
      </trkpt>
      <trkpt lat="48.57775" lon="-0.54853">
        <ele>286</ele>
        <time>2014-05-27T15:09:10Z</time>
      </trkpt>
      <trkpt lat="48.57757" lon="-0.548">
        <ele>286.6</ele>
        <time>2014-05-27T15:09:22Z</time>
      </trkpt>
      <trkpt lat="48.57744" lon="-0.54738">
        <ele>286</ele>
        <time>2014-05-27T15:09:33Z</time>
      </trkpt>
      <trkpt lat="48.57738" lon="-0.54715">
        <ele>286</ele>
        <time>2014-05-27T15:09:38Z</time>
      </trkpt>
      <trkpt lat="48.57731" lon="-0.54679">
        <ele>285.6</ele>
        <time>2014-05-27T15:09:44Z</time>
      </trkpt>
      <trkpt lat="48.57725" lon="-0.54638">
        <ele>285.6</ele>
        <time>2014-05-27T15:09:53Z</time>
      </trkpt>
      <trkpt lat="48.57724" lon="-0.54614">
        <ele>285.6</ele>
        <time>2014-05-27T15:09:59Z</time>
      </trkpt>
      <trkpt lat="48.57721" lon="-0.54582">
        <ele>285.2</ele>
        <time>2014-05-27T15:10:04Z</time>
      </trkpt>
      <trkpt lat="48.57713" lon="-0.54534">
        <ele>284.8</ele>
        <time>2014-05-27T15:10:11Z</time>
      </trkpt>
      <trkpt lat="48.57707" lon="-0.54479">
        <ele>284.4</ele>
        <time>2014-05-27T15:10:20Z</time>
      </trkpt>
      <trkpt lat="48.57711" lon="-0.54454">
        <ele>284.2</ele>
        <time>2014-05-27T15:10:24Z</time>
      </trkpt>
      <trkpt lat="48.57721" lon="-0.54432">
        <ele>283.8</ele>
        <time>2014-05-27T15:10:28Z</time>
      </trkpt>
      <trkpt lat="48.57747" lon="-0.54385">
        <ele>283.4</ele>
        <time>2014-05-27T15:10:38Z</time>
      </trkpt>
      <trkpt lat="48.57759" lon="-0.54364">
        <ele>282.8</ele>
        <time>2014-05-27T15:10:43Z</time>
      </trkpt>
      <trkpt lat="48.57754" lon="-0.54346">
        <ele>281.8</ele>
        <time>2014-05-27T15:10:49Z</time>
      </trkpt>
      <trkpt lat="48.57751" lon="-0.54342">
        <ele>281.8</ele>
        <time>2014-05-27T15:10:50Z</time>
      </trkpt>
      <trkpt lat="48.57747" lon="-0.54338">
        <ele>281.8</ele>
        <time>2014-05-27T15:10:51Z</time>
      </trkpt>
      <trkpt lat="48.57742" lon="-0.54334">
        <ele>281.8</ele>
        <time>2014-05-27T15:10:52Z</time>
      </trkpt>
      <trkpt lat="48.57738" lon="-0.54329">
        <ele>281.6</ele>
        <time>2014-05-27T15:10:53Z</time>
      </trkpt>
      <trkpt lat="48.57733" lon="-0.54324">
        <ele>281.6</ele>
        <time>2014-05-27T15:10:54Z</time>
      </trkpt>
      <trkpt lat="48.57696" lon="-0.54293">
        <ele>280.8</ele>
        <time>2014-05-27T15:11:00Z</time>
      </trkpt>
      <trkpt lat="48.57679" lon="-0.54282">
        <ele>279.8</ele>
        <time>2014-05-27T15:11:03Z</time>
      </trkpt>
      <trkpt lat="48.57677" lon="-0.54276">
        <ele>279.6</ele>
        <time>2014-05-27T15:11:04Z</time>
      </trkpt>
      <trkpt lat="48.57671" lon="-0.54229">
        <ele>278.8</ele>
        <time>2014-05-27T15:11:11Z</time>
      </trkpt>
      <trkpt lat="48.57665" lon="-0.54173">
        <ele>281.6</ele>
        <time>2014-05-27T15:11:21Z</time>
      </trkpt>
      <trkpt lat="48.57658" lon="-0.54125">
        <ele>283</ele>
        <time>2014-05-27T15:11:30Z</time>
      </trkpt>
      <trkpt lat="48.57649" lon="-0.54065">
        <ele>283.8</ele>
        <time>2014-05-27T15:11:40Z</time>
      </trkpt>
      <trkpt lat="48.57646" lon="-0.54026">
        <ele>283.8</ele>
        <time>2014-05-27T15:11:47Z</time>
      </trkpt>
      <trkpt lat="48.57642" lon="-0.54004">
        <ele>283.6</ele>
        <time>2014-05-27T15:11:50Z</time>
      </trkpt>
      <trkpt lat="48.57635" lon="-0.53977">
        <ele>283.4</ele>
        <time>2014-05-27T15:11:54Z</time>
      </trkpt>
      <trkpt lat="48.57627" lon="-0.53912">
        <ele>282.8</ele>
        <time>2014-05-27T15:12:05Z</time>
      </trkpt>
      <trkpt lat="48.57626" lon="-0.53908">
        <ele>282.8</ele>
        <time>2014-05-27T15:12:10Z</time>
      </trkpt>
      <trkpt lat="48.57625" lon="-0.53896">
        <ele>283.2</ele>
        <time>2014-05-27T15:17:53Z</time>
      </trkpt>
      <trkpt lat="48.57623" lon="-0.53888">
        <ele>283</ele>
        <time>2014-05-27T15:17:56Z</time>
      </trkpt>
      <trkpt lat="48.57621" lon="-0.53885">
        <ele>283</ele>
        <time>2014-05-27T15:17:57Z</time>
      </trkpt>
      <trkpt lat="48.57621" lon="-0.53882">
        <ele>283</ele>
        <time>2014-05-27T15:17:58Z</time>
      </trkpt>
      <trkpt lat="48.5762" lon="-0.53878">
        <ele>283</ele>
        <time>2014-05-27T15:17:59Z</time>
      </trkpt>
      <trkpt lat="48.5762" lon="-0.53875">
        <ele>283</ele>
        <time>2014-05-27T15:18:00Z</time>
      </trkpt>
      <trkpt lat="48.57615" lon="-0.53841">
        <ele>282.8</ele>
        <time>2014-05-27T15:18:09Z</time>
      </trkpt>
      <trkpt lat="48.57608" lon="-0.53791">
        <ele>281.8</ele>
        <time>2014-05-27T15:18:20Z</time>
      </trkpt>
      <trkpt lat="48.57602" lon="-0.53745">
        <ele>280.8</ele>
        <time>2014-05-27T15:18:29Z</time>
      </trkpt>
      <trkpt lat="48.57599" lon="-0.53705">
        <ele>279.6</ele>
        <time>2014-05-27T15:18:37Z</time>
      </trkpt>
      <trkpt lat="48.57597" lon="-0.53669">
        <ele>279.2</ele>
        <time>2014-05-27T15:18:45Z</time>
      </trkpt>
      <trkpt lat="48.57593" lon="-0.53623">
        <ele>279.4</ele>
        <time>2014-05-27T15:18:55Z</time>
      </trkpt>
      <trkpt lat="48.57587" lon="-0.53571">
        <ele>279.6</ele>
        <time>2014-05-27T15:19:06Z</time>
      </trkpt>
      <trkpt lat="48.57582" lon="-0.53521">
        <ele>280</ele>
        <time>2014-05-27T15:19:16Z</time>
      </trkpt>
      <trkpt lat="48.57582" lon="-0.53517">
        <ele>280.2</ele>
        <time>2014-05-27T15:19:17Z</time>
      </trkpt>
      <trkpt lat="48.57581" lon="-0.53513">
        <ele>280.2</ele>
        <time>2014-05-27T15:19:18Z</time>
      </trkpt>
      <trkpt lat="48.5758" lon="-0.5351">
        <ele>280.4</ele>
        <time>2014-05-27T15:19:19Z</time>
      </trkpt>
      <trkpt lat="48.57579" lon="-0.53505">
        <ele>280.4</ele>
        <time>2014-05-27T15:19:20Z</time>
      </trkpt>
      <trkpt lat="48.57572" lon="-0.53464">
        <ele>281</ele>
        <time>2014-05-27T15:19:31Z</time>
      </trkpt>
      <trkpt lat="48.57567" lon="-0.53449">
        <ele>281.2</ele>
        <time>2014-05-27T15:19:36Z</time>
      </trkpt>
      <trkpt lat="48.57567" lon="-0.53445">
        <ele>281.4</ele>
        <time>2014-05-27T15:19:37Z</time>
      </trkpt>
      <trkpt lat="48.57567" lon="-0.53441">
        <ele>281.4</ele>
        <time>2014-05-27T15:19:38Z</time>
      </trkpt>
      <trkpt lat="48.57567" lon="-0.53436">
        <ele>281.4</ele>
        <time>2014-05-27T15:19:39Z</time>
      </trkpt>
      <trkpt lat="48.57567" lon="-0.53432">
        <ele>281.4</ele>
        <time>2014-05-27T15:19:40Z</time>
      </trkpt>
      <trkpt lat="48.57566" lon="-0.53429">
        <ele>281.4</ele>
        <time>2014-05-27T15:19:41Z</time>
      </trkpt>
      <trkpt lat="48.57565" lon="-0.53425">
        <ele>281.2</ele>
        <time>2014-05-27T15:19:42Z</time>
      </trkpt>
      <trkpt lat="48.57565" lon="-0.53421">
        <ele>281.2</ele>
        <time>2014-05-27T15:19:43Z</time>
      </trkpt>
      <trkpt lat="48.57565" lon="-0.53417">
        <ele>281.2</ele>
        <time>2014-05-27T15:19:44Z</time>
      </trkpt>
      <trkpt lat="48.57564" lon="-0.53412">
        <ele>281.2</ele>
        <time>2014-05-27T15:19:45Z</time>
      </trkpt>
      <trkpt lat="48.57563" lon="-0.53369">
        <ele>282.2</ele>
        <time>2014-05-27T15:19:55Z</time>
      </trkpt>
      <trkpt lat="48.57561" lon="-0.53359">
        <ele>282.4</ele>
        <time>2014-05-27T15:19:57Z</time>
      </trkpt>
      <trkpt lat="48.5756" lon="-0.53354">
        <ele>282.4</ele>
        <time>2014-05-27T15:19:58Z</time>
      </trkpt>
      <trkpt lat="48.57554" lon="-0.53302">
        <ele>283</ele>
        <time>2014-05-27T15:20:09Z</time>
      </trkpt>
      <trkpt lat="48.57554" lon="-0.53298">
        <ele>283.2</ele>
        <time>2014-05-27T15:20:10Z</time>
      </trkpt>
      <trkpt lat="48.57553" lon="-0.53269">
        <ele>283.8</ele>
        <time>2014-05-27T15:20:18Z</time>
      </trkpt>
      <trkpt lat="48.57552" lon="-0.53265">
        <ele>284</ele>
        <time>2014-05-27T15:20:19Z</time>
      </trkpt>
      <trkpt lat="48.57552" lon="-0.53263">
        <ele>284</ele>
        <time>2014-05-27T15:20:20Z</time>
      </trkpt>
      <trkpt lat="48.57549" lon="-0.53247">
        <ele>284.6</ele>
        <time>2014-05-27T15:20:28Z</time>
      </trkpt>
      <trkpt lat="48.57549" lon="-0.53244">
        <ele>284.6</ele>
        <time>2014-05-27T15:20:29Z</time>
      </trkpt>
      <trkpt lat="48.57549" lon="-0.5324">
        <ele>284.6</ele>
        <time>2014-05-27T15:20:30Z</time>
      </trkpt>
      <trkpt lat="48.57549" lon="-0.53237">
        <ele>284.6</ele>
        <time>2014-05-27T15:20:31Z</time>
      </trkpt>
      <trkpt lat="48.57545" lon="-0.53211">
        <ele>284.2</ele>
        <time>2014-05-27T15:20:38Z</time>
      </trkpt>
      <trkpt lat="48.57545" lon="-0.53207">
        <ele>284.2</ele>
        <time>2014-05-27T15:20:39Z</time>
      </trkpt>
      <trkpt lat="48.57544" lon="-0.53202">
        <ele>284</ele>
        <time>2014-05-27T15:20:40Z</time>
      </trkpt>
      <trkpt lat="48.57542" lon="-0.53196">
        <ele>284</ele>
        <time>2014-05-27T15:20:41Z</time>
      </trkpt>
      <trkpt lat="48.57542" lon="-0.53192">
        <ele>284</ele>
        <time>2014-05-27T15:20:42Z</time>
      </trkpt>
      <trkpt lat="48.57541" lon="-0.53188">
        <ele>283.8</ele>
        <time>2014-05-27T15:20:43Z</time>
      </trkpt>
      <trkpt lat="48.57541" lon="-0.53182">
        <ele>283.8</ele>
        <time>2014-05-27T15:20:44Z</time>
      </trkpt>
      <trkpt lat="48.5754" lon="-0.53177">
        <ele>283.8</ele>
        <time>2014-05-27T15:20:45Z</time>
      </trkpt>
      <trkpt lat="48.5754" lon="-0.53171">
        <ele>283.6</ele>
        <time>2014-05-27T15:20:46Z</time>
      </trkpt>
      <trkpt lat="48.57532" lon="-0.53116">
        <ele>283.2</ele>
        <time>2014-05-27T15:20:56Z</time>
      </trkpt>
      <trkpt lat="48.57527" lon="-0.53078">
        <ele>282.6</ele>
        <time>2014-05-27T15:21:05Z</time>
      </trkpt>
      <trkpt lat="48.57515" lon="-0.53022">
        <ele>281.4</ele>
        <time>2014-05-27T15:21:16Z</time>
      </trkpt>
      <trkpt lat="48.57509" lon="-0.52962">
        <ele>278.4</ele>
        <time>2014-05-27T15:21:28Z</time>
      </trkpt>
      <trkpt lat="48.57503" lon="-0.5291">
        <ele>276</ele>
        <time>2014-05-27T15:21:38Z</time>
      </trkpt>
      <trkpt lat="48.575" lon="-0.52875">
        <ele>274.6</ele>
        <time>2014-05-27T15:21:44Z</time>
      </trkpt>
      <trkpt lat="48.57499" lon="-0.5287">
        <ele>274.4</ele>
        <time>2014-05-27T15:21:45Z</time>
      </trkpt>
      <trkpt lat="48.57487" lon="-0.52823">
        <ele>273.8</ele>
        <time>2014-05-27T15:21:55Z</time>
      </trkpt>
      <trkpt lat="48.57478" lon="-0.52764">
        <ele>273.2</ele>
        <time>2014-05-27T15:22:06Z</time>
      </trkpt>
      <trkpt lat="48.57472" lon="-0.52682">
        <ele>274.6</ele>
        <time>2014-05-27T15:22:20Z</time>
      </trkpt>
      <trkpt lat="48.57465" lon="-0.52621">
        <ele>277.6</ele>
        <time>2014-05-27T15:22:32Z</time>
      </trkpt>
      <trkpt lat="48.57458" lon="-0.52556">
        <ele>280.2</ele>
        <time>2014-05-27T15:22:45Z</time>
      </trkpt>
      <trkpt lat="48.57448" lon="-0.52487">
        <ele>280.4</ele>
        <time>2014-05-27T15:23:02Z</time>
      </trkpt>
      <trkpt lat="48.57439" lon="-0.52423">
        <ele>279.6</ele>
        <time>2014-05-27T15:23:16Z</time>
      </trkpt>
      <trkpt lat="48.57432" lon="-0.52372">
        <ele>279.6</ele>
        <time>2014-05-27T15:23:25Z</time>
      </trkpt>
      <trkpt lat="48.57431" lon="-0.52366">
        <ele>279.6</ele>
        <time>2014-05-27T15:23:26Z</time>
      </trkpt>
      <trkpt lat="48.57429" lon="-0.52359">
        <ele>279.6</ele>
        <time>2014-05-27T15:23:27Z</time>
      </trkpt>
      <trkpt lat="48.57428" lon="-0.52353">
        <ele>279.6</ele>
        <time>2014-05-27T15:23:28Z</time>
      </trkpt>
      <trkpt lat="48.57427" lon="-0.52347">
        <ele>279.8</ele>
        <time>2014-05-27T15:23:29Z</time>
      </trkpt>
      <trkpt lat="48.57425" lon="-0.52341">
        <ele>279.8</ele>
        <time>2014-05-27T15:23:30Z</time>
      </trkpt>
      <trkpt lat="48.57424" lon="-0.52335">
        <ele>280</ele>
        <time>2014-05-27T15:23:31Z</time>
      </trkpt>
      <trkpt lat="48.57422" lon="-0.5233">
        <ele>280.2</ele>
        <time>2014-05-27T15:23:32Z</time>
      </trkpt>
      <trkpt lat="48.57417" lon="-0.52288">
        <ele>281.2</ele>
        <time>2014-05-27T15:23:42Z</time>
      </trkpt>
      <trkpt lat="48.57411" lon="-0.52228">
        <ele>281.8</ele>
        <time>2014-05-27T15:23:53Z</time>
      </trkpt>
      <trkpt lat="48.57407" lon="-0.52179">
        <ele>282.8</ele>
        <time>2014-05-27T15:24:03Z</time>
      </trkpt>
      <trkpt lat="48.57408" lon="-0.52174">
        <ele>283</ele>
        <time>2014-05-27T15:24:04Z</time>
      </trkpt>
      <trkpt lat="48.57408" lon="-0.52169">
        <ele>283</ele>
        <time>2014-05-27T15:24:05Z</time>
      </trkpt>
      <trkpt lat="48.57407" lon="-0.52164">
        <ele>283</ele>
        <time>2014-05-27T15:24:06Z</time>
      </trkpt>
      <trkpt lat="48.57407" lon="-0.52158">
        <ele>283</ele>
        <time>2014-05-27T15:24:07Z</time>
      </trkpt>
      <trkpt lat="48.57406" lon="-0.52153">
        <ele>283</ele>
        <time>2014-05-27T15:24:08Z</time>
      </trkpt>
      <trkpt lat="48.57398" lon="-0.52102">
        <ele>283.4</ele>
        <time>2014-05-27T15:24:18Z</time>
      </trkpt>
      <trkpt lat="48.57397" lon="-0.52097">
        <ele>283.4</ele>
        <time>2014-05-27T15:24:19Z</time>
      </trkpt>
      <trkpt lat="48.57397" lon="-0.52091">
        <ele>283.4</ele>
        <time>2014-05-27T15:24:20Z</time>
      </trkpt>
      <trkpt lat="48.57395" lon="-0.52083">
        <ele>283.4</ele>
        <time>2014-05-27T15:24:21Z</time>
      </trkpt>
      <trkpt lat="48.57382" lon="-0.52011">
        <ele>283</ele>
        <time>2014-05-27T15:24:31Z</time>
      </trkpt>
      <trkpt lat="48.57374" lon="-0.51945">
        <ele>282.8</ele>
        <time>2014-05-27T15:24:40Z</time>
      </trkpt>
      <trkpt lat="48.57365" lon="-0.51875">
        <ele>282.6</ele>
        <time>2014-05-27T15:24:49Z</time>
      </trkpt>
      <trkpt lat="48.57361" lon="-0.5185">
        <ele>282.8</ele>
        <time>2014-05-27T15:24:52Z</time>
      </trkpt>
      <trkpt lat="48.57355" lon="-0.51796">
        <ele>282</ele>
        <time>2014-05-27T15:24:59Z</time>
      </trkpt>
      <trkpt lat="48.57345" lon="-0.51727">
        <ele>282.4</ele>
        <time>2014-05-27T15:25:08Z</time>
      </trkpt>
      <trkpt lat="48.5734" lon="-0.51668">
        <ele>283.8</ele>
        <time>2014-05-27T15:25:16Z</time>
      </trkpt>
      <trkpt lat="48.5734" lon="-0.51659">
        <ele>283.8</ele>
        <time>2014-05-27T15:25:17Z</time>
      </trkpt>
      <trkpt lat="48.5734" lon="-0.5165">
        <ele>284</ele>
        <time>2014-05-27T15:25:18Z</time>
      </trkpt>
      <trkpt lat="48.57331" lon="-0.51582">
        <ele>285.2</ele>
        <time>2014-05-27T15:25:27Z</time>
      </trkpt>
      <trkpt lat="48.57321" lon="-0.51503">
        <ele>288.2</ele>
        <time>2014-05-27T15:25:38Z</time>
      </trkpt>
      <trkpt lat="48.57319" lon="-0.51488">
        <ele>288.6</ele>
        <time>2014-05-27T15:25:40Z</time>
      </trkpt>
      <trkpt lat="48.57317" lon="-0.51468">
        <ele>289</ele>
        <time>2014-05-27T15:25:43Z</time>
      </trkpt>
      <trkpt lat="48.57316" lon="-0.51461">
        <ele>289.2</ele>
        <time>2014-05-27T15:25:44Z</time>
      </trkpt>
      <trkpt lat="48.57311" lon="-0.51421">
        <ele>289.4</ele>
        <time>2014-05-27T15:25:50Z</time>
      </trkpt>
      <trkpt lat="48.5731" lon="-0.51415">
        <ele>289.4</ele>
        <time>2014-05-27T15:25:51Z</time>
      </trkpt>
      <trkpt lat="48.57305" lon="-0.51378">
        <ele>289</ele>
        <time>2014-05-27T15:25:56Z</time>
      </trkpt>
      <trkpt lat="48.57303" lon="-0.51364">
        <ele>288.8</ele>
        <time>2014-05-27T15:25:58Z</time>
      </trkpt>
      <trkpt lat="48.57295" lon="-0.51324">
        <ele>288.4</ele>
        <time>2014-05-27T15:26:05Z</time>
      </trkpt>
      <trkpt lat="48.57295" lon="-0.51319">
        <ele>288.6</ele>
        <time>2014-05-27T15:26:06Z</time>
      </trkpt>
      <trkpt lat="48.57289" lon="-0.51263">
        <ele>288.6</ele>
        <time>2014-05-27T15:26:16Z</time>
      </trkpt>
      <trkpt lat="48.57281" lon="-0.51215">
        <ele>288.2</ele>
        <time>2014-05-27T15:26:24Z</time>
      </trkpt>
      <trkpt lat="48.5728" lon="-0.51209">
        <ele>288</ele>
        <time>2014-05-27T15:26:25Z</time>
      </trkpt>
      <trkpt lat="48.57279" lon="-0.51203">
        <ele>288</ele>
        <time>2014-05-27T15:26:26Z</time>
      </trkpt>
      <trkpt lat="48.57279" lon="-0.51197">
        <ele>288</ele>
        <time>2014-05-27T15:26:27Z</time>
      </trkpt>
      <trkpt lat="48.57279" lon="-0.51191">
        <ele>288</ele>
        <time>2014-05-27T15:26:28Z</time>
      </trkpt>
      <trkpt lat="48.57279" lon="-0.51184">
        <ele>287.8</ele>
        <time>2014-05-27T15:26:29Z</time>
      </trkpt>
      <trkpt lat="48.57279" lon="-0.51178">
        <ele>287.8</ele>
        <time>2014-05-27T15:26:30Z</time>
      </trkpt>
      <trkpt lat="48.57281" lon="-0.51162">
        <ele>287.6</ele>
        <time>2014-05-27T15:26:33Z</time>
      </trkpt>
      <trkpt lat="48.57294" lon="-0.51124">
        <ele>287.4</ele>
        <time>2014-05-27T15:26:41Z</time>
      </trkpt>
      <trkpt lat="48.57314" lon="-0.51087">
        <ele>286.8</ele>
        <time>2014-05-27T15:26:51Z</time>
      </trkpt>
      <trkpt lat="48.57323" lon="-0.51075">
        <ele>286.4</ele>
        <time>2014-05-27T15:26:54Z</time>
      </trkpt>
      <trkpt lat="48.57327" lon="-0.51071">
        <ele>286.2</ele>
        <time>2014-05-27T15:26:55Z</time>
      </trkpt>
      <trkpt lat="48.57331" lon="-0.51068">
        <ele>286</ele>
        <time>2014-05-27T15:26:56Z</time>
      </trkpt>
      <trkpt lat="48.57335" lon="-0.51064">
        <ele>285.8</ele>
        <time>2014-05-27T15:26:57Z</time>
      </trkpt>
      <trkpt lat="48.57339" lon="-0.51059">
        <ele>285.8</ele>
        <time>2014-05-27T15:26:58Z</time>
      </trkpt>
      <trkpt lat="48.57343" lon="-0.51053">
        <ele>285.6</ele>
        <time>2014-05-27T15:26:59Z</time>
      </trkpt>
      <trkpt lat="48.57348" lon="-0.51047">
        <ele>285.4</ele>
        <time>2014-05-27T15:27:00Z</time>
      </trkpt>
      <trkpt lat="48.57351" lon="-0.51043">
        <ele>285</ele>
        <time>2014-05-27T15:27:01Z</time>
      </trkpt>
      <trkpt lat="48.57356" lon="-0.51037">
        <ele>284.8</ele>
        <time>2014-05-27T15:27:02Z</time>
      </trkpt>
      <trkpt lat="48.57371" lon="-0.51016">
        <ele>283.2</ele>
        <time>2014-05-27T15:27:05Z</time>
      </trkpt>
      <trkpt lat="48.57394" lon="-0.50985">
        <ele>281</ele>
        <time>2014-05-27T15:27:09Z</time>
      </trkpt>
      <trkpt lat="48.57421" lon="-0.50939">
        <ele>277.6</ele>
        <time>2014-05-27T15:27:14Z</time>
      </trkpt>
      <trkpt lat="48.57449" lon="-0.50901">
        <ele>274.2</ele>
        <time>2014-05-27T15:27:18Z</time>
      </trkpt>
      <trkpt lat="48.57477" lon="-0.50858">
        <ele>270.4</ele>
        <time>2014-05-27T15:27:22Z</time>
      </trkpt>
      <trkpt lat="48.575" lon="-0.50825">
        <ele>267.2</ele>
        <time>2014-05-27T15:27:25Z</time>
      </trkpt>
      <trkpt lat="48.57526" lon="-0.50794">
        <ele>263.2</ele>
        <time>2014-05-27T15:27:28Z</time>
      </trkpt>
      <trkpt lat="48.57552" lon="-0.50765">
        <ele>261</ele>
        <time>2014-05-27T15:27:31Z</time>
      </trkpt>
      <trkpt lat="48.5759" lon="-0.50714">
        <ele>257.8</ele>
        <time>2014-05-27T15:27:36Z</time>
      </trkpt>
      <trkpt lat="48.57644" lon="-0.50638">
        <ele>254.4</ele>
        <time>2014-05-27T15:27:43Z</time>
      </trkpt>
      <trkpt lat="48.57688" lon="-0.50571">
        <ele>251</ele>
        <time>2014-05-27T15:27:49Z</time>
      </trkpt>
      <trkpt lat="48.57748" lon="-0.50486">
        <ele>248.6</ele>
        <time>2014-05-27T15:27:59Z</time>
      </trkpt>
      <trkpt lat="48.57752" lon="-0.5048">
        <ele>248.6</ele>
        <time>2014-05-27T15:28:00Z</time>
      </trkpt>
      <trkpt lat="48.57756" lon="-0.50474">
        <ele>248.6</ele>
        <time>2014-05-27T15:28:01Z</time>
      </trkpt>
      <trkpt lat="48.57759" lon="-0.50469">
        <ele>248.8</ele>
        <time>2014-05-27T15:28:02Z</time>
      </trkpt>
      <trkpt lat="48.57763" lon="-0.50463">
        <ele>248.8</ele>
        <time>2014-05-27T15:28:03Z</time>
      </trkpt>
      <trkpt lat="48.57767" lon="-0.50457">
        <ele>249</ele>
        <time>2014-05-27T15:28:04Z</time>
      </trkpt>
      <trkpt lat="48.57789" lon="-0.50422">
        <ele>249.4</ele>
        <time>2014-05-27T15:28:09Z</time>
      </trkpt>
      <trkpt lat="48.57794" lon="-0.50415">
        <ele>249.6</ele>
        <time>2014-05-27T15:28:10Z</time>
      </trkpt>
      <trkpt lat="48.57798" lon="-0.50408">
        <ele>249.6</ele>
        <time>2014-05-27T15:28:11Z</time>
      </trkpt>
      <trkpt lat="48.57839" lon="-0.50354">
        <ele>251.6</ele>
        <time>2014-05-27T15:28:20Z</time>
      </trkpt>
      <trkpt lat="48.57844" lon="-0.50348">
        <ele>251.8</ele>
        <time>2014-05-27T15:28:21Z</time>
      </trkpt>
      <trkpt lat="48.57875" lon="-0.50303">
        <ele>254.8</ele>
        <time>2014-05-27T15:28:30Z</time>
      </trkpt>
      <trkpt lat="48.5789" lon="-0.50279">
        <ele>257.4</ele>
        <time>2014-05-27T15:28:40Z</time>
      </trkpt>
      <trkpt lat="48.57905" lon="-0.50258">
        <ele>259.4</ele>
        <time>2014-05-27T15:28:51Z</time>
      </trkpt>
      <trkpt lat="48.57905" lon="-0.50258">
        <ele>259.4</ele>
        <time>2014-05-27T15:28:52Z</time>
      </trkpt>
      <trkpt lat="48.57923" lon="-0.5023">
        <ele>260.4</ele>
        <time>2014-05-27T15:30:01Z</time>
      </trkpt>
      <trkpt lat="48.57925" lon="-0.50226">
        <ele>260.6</ele>
        <time>2014-05-27T15:30:02Z</time>
      </trkpt>
      <trkpt lat="48.57927" lon="-0.50223">
        <ele>260.6</ele>
        <time>2014-05-27T15:30:03Z</time>
      </trkpt>
      <trkpt lat="48.57952" lon="-0.5019">
        <ele>262.2</ele>
        <time>2014-05-27T15:30:14Z</time>
      </trkpt>
      <trkpt lat="48.5798" lon="-0.50144">
        <ele>264.6</ele>
        <time>2014-05-27T15:30:25Z</time>
      </trkpt>
      <trkpt lat="48.58006" lon="-0.50106">
        <ele>267.6</ele>
        <time>2014-05-27T15:30:35Z</time>
      </trkpt>
      <trkpt lat="48.58026" lon="-0.50079">
        <ele>270.8</ele>
        <time>2014-05-27T15:30:45Z</time>
      </trkpt>
      <trkpt lat="48.58034" lon="-0.50068">
        <ele>272.4</ele>
        <time>2014-05-27T15:30:50Z</time>
      </trkpt>
      <trkpt lat="48.58034" lon="-0.50066">
        <ele>272.6</ele>
        <time>2014-05-27T15:30:51Z</time>
      </trkpt>
      <trkpt lat="48.58036" lon="-0.50064">
        <ele>272.8</ele>
        <time>2014-05-27T15:30:52Z</time>
      </trkpt>
      <trkpt lat="48.58037" lon="-0.50062">
        <ele>273</ele>
        <time>2014-05-27T15:30:53Z</time>
      </trkpt>
      <trkpt lat="48.58039" lon="-0.5006">
        <ele>273.2</ele>
        <time>2014-05-27T15:30:54Z</time>
      </trkpt>
      <trkpt lat="48.58068" lon="-0.5002">
        <ele>276</ele>
        <time>2014-05-27T15:31:08Z</time>
      </trkpt>
      <trkpt lat="48.58094" lon="-0.49983">
        <ele>279.2</ele>
        <time>2014-05-27T15:31:20Z</time>
      </trkpt>
      <trkpt lat="48.58118" lon="-0.49949">
        <ele>282.2</ele>
        <time>2014-05-27T15:31:31Z</time>
      </trkpt>
      <trkpt lat="48.58124" lon="-0.49945">
        <ele>282.8</ele>
        <time>2014-05-27T15:31:34Z</time>
      </trkpt>
      <trkpt lat="48.58127" lon="-0.49949">
        <ele>283</ele>
        <time>2014-05-27T15:31:36Z</time>
      </trkpt>
      <trkpt lat="48.58127" lon="-0.49952">
        <ele>283.2</ele>
        <time>2014-05-27T15:31:37Z</time>
      </trkpt>
      <trkpt lat="48.58127" lon="-0.49954">
        <ele>283.2</ele>
        <time>2014-05-27T15:31:38Z</time>
      </trkpt>
      <trkpt lat="48.58127" lon="-0.4996">
        <ele>283.8</ele>
        <time>2014-05-27T15:31:45Z</time>
      </trkpt>
      <trkpt lat="48.58126" lon="-0.49985">
        <ele>283.8</ele>
        <time>2014-05-27T15:31:59Z</time>
      </trkpt>
      <trkpt lat="48.58125" lon="-0.4999">
        <ele>283.8</ele>
        <time>2014-05-27T15:32:00Z</time>
      </trkpt>
      <trkpt lat="48.58126" lon="-0.49997">
        <ele>283.8</ele>
        <time>2014-05-27T15:32:01Z</time>
      </trkpt>
      <trkpt lat="48.58126" lon="-0.50003">
        <ele>284</ele>
        <time>2014-05-27T15:32:02Z</time>
      </trkpt>
      <trkpt lat="48.58126" lon="-0.50036">
        <ele>283.8</ele>
        <time>2014-05-27T15:32:10Z</time>
      </trkpt>
      <trkpt lat="48.58129" lon="-0.50076">
        <ele>283.8</ele>
        <time>2014-05-27T15:32:20Z</time>
      </trkpt>
      <trkpt lat="48.5813" lon="-0.50117">
        <ele>284</ele>
        <time>2014-05-27T15:32:30Z</time>
      </trkpt>
      <trkpt lat="48.5813" lon="-0.50149">
        <ele>284</ele>
        <time>2014-05-27T15:32:38Z</time>
      </trkpt>
      <trkpt lat="48.5813" lon="-0.50155">
        <ele>283.8</ele>
        <time>2014-05-27T15:32:39Z</time>
      </trkpt>
      <trkpt lat="48.58134" lon="-0.50204">
        <ele>283.2</ele>
        <time>2014-05-27T15:32:49Z</time>
      </trkpt>
      <trkpt lat="48.58135" lon="-0.50218">
        <ele>282.8</ele>
        <time>2014-05-27T15:32:57Z</time>
      </trkpt>
      <trkpt lat="48.58135" lon="-0.50239">
        <ele>282.8</ele>
        <time>2014-05-27T15:33:09Z</time>
      </trkpt>
      <trkpt lat="48.58135" lon="-0.50262">
        <ele>282.2</ele>
        <time>2014-05-27T15:33:13Z</time>
      </trkpt>
      <trkpt lat="48.58135" lon="-0.50279">
        <ele>281.6</ele>
        <time>2014-05-27T15:33:16Z</time>
      </trkpt>
      <trkpt lat="48.58137" lon="-0.50356">
        <ele>279.6</ele>
        <time>2014-05-27T15:33:27Z</time>
      </trkpt>
      <trkpt lat="48.58139" lon="-0.50414">
        <ele>278.8</ele>
        <time>2014-05-27T15:33:40Z</time>
      </trkpt>
      <trkpt lat="48.58141" lon="-0.50433">
        <ele>278.8</ele>
        <time>2014-05-27T15:33:44Z</time>
      </trkpt>
      <trkpt lat="48.58142" lon="-0.50471">
        <ele>278</ele>
        <time>2014-05-27T15:33:53Z</time>
      </trkpt>
      <trkpt lat="48.58145" lon="-0.50515">
        <ele>277</ele>
        <time>2014-05-27T15:34:04Z</time>
      </trkpt>
      <trkpt lat="48.58147" lon="-0.50555">
        <ele>276.8</ele>
        <time>2014-05-27T15:34:13Z</time>
      </trkpt>
      <trkpt lat="48.58148" lon="-0.50591">
        <ele>276.4</ele>
        <time>2014-05-27T15:34:23Z</time>
      </trkpt>
      <trkpt lat="48.58151" lon="-0.50629">
        <ele>275.6</ele>
        <time>2014-05-27T15:34:33Z</time>
      </trkpt>
      <trkpt lat="48.58151" lon="-0.5064">
        <ele>275.2</ele>
        <time>2014-05-27T15:34:40Z</time>
      </trkpt>
      <trkpt lat="48.58151" lon="-0.5065">
        <ele>275</ele>
        <time>2014-05-27T15:34:49Z</time>
      </trkpt>
      <trkpt lat="48.58151" lon="-0.50661">
        <ele>274</ele>
        <time>2014-05-27T15:34:57Z</time>
      </trkpt>
      <trkpt lat="48.5815" lon="-0.5067">
        <ele>274.4</ele>
        <time>2014-05-27T15:35:12Z</time>
      </trkpt>
      <trkpt lat="48.58153" lon="-0.50714">
        <ele>273.4</ele>
        <time>2014-05-27T15:35:25Z</time>
      </trkpt>
      <trkpt lat="48.58156" lon="-0.50762">
        <ele>272.6</ele>
        <time>2014-05-27T15:35:36Z</time>
      </trkpt>
      <trkpt lat="48.58158" lon="-0.50804">
        <ele>272.6</ele>
        <time>2014-05-27T15:35:47Z</time>
      </trkpt>
      <trkpt lat="48.58159" lon="-0.50822">
        <ele>273.6</ele>
        <time>2014-05-27T15:35:55Z</time>
      </trkpt>
      <trkpt lat="48.58161" lon="-0.50845">
        <ele>274.2</ele>
        <time>2014-05-27T15:36:03Z</time>
      </trkpt>
      <trkpt lat="48.58163" lon="-0.5086">
        <ele>274</ele>
        <time>2014-05-27T15:36:07Z</time>
      </trkpt>
      <trkpt lat="48.58163" lon="-0.50879">
        <ele>273.8</ele>
        <time>2014-05-27T15:36:12Z</time>
      </trkpt>
      <trkpt lat="48.58163" lon="-0.50902">
        <ele>273.6</ele>
        <time>2014-05-27T15:36:17Z</time>
      </trkpt>
      <trkpt lat="48.58163" lon="-0.50953">
        <ele>273.4</ele>
        <time>2014-05-27T15:36:29Z</time>
      </trkpt>
      <trkpt lat="48.58167" lon="-0.51">
        <ele>273.4</ele>
        <time>2014-05-27T15:36:40Z</time>
      </trkpt>
      <trkpt lat="48.58168" lon="-0.51053">
        <ele>273.2</ele>
        <time>2014-05-27T15:36:51Z</time>
      </trkpt>
      <trkpt lat="48.5817" lon="-0.51101">
        <ele>273.4</ele>
        <time>2014-05-27T15:37:01Z</time>
      </trkpt>
      <trkpt lat="48.58171" lon="-0.51148">
        <ele>273.2</ele>
        <time>2014-05-27T15:37:11Z</time>
      </trkpt>
      <trkpt lat="48.58173" lon="-0.51204">
        <ele>272.4</ele>
        <time>2014-05-27T15:37:23Z</time>
      </trkpt>
      <trkpt lat="48.58174" lon="-0.51259">
        <ele>272.4</ele>
        <time>2014-05-27T15:37:35Z</time>
      </trkpt>
      <trkpt lat="48.58175" lon="-0.51305">
        <ele>271.4</ele>
        <time>2014-05-27T15:37:45Z</time>
      </trkpt>
      <trkpt lat="48.58177" lon="-0.51354">
        <ele>269.8</ele>
        <time>2014-05-27T15:37:55Z</time>
      </trkpt>
      <trkpt lat="48.58179" lon="-0.51413">
        <ele>268.6</ele>
        <time>2014-05-27T15:38:08Z</time>
      </trkpt>
      <trkpt lat="48.58179" lon="-0.51456">
        <ele>267.8</ele>
        <time>2014-05-27T15:38:19Z</time>
      </trkpt>
      <trkpt lat="48.58186" lon="-0.51498">
        <ele>267.6</ele>
        <time>2014-05-27T15:38:31Z</time>
      </trkpt>
      <trkpt lat="48.58187" lon="-0.51537">
        <ele>268</ele>
        <time>2014-05-27T15:38:42Z</time>
      </trkpt>
      <trkpt lat="48.58187" lon="-0.51549">
        <ele>268.2</ele>
        <time>2014-05-27T15:38:45Z</time>
      </trkpt>
      <trkpt lat="48.58187" lon="-0.51592">
        <ele>268.8</ele>
        <time>2014-05-27T15:38:56Z</time>
      </trkpt>
      <trkpt lat="48.58188" lon="-0.51651">
        <ele>268.8</ele>
        <time>2014-05-27T15:39:09Z</time>
      </trkpt>
      <trkpt lat="48.58193" lon="-0.51686">
        <ele>269.2</ele>
        <time>2014-05-27T15:39:16Z</time>
      </trkpt>
      <trkpt lat="48.58194" lon="-0.51724">
        <ele>269.2</ele>
        <time>2014-05-27T15:39:24Z</time>
      </trkpt>
      <trkpt lat="48.58193" lon="-0.51742">
        <ele>269</ele>
        <time>2014-05-27T15:39:28Z</time>
      </trkpt>
      <trkpt lat="48.58196" lon="-0.51797">
        <ele>268.6</ele>
        <time>2014-05-27T15:39:39Z</time>
      </trkpt>
      <trkpt lat="48.58197" lon="-0.51834">
        <ele>267.6</ele>
        <time>2014-05-27T15:39:48Z</time>
      </trkpt>
      <trkpt lat="48.58216" lon="-0.51851">
        <ele>267</ele>
        <time>2014-05-27T15:39:59Z</time>
      </trkpt>
      <trkpt lat="48.58218" lon="-0.51849">
        <ele>267</ele>
        <time>2014-05-27T15:40:00Z</time>
      </trkpt>
      <trkpt lat="48.5822" lon="-0.51845">
        <ele>267</ele>
        <time>2014-05-27T15:40:01Z</time>
      </trkpt>
      <trkpt lat="48.58221" lon="-0.5184">
        <ele>267</ele>
        <time>2014-05-27T15:40:02Z</time>
      </trkpt>
      <trkpt lat="48.58223" lon="-0.51834">
        <ele>267</ele>
        <time>2014-05-27T15:40:03Z</time>
      </trkpt>
      <trkpt lat="48.58223" lon="-0.51828">
        <ele>267</ele>
        <time>2014-05-27T15:40:04Z</time>
      </trkpt>
      <trkpt lat="48.58224" lon="-0.51822">
        <ele>267.2</ele>
        <time>2014-05-27T15:40:05Z</time>
      </trkpt>
      <trkpt lat="48.58227" lon="-0.51809">
        <ele>267.2</ele>
        <time>2014-05-27T15:40:07Z</time>
      </trkpt>
      <trkpt lat="48.58228" lon="-0.51802">
        <ele>267.4</ele>
        <time>2014-05-27T15:40:08Z</time>
      </trkpt>
      <trkpt lat="48.58241" lon="-0.51733">
        <ele>268.2</ele>
        <time>2014-05-27T15:40:18Z</time>
      </trkpt>
      <trkpt lat="48.58243" lon="-0.51726">
        <ele>268.2</ele>
        <time>2014-05-27T15:40:19Z</time>
      </trkpt>
      <trkpt lat="48.58245" lon="-0.5172">
        <ele>268.4</ele>
        <time>2014-05-27T15:40:20Z</time>
      </trkpt>
      <trkpt lat="48.58246" lon="-0.51713">
        <ele>268.4</ele>
        <time>2014-05-27T15:40:21Z</time>
      </trkpt>
      <trkpt lat="48.58248" lon="-0.51705">
        <ele>268.6</ele>
        <time>2014-05-27T15:40:22Z</time>
      </trkpt>
      <trkpt lat="48.5825" lon="-0.51698">
        <ele>268.6</ele>
        <time>2014-05-27T15:40:23Z</time>
      </trkpt>
      <trkpt lat="48.58253" lon="-0.51683">
        <ele>268.8</ele>
        <time>2014-05-27T15:40:25Z</time>
      </trkpt>
      <trkpt lat="48.58253" lon="-0.51676">
        <ele>268.8</ele>
        <time>2014-05-27T15:40:26Z</time>
      </trkpt>
      <trkpt lat="48.58254" lon="-0.51667">
        <ele>268.8</ele>
        <time>2014-05-27T15:40:27Z</time>
      </trkpt>
      <trkpt lat="48.58254" lon="-0.51658">
        <ele>268.8</ele>
        <time>2014-05-27T15:40:28Z</time>
      </trkpt>
      <trkpt lat="48.58255" lon="-0.5165">
        <ele>268.8</ele>
        <time>2014-05-27T15:40:29Z</time>
      </trkpt>
      <trkpt lat="48.58256" lon="-0.51642">
        <ele>268.8</ele>
        <time>2014-05-27T15:40:30Z</time>
      </trkpt>
      <trkpt lat="48.58264" lon="-0.51595">
        <ele>268.6</ele>
        <time>2014-05-27T15:40:36Z</time>
      </trkpt>
      <trkpt lat="48.58267" lon="-0.51586">
        <ele>268.4</ele>
        <time>2014-05-27T15:40:37Z</time>
      </trkpt>
      <trkpt lat="48.58269" lon="-0.51577">
        <ele>268.4</ele>
        <time>2014-05-27T15:40:38Z</time>
      </trkpt>
      <trkpt lat="48.58276" lon="-0.51551">
        <ele>268.2</ele>
        <time>2014-05-27T15:40:41Z</time>
      </trkpt>
      <trkpt lat="48.58279" lon="-0.51541">
        <ele>268.2</ele>
        <time>2014-05-27T15:40:42Z</time>
      </trkpt>
      <trkpt lat="48.58284" lon="-0.51502">
        <ele>267.8</ele>
        <time>2014-05-27T15:40:46Z</time>
      </trkpt>
      <trkpt lat="48.58287" lon="-0.51484">
        <ele>267.6</ele>
        <time>2014-05-27T15:40:48Z</time>
      </trkpt>
      <trkpt lat="48.58288" lon="-0.51475">
        <ele>267.4</ele>
        <time>2014-05-27T15:40:49Z</time>
      </trkpt>
      <trkpt lat="48.58291" lon="-0.51457">
        <ele>267.2</ele>
        <time>2014-05-27T15:40:51Z</time>
      </trkpt>
      <trkpt lat="48.58293" lon="-0.51448">
        <ele>267.2</ele>
        <time>2014-05-27T15:40:52Z</time>
      </trkpt>
      <trkpt lat="48.58295" lon="-0.51439">
        <ele>267</ele>
        <time>2014-05-27T15:40:53Z</time>
      </trkpt>
      <trkpt lat="48.58299" lon="-0.5142">
        <ele>266.8</ele>
        <time>2014-05-27T15:40:55Z</time>
      </trkpt>
      <trkpt lat="48.58301" lon="-0.51411">
        <ele>266.8</ele>
        <time>2014-05-27T15:40:56Z</time>
      </trkpt>
      <trkpt lat="48.58305" lon="-0.51392">
        <ele>266.4</ele>
        <time>2014-05-27T15:40:58Z</time>
      </trkpt>
      <trkpt lat="48.58324" lon="-0.51282">
        <ele>264.4</ele>
        <time>2014-05-27T15:41:09Z</time>
      </trkpt>
      <trkpt lat="48.58326" lon="-0.51273">
        <ele>264.2</ele>
        <time>2014-05-27T15:41:10Z</time>
      </trkpt>
      <trkpt lat="48.58344" lon="-0.51194">
        <ele>263.6</ele>
        <time>2014-05-27T15:41:19Z</time>
      </trkpt>
      <trkpt lat="48.58345" lon="-0.51185">
        <ele>263.6</ele>
        <time>2014-05-27T15:41:20Z</time>
      </trkpt>
      <trkpt lat="48.58348" lon="-0.51175">
        <ele>263.6</ele>
        <time>2014-05-27T15:41:21Z</time>
      </trkpt>
      <trkpt lat="48.58351" lon="-0.51157">
        <ele>263.6</ele>
        <time>2014-05-27T15:41:23Z</time>
      </trkpt>
      <trkpt lat="48.58357" lon="-0.5113">
        <ele>263.6</ele>
        <time>2014-05-27T15:41:26Z</time>
      </trkpt>
      <trkpt lat="48.58368" lon="-0.51085">
        <ele>263.6</ele>
        <time>2014-05-27T15:41:31Z</time>
      </trkpt>
      <trkpt lat="48.58393" lon="-0.50977">
        <ele>263.8</ele>
        <time>2014-05-27T15:41:43Z</time>
      </trkpt>
      <trkpt lat="48.58394" lon="-0.50968">
        <ele>263.8</ele>
        <time>2014-05-27T15:41:44Z</time>
      </trkpt>
      <trkpt lat="48.58398" lon="-0.50951">
        <ele>264</ele>
        <time>2014-05-27T15:41:46Z</time>
      </trkpt>
      <trkpt lat="48.58406" lon="-0.50915">
        <ele>264.4</ele>
        <time>2014-05-27T15:41:50Z</time>
      </trkpt>
      <trkpt lat="48.58407" lon="-0.50906">
        <ele>264.4</ele>
        <time>2014-05-27T15:41:51Z</time>
      </trkpt>
      <trkpt lat="48.5841" lon="-0.50897">
        <ele>264.6</ele>
        <time>2014-05-27T15:41:52Z</time>
      </trkpt>
      <trkpt lat="48.58412" lon="-0.50888">
        <ele>264.6</ele>
        <time>2014-05-27T15:41:53Z</time>
      </trkpt>
      <trkpt lat="48.58414" lon="-0.5088">
        <ele>264.6</ele>
        <time>2014-05-27T15:41:54Z</time>
      </trkpt>
      <trkpt lat="48.58419" lon="-0.50852">
        <ele>264.8</ele>
        <time>2014-05-27T15:41:57Z</time>
      </trkpt>
      <trkpt lat="48.58428" lon="-0.50817">
        <ele>264.8</ele>
        <time>2014-05-27T15:42:01Z</time>
      </trkpt>
      <trkpt lat="48.58429" lon="-0.50808">
        <ele>264.8</ele>
        <time>2014-05-27T15:42:02Z</time>
      </trkpt>
      <trkpt lat="48.58431" lon="-0.50799">
        <ele>265</ele>
        <time>2014-05-27T15:42:03Z</time>
      </trkpt>
      <trkpt lat="48.58433" lon="-0.5079">
        <ele>265</ele>
        <time>2014-05-27T15:42:04Z</time>
      </trkpt>
      <trkpt lat="48.58435" lon="-0.50781">
        <ele>265</ele>
        <time>2014-05-27T15:42:05Z</time>
      </trkpt>
      <trkpt lat="48.58437" lon="-0.50772">
        <ele>265</ele>
        <time>2014-05-27T15:42:06Z</time>
      </trkpt>
      <trkpt lat="48.58439" lon="-0.50763">
        <ele>265</ele>
        <time>2014-05-27T15:42:07Z</time>
      </trkpt>
      <trkpt lat="48.58441" lon="-0.50754">
        <ele>265</ele>
        <time>2014-05-27T15:42:08Z</time>
      </trkpt>
      <trkpt lat="48.58442" lon="-0.50745">
        <ele>265</ele>
        <time>2014-05-27T15:42:09Z</time>
      </trkpt>
      <trkpt lat="48.58443" lon="-0.50734">
        <ele>265</ele>
        <time>2014-05-27T15:42:10Z</time>
      </trkpt>
      <trkpt lat="48.58447" lon="-0.50704">
        <ele>265</ele>
        <time>2014-05-27T15:42:13Z</time>
      </trkpt>
      <trkpt lat="48.5847" lon="-0.50585">
        <ele>263.6</ele>
        <time>2014-05-27T15:42:25Z</time>
      </trkpt>
      <trkpt lat="48.58472" lon="-0.50575">
        <ele>263.4</ele>
        <time>2014-05-27T15:42:26Z</time>
      </trkpt>
      <trkpt lat="48.58478" lon="-0.50547">
        <ele>263.4</ele>
        <time>2014-05-27T15:42:29Z</time>
      </trkpt>
      <trkpt lat="48.5848" lon="-0.50537">
        <ele>263.4</ele>
        <time>2014-05-27T15:42:30Z</time>
      </trkpt>
      <trkpt lat="48.58506" lon="-0.50414">
        <ele>262</ele>
        <time>2014-05-27T15:42:43Z</time>
      </trkpt>
      <trkpt lat="48.58529" lon="-0.5031">
        <ele>260.8</ele>
        <time>2014-05-27T15:42:54Z</time>
      </trkpt>
      <trkpt lat="48.58532" lon="-0.50291">
        <ele>260.8</ele>
        <time>2014-05-27T15:42:56Z</time>
      </trkpt>
      <trkpt lat="48.58534" lon="-0.50281">
        <ele>260.6</ele>
        <time>2014-05-27T15:42:57Z</time>
      </trkpt>
      <trkpt lat="48.58542" lon="-0.50245">
        <ele>260.4</ele>
        <time>2014-05-27T15:43:01Z</time>
      </trkpt>
      <trkpt lat="48.58545" lon="-0.50237">
        <ele>260.4</ele>
        <time>2014-05-27T15:43:02Z</time>
      </trkpt>
      <trkpt lat="48.58554" lon="-0.50192">
        <ele>260.2</ele>
        <time>2014-05-27T15:43:07Z</time>
      </trkpt>
      <trkpt lat="48.58561" lon="-0.50148">
        <ele>260</ele>
        <time>2014-05-27T15:43:12Z</time>
      </trkpt>
      <trkpt lat="48.58563" lon="-0.50139">
        <ele>260.2</ele>
        <time>2014-05-27T15:43:13Z</time>
      </trkpt>
      <trkpt lat="48.58575" lon="-0.50076">
        <ele>260.4</ele>
        <time>2014-05-27T15:43:20Z</time>
      </trkpt>
      <trkpt lat="48.58583" lon="-0.50051">
        <ele>260.6</ele>
        <time>2014-05-27T15:43:23Z</time>
      </trkpt>
      <trkpt lat="48.58584" lon="-0.50043">
        <ele>260.6</ele>
        <time>2014-05-27T15:43:24Z</time>
      </trkpt>
      <trkpt lat="48.58586" lon="-0.50024">
        <ele>260.8</ele>
        <time>2014-05-27T15:43:26Z</time>
      </trkpt>
      <trkpt lat="48.58587" lon="-0.50015">
        <ele>261</ele>
        <time>2014-05-27T15:43:27Z</time>
      </trkpt>
      <trkpt lat="48.58589" lon="-0.50006">
        <ele>261</ele>
        <time>2014-05-27T15:43:28Z</time>
      </trkpt>
      <trkpt lat="48.5859" lon="-0.49997">
        <ele>261.2</ele>
        <time>2014-05-27T15:43:29Z</time>
      </trkpt>
      <trkpt lat="48.58591" lon="-0.49988">
        <ele>261.4</ele>
        <time>2014-05-27T15:43:30Z</time>
      </trkpt>
      <trkpt lat="48.58592" lon="-0.49979">
        <ele>261.4</ele>
        <time>2014-05-27T15:43:31Z</time>
      </trkpt>
      <trkpt lat="48.58598" lon="-0.49954">
        <ele>261.8</ele>
        <time>2014-05-27T15:43:34Z</time>
      </trkpt>
      <trkpt lat="48.58604" lon="-0.4993">
        <ele>262</ele>
        <time>2014-05-27T15:43:37Z</time>
      </trkpt>
      <trkpt lat="48.58617" lon="-0.49861">
        <ele>262.4</ele>
        <time>2014-05-27T15:43:45Z</time>
      </trkpt>
      <trkpt lat="48.58618" lon="-0.49853">
        <ele>262.4</ele>
        <time>2014-05-27T15:43:46Z</time>
      </trkpt>
      <trkpt lat="48.58633" lon="-0.49761">
        <ele>262.6</ele>
        <time>2014-05-27T15:43:56Z</time>
      </trkpt>
      <trkpt lat="48.58635" lon="-0.49753">
        <ele>262.6</ele>
        <time>2014-05-27T15:43:57Z</time>
      </trkpt>
      <trkpt lat="48.58636" lon="-0.49743">
        <ele>262.6</ele>
        <time>2014-05-27T15:43:58Z</time>
      </trkpt>
      <trkpt lat="48.58639" lon="-0.49725">
        <ele>262.4</ele>
        <time>2014-05-27T15:44:00Z</time>
      </trkpt>
      <trkpt lat="48.58642" lon="-0.49706">
        <ele>262.4</ele>
        <time>2014-05-27T15:44:02Z</time>
      </trkpt>
      <trkpt lat="48.58648" lon="-0.49669">
        <ele>262.2</ele>
        <time>2014-05-27T15:44:06Z</time>
      </trkpt>
      <trkpt lat="48.58663" lon="-0.49598">
        <ele>262.4</ele>
        <time>2014-05-27T15:44:14Z</time>
      </trkpt>
      <trkpt lat="48.58679" lon="-0.49537">
        <ele>263.4</ele>
        <time>2014-05-27T15:44:21Z</time>
      </trkpt>
      <trkpt lat="48.5868" lon="-0.49527">
        <ele>263.4</ele>
        <time>2014-05-27T15:44:22Z</time>
      </trkpt>
      <trkpt lat="48.58682" lon="-0.49519">
        <ele>263.8</ele>
        <time>2014-05-27T15:44:23Z</time>
      </trkpt>
      <trkpt lat="48.58685" lon="-0.4951">
        <ele>263.8</ele>
        <time>2014-05-27T15:44:24Z</time>
      </trkpt>
      <trkpt lat="48.58687" lon="-0.49502">
        <ele>264</ele>
        <time>2014-05-27T15:44:25Z</time>
      </trkpt>
      <trkpt lat="48.58689" lon="-0.49494">
        <ele>264.2</ele>
        <time>2014-05-27T15:44:26Z</time>
      </trkpt>
      <trkpt lat="48.58691" lon="-0.49485">
        <ele>264.2</ele>
        <time>2014-05-27T15:44:27Z</time>
      </trkpt>
      <trkpt lat="48.58692" lon="-0.49476">
        <ele>264.4</ele>
        <time>2014-05-27T15:44:28Z</time>
      </trkpt>
      <trkpt lat="48.58694" lon="-0.49467">
        <ele>264.4</ele>
        <time>2014-05-27T15:44:29Z</time>
      </trkpt>
      <trkpt lat="48.58696" lon="-0.49458">
        <ele>264.6</ele>
        <time>2014-05-27T15:44:30Z</time>
      </trkpt>
      <trkpt lat="48.587" lon="-0.4944">
        <ele>264.8</ele>
        <time>2014-05-27T15:44:32Z</time>
      </trkpt>
      <trkpt lat="48.58702" lon="-0.49432">
        <ele>264.8</ele>
        <time>2014-05-27T15:44:33Z</time>
      </trkpt>
      <trkpt lat="48.58717" lon="-0.49341">
        <ele>267</ele>
        <time>2014-05-27T15:44:43Z</time>
      </trkpt>
      <trkpt lat="48.58718" lon="-0.49333">
        <ele>267.2</ele>
        <time>2014-05-27T15:44:44Z</time>
      </trkpt>
      <trkpt lat="48.58725" lon="-0.493">
        <ele>268.2</ele>
        <time>2014-05-27T15:44:48Z</time>
      </trkpt>
      <trkpt lat="48.58726" lon="-0.49292">
        <ele>268.4</ele>
        <time>2014-05-27T15:44:49Z</time>
      </trkpt>
      <trkpt lat="48.58731" lon="-0.49267">
        <ele>269.2</ele>
        <time>2014-05-27T15:44:52Z</time>
      </trkpt>
      <trkpt lat="48.58732" lon="-0.49259">
        <ele>269.4</ele>
        <time>2014-05-27T15:44:53Z</time>
      </trkpt>
      <trkpt lat="48.58733" lon="-0.49251">
        <ele>269.6</ele>
        <time>2014-05-27T15:44:54Z</time>
      </trkpt>
      <trkpt lat="48.58735" lon="-0.49244">
        <ele>269.8</ele>
        <time>2014-05-27T15:44:55Z</time>
      </trkpt>
      <trkpt lat="48.58736" lon="-0.49237">
        <ele>270.4</ele>
        <time>2014-05-27T15:44:56Z</time>
      </trkpt>
      <trkpt lat="48.58738" lon="-0.4923">
        <ele>270.6</ele>
        <time>2014-05-27T15:44:57Z</time>
      </trkpt>
      <trkpt lat="48.58739" lon="-0.49222">
        <ele>270.8</ele>
        <time>2014-05-27T15:44:58Z</time>
      </trkpt>
      <trkpt lat="48.5874" lon="-0.49214">
        <ele>271</ele>
        <time>2014-05-27T15:44:59Z</time>
      </trkpt>
      <trkpt lat="48.58741" lon="-0.49207">
        <ele>271</ele>
        <time>2014-05-27T15:45:00Z</time>
      </trkpt>
      <trkpt lat="48.58746" lon="-0.49179">
        <ele>271.8</ele>
        <time>2014-05-27T15:45:04Z</time>
      </trkpt>
      <trkpt lat="48.58747" lon="-0.49173">
        <ele>271.8</ele>
        <time>2014-05-27T15:45:05Z</time>
      </trkpt>
      <trkpt lat="48.58758" lon="-0.49118">
        <ele>273</ele>
        <time>2014-05-27T15:45:15Z</time>
      </trkpt>
      <trkpt lat="48.58761" lon="-0.49108">
        <ele>273.4</ele>
        <time>2014-05-27T15:45:18Z</time>
      </trkpt>
      <trkpt lat="48.58762" lon="-0.49104">
        <ele>273.4</ele>
        <time>2014-05-27T15:45:19Z</time>
      </trkpt>
      <trkpt lat="48.58763" lon="-0.49101">
        <ele>273.6</ele>
        <time>2014-05-27T15:45:20Z</time>
      </trkpt>
      <trkpt lat="48.58764" lon="-0.49097">
        <ele>273.6</ele>
        <time>2014-05-27T15:45:21Z</time>
      </trkpt>
      <trkpt lat="48.58766" lon="-0.49093">
        <ele>273.6</ele>
        <time>2014-05-27T15:45:22Z</time>
      </trkpt>
      <trkpt lat="48.58767" lon="-0.49087">
        <ele>273.8</ele>
        <time>2014-05-27T15:45:23Z</time>
      </trkpt>
      <trkpt lat="48.58768" lon="-0.49075">
        <ele>274</ele>
        <time>2014-05-27T15:45:25Z</time>
      </trkpt>
      <trkpt lat="48.58767" lon="-0.49069">
        <ele>274</ele>
        <time>2014-05-27T15:45:26Z</time>
      </trkpt>
      <trkpt lat="48.58766" lon="-0.49064">
        <ele>274</ele>
        <time>2014-05-27T15:45:27Z</time>
      </trkpt>
      <trkpt lat="48.58764" lon="-0.49059">
        <ele>274</ele>
        <time>2014-05-27T15:45:28Z</time>
      </trkpt>
      <trkpt lat="48.58761" lon="-0.49055">
        <ele>274</ele>
        <time>2014-05-27T15:45:29Z</time>
      </trkpt>
      <trkpt lat="48.58758" lon="-0.4905">
        <ele>274</ele>
        <time>2014-05-27T15:45:30Z</time>
      </trkpt>
      <trkpt lat="48.58756" lon="-0.49045">
        <ele>274</ele>
        <time>2014-05-27T15:45:31Z</time>
      </trkpt>
      <trkpt lat="48.58748" lon="-0.49022">
        <ele>273.8</ele>
        <time>2014-05-27T15:45:35Z</time>
      </trkpt>
      <trkpt lat="48.58747" lon="-0.49015">
        <ele>273.8</ele>
        <time>2014-05-27T15:45:36Z</time>
      </trkpt>
      <trkpt lat="48.58747" lon="-0.49008">
        <ele>273.6</ele>
        <time>2014-05-27T15:45:37Z</time>
      </trkpt>
      <trkpt lat="48.58748" lon="-0.49001">
        <ele>273.6</ele>
        <time>2014-05-27T15:45:38Z</time>
      </trkpt>
      <trkpt lat="48.58749" lon="-0.48995">
        <ele>273.6</ele>
        <time>2014-05-27T15:45:39Z</time>
      </trkpt>
      <trkpt lat="48.58751" lon="-0.48991">
        <ele>273.6</ele>
        <time>2014-05-27T15:45:40Z</time>
      </trkpt>
      <trkpt lat="48.58753" lon="-0.48987">
        <ele>273.6</ele>
        <time>2014-05-27T15:45:41Z</time>
      </trkpt>
      <trkpt lat="48.58757" lon="-0.48984">
        <ele>273.6</ele>
        <time>2014-05-27T15:45:42Z</time>
      </trkpt>
      <trkpt lat="48.5876" lon="-0.48982">
        <ele>273.6</ele>
        <time>2014-05-27T15:45:43Z</time>
      </trkpt>
      <trkpt lat="48.58778" lon="-0.48973">
        <ele>274.2</ele>
        <time>2014-05-27T15:45:51Z</time>
      </trkpt>
      <trkpt lat="48.58779" lon="-0.48973">
        <ele>274.4</ele>
        <time>2014-05-27T15:45:52Z</time>
      </trkpt>
      <trkpt lat="48.58781" lon="-0.48973">
        <ele>274.6</ele>
        <time>2014-05-27T15:45:53Z</time>
      </trkpt>
      <trkpt lat="48.58791" lon="-0.48971">
        <ele>274.8</ele>
        <time>2014-05-27T15:45:56Z</time>
      </trkpt>
      <trkpt lat="48.58796" lon="-0.48969">
        <ele>274.8</ele>
        <time>2014-05-27T15:45:57Z</time>
      </trkpt>
      <trkpt lat="48.588" lon="-0.48969">
        <ele>274.8</ele>
        <time>2014-05-27T15:45:58Z</time>
      </trkpt>
      <trkpt lat="48.58805" lon="-0.48969">
        <ele>274.8</ele>
        <time>2014-05-27T15:45:59Z</time>
      </trkpt>
      <trkpt lat="48.5881" lon="-0.48971">
        <ele>274.8</ele>
        <time>2014-05-27T15:46:00Z</time>
      </trkpt>
      <trkpt lat="48.58814" lon="-0.48974">
        <ele>274.8</ele>
        <time>2014-05-27T15:46:01Z</time>
      </trkpt>
      <trkpt lat="48.58817" lon="-0.48979">
        <ele>274.8</ele>
        <time>2014-05-27T15:46:02Z</time>
      </trkpt>
      <trkpt lat="48.58819" lon="-0.48986">
        <ele>274.6</ele>
        <time>2014-05-27T15:46:03Z</time>
      </trkpt>
      <trkpt lat="48.58819" lon="-0.48993">
        <ele>274.6</ele>
        <time>2014-05-27T15:46:04Z</time>
      </trkpt>
      <trkpt lat="48.5882" lon="-0.49">
        <ele>274.6</ele>
        <time>2014-05-27T15:46:05Z</time>
      </trkpt>
      <trkpt lat="48.58821" lon="-0.49006">
        <ele>274.4</ele>
        <time>2014-05-27T15:46:06Z</time>
      </trkpt>
      <trkpt lat="48.58823" lon="-0.49015">
        <ele>274.6</ele>
        <time>2014-05-27T15:46:08Z</time>
      </trkpt>
      <trkpt lat="48.58826" lon="-0.49016">
        <ele>274.8</ele>
        <time>2014-05-27T15:46:09Z</time>
      </trkpt>
      <trkpt lat="48.5883" lon="-0.49016">
        <ele>275</ele>
        <time>2014-05-27T15:46:10Z</time>
      </trkpt>
      <trkpt lat="48.58834" lon="-0.49017">
        <ele>275.2</ele>
        <time>2014-05-27T15:46:11Z</time>
      </trkpt>
      <trkpt lat="48.58839" lon="-0.49017">
        <ele>275.4</ele>
        <time>2014-05-27T15:46:12Z</time>
      </trkpt>
      <trkpt lat="48.58862" lon="-0.49025">
        <ele>275.8</ele>
        <time>2014-05-27T15:46:16Z</time>
      </trkpt>
      <trkpt lat="48.58916" lon="-0.49045">
        <ele>276.4</ele>
        <time>2014-05-27T15:46:26Z</time>
      </trkpt>
      <trkpt lat="48.58921" lon="-0.49048">
        <ele>276.4</ele>
        <time>2014-05-27T15:46:27Z</time>
      </trkpt>
      <trkpt lat="48.58927" lon="-0.49051">
        <ele>276.4</ele>
        <time>2014-05-27T15:46:28Z</time>
      </trkpt>
      <trkpt lat="48.58933" lon="-0.49054">
        <ele>276.4</ele>
        <time>2014-05-27T15:46:29Z</time>
      </trkpt>
      <trkpt lat="48.58939" lon="-0.49056">
        <ele>276.4</ele>
        <time>2014-05-27T15:46:30Z</time>
      </trkpt>
      <trkpt lat="48.58944" lon="-0.49058">
        <ele>276.4</ele>
        <time>2014-05-27T15:46:31Z</time>
      </trkpt>
      <trkpt lat="48.5895" lon="-0.49061">
        <ele>276.2</ele>
        <time>2014-05-27T15:46:32Z</time>
      </trkpt>
      <trkpt lat="48.58954" lon="-0.49062">
        <ele>276.2</ele>
        <time>2014-05-27T15:46:33Z</time>
      </trkpt>
      <trkpt lat="48.58965" lon="-0.49066">
        <ele>276</ele>
        <time>2014-05-27T15:46:35Z</time>
      </trkpt>
      <trkpt lat="48.58978" lon="-0.49069">
        <ele>275.8</ele>
        <time>2014-05-27T15:46:37Z</time>
      </trkpt>
      <trkpt lat="48.5899" lon="-0.49074">
        <ele>275.6</ele>
        <time>2014-05-27T15:46:39Z</time>
      </trkpt>
      <trkpt lat="48.58997" lon="-0.49077">
        <ele>275.4</ele>
        <time>2014-05-27T15:46:40Z</time>
      </trkpt>
      <trkpt lat="48.59003" lon="-0.49079">
        <ele>275</ele>
        <time>2014-05-27T15:46:41Z</time>
      </trkpt>
      <trkpt lat="48.59009" lon="-0.49081">
        <ele>274.6</ele>
        <time>2014-05-27T15:46:42Z</time>
      </trkpt>
      <trkpt lat="48.59017" lon="-0.49084">
        <ele>274.4</ele>
        <time>2014-05-27T15:46:43Z</time>
      </trkpt>
      <trkpt lat="48.5907" lon="-0.49102">
        <ele>271.2</ele>
        <time>2014-05-27T15:46:50Z</time>
      </trkpt>
      <trkpt lat="48.59103" lon="-0.49106">
        <ele>269.6</ele>
        <time>2014-05-27T15:46:54Z</time>
      </trkpt>
      <trkpt lat="48.5913" lon="-0.49106">
        <ele>268</ele>
        <time>2014-05-27T15:46:57Z</time>
      </trkpt>
      <trkpt lat="48.59139" lon="-0.49105">
        <ele>267.4</ele>
        <time>2014-05-27T15:46:58Z</time>
      </trkpt>
      <trkpt lat="48.59166" lon="-0.49103">
        <ele>265.4</ele>
        <time>2014-05-27T15:47:01Z</time>
      </trkpt>
      <trkpt lat="48.59203" lon="-0.49098">
        <ele>262.2</ele>
        <time>2014-05-27T15:47:05Z</time>
      </trkpt>
      <trkpt lat="48.59245" lon="-0.49095">
        <ele>259</ele>
        <time>2014-05-27T15:47:10Z</time>
      </trkpt>
      <trkpt lat="48.59269" lon="-0.49093">
        <ele>258.4</ele>
        <time>2014-05-27T15:47:13Z</time>
      </trkpt>
      <trkpt lat="48.59276" lon="-0.49092">
        <ele>258.2</ele>
        <time>2014-05-27T15:47:14Z</time>
      </trkpt>
      <trkpt lat="48.59283" lon="-0.4909">
        <ele>258</ele>
        <time>2014-05-27T15:47:15Z</time>
      </trkpt>
      <trkpt lat="48.59352" lon="-0.49083">
        <ele>257</ele>
        <time>2014-05-27T15:47:25Z</time>
      </trkpt>
      <trkpt lat="48.59382" lon="-0.49081">
        <ele>256.6</ele>
        <time>2014-05-27T15:47:29Z</time>
      </trkpt>
      <trkpt lat="48.59389" lon="-0.49079">
        <ele>256.6</ele>
        <time>2014-05-27T15:47:30Z</time>
      </trkpt>
      <trkpt lat="48.59395" lon="-0.49078">
        <ele>256.6</ele>
        <time>2014-05-27T15:47:31Z</time>
      </trkpt>
      <trkpt lat="48.59401" lon="-0.49077">
        <ele>256.4</ele>
        <time>2014-05-27T15:47:32Z</time>
      </trkpt>
      <trkpt lat="48.59407" lon="-0.49075">
        <ele>256.6</ele>
        <time>2014-05-27T15:47:33Z</time>
      </trkpt>
      <trkpt lat="48.59413" lon="-0.49074">
        <ele>256.6</ele>
        <time>2014-05-27T15:47:34Z</time>
      </trkpt>
      <trkpt lat="48.59455" lon="-0.49071">
        <ele>258</ele>
        <time>2014-05-27T15:47:43Z</time>
      </trkpt>
      <trkpt lat="48.59459" lon="-0.49074">
        <ele>258.2</ele>
        <time>2014-05-27T15:47:45Z</time>
      </trkpt>
      <trkpt lat="48.59465" lon="-0.49084">
        <ele>258.6</ele>
        <time>2014-05-27T15:47:47Z</time>
      </trkpt>
      <trkpt lat="48.59478" lon="-0.4911">
        <ele>258.6</ele>
        <time>2014-05-27T15:47:51Z</time>
      </trkpt>
      <trkpt lat="48.59482" lon="-0.49117">
        <ele>258.6</ele>
        <time>2014-05-27T15:47:52Z</time>
      </trkpt>
      <trkpt lat="48.595" lon="-0.49152">
        <ele>257.6</ele>
        <time>2014-05-27T15:47:57Z</time>
      </trkpt>
      <trkpt lat="48.59504" lon="-0.49158">
        <ele>257.4</ele>
        <time>2014-05-27T15:47:58Z</time>
      </trkpt>
      <trkpt lat="48.59506" lon="-0.49164">
        <ele>257.2</ele>
        <time>2014-05-27T15:47:59Z</time>
      </trkpt>
      <trkpt lat="48.59509" lon="-0.49169">
        <ele>257</ele>
        <time>2014-05-27T15:48:00Z</time>
      </trkpt>
      <trkpt lat="48.59513" lon="-0.49174">
        <ele>256.6</ele>
        <time>2014-05-27T15:48:01Z</time>
      </trkpt>
      <trkpt lat="48.59517" lon="-0.4918">
        <ele>256.4</ele>
        <time>2014-05-27T15:48:02Z</time>
      </trkpt>
      <trkpt lat="48.5952" lon="-0.49187">
        <ele>256.2</ele>
        <time>2014-05-27T15:48:03Z</time>
      </trkpt>
      <trkpt lat="48.59524" lon="-0.49193">
        <ele>256</ele>
        <time>2014-05-27T15:48:04Z</time>
      </trkpt>
      <trkpt lat="48.59542" lon="-0.49232">
        <ele>254.8</ele>
        <time>2014-05-27T15:48:09Z</time>
      </trkpt>
      <trkpt lat="48.59545" lon="-0.49241">
        <ele>254.6</ele>
        <time>2014-05-27T15:48:10Z</time>
      </trkpt>
      <trkpt lat="48.59549" lon="-0.49249">
        <ele>254.4</ele>
        <time>2014-05-27T15:48:11Z</time>
      </trkpt>
      <trkpt lat="48.59557" lon="-0.49263">
        <ele>254</ele>
        <time>2014-05-27T15:48:13Z</time>
      </trkpt>
      <trkpt lat="48.59565" lon="-0.49277">
        <ele>253.4</ele>
        <time>2014-05-27T15:48:15Z</time>
      </trkpt>
      <trkpt lat="48.59572" lon="-0.49293">
        <ele>253</ele>
        <time>2014-05-27T15:48:17Z</time>
      </trkpt>
      <trkpt lat="48.59576" lon="-0.493">
        <ele>252.8</ele>
        <time>2014-05-27T15:48:18Z</time>
      </trkpt>
      <trkpt lat="48.59579" lon="-0.49307">
        <ele>252.6</ele>
        <time>2014-05-27T15:48:19Z</time>
      </trkpt>
      <trkpt lat="48.59588" lon="-0.4933">
        <ele>251.8</ele>
        <time>2014-05-27T15:48:22Z</time>
      </trkpt>
      <trkpt lat="48.59595" lon="-0.49345">
        <ele>251.4</ele>
        <time>2014-05-27T15:48:24Z</time>
      </trkpt>
      <trkpt lat="48.59599" lon="-0.49353">
        <ele>251.2</ele>
        <time>2014-05-27T15:48:25Z</time>
      </trkpt>
      <trkpt lat="48.59603" lon="-0.49361">
        <ele>251.2</ele>
        <time>2014-05-27T15:48:26Z</time>
      </trkpt>
      <trkpt lat="48.59606" lon="-0.4937">
        <ele>251</ele>
        <time>2014-05-27T15:48:27Z</time>
      </trkpt>
      <trkpt lat="48.59611" lon="-0.49378">
        <ele>250.8</ele>
        <time>2014-05-27T15:48:28Z</time>
      </trkpt>
      <trkpt lat="48.59614" lon="-0.49387">
        <ele>250.8</ele>
        <time>2014-05-27T15:48:29Z</time>
      </trkpt>
      <trkpt lat="48.59618" lon="-0.49396">
        <ele>250.6</ele>
        <time>2014-05-27T15:48:30Z</time>
      </trkpt>
      <trkpt lat="48.59622" lon="-0.49404">
        <ele>250.4</ele>
        <time>2014-05-27T15:48:31Z</time>
      </trkpt>
      <trkpt lat="48.59637" lon="-0.49436">
        <ele>249.6</ele>
        <time>2014-05-27T15:48:35Z</time>
      </trkpt>
      <trkpt lat="48.59679" lon="-0.49531">
        <ele>247</ele>
        <time>2014-05-27T15:48:46Z</time>
      </trkpt>
      <trkpt lat="48.59697" lon="-0.49572">
        <ele>245.8</ele>
        <time>2014-05-27T15:48:51Z</time>
      </trkpt>
      <trkpt lat="48.59712" lon="-0.49601">
        <ele>245.6</ele>
        <time>2014-05-27T15:48:55Z</time>
      </trkpt>
      <trkpt lat="48.59723" lon="-0.49627">
        <ele>246</ele>
        <time>2014-05-27T15:48:59Z</time>
      </trkpt>
      <trkpt lat="48.59726" lon="-0.49633">
        <ele>246.2</ele>
        <time>2014-05-27T15:49:00Z</time>
      </trkpt>
      <trkpt lat="48.59732" lon="-0.49646">
        <ele>246.8</ele>
        <time>2014-05-27T15:49:02Z</time>
      </trkpt>
      <trkpt lat="48.59745" lon="-0.49677">
        <ele>248.2</ele>
        <time>2014-05-27T15:49:06Z</time>
      </trkpt>
      <trkpt lat="48.59748" lon="-0.49683">
        <ele>248.6</ele>
        <time>2014-05-27T15:49:07Z</time>
      </trkpt>
      <trkpt lat="48.59751" lon="-0.4969">
        <ele>248.8</ele>
        <time>2014-05-27T15:49:08Z</time>
      </trkpt>
      <trkpt lat="48.59755" lon="-0.49697">
        <ele>249.4</ele>
        <time>2014-05-27T15:49:09Z</time>
      </trkpt>
      <trkpt lat="48.59758" lon="-0.49703">
        <ele>249.8</ele>
        <time>2014-05-27T15:49:10Z</time>
      </trkpt>
      <trkpt lat="48.5976" lon="-0.4971">
        <ele>250</ele>
        <time>2014-05-27T15:49:11Z</time>
      </trkpt>
      <trkpt lat="48.59774" lon="-0.49736">
        <ele>252</ele>
        <time>2014-05-27T15:49:15Z</time>
      </trkpt>
      <trkpt lat="48.59777" lon="-0.49744">
        <ele>252.4</ele>
        <time>2014-05-27T15:49:16Z</time>
      </trkpt>
      <trkpt lat="48.5978" lon="-0.49751">
        <ele>252.8</ele>
        <time>2014-05-27T15:49:17Z</time>
      </trkpt>
      <trkpt lat="48.59784" lon="-0.49758">
        <ele>253.2</ele>
        <time>2014-05-27T15:49:18Z</time>
      </trkpt>
      <trkpt lat="48.59787" lon="-0.49765">
        <ele>253.6</ele>
        <time>2014-05-27T15:49:19Z</time>
      </trkpt>
      <trkpt lat="48.59791" lon="-0.49773">
        <ele>254</ele>
        <time>2014-05-27T15:49:20Z</time>
      </trkpt>
      <trkpt lat="48.59794" lon="-0.4978">
        <ele>254.4</ele>
        <time>2014-05-27T15:49:21Z</time>
      </trkpt>
      <trkpt lat="48.59804" lon="-0.49802">
        <ele>255.4</ele>
        <time>2014-05-27T15:49:24Z</time>
      </trkpt>
      <trkpt lat="48.59808" lon="-0.4981">
        <ele>255.8</ele>
        <time>2014-05-27T15:49:25Z</time>
      </trkpt>
      <trkpt lat="48.59813" lon="-0.49825">
        <ele>256.2</ele>
        <time>2014-05-27T15:49:27Z</time>
      </trkpt>
      <trkpt lat="48.59816" lon="-0.49832">
        <ele>256.6</ele>
        <time>2014-05-27T15:49:28Z</time>
      </trkpt>
      <trkpt lat="48.59822" lon="-0.49845">
        <ele>257</ele>
        <time>2014-05-27T15:49:30Z</time>
      </trkpt>
      <trkpt lat="48.59826" lon="-0.49853">
        <ele>257.2</ele>
        <time>2014-05-27T15:49:31Z</time>
      </trkpt>
      <trkpt lat="48.59836" lon="-0.49878">
        <ele>257.8</ele>
        <time>2014-05-27T15:49:34Z</time>
      </trkpt>
      <trkpt lat="48.59838" lon="-0.49887">
        <ele>258</ele>
        <time>2014-05-27T15:49:35Z</time>
      </trkpt>
      <trkpt lat="48.59841" lon="-0.49895">
        <ele>258</ele>
        <time>2014-05-27T15:49:36Z</time>
      </trkpt>
      <trkpt lat="48.59858" lon="-0.49932">
        <ele>258.2</ele>
        <time>2014-05-27T15:49:42Z</time>
      </trkpt>
      <trkpt lat="48.59861" lon="-0.49939">
        <ele>258</ele>
        <time>2014-05-27T15:49:43Z</time>
      </trkpt>
      <trkpt lat="48.59865" lon="-0.49945">
        <ele>257.8</ele>
        <time>2014-05-27T15:49:44Z</time>
      </trkpt>
      <trkpt lat="48.59869" lon="-0.49953">
        <ele>257.4</ele>
        <time>2014-05-27T15:49:45Z</time>
      </trkpt>
      <trkpt lat="48.59872" lon="-0.49961">
        <ele>257</ele>
        <time>2014-05-27T15:49:46Z</time>
      </trkpt>
      <trkpt lat="48.59876" lon="-0.4997">
        <ele>256.6</ele>
        <time>2014-05-27T15:49:47Z</time>
      </trkpt>
      <trkpt lat="48.599" lon="-0.50027">
        <ele>254</ele>
        <time>2014-05-27T15:49:53Z</time>
      </trkpt>
      <trkpt lat="48.59905" lon="-0.50039">
        <ele>253.4</ele>
        <time>2014-05-27T15:49:54Z</time>
      </trkpt>
      <trkpt lat="48.59932" lon="-0.50101">
        <ele>250</ele>
        <time>2014-05-27T15:50:00Z</time>
      </trkpt>
      <trkpt lat="48.59944" lon="-0.50131">
        <ele>248.6</ele>
        <time>2014-05-27T15:50:04Z</time>
      </trkpt>
      <trkpt lat="48.59947" lon="-0.50138">
        <ele>248.6</ele>
        <time>2014-05-27T15:50:05Z</time>
      </trkpt>
      <trkpt lat="48.59952" lon="-0.50151">
        <ele>248.6</ele>
        <time>2014-05-27T15:50:07Z</time>
      </trkpt>
      <trkpt lat="48.59956" lon="-0.50158">
        <ele>248.8</ele>
        <time>2014-05-27T15:50:08Z</time>
      </trkpt>
      <trkpt lat="48.59972" lon="-0.50194">
        <ele>249.6</ele>
        <time>2014-05-27T15:50:13Z</time>
      </trkpt>
      <trkpt lat="48.59974" lon="-0.50201">
        <ele>249.8</ele>
        <time>2014-05-27T15:50:14Z</time>
      </trkpt>
      <trkpt lat="48.59977" lon="-0.50208">
        <ele>250</ele>
        <time>2014-05-27T15:50:15Z</time>
      </trkpt>
      <trkpt lat="48.59986" lon="-0.5023">
        <ele>250.6</ele>
        <time>2014-05-27T15:50:18Z</time>
      </trkpt>
      <trkpt lat="48.59989" lon="-0.50236">
        <ele>250.8</ele>
        <time>2014-05-27T15:50:19Z</time>
      </trkpt>
      <trkpt lat="48.59992" lon="-0.50242">
        <ele>251</ele>
        <time>2014-05-27T15:50:20Z</time>
      </trkpt>
      <trkpt lat="48.59995" lon="-0.50249">
        <ele>251.2</ele>
        <time>2014-05-27T15:50:21Z</time>
      </trkpt>
      <trkpt lat="48.59998" lon="-0.50254">
        <ele>251.6</ele>
        <time>2014-05-27T15:50:22Z</time>
      </trkpt>
      <trkpt lat="48.60013" lon="-0.50284">
        <ele>254.6</ele>
        <time>2014-05-27T15:50:29Z</time>
      </trkpt>
      <trkpt lat="48.60014" lon="-0.50288">
        <ele>255</ele>
        <time>2014-05-27T15:50:30Z</time>
      </trkpt>
      <trkpt lat="48.60023" lon="-0.50305">
        <ele>256.2</ele>
        <time>2014-05-27T15:50:35Z</time>
      </trkpt>
      <trkpt lat="48.60024" lon="-0.50309">
        <ele>256.4</ele>
        <time>2014-05-27T15:50:36Z</time>
      </trkpt>
      <trkpt lat="48.60025" lon="-0.50313">
        <ele>256.6</ele>
        <time>2014-05-27T15:50:37Z</time>
      </trkpt>
      <trkpt lat="48.60026" lon="-0.50318">
        <ele>256.8</ele>
        <time>2014-05-27T15:50:38Z</time>
      </trkpt>
      <trkpt lat="48.60028" lon="-0.50321">
        <ele>257</ele>
        <time>2014-05-27T15:50:39Z</time>
      </trkpt>
      <trkpt lat="48.60029" lon="-0.50324">
        <ele>257.2</ele>
        <time>2014-05-27T15:50:40Z</time>
      </trkpt>
      <trkpt lat="48.60031" lon="-0.50327">
        <ele>257.2</ele>
        <time>2014-05-27T15:50:41Z</time>
      </trkpt>
      <trkpt lat="48.60032" lon="-0.5033">
        <ele>257.4</ele>
        <time>2014-05-27T15:50:42Z</time>
      </trkpt>
      <trkpt lat="48.60033" lon="-0.50334">
        <ele>257.6</ele>
        <time>2014-05-27T15:50:43Z</time>
      </trkpt>
      <trkpt lat="48.60035" lon="-0.50338">
        <ele>257.6</ele>
        <time>2014-05-27T15:50:44Z</time>
      </trkpt>
      <trkpt lat="48.60036" lon="-0.50341">
        <ele>257.8</ele>
        <time>2014-05-27T15:50:45Z</time>
      </trkpt>
      <trkpt lat="48.60039" lon="-0.50345">
        <ele>257.8</ele>
        <time>2014-05-27T15:50:46Z</time>
      </trkpt>
      <trkpt lat="48.60052" lon="-0.50379">
        <ele>258.8</ele>
        <time>2014-05-27T15:50:55Z</time>
      </trkpt>
      <trkpt lat="48.60063" lon="-0.5041">
        <ele>258.6</ele>
        <time>2014-05-27T15:51:04Z</time>
      </trkpt>
      <trkpt lat="48.60063" lon="-0.50414">
        <ele>258.6</ele>
        <time>2014-05-27T15:51:05Z</time>
      </trkpt>
      <trkpt lat="48.60062" lon="-0.50417">
        <ele>258.4</ele>
        <time>2014-05-27T15:51:06Z</time>
      </trkpt>
      <trkpt lat="48.60063" lon="-0.50421">
        <ele>258.4</ele>
        <time>2014-05-27T15:51:07Z</time>
      </trkpt>
      <trkpt lat="48.60063" lon="-0.50425">
        <ele>258.4</ele>
        <time>2014-05-27T15:51:08Z</time>
      </trkpt>
      <trkpt lat="48.60063" lon="-0.50429">
        <ele>258.4</ele>
        <time>2014-05-27T15:51:09Z</time>
      </trkpt>
      <trkpt lat="48.60062" lon="-0.50433">
        <ele>258.2</ele>
        <time>2014-05-27T15:51:10Z</time>
      </trkpt>
      <trkpt lat="48.60061" lon="-0.50438">
        <ele>258.2</ele>
        <time>2014-05-27T15:51:11Z</time>
      </trkpt>
      <trkpt lat="48.60054" lon="-0.50477">
        <ele>257.6</ele>
        <time>2014-05-27T15:51:21Z</time>
      </trkpt>
      <trkpt lat="48.60053" lon="-0.50481">
        <ele>257.4</ele>
        <time>2014-05-27T15:51:22Z</time>
      </trkpt>
      <trkpt lat="48.60051" lon="-0.50489">
        <ele>257.4</ele>
        <time>2014-05-27T15:51:24Z</time>
      </trkpt>
      <trkpt lat="48.60048" lon="-0.50509">
        <ele>257.2</ele>
        <time>2014-05-27T15:51:32Z</time>
      </trkpt>
      <trkpt lat="48.60034" lon="-0.50549">
        <ele>256.2</ele>
        <time>2014-05-27T15:51:43Z</time>
      </trkpt>
      <trkpt lat="48.60032" lon="-0.50569">
        <ele>255.6</ele>
        <time>2014-05-27T15:51:48Z</time>
      </trkpt>
      <trkpt lat="48.6003" lon="-0.50576">
        <ele>255.6</ele>
        <time>2014-05-27T15:51:50Z</time>
      </trkpt>
      <trkpt lat="48.60028" lon="-0.50603">
        <ele>254.8</ele>
        <time>2014-05-27T15:51:57Z</time>
      </trkpt>
      <trkpt lat="48.60027" lon="-0.50607">
        <ele>254.6</ele>
        <time>2014-05-27T15:51:58Z</time>
      </trkpt>
      <trkpt lat="48.60025" lon="-0.50612">
        <ele>254.6</ele>
        <time>2014-05-27T15:51:59Z</time>
      </trkpt>
      <trkpt lat="48.60022" lon="-0.50616">
        <ele>254.6</ele>
        <time>2014-05-27T15:52:00Z</time>
      </trkpt>
      <trkpt lat="48.60019" lon="-0.50621">
        <ele>254.6</ele>
        <time>2014-05-27T15:52:01Z</time>
      </trkpt>
      <trkpt lat="48.60016" lon="-0.50628">
        <ele>254.4</ele>
        <time>2014-05-27T15:52:02Z</time>
      </trkpt>
      <trkpt lat="48.59974" lon="-0.5071">
        <ele>253.2</ele>
        <time>2014-05-27T15:52:14Z</time>
      </trkpt>
      <trkpt lat="48.5997" lon="-0.50717">
        <ele>253</ele>
        <time>2014-05-27T15:52:15Z</time>
      </trkpt>
      <trkpt lat="48.59934" lon="-0.50774">
        <ele>250.8</ele>
        <time>2014-05-27T15:52:22Z</time>
      </trkpt>
      <trkpt lat="48.59929" lon="-0.50784">
        <ele>250.2</ele>
        <time>2014-05-27T15:52:23Z</time>
      </trkpt>
      <trkpt lat="48.59905" lon="-0.50826">
        <ele>247</ele>
        <time>2014-05-27T15:52:27Z</time>
      </trkpt>
      <trkpt lat="48.59898" lon="-0.50836">
        <ele>246</ele>
        <time>2014-05-27T15:52:28Z</time>
      </trkpt>
      <trkpt lat="48.59892" lon="-0.50846">
        <ele>245.2</ele>
        <time>2014-05-27T15:52:29Z</time>
      </trkpt>
      <trkpt lat="48.59881" lon="-0.50864">
        <ele>243.6</ele>
        <time>2014-05-27T15:52:31Z</time>
      </trkpt>
      <trkpt lat="48.59872" lon="-0.50878">
        <ele>242.2</ele>
        <time>2014-05-27T15:52:33Z</time>
      </trkpt>
      <trkpt lat="48.59867" lon="-0.50885">
        <ele>242</ele>
        <time>2014-05-27T15:52:34Z</time>
      </trkpt>
      <trkpt lat="48.5986" lon="-0.50899">
        <ele>242.2</ele>
        <time>2014-05-27T15:52:36Z</time>
      </trkpt>
      <trkpt lat="48.59856" lon="-0.50906">
        <ele>242.4</ele>
        <time>2014-05-27T15:52:37Z</time>
      </trkpt>
      <trkpt lat="48.59853" lon="-0.50912">
        <ele>242.4</ele>
        <time>2014-05-27T15:52:38Z</time>
      </trkpt>
      <trkpt lat="48.59849" lon="-0.50918">
        <ele>242.6</ele>
        <time>2014-05-27T15:52:39Z</time>
      </trkpt>
      <trkpt lat="48.59846" lon="-0.50923">
        <ele>242.8</ele>
        <time>2014-05-27T15:52:40Z</time>
      </trkpt>
      <trkpt lat="48.59843" lon="-0.50929">
        <ele>243</ele>
        <time>2014-05-27T15:52:41Z</time>
      </trkpt>
      <trkpt lat="48.5984" lon="-0.50934">
        <ele>243.4</ele>
        <time>2014-05-27T15:52:42Z</time>
      </trkpt>
      <trkpt lat="48.59837" lon="-0.5094">
        <ele>243.6</ele>
        <time>2014-05-27T15:52:43Z</time>
      </trkpt>
      <trkpt lat="48.59834" lon="-0.50947">
        <ele>243.8</ele>
        <time>2014-05-27T15:52:44Z</time>
      </trkpt>
      <trkpt lat="48.59806" lon="-0.50994">
        <ele>244.4</ele>
        <time>2014-05-27T15:52:51Z</time>
      </trkpt>
      <trkpt lat="48.59802" lon="-0.51">
        <ele>244.6</ele>
        <time>2014-05-27T15:52:52Z</time>
      </trkpt>
      <trkpt lat="48.59772" lon="-0.51053">
        <ele>245.4</ele>
        <time>2014-05-27T15:53:01Z</time>
      </trkpt>
      <trkpt lat="48.5977" lon="-0.51059">
        <ele>245.2</ele>
        <time>2014-05-27T15:53:02Z</time>
      </trkpt>
      <trkpt lat="48.59766" lon="-0.51064">
        <ele>245.2</ele>
        <time>2014-05-27T15:53:03Z</time>
      </trkpt>
      <trkpt lat="48.5975" lon="-0.51089">
        <ele>244.2</ele>
        <time>2014-05-27T15:53:07Z</time>
      </trkpt>
      <trkpt lat="48.5973" lon="-0.51128">
        <ele>241.6</ele>
        <time>2014-05-27T15:53:15Z</time>
      </trkpt>
      <trkpt lat="48.59731" lon="-0.51134">
        <ele>241.4</ele>
        <time>2014-05-27T15:53:16Z</time>
      </trkpt>
      <trkpt lat="48.59733" lon="-0.5114">
        <ele>241.2</ele>
        <time>2014-05-27T15:53:17Z</time>
      </trkpt>
      <trkpt lat="48.59736" lon="-0.51147">
        <ele>241.2</ele>
        <time>2014-05-27T15:53:18Z</time>
      </trkpt>
      <trkpt lat="48.5974" lon="-0.51155">
        <ele>241</ele>
        <time>2014-05-27T15:53:19Z</time>
      </trkpt>
      <trkpt lat="48.59744" lon="-0.51162">
        <ele>240.8</ele>
        <time>2014-05-27T15:53:20Z</time>
      </trkpt>
      <trkpt lat="48.59748" lon="-0.51171">
        <ele>240.6</ele>
        <time>2014-05-27T15:53:21Z</time>
      </trkpt>
      <trkpt lat="48.59753" lon="-0.5118">
        <ele>240.2</ele>
        <time>2014-05-27T15:53:22Z</time>
      </trkpt>
      <trkpt lat="48.5978" lon="-0.51236">
        <ele>236.8</ele>
        <time>2014-05-27T15:53:28Z</time>
      </trkpt>
      <trkpt lat="48.59784" lon="-0.51245">
        <ele>236.4</ele>
        <time>2014-05-27T15:53:29Z</time>
      </trkpt>
      <trkpt lat="48.59789" lon="-0.51254">
        <ele>235.8</ele>
        <time>2014-05-27T15:53:30Z</time>
      </trkpt>
      <trkpt lat="48.59794" lon="-0.51264">
        <ele>235.2</ele>
        <time>2014-05-27T15:53:31Z</time>
      </trkpt>
      <trkpt lat="48.59799" lon="-0.51274">
        <ele>234.6</ele>
        <time>2014-05-27T15:53:32Z</time>
      </trkpt>
      <trkpt lat="48.59804" lon="-0.51285">
        <ele>234.2</ele>
        <time>2014-05-27T15:53:33Z</time>
      </trkpt>
      <trkpt lat="48.59829" lon="-0.51342">
        <ele>232.2</ele>
        <time>2014-05-27T15:53:39Z</time>
      </trkpt>
      <trkpt lat="48.59853" lon="-0.5139">
        <ele>234.8</ele>
        <time>2014-05-27T15:53:48Z</time>
      </trkpt>
      <trkpt lat="48.5987" lon="-0.51437">
        <ele>237.2</ele>
        <time>2014-05-27T15:53:56Z</time>
      </trkpt>
      <trkpt lat="48.59886" lon="-0.51476">
        <ele>240.6</ele>
        <time>2014-05-27T15:54:03Z</time>
      </trkpt>
      <trkpt lat="48.59908" lon="-0.5153">
        <ele>244.4</ele>
        <time>2014-05-27T15:54:12Z</time>
      </trkpt>
      <trkpt lat="48.59936" lon="-0.51583">
        <ele>247.4</ele>
        <time>2014-05-27T15:54:20Z</time>
      </trkpt>
      <trkpt lat="48.59959" lon="-0.51629">
        <ele>250.8</ele>
        <time>2014-05-27T15:54:27Z</time>
      </trkpt>
      <trkpt lat="48.59971" lon="-0.51647">
        <ele>252</ele>
        <time>2014-05-27T15:54:30Z</time>
      </trkpt>
      <trkpt lat="48.59974" lon="-0.51653">
        <ele>252.4</ele>
        <time>2014-05-27T15:54:31Z</time>
      </trkpt>
      <trkpt lat="48.59977" lon="-0.5166">
        <ele>252.8</ele>
        <time>2014-05-27T15:54:32Z</time>
      </trkpt>
      <trkpt lat="48.5998" lon="-0.51667">
        <ele>253.4</ele>
        <time>2014-05-27T15:54:33Z</time>
      </trkpt>
      <trkpt lat="48.59983" lon="-0.51673">
        <ele>253.6</ele>
        <time>2014-05-27T15:54:34Z</time>
      </trkpt>
      <trkpt lat="48.59987" lon="-0.5168">
        <ele>254</ele>
        <time>2014-05-27T15:54:35Z</time>
      </trkpt>
      <trkpt lat="48.59991" lon="-0.51685">
        <ele>254.6</ele>
        <time>2014-05-27T15:54:36Z</time>
      </trkpt>
      <trkpt lat="48.59994" lon="-0.51692">
        <ele>255</ele>
        <time>2014-05-27T15:54:37Z</time>
      </trkpt>
      <trkpt lat="48.60018" lon="-0.51746">
        <ele>257.6</ele>
        <time>2014-05-27T15:54:45Z</time>
      </trkpt>
      <trkpt lat="48.60021" lon="-0.51752">
        <ele>257.6</ele>
        <time>2014-05-27T15:54:46Z</time>
      </trkpt>
      <trkpt lat="48.60024" lon="-0.51758">
        <ele>257.8</ele>
        <time>2014-05-27T15:54:47Z</time>
      </trkpt>
      <trkpt lat="48.60027" lon="-0.51765">
        <ele>257.8</ele>
        <time>2014-05-27T15:54:48Z</time>
      </trkpt>
      <trkpt lat="48.60029" lon="-0.51772">
        <ele>257.8</ele>
        <time>2014-05-27T15:54:49Z</time>
      </trkpt>
      <trkpt lat="48.60032" lon="-0.51779">
        <ele>257.8</ele>
        <time>2014-05-27T15:54:50Z</time>
      </trkpt>
      <trkpt lat="48.60034" lon="-0.51786">
        <ele>257.8</ele>
        <time>2014-05-27T15:54:51Z</time>
      </trkpt>
      <trkpt lat="48.60037" lon="-0.51792">
        <ele>257.8</ele>
        <time>2014-05-27T15:54:52Z</time>
      </trkpt>
      <trkpt lat="48.60041" lon="-0.51799">
        <ele>257.8</ele>
        <time>2014-05-27T15:54:53Z</time>
      </trkpt>
      <trkpt lat="48.60044" lon="-0.51805">
        <ele>257.6</ele>
        <time>2014-05-27T15:54:54Z</time>
      </trkpt>
      <trkpt lat="48.60047" lon="-0.51812">
        <ele>257.4</ele>
        <time>2014-05-27T15:54:55Z</time>
      </trkpt>
      <trkpt lat="48.60052" lon="-0.51818">
        <ele>257.2</ele>
        <time>2014-05-27T15:54:56Z</time>
      </trkpt>
      <trkpt lat="48.60055" lon="-0.51825">
        <ele>257</ele>
        <time>2014-05-27T15:54:57Z</time>
      </trkpt>
      <trkpt lat="48.60059" lon="-0.51833">
        <ele>256.8</ele>
        <time>2014-05-27T15:54:58Z</time>
      </trkpt>
      <trkpt lat="48.60063" lon="-0.51841">
        <ele>256.6</ele>
        <time>2014-05-27T15:54:59Z</time>
      </trkpt>
      <trkpt lat="48.6009" lon="-0.51898">
        <ele>253.2</ele>
        <time>2014-05-27T15:55:05Z</time>
      </trkpt>
      <trkpt lat="48.6011" lon="-0.51942">
        <ele>250.6</ele>
        <time>2014-05-27T15:55:09Z</time>
      </trkpt>
      <trkpt lat="48.60116" lon="-0.51953">
        <ele>249.8</ele>
        <time>2014-05-27T15:55:10Z</time>
      </trkpt>
      <trkpt lat="48.60127" lon="-0.51976">
        <ele>248.4</ele>
        <time>2014-05-27T15:55:12Z</time>
      </trkpt>
      <trkpt lat="48.60156" lon="-0.52019">
        <ele>245.2</ele>
        <time>2014-05-27T15:55:16Z</time>
      </trkpt>
      <trkpt lat="48.60189" lon="-0.52058">
        <ele>241.8</ele>
        <time>2014-05-27T15:55:20Z</time>
      </trkpt>
      <trkpt lat="48.60226" lon="-0.52098">
        <ele>238</ele>
        <time>2014-05-27T15:55:24Z</time>
      </trkpt>
      <trkpt lat="48.60255" lon="-0.52128">
        <ele>234.2</ele>
        <time>2014-05-27T15:55:27Z</time>
      </trkpt>
      <trkpt lat="48.60273" lon="-0.52145">
        <ele>232</ele>
        <time>2014-05-27T15:55:29Z</time>
      </trkpt>
      <trkpt lat="48.6028" lon="-0.5215">
        <ele>231</ele>
        <time>2014-05-27T15:55:30Z</time>
      </trkpt>
      <trkpt lat="48.60287" lon="-0.52151">
        <ele>230</ele>
        <time>2014-05-27T15:55:31Z</time>
      </trkpt>
      <trkpt lat="48.60293" lon="-0.52148">
        <ele>229.2</ele>
        <time>2014-05-27T15:55:32Z</time>
      </trkpt>
      <trkpt lat="48.60301" lon="-0.5214">
        <ele>228.4</ele>
        <time>2014-05-27T15:55:33Z</time>
      </trkpt>
      <trkpt lat="48.60306" lon="-0.5213">
        <ele>227.6</ele>
        <time>2014-05-27T15:55:34Z</time>
      </trkpt>
      <trkpt lat="48.6032" lon="-0.52111">
        <ele>226</ele>
        <time>2014-05-27T15:55:36Z</time>
      </trkpt>
      <trkpt lat="48.60328" lon="-0.52106">
        <ele>225.2</ele>
        <time>2014-05-27T15:55:37Z</time>
      </trkpt>
      <trkpt lat="48.60337" lon="-0.52105">
        <ele>224.6</ele>
        <time>2014-05-27T15:55:38Z</time>
      </trkpt>
      <trkpt lat="48.60345" lon="-0.5211">
        <ele>223.8</ele>
        <time>2014-05-27T15:55:39Z</time>
      </trkpt>
      <trkpt lat="48.60351" lon="-0.52118">
        <ele>223.2</ele>
        <time>2014-05-27T15:55:40Z</time>
      </trkpt>
      <trkpt lat="48.60356" lon="-0.52129">
        <ele>222.6</ele>
        <time>2014-05-27T15:55:41Z</time>
      </trkpt>
      <trkpt lat="48.60359" lon="-0.52139">
        <ele>222</ele>
        <time>2014-05-27T15:55:42Z</time>
      </trkpt>
      <trkpt lat="48.6036" lon="-0.52149">
        <ele>221.6</ele>
        <time>2014-05-27T15:55:43Z</time>
      </trkpt>
      <trkpt lat="48.6036" lon="-0.52157">
        <ele>221.2</ele>
        <time>2014-05-27T15:55:44Z</time>
      </trkpt>
      <trkpt lat="48.60359" lon="-0.52165">
        <ele>221</ele>
        <time>2014-05-27T15:55:45Z</time>
      </trkpt>
      <trkpt lat="48.60358" lon="-0.52174">
        <ele>220.8</ele>
        <time>2014-05-27T15:55:46Z</time>
      </trkpt>
      <trkpt lat="48.60358" lon="-0.52182">
        <ele>220.8</ele>
        <time>2014-05-27T15:55:47Z</time>
      </trkpt>
      <trkpt lat="48.60358" lon="-0.52199">
        <ele>221</ele>
        <time>2014-05-27T15:55:49Z</time>
      </trkpt>
      <trkpt lat="48.60359" lon="-0.52208">
        <ele>221.2</ele>
        <time>2014-05-27T15:55:50Z</time>
      </trkpt>
      <trkpt lat="48.6036" lon="-0.52217">
        <ele>221.4</ele>
        <time>2014-05-27T15:55:51Z</time>
      </trkpt>
      <trkpt lat="48.60362" lon="-0.52225">
        <ele>221.6</ele>
        <time>2014-05-27T15:55:52Z</time>
      </trkpt>
      <trkpt lat="48.60364" lon="-0.52233">
        <ele>222</ele>
        <time>2014-05-27T15:55:53Z</time>
      </trkpt>
      <trkpt lat="48.60367" lon="-0.5224">
        <ele>222.2</ele>
        <time>2014-05-27T15:55:54Z</time>
      </trkpt>
      <trkpt lat="48.6037" lon="-0.52247">
        <ele>222.6</ele>
        <time>2014-05-27T15:55:55Z</time>
      </trkpt>
      <trkpt lat="48.60384" lon="-0.52286">
        <ele>224.4</ele>
        <time>2014-05-27T15:56:00Z</time>
      </trkpt>
      <trkpt lat="48.60387" lon="-0.52303">
        <ele>225</ele>
        <time>2014-05-27T15:56:02Z</time>
      </trkpt>
      <trkpt lat="48.60392" lon="-0.52349">
        <ele>226.8</ele>
        <time>2014-05-27T15:56:07Z</time>
      </trkpt>
      <trkpt lat="48.60396" lon="-0.52375">
        <ele>227.8</ele>
        <time>2014-05-27T15:56:10Z</time>
      </trkpt>
      <trkpt lat="48.60399" lon="-0.52384">
        <ele>228.2</ele>
        <time>2014-05-27T15:56:11Z</time>
      </trkpt>
      <trkpt lat="48.60401" lon="-0.52392">
        <ele>228.4</ele>
        <time>2014-05-27T15:56:12Z</time>
      </trkpt>
      <trkpt lat="48.60404" lon="-0.524">
        <ele>228.8</ele>
        <time>2014-05-27T15:56:13Z</time>
      </trkpt>
      <trkpt lat="48.60406" lon="-0.52408">
        <ele>229.2</ele>
        <time>2014-05-27T15:56:14Z</time>
      </trkpt>
      <trkpt lat="48.60415" lon="-0.52431">
        <ele>230.6</ele>
        <time>2014-05-27T15:56:17Z</time>
      </trkpt>
      <trkpt lat="48.60421" lon="-0.52445">
        <ele>231.4</ele>
        <time>2014-05-27T15:56:19Z</time>
      </trkpt>
      <trkpt lat="48.60425" lon="-0.52452">
        <ele>231.6</ele>
        <time>2014-05-27T15:56:20Z</time>
      </trkpt>
      <trkpt lat="48.60429" lon="-0.52457">
        <ele>232</ele>
        <time>2014-05-27T15:56:21Z</time>
      </trkpt>
      <trkpt lat="48.60433" lon="-0.52462">
        <ele>232.2</ele>
        <time>2014-05-27T15:56:22Z</time>
      </trkpt>
      <trkpt lat="48.60438" lon="-0.52467">
        <ele>232.6</ele>
        <time>2014-05-27T15:56:23Z</time>
      </trkpt>
      <trkpt lat="48.60443" lon="-0.52471">
        <ele>233</ele>
        <time>2014-05-27T15:56:24Z</time>
      </trkpt>
      <trkpt lat="48.60453" lon="-0.52479">
        <ele>233.6</ele>
        <time>2014-05-27T15:56:26Z</time>
      </trkpt>
      <trkpt lat="48.60458" lon="-0.52482">
        <ele>234</ele>
        <time>2014-05-27T15:56:27Z</time>
      </trkpt>
      <trkpt lat="48.60477" lon="-0.52489">
        <ele>235.4</ele>
        <time>2014-05-27T15:56:31Z</time>
      </trkpt>
      <trkpt lat="48.6052" lon="-0.52493">
        <ele>238.8</ele>
        <time>2014-05-27T15:56:39Z</time>
      </trkpt>
      <trkpt lat="48.6054" lon="-0.52491">
        <ele>240.8</ele>
        <time>2014-05-27T15:56:43Z</time>
      </trkpt>
      <trkpt lat="48.6055" lon="-0.52491">
        <ele>241.4</ele>
        <time>2014-05-27T15:56:45Z</time>
      </trkpt>
      <trkpt lat="48.60555" lon="-0.5249">
        <ele>241.8</ele>
        <time>2014-05-27T15:56:46Z</time>
      </trkpt>
      <trkpt lat="48.6056" lon="-0.52489">
        <ele>242.2</ele>
        <time>2014-05-27T15:56:47Z</time>
      </trkpt>
      <trkpt lat="48.60565" lon="-0.52488">
        <ele>242.6</ele>
        <time>2014-05-27T15:56:48Z</time>
      </trkpt>
      <trkpt lat="48.6057" lon="-0.52487">
        <ele>243.2</ele>
        <time>2014-05-27T15:56:49Z</time>
      </trkpt>
      <trkpt lat="48.60574" lon="-0.52486">
        <ele>243.6</ele>
        <time>2014-05-27T15:56:50Z</time>
      </trkpt>
      <trkpt lat="48.60579" lon="-0.52485">
        <ele>244.2</ele>
        <time>2014-05-27T15:56:51Z</time>
      </trkpt>
      <trkpt lat="48.60585" lon="-0.52484">
        <ele>244.6</ele>
        <time>2014-05-27T15:56:52Z</time>
      </trkpt>
      <trkpt lat="48.606" lon="-0.52481">
        <ele>246</ele>
        <time>2014-05-27T15:56:55Z</time>
      </trkpt>
      <trkpt lat="48.60614" lon="-0.52481">
        <ele>247.2</ele>
        <time>2014-05-27T15:56:58Z</time>
      </trkpt>
      <trkpt lat="48.60619" lon="-0.52482">
        <ele>247.6</ele>
        <time>2014-05-27T15:56:59Z</time>
      </trkpt>
      <trkpt lat="48.60624" lon="-0.52483">
        <ele>248</ele>
        <time>2014-05-27T15:57:00Z</time>
      </trkpt>
      <trkpt lat="48.60641" lon="-0.52493">
        <ele>249.4</ele>
        <time>2014-05-27T15:57:04Z</time>
      </trkpt>
      <trkpt lat="48.60645" lon="-0.52498">
        <ele>250.2</ele>
        <time>2014-05-27T15:57:05Z</time>
      </trkpt>
      <trkpt lat="48.60649" lon="-0.52503">
        <ele>250.2</ele>
        <time>2014-05-27T15:57:06Z</time>
      </trkpt>
      <trkpt lat="48.60652" lon="-0.52508">
        <ele>250.8</ele>
        <time>2014-05-27T15:57:07Z</time>
      </trkpt>
      <trkpt lat="48.60655" lon="-0.52514">
        <ele>251</ele>
        <time>2014-05-27T15:57:08Z</time>
      </trkpt>
      <trkpt lat="48.60657" lon="-0.5252">
        <ele>251.4</ele>
        <time>2014-05-27T15:57:09Z</time>
      </trkpt>
      <trkpt lat="48.60659" lon="-0.52526">
        <ele>251.8</ele>
        <time>2014-05-27T15:57:10Z</time>
      </trkpt>
      <trkpt lat="48.60661" lon="-0.52531">
        <ele>252.2</ele>
        <time>2014-05-27T15:57:11Z</time>
      </trkpt>
      <trkpt lat="48.60662" lon="-0.52537">
        <ele>252.6</ele>
        <time>2014-05-27T15:57:12Z</time>
      </trkpt>
      <trkpt lat="48.60667" lon="-0.52576">
        <ele>254.2</ele>
        <time>2014-05-27T15:57:18Z</time>
      </trkpt>
      <trkpt lat="48.60668" lon="-0.52583">
        <ele>254.4</ele>
        <time>2014-05-27T15:57:19Z</time>
      </trkpt>
      <trkpt lat="48.60669" lon="-0.5259">
        <ele>254.6</ele>
        <time>2014-05-27T15:57:20Z</time>
      </trkpt>
      <trkpt lat="48.60671" lon="-0.52606">
        <ele>255.2</ele>
        <time>2014-05-27T15:57:22Z</time>
      </trkpt>
      <trkpt lat="48.60674" lon="-0.52634">
        <ele>256.4</ele>
        <time>2014-05-27T15:57:26Z</time>
      </trkpt>
      <trkpt lat="48.60674" lon="-0.52641">
        <ele>256.8</ele>
        <time>2014-05-27T15:57:27Z</time>
      </trkpt>
      <trkpt lat="48.60676" lon="-0.52655">
        <ele>257.4</ele>
        <time>2014-05-27T15:57:29Z</time>
      </trkpt>
      <trkpt lat="48.60678" lon="-0.52663">
        <ele>257.8</ele>
        <time>2014-05-27T15:57:30Z</time>
      </trkpt>
      <trkpt lat="48.60679" lon="-0.52671">
        <ele>258.4</ele>
        <time>2014-05-27T15:57:31Z</time>
      </trkpt>
      <trkpt lat="48.60682" lon="-0.52702">
        <ele>259.4</ele>
        <time>2014-05-27T15:57:35Z</time>
      </trkpt>
      <trkpt lat="48.60683" lon="-0.52711">
        <ele>259.6</ele>
        <time>2014-05-27T15:57:36Z</time>
      </trkpt>
      <trkpt lat="48.60686" lon="-0.52733">
        <ele>260.2</ele>
        <time>2014-05-27T15:57:39Z</time>
      </trkpt>
      <trkpt lat="48.60687" lon="-0.5274">
        <ele>260.4</ele>
        <time>2014-05-27T15:57:40Z</time>
      </trkpt>
      <trkpt lat="48.60688" lon="-0.52748">
        <ele>260.6</ele>
        <time>2014-05-27T15:57:41Z</time>
      </trkpt>
      <trkpt lat="48.60689" lon="-0.52756">
        <ele>260.8</ele>
        <time>2014-05-27T15:57:42Z</time>
      </trkpt>
      <trkpt lat="48.60689" lon="-0.52764">
        <ele>261.2</ele>
        <time>2014-05-27T15:57:43Z</time>
      </trkpt>
      <trkpt lat="48.60689" lon="-0.52771">
        <ele>261.2</ele>
        <time>2014-05-27T15:57:44Z</time>
      </trkpt>
      <trkpt lat="48.60692" lon="-0.52808">
        <ele>262.4</ele>
        <time>2014-05-27T15:57:49Z</time>
      </trkpt>
      <trkpt lat="48.60703" lon="-0.52888">
        <ele>264.4</ele>
        <time>2014-05-27T15:57:59Z</time>
      </trkpt>
      <trkpt lat="48.60706" lon="-0.52907">
        <ele>264.6</ele>
        <time>2014-05-27T15:58:02Z</time>
      </trkpt>
      <trkpt lat="48.6071" lon="-0.52932">
        <ele>264.8</ele>
        <time>2014-05-27T15:58:05Z</time>
      </trkpt>
      <trkpt lat="48.60718" lon="-0.53053">
        <ele>263.6</ele>
        <time>2014-05-27T15:58:17Z</time>
      </trkpt>
      <trkpt lat="48.60724" lon="-0.53174">
        <ele>260.8</ele>
        <time>2014-05-27T15:58:28Z</time>
      </trkpt>
      <trkpt lat="48.60724" lon="-0.53187">
        <ele>260.4</ele>
        <time>2014-05-27T15:58:29Z</time>
      </trkpt>
      <trkpt lat="48.60725" lon="-0.53199">
        <ele>260</ele>
        <time>2014-05-27T15:58:30Z</time>
      </trkpt>
      <trkpt lat="48.60725" lon="-0.53211">
        <ele>259.6</ele>
        <time>2014-05-27T15:58:31Z</time>
      </trkpt>
      <trkpt lat="48.60732" lon="-0.53289">
        <ele>256.2</ele>
        <time>2014-05-27T15:58:37Z</time>
      </trkpt>
      <trkpt lat="48.60737" lon="-0.53341">
        <ele>252.8</ele>
        <time>2014-05-27T15:58:41Z</time>
      </trkpt>
      <trkpt lat="48.60742" lon="-0.53422">
        <ele>249.6</ele>
        <time>2014-05-27T15:58:47Z</time>
      </trkpt>
      <trkpt lat="48.6074" lon="-0.5345">
        <ele>248.6</ele>
        <time>2014-05-27T15:58:49Z</time>
      </trkpt>
      <trkpt lat="48.60728" lon="-0.53542">
        <ele>245.2</ele>
        <time>2014-05-27T15:58:55Z</time>
      </trkpt>
      <trkpt lat="48.60723" lon="-0.53572">
        <ele>243.4</ele>
        <time>2014-05-27T15:58:57Z</time>
      </trkpt>
      <trkpt lat="48.60719" lon="-0.53587">
        <ele>242.6</ele>
        <time>2014-05-27T15:58:58Z</time>
      </trkpt>
      <trkpt lat="48.60701" lon="-0.53649">
        <ele>239.4</ele>
        <time>2014-05-27T15:59:02Z</time>
      </trkpt>
      <trkpt lat="48.60689" lon="-0.53681">
        <ele>237.6</ele>
        <time>2014-05-27T15:59:04Z</time>
      </trkpt>
      <trkpt lat="48.60681" lon="-0.53694">
        <ele>236.6</ele>
        <time>2014-05-27T15:59:05Z</time>
      </trkpt>
      <trkpt lat="48.60673" lon="-0.53706">
        <ele>235.6</ele>
        <time>2014-05-27T15:59:06Z</time>
      </trkpt>
      <trkpt lat="48.60664" lon="-0.53716">
        <ele>234.6</ele>
        <time>2014-05-27T15:59:07Z</time>
      </trkpt>
      <trkpt lat="48.60653" lon="-0.53722">
        <ele>233.4</ele>
        <time>2014-05-27T15:59:08Z</time>
      </trkpt>
      <trkpt lat="48.60644" lon="-0.53726">
        <ele>232.4</ele>
        <time>2014-05-27T15:59:09Z</time>
      </trkpt>
      <trkpt lat="48.60626" lon="-0.53737">
        <ele>229.2</ele>
        <time>2014-05-27T15:59:12Z</time>
      </trkpt>
      <trkpt lat="48.60617" lon="-0.53741">
        <ele>228.2</ele>
        <time>2014-05-27T15:59:14Z</time>
      </trkpt>
      <trkpt lat="48.60612" lon="-0.53741">
        <ele>227.6</ele>
        <time>2014-05-27T15:59:15Z</time>
      </trkpt>
      <trkpt lat="48.60607" lon="-0.5374">
        <ele>227.4</ele>
        <time>2014-05-27T15:59:16Z</time>
      </trkpt>
      <trkpt lat="48.60602" lon="-0.53738">
        <ele>227</ele>
        <time>2014-05-27T15:59:17Z</time>
      </trkpt>
      <trkpt lat="48.60596" lon="-0.53737">
        <ele>226.6</ele>
        <time>2014-05-27T15:59:18Z</time>
      </trkpt>
      <trkpt lat="48.60591" lon="-0.53736">
        <ele>226.2</ele>
        <time>2014-05-27T15:59:19Z</time>
      </trkpt>
      <trkpt lat="48.60581" lon="-0.53734">
        <ele>225.2</ele>
        <time>2014-05-27T15:59:21Z</time>
      </trkpt>
      <trkpt lat="48.60549" lon="-0.53739">
        <ele>223</ele>
        <time>2014-05-27T15:59:29Z</time>
      </trkpt>
      <trkpt lat="48.60533" lon="-0.53747">
        <ele>222.4</ele>
        <time>2014-05-27T15:59:32Z</time>
      </trkpt>
      <trkpt lat="48.6051" lon="-0.53755">
        <ele>220.6</ele>
        <time>2014-05-27T15:59:37Z</time>
      </trkpt>
      <trkpt lat="48.60504" lon="-0.53758">
        <ele>220.2</ele>
        <time>2014-05-27T15:59:39Z</time>
      </trkpt>
      <trkpt lat="48.60484" lon="-0.53764">
        <ele>219.6</ele>
        <time>2014-05-27T15:59:44Z</time>
      </trkpt>
      <trkpt lat="48.6047" lon="-0.53766">
        <ele>218.8</ele>
        <time>2014-05-27T15:59:48Z</time>
      </trkpt>
      <trkpt lat="48.6045" lon="-0.53778">
        <ele>217.6</ele>
        <time>2014-05-27T15:59:57Z</time>
      </trkpt>
      <trkpt lat="48.60457" lon="-0.53804">
        <ele>216.4</ele>
        <time>2014-05-27T16:00:07Z</time>
      </trkpt>
      <trkpt lat="48.60457" lon="-0.53833">
        <ele>216.6</ele>
        <time>2014-05-27T16:00:14Z</time>
      </trkpt>
      <trkpt lat="48.60447" lon="-0.53841">
        <ele>219</ele>
        <time>2014-05-27T16:00:22Z</time>
      </trkpt>
      <trkpt lat="48.60445" lon="-0.53844">
        <ele>219.6</ele>
        <time>2014-05-27T16:00:28Z</time>
      </trkpt>
      <trkpt lat="48.60442" lon="-0.53863">
        <ele>220.2</ele>
        <time>2014-05-27T16:00:49Z</time>
      </trkpt>
      <trkpt lat="48.60434" lon="-0.53884">
        <ele>222.2</ele>
        <time>2014-05-27T16:00:58Z</time>
      </trkpt>
      <trkpt lat="48.60423" lon="-0.53901">
        <ele>224.8</ele>
        <time>2014-05-27T16:01:06Z</time>
      </trkpt>
      <trkpt lat="48.60423" lon="-0.53904">
        <ele>226.4</ele>
        <time>2014-05-27T16:01:11Z</time>
      </trkpt>
      <trkpt lat="48.60456" lon="-0.53922">
        <ele>236.6</ele>
        <time>2014-05-27T16:02:58Z</time>
      </trkpt>
      <trkpt lat="48.60469" lon="-0.53928">
        <ele>238.8</ele>
        <time>2014-05-27T16:03:08Z</time>
      </trkpt>
      <trkpt lat="48.6047" lon="-0.53928">
        <ele>239.8</ele>
        <time>2014-05-27T16:03:11Z</time>
      </trkpt>
      <trkpt lat="48.60472" lon="-0.53933">
        <ele>240.8</ele>
        <time>2014-05-27T16:03:48Z</time>
      </trkpt>
      <trkpt lat="48.60475" lon="-0.5395">
        <ele>241.2</ele>
        <time>2014-05-27T16:03:53Z</time>
      </trkpt>
      <trkpt lat="48.60476" lon="-0.53972">
        <ele>243.2</ele>
        <time>2014-05-27T16:04:01Z</time>
      </trkpt>
      <trkpt lat="48.60482" lon="-0.54022">
        <ele>245</ele>
        <time>2014-05-27T16:04:12Z</time>
      </trkpt>
      <trkpt lat="48.60487" lon="-0.54075">
        <ele>247.4</ele>
        <time>2014-05-27T16:04:22Z</time>
      </trkpt>
      <trkpt lat="48.60487" lon="-0.5408">
        <ele>247.6</ele>
        <time>2014-05-27T16:04:23Z</time>
      </trkpt>
      <trkpt lat="48.60488" lon="-0.54097">
        <ele>248.4</ele>
        <time>2014-05-27T16:04:27Z</time>
      </trkpt>
      <trkpt lat="48.6049" lon="-0.54131">
        <ele>249.4</ele>
        <time>2014-05-27T16:04:34Z</time>
      </trkpt>
      <trkpt lat="48.60497" lon="-0.54183">
        <ele>249.2</ele>
        <time>2014-05-27T16:04:41Z</time>
      </trkpt>
      <trkpt lat="48.60498" lon="-0.54221">
        <ele>248.8</ele>
        <time>2014-05-27T16:04:46Z</time>
      </trkpt>
      <trkpt lat="48.60501" lon="-0.54254">
        <ele>248.4</ele>
        <time>2014-05-27T16:04:51Z</time>
      </trkpt>
      <trkpt lat="48.60498" lon="-0.54278">
        <ele>248</ele>
        <time>2014-05-27T16:04:54Z</time>
      </trkpt>
      <trkpt lat="48.60498" lon="-0.54294">
        <ele>248</ele>
        <time>2014-05-27T16:04:56Z</time>
      </trkpt>
      <trkpt lat="48.60496" lon="-0.5431">
        <ele>248.2</ele>
        <time>2014-05-27T16:04:58Z</time>
      </trkpt>
      <trkpt lat="48.60497" lon="-0.54357">
        <ele>248.6</ele>
        <time>2014-05-27T16:05:04Z</time>
      </trkpt>
      <trkpt lat="48.60476" lon="-0.54389">
        <ele>248.6</ele>
        <time>2014-05-27T16:05:12Z</time>
      </trkpt>
      <trkpt lat="48.60471" lon="-0.54392">
        <ele>248.2</ele>
        <time>2014-05-27T16:05:14Z</time>
      </trkpt>
      <trkpt lat="48.60452" lon="-0.54431">
        <ele>245.2</ele>
        <time>2014-05-27T16:05:23Z</time>
      </trkpt>
      <trkpt lat="48.60448" lon="-0.54467">
        <ele>243.2</ele>
        <time>2014-05-27T16:05:31Z</time>
      </trkpt>
      <trkpt lat="48.60447" lon="-0.54472">
        <ele>242.8</ele>
        <time>2014-05-27T16:05:32Z</time>
      </trkpt>
      <trkpt lat="48.60447" lon="-0.54477">
        <ele>242.4</ele>
        <time>2014-05-27T16:05:33Z</time>
      </trkpt>
      <trkpt lat="48.60447" lon="-0.54484">
        <ele>242</ele>
        <time>2014-05-27T16:05:34Z</time>
      </trkpt>
      <trkpt lat="48.60446" lon="-0.54491">
        <ele>241.8</ele>
        <time>2014-05-27T16:05:35Z</time>
      </trkpt>
      <trkpt lat="48.60446" lon="-0.54499">
        <ele>241.4</ele>
        <time>2014-05-27T16:05:36Z</time>
      </trkpt>
      <trkpt lat="48.60447" lon="-0.54515">
        <ele>240.8</ele>
        <time>2014-05-27T16:05:38Z</time>
      </trkpt>
      <trkpt lat="48.6045" lon="-0.54561">
        <ele>239.2</ele>
        <time>2014-05-27T16:05:43Z</time>
      </trkpt>
      <trkpt lat="48.6045" lon="-0.5457">
        <ele>239</ele>
        <time>2014-05-27T16:05:44Z</time>
      </trkpt>
      <trkpt lat="48.60452" lon="-0.54578">
        <ele>238.8</ele>
        <time>2014-05-27T16:05:45Z</time>
      </trkpt>
      <trkpt lat="48.60453" lon="-0.54586">
        <ele>238.6</ele>
        <time>2014-05-27T16:05:46Z</time>
      </trkpt>
      <trkpt lat="48.60456" lon="-0.54593">
        <ele>238.4</ele>
        <time>2014-05-27T16:05:47Z</time>
      </trkpt>
      <trkpt lat="48.60459" lon="-0.54598">
        <ele>238.2</ele>
        <time>2014-05-27T16:05:48Z</time>
      </trkpt>
      <trkpt lat="48.60463" lon="-0.546">
        <ele>238</ele>
        <time>2014-05-27T16:05:49Z</time>
      </trkpt>
      <trkpt lat="48.60467" lon="-0.54599">
        <ele>238</ele>
        <time>2014-05-27T16:05:50Z</time>
      </trkpt>
      <trkpt lat="48.60471" lon="-0.54596">
        <ele>238</ele>
        <time>2014-05-27T16:05:51Z</time>
      </trkpt>
      <trkpt lat="48.60475" lon="-0.54594">
        <ele>238</ele>
        <time>2014-05-27T16:05:52Z</time>
      </trkpt>
      <trkpt lat="48.60478" lon="-0.54591">
        <ele>238.2</ele>
        <time>2014-05-27T16:05:53Z</time>
      </trkpt>
      <trkpt lat="48.60482" lon="-0.54589">
        <ele>238.4</ele>
        <time>2014-05-27T16:05:54Z</time>
      </trkpt>
      <trkpt lat="48.60485" lon="-0.54587">
        <ele>238.6</ele>
        <time>2014-05-27T16:05:55Z</time>
      </trkpt>
      <trkpt lat="48.60489" lon="-0.54586">
        <ele>238.8</ele>
        <time>2014-05-27T16:05:56Z</time>
      </trkpt>
      <trkpt lat="48.60492" lon="-0.54584">
        <ele>239</ele>
        <time>2014-05-27T16:05:57Z</time>
      </trkpt>
      <trkpt lat="48.60504" lon="-0.54577">
        <ele>240</ele>
        <time>2014-05-27T16:06:00Z</time>
      </trkpt>
      <trkpt lat="48.60507" lon="-0.54575">
        <ele>240.2</ele>
        <time>2014-05-27T16:06:01Z</time>
      </trkpt>
      <trkpt lat="48.60515" lon="-0.54572">
        <ele>240.8</ele>
        <time>2014-05-27T16:06:03Z</time>
      </trkpt>
      <trkpt lat="48.60519" lon="-0.5457">
        <ele>241.2</ele>
        <time>2014-05-27T16:06:04Z</time>
      </trkpt>
      <trkpt lat="48.60523" lon="-0.54568">
        <ele>241.6</ele>
        <time>2014-05-27T16:06:05Z</time>
      </trkpt>
      <trkpt lat="48.60532" lon="-0.54564">
        <ele>242.4</ele>
        <time>2014-05-27T16:06:07Z</time>
      </trkpt>
      <trkpt lat="48.60537" lon="-0.54563">
        <ele>242.6</ele>
        <time>2014-05-27T16:06:08Z</time>
      </trkpt>
      <trkpt lat="48.60556" lon="-0.54558">
        <ele>244.6</ele>
        <time>2014-05-27T16:06:12Z</time>
      </trkpt>
      <trkpt lat="48.60585" lon="-0.54553">
        <ele>246.2</ele>
        <time>2014-05-27T16:06:18Z</time>
      </trkpt>
      <trkpt lat="48.60593" lon="-0.54552">
        <ele>247</ele>
        <time>2014-05-27T16:06:20Z</time>
      </trkpt>
      <trkpt lat="48.60626" lon="-0.54541">
        <ele>249.8</ele>
        <time>2014-05-27T16:06:29Z</time>
      </trkpt>
      <trkpt lat="48.6064" lon="-0.54532">
        <ele>250.4</ele>
        <time>2014-05-27T16:06:33Z</time>
      </trkpt>
      <trkpt lat="48.60676" lon="-0.54514">
        <ele>250.6</ele>
        <time>2014-05-27T16:06:42Z</time>
      </trkpt>
      <trkpt lat="48.6071" lon="-0.54497">
        <ele>250.4</ele>
        <time>2014-05-27T16:06:49Z</time>
      </trkpt>
      <trkpt lat="48.60721" lon="-0.54491">
        <ele>250</ele>
        <time>2014-05-27T16:06:51Z</time>
      </trkpt>
      <trkpt lat="48.60726" lon="-0.54488">
        <ele>249.8</ele>
        <time>2014-05-27T16:06:52Z</time>
      </trkpt>
      <trkpt lat="48.60761" lon="-0.54467">
        <ele>248.2</ele>
        <time>2014-05-27T16:07:00Z</time>
      </trkpt>
      <trkpt lat="48.60763" lon="-0.54468">
        <ele>248.2</ele>
        <time>2014-05-27T16:07:01Z</time>
      </trkpt>
      <trkpt lat="48.60766" lon="-0.5447">
        <ele>247.8</ele>
        <time>2014-05-27T16:07:02Z</time>
      </trkpt>
      <trkpt lat="48.60768" lon="-0.54473">
        <ele>247.6</ele>
        <time>2014-05-27T16:07:03Z</time>
      </trkpt>
      <trkpt lat="48.6077" lon="-0.54477">
        <ele>247.4</ele>
        <time>2014-05-27T16:07:04Z</time>
      </trkpt>
      <trkpt lat="48.60772" lon="-0.54482">
        <ele>247.2</ele>
        <time>2014-05-27T16:07:05Z</time>
      </trkpt>
      <trkpt lat="48.60775" lon="-0.54493">
        <ele>246.8</ele>
        <time>2014-05-27T16:07:07Z</time>
      </trkpt>
      <trkpt lat="48.60781" lon="-0.54513">
        <ele>246</ele>
        <time>2014-05-27T16:07:10Z</time>
      </trkpt>
      <trkpt lat="48.60804" lon="-0.54584">
        <ele>242.8</ele>
        <time>2014-05-27T16:07:18Z</time>
      </trkpt>
      <trkpt lat="48.60822" lon="-0.54652">
        <ele>239.8</ele>
        <time>2014-05-27T16:07:24Z</time>
      </trkpt>
      <trkpt lat="48.60837" lon="-0.54702">
        <ele>236.4</ele>
        <time>2014-05-27T16:07:29Z</time>
      </trkpt>
      <trkpt lat="48.6086" lon="-0.54784">
        <ele>233.2</ele>
        <time>2014-05-27T16:07:38Z</time>
      </trkpt>
      <trkpt lat="48.60896" lon="-0.54907">
        <ele>230.4</ele>
        <time>2014-05-27T16:07:54Z</time>
      </trkpt>
      <trkpt lat="48.60908" lon="-0.5495">
        <ele>229.8</ele>
        <time>2014-05-27T16:08:00Z</time>
      </trkpt>
      <trkpt lat="48.60926" lon="-0.55033">
        <ele>228.2</ele>
        <time>2014-05-27T16:08:13Z</time>
      </trkpt>
      <trkpt lat="48.60927" lon="-0.55058">
        <ele>227.8</ele>
        <time>2014-05-27T16:08:17Z</time>
      </trkpt>
      <trkpt lat="48.60926" lon="-0.55065">
        <ele>227.8</ele>
        <time>2014-05-27T16:08:18Z</time>
      </trkpt>
      <trkpt lat="48.60926" lon="-0.55072">
        <ele>227.6</ele>
        <time>2014-05-27T16:08:19Z</time>
      </trkpt>
      <trkpt lat="48.60927" lon="-0.5511">
        <ele>226.2</ele>
        <time>2014-05-27T16:08:24Z</time>
      </trkpt>
      <trkpt lat="48.60925" lon="-0.55116">
        <ele>226</ele>
        <time>2014-05-27T16:08:25Z</time>
      </trkpt>
      <trkpt lat="48.60923" lon="-0.55121">
        <ele>225.8</ele>
        <time>2014-05-27T16:08:26Z</time>
      </trkpt>
      <trkpt lat="48.6092" lon="-0.55124">
        <ele>225.6</ele>
        <time>2014-05-27T16:08:27Z</time>
      </trkpt>
      <trkpt lat="48.60917" lon="-0.55127">
        <ele>225.4</ele>
        <time>2014-05-27T16:08:28Z</time>
      </trkpt>
      <trkpt lat="48.60914" lon="-0.55129">
        <ele>225.4</ele>
        <time>2014-05-27T16:08:29Z</time>
      </trkpt>
      <trkpt lat="48.60911" lon="-0.55131">
        <ele>225.2</ele>
        <time>2014-05-27T16:08:30Z</time>
      </trkpt>
      <trkpt lat="48.60887" lon="-0.55145">
        <ele>224.2</ele>
        <time>2014-05-27T16:08:41Z</time>
      </trkpt>
      <trkpt lat="48.60886" lon="-0.55144">
        <ele>224</ele>
        <time>2014-05-27T16:08:43Z</time>
      </trkpt>
      <trkpt lat="48.60879" lon="-0.55152">
        <ele>223.6</ele>
        <time>2014-05-27T16:11:46Z</time>
      </trkpt>
      <trkpt lat="48.60878" lon="-0.55156">
        <ele>223.6</ele>
        <time>2014-05-27T16:11:47Z</time>
      </trkpt>
      <trkpt lat="48.60877" lon="-0.5516">
        <ele>223.4</ele>
        <time>2014-05-27T16:11:48Z</time>
      </trkpt>
      <trkpt lat="48.60877" lon="-0.55164">
        <ele>223.2</ele>
        <time>2014-05-27T16:11:49Z</time>
      </trkpt>
      <trkpt lat="48.60876" lon="-0.55168">
        <ele>223.2</ele>
        <time>2014-05-27T16:11:50Z</time>
      </trkpt>
      <trkpt lat="48.60877" lon="-0.55172">
        <ele>222.8</ele>
        <time>2014-05-27T16:11:55Z</time>
      </trkpt>
      <trkpt lat="48.60874" lon="-0.55163">
        <ele>223</ele>
        <time>2014-05-27T16:25:24Z</time>
      </trkpt>
      <trkpt lat="48.60875" lon="-0.55158">
        <ele>223</ele>
        <time>2014-05-27T16:25:25Z</time>
      </trkpt>
      <trkpt lat="48.60876" lon="-0.55154">
        <ele>223</ele>
        <time>2014-05-27T16:25:26Z</time>
      </trkpt>
      <trkpt lat="48.60882" lon="-0.55149">
        <ele>223</ele>
        <time>2014-05-27T16:25:27Z</time>
      </trkpt>
      <trkpt lat="48.60883" lon="-0.55145">
        <ele>223</ele>
        <time>2014-05-27T16:25:28Z</time>
      </trkpt>
      <trkpt lat="48.60885" lon="-0.55142">
        <ele>223.2</ele>
        <time>2014-05-27T16:25:29Z</time>
      </trkpt>
      <trkpt lat="48.60888" lon="-0.55141">
        <ele>223.2</ele>
        <time>2014-05-27T16:25:30Z</time>
      </trkpt>
      <trkpt lat="48.60891" lon="-0.5514">
        <ele>223.2</ele>
        <time>2014-05-27T16:25:31Z</time>
      </trkpt>
      <trkpt lat="48.60893" lon="-0.55139">
        <ele>223.2</ele>
        <time>2014-05-27T16:25:32Z</time>
      </trkpt>
      <trkpt lat="48.60896" lon="-0.55137">
        <ele>223.4</ele>
        <time>2014-05-27T16:25:33Z</time>
      </trkpt>
      <trkpt lat="48.60909" lon="-0.5513">
        <ele>225</ele>
        <time>2014-05-27T16:25:42Z</time>
      </trkpt>
      <trkpt lat="48.60909" lon="-0.55131">
        <ele>225.2</ele>
        <time>2014-05-27T16:25:43Z</time>
      </trkpt>
      <trkpt lat="48.60908" lon="-0.55134">
        <ele>225.2</ele>
        <time>2014-05-27T16:25:44Z</time>
      </trkpt>
      <trkpt lat="48.60908" lon="-0.55136">
        <ele>225.2</ele>
        <time>2014-05-27T16:25:45Z</time>
      </trkpt>
      <trkpt lat="48.60909" lon="-0.55138">
        <ele>225.2</ele>
        <time>2014-05-27T16:25:46Z</time>
      </trkpt>
      <trkpt lat="48.60911" lon="-0.55141">
        <ele>225.2</ele>
        <time>2014-05-27T16:25:47Z</time>
      </trkpt>
      <trkpt lat="48.60912" lon="-0.55145">
        <ele>225.2</ele>
        <time>2014-05-27T16:25:48Z</time>
      </trkpt>
      <trkpt lat="48.60913" lon="-0.55149">
        <ele>225.2</ele>
        <time>2014-05-27T16:25:49Z</time>
      </trkpt>
      <trkpt lat="48.60916" lon="-0.55226">
        <ele>223.2</ele>
        <time>2014-05-27T16:26:00Z</time>
      </trkpt>
      <trkpt lat="48.6092" lon="-0.55297">
        <ele>220</ele>
        <time>2014-05-27T16:26:07Z</time>
      </trkpt>
      <trkpt lat="48.60921" lon="-0.55308">
        <ele>219.6</ele>
        <time>2014-05-27T16:26:08Z</time>
      </trkpt>
      <trkpt lat="48.60937" lon="-0.55375">
        <ele>216.2</ele>
        <time>2014-05-27T16:26:14Z</time>
      </trkpt>
      <trkpt lat="48.60942" lon="-0.55386">
        <ele>215.6</ele>
        <time>2014-05-27T16:26:15Z</time>
      </trkpt>
      <trkpt lat="48.60947" lon="-0.55396">
        <ele>215</ele>
        <time>2014-05-27T16:26:16Z</time>
      </trkpt>
      <trkpt lat="48.60953" lon="-0.55406">
        <ele>214.4</ele>
        <time>2014-05-27T16:26:17Z</time>
      </trkpt>
      <trkpt lat="48.60959" lon="-0.55414">
        <ele>213.6</ele>
        <time>2014-05-27T16:26:18Z</time>
      </trkpt>
      <trkpt lat="48.60966" lon="-0.55422">
        <ele>213</ele>
        <time>2014-05-27T16:26:19Z</time>
      </trkpt>
      <trkpt lat="48.60973" lon="-0.55429">
        <ele>212.4</ele>
        <time>2014-05-27T16:26:20Z</time>
      </trkpt>
      <trkpt lat="48.6098" lon="-0.55435">
        <ele>211.8</ele>
        <time>2014-05-27T16:26:21Z</time>
      </trkpt>
      <trkpt lat="48.6103" lon="-0.55475">
        <ele>208.8</ele>
        <time>2014-05-27T16:26:27Z</time>
      </trkpt>
      <trkpt lat="48.61077" lon="-0.555">
        <ele>205.2</ele>
        <time>2014-05-27T16:26:32Z</time>
      </trkpt>
      <trkpt lat="48.61087" lon="-0.55502">
        <ele>204.6</ele>
        <time>2014-05-27T16:26:33Z</time>
      </trkpt>
      <trkpt lat="48.61095" lon="-0.55503">
        <ele>204</ele>
        <time>2014-05-27T16:26:34Z</time>
      </trkpt>
      <trkpt lat="48.61104" lon="-0.55503">
        <ele>203.4</ele>
        <time>2014-05-27T16:26:35Z</time>
      </trkpt>
      <trkpt lat="48.61112" lon="-0.55503">
        <ele>203</ele>
        <time>2014-05-27T16:26:36Z</time>
      </trkpt>
      <trkpt lat="48.6112" lon="-0.55502">
        <ele>202.6</ele>
        <time>2014-05-27T16:26:37Z</time>
      </trkpt>
      <trkpt lat="48.61139" lon="-0.55499">
        <ele>202</ele>
        <time>2014-05-27T16:26:40Z</time>
      </trkpt>
      <trkpt lat="48.61144" lon="-0.55498">
        <ele>202</ele>
        <time>2014-05-27T16:26:41Z</time>
      </trkpt>
      <trkpt lat="48.61185" lon="-0.55493">
        <ele>202.8</ele>
        <time>2014-05-27T16:26:52Z</time>
      </trkpt>
      <trkpt lat="48.61187" lon="-0.55494">
        <ele>202.8</ele>
        <time>2014-05-27T16:26:53Z</time>
      </trkpt>
      <trkpt lat="48.61189" lon="-0.55496">
        <ele>202.8</ele>
        <time>2014-05-27T16:26:54Z</time>
      </trkpt>
      <trkpt lat="48.61191" lon="-0.55498">
        <ele>202.8</ele>
        <time>2014-05-27T16:26:55Z</time>
      </trkpt>
      <trkpt lat="48.61193" lon="-0.555">
        <ele>203</ele>
        <time>2014-05-27T16:26:56Z</time>
      </trkpt>
      <trkpt lat="48.61194" lon="-0.55502">
        <ele>203</ele>
        <time>2014-05-27T16:26:57Z</time>
      </trkpt>
      <trkpt lat="48.61196" lon="-0.55504">
        <ele>203</ele>
        <time>2014-05-27T16:26:58Z</time>
      </trkpt>
      <trkpt lat="48.61197" lon="-0.55507">
        <ele>203</ele>
        <time>2014-05-27T16:26:59Z</time>
      </trkpt>
      <trkpt lat="48.61202" lon="-0.5551">
        <ele>203</ele>
        <time>2014-05-27T16:27:00Z</time>
      </trkpt>
      <trkpt lat="48.61207" lon="-0.55512">
        <ele>203.2</ele>
        <time>2014-05-27T16:27:01Z</time>
      </trkpt>
      <trkpt lat="48.61219" lon="-0.55515">
        <ele>203.4</ele>
        <time>2014-05-27T16:27:04Z</time>
      </trkpt>
      <trkpt lat="48.61229" lon="-0.55522">
        <ele>204</ele>
        <time>2014-05-27T16:27:16Z</time>
      </trkpt>
      <trkpt lat="48.61255" lon="-0.55533">
        <ele>204</ele>
        <time>2014-05-27T16:27:44Z</time>
      </trkpt>
      <trkpt lat="48.61257" lon="-0.55536">
        <ele>203.8</ele>
        <time>2014-05-27T16:27:45Z</time>
      </trkpt>
      <trkpt lat="48.6126" lon="-0.55538">
        <ele>203.8</ele>
        <time>2014-05-27T16:27:46Z</time>
      </trkpt>
      <trkpt lat="48.61262" lon="-0.5554">
        <ele>203.8</ele>
        <time>2014-05-27T16:27:47Z</time>
      </trkpt>
      <trkpt lat="48.61264" lon="-0.55543">
        <ele>203.6</ele>
        <time>2014-05-27T16:27:48Z</time>
      </trkpt>
      <trkpt lat="48.61271" lon="-0.55549">
        <ele>203.4</ele>
        <time>2014-05-27T16:27:50Z</time>
      </trkpt>
      <trkpt lat="48.61274" lon="-0.55552">
        <ele>203.4</ele>
        <time>2014-05-27T16:27:51Z</time>
      </trkpt>
      <trkpt lat="48.61278" lon="-0.55555">
        <ele>203.2</ele>
        <time>2014-05-27T16:27:52Z</time>
      </trkpt>
      <trkpt lat="48.61294" lon="-0.55565">
        <ele>203.2</ele>
        <time>2014-05-27T16:27:56Z</time>
      </trkpt>
      <trkpt lat="48.61348" lon="-0.5557">
        <ele>203.2</ele>
        <time>2014-05-27T16:28:10Z</time>
      </trkpt>
      <trkpt lat="48.61353" lon="-0.55567">
        <ele>203.2</ele>
        <time>2014-05-27T16:28:11Z</time>
      </trkpt>
      <trkpt lat="48.61357" lon="-0.55563">
        <ele>203.2</ele>
        <time>2014-05-27T16:28:12Z</time>
      </trkpt>
      <trkpt lat="48.6136" lon="-0.55559">
        <ele>203.2</ele>
        <time>2014-05-27T16:28:13Z</time>
      </trkpt>
      <trkpt lat="48.61399" lon="-0.55504">
        <ele>203.8</ele>
        <time>2014-05-27T16:28:23Z</time>
      </trkpt>
      <trkpt lat="48.61402" lon="-0.55499">
        <ele>204</ele>
        <time>2014-05-27T16:28:24Z</time>
      </trkpt>
      <trkpt lat="48.61405" lon="-0.55494">
        <ele>204.2</ele>
        <time>2014-05-27T16:28:25Z</time>
      </trkpt>
      <trkpt lat="48.61409" lon="-0.55489">
        <ele>204.2</ele>
        <time>2014-05-27T16:28:26Z</time>
      </trkpt>
      <trkpt lat="48.61412" lon="-0.55484">
        <ele>204.4</ele>
        <time>2014-05-27T16:28:27Z</time>
      </trkpt>
      <trkpt lat="48.61416" lon="-0.55479">
        <ele>204.6</ele>
        <time>2014-05-27T16:28:28Z</time>
      </trkpt>
      <trkpt lat="48.61419" lon="-0.55474">
        <ele>204.8</ele>
        <time>2014-05-27T16:28:29Z</time>
      </trkpt>
      <trkpt lat="48.61422" lon="-0.55469">
        <ele>204.8</ele>
        <time>2014-05-27T16:28:30Z</time>
      </trkpt>
      <trkpt lat="48.61433" lon="-0.5545">
        <ele>205.2</ele>
        <time>2014-05-27T16:28:34Z</time>
      </trkpt>
      <trkpt lat="48.61471" lon="-0.55375">
        <ele>207.2</ele>
        <time>2014-05-27T16:28:48Z</time>
      </trkpt>
      <trkpt lat="48.615" lon="-0.55329">
        <ele>208.4</ele>
        <time>2014-05-27T16:28:56Z</time>
      </trkpt>
      <trkpt lat="48.61517" lon="-0.55303">
        <ele>208.8</ele>
        <time>2014-05-27T16:29:00Z</time>
      </trkpt>
      <trkpt lat="48.61566" lon="-0.55231">
        <ele>210.8</ele>
        <time>2014-05-27T16:29:11Z</time>
      </trkpt>
      <trkpt lat="48.6157" lon="-0.55224">
        <ele>211.2</ele>
        <time>2014-05-27T16:29:12Z</time>
      </trkpt>
      <trkpt lat="48.61574" lon="-0.55218">
        <ele>211.4</ele>
        <time>2014-05-27T16:29:13Z</time>
      </trkpt>
      <trkpt lat="48.61618" lon="-0.55151">
        <ele>214.6</ele>
        <time>2014-05-27T16:29:24Z</time>
      </trkpt>
      <trkpt lat="48.61626" lon="-0.55141">
        <ele>215.4</ele>
        <time>2014-05-27T16:29:26Z</time>
      </trkpt>
      <trkpt lat="48.61653" lon="-0.5512">
        <ele>218.8</ele>
        <time>2014-05-27T16:29:32Z</time>
      </trkpt>
      <trkpt lat="48.61663" lon="-0.55115">
        <ele>219.6</ele>
        <time>2014-05-27T16:29:34Z</time>
      </trkpt>
      <trkpt lat="48.61668" lon="-0.55114">
        <ele>220</ele>
        <time>2014-05-27T16:29:35Z</time>
      </trkpt>
      <trkpt lat="48.61682" lon="-0.55112">
        <ele>221</ele>
        <time>2014-05-27T16:29:38Z</time>
      </trkpt>
      <trkpt lat="48.61686" lon="-0.55111">
        <ele>221.4</ele>
        <time>2014-05-27T16:29:39Z</time>
      </trkpt>
      <trkpt lat="48.6169" lon="-0.55111">
        <ele>221.8</ele>
        <time>2014-05-27T16:29:40Z</time>
      </trkpt>
      <trkpt lat="48.61694" lon="-0.55111">
        <ele>222.2</ele>
        <time>2014-05-27T16:29:41Z</time>
      </trkpt>
      <trkpt lat="48.61699" lon="-0.5511">
        <ele>222.6</ele>
        <time>2014-05-27T16:29:42Z</time>
      </trkpt>
      <trkpt lat="48.61747" lon="-0.55104">
        <ele>225.8</ele>
        <time>2014-05-27T16:29:51Z</time>
      </trkpt>
      <trkpt lat="48.61763" lon="-0.55102">
        <ele>227</ele>
        <time>2014-05-27T16:29:54Z</time>
      </trkpt>
      <trkpt lat="48.61785" lon="-0.55099">
        <ele>228.6</ele>
        <time>2014-05-27T16:29:58Z</time>
      </trkpt>
      <trkpt lat="48.61789" lon="-0.55099">
        <ele>229</ele>
        <time>2014-05-27T16:29:59Z</time>
      </trkpt>
      <trkpt lat="48.61794" lon="-0.55099">
        <ele>229.4</ele>
        <time>2014-05-27T16:30:00Z</time>
      </trkpt>
      <trkpt lat="48.61858" lon="-0.55093">
        <ele>231.6</ele>
        <time>2014-05-27T16:30:11Z</time>
      </trkpt>
      <trkpt lat="48.61958" lon="-0.55084">
        <ele>229.2</ele>
        <time>2014-05-27T16:30:25Z</time>
      </trkpt>
      <trkpt lat="48.62028" lon="-0.55076">
        <ele>226.2</ele>
        <time>2014-05-27T16:30:35Z</time>
      </trkpt>
      <trkpt lat="48.62091" lon="-0.5508">
        <ele>227.2</ele>
        <time>2014-05-27T16:30:46Z</time>
      </trkpt>
      <trkpt lat="48.62137" lon="-0.551">
        <ele>230.2</ele>
        <time>2014-05-27T16:30:55Z</time>
      </trkpt>
      <trkpt lat="48.62176" lon="-0.55117">
        <ele>232.4</ele>
        <time>2014-05-27T16:31:03Z</time>
      </trkpt>
      <trkpt lat="48.62223" lon="-0.55126">
        <ele>235.6</ele>
        <time>2014-05-27T16:31:12Z</time>
      </trkpt>
      <trkpt lat="48.62228" lon="-0.55126">
        <ele>235.8</ele>
        <time>2014-05-27T16:31:13Z</time>
      </trkpt>
      <trkpt lat="48.62264" lon="-0.5512">
        <ele>236.8</ele>
        <time>2014-05-27T16:31:20Z</time>
      </trkpt>
      <trkpt lat="48.62328" lon="-0.55108">
        <ele>237.8</ele>
        <time>2014-05-27T16:31:31Z</time>
      </trkpt>
      <trkpt lat="48.62333" lon="-0.55106">
        <ele>237.8</ele>
        <time>2014-05-27T16:31:32Z</time>
      </trkpt>
      <trkpt lat="48.62424" lon="-0.55096">
        <ele>238.4</ele>
        <time>2014-05-27T16:31:48Z</time>
      </trkpt>
      <trkpt lat="48.62501" lon="-0.55099">
        <ele>239.6</ele>
        <time>2014-05-27T16:32:02Z</time>
      </trkpt>
      <trkpt lat="48.62579" lon="-0.55093">
        <ele>240.6</ele>
        <time>2014-05-27T16:32:15Z</time>
      </trkpt>
      <trkpt lat="48.62665" lon="-0.55073">
        <ele>242.2</ele>
        <time>2014-05-27T16:32:29Z</time>
      </trkpt>
      <trkpt lat="48.62756" lon="-0.55073">
        <ele>241.4</ele>
        <time>2014-05-27T16:32:44Z</time>
      </trkpt>
      <trkpt lat="48.62827" lon="-0.55138">
        <ele>239.8</ele>
        <time>2014-05-27T16:32:58Z</time>
      </trkpt>
      <trkpt lat="48.62865" lon="-0.55172">
        <ele>239.4</ele>
        <time>2014-05-27T16:33:05Z</time>
      </trkpt>
      <trkpt lat="48.62917" lon="-0.55209">
        <ele>239</ele>
        <time>2014-05-27T16:33:14Z</time>
      </trkpt>
      <trkpt lat="48.62995" lon="-0.55248">
        <ele>237.6</ele>
        <time>2014-05-27T16:33:27Z</time>
      </trkpt>
      <trkpt lat="48.63074" lon="-0.55237">
        <ele>237.2</ele>
        <time>2014-05-27T16:33:40Z</time>
      </trkpt>
      <trkpt lat="48.63148" lon="-0.55202">
        <ele>236.8</ele>
        <time>2014-05-27T16:33:54Z</time>
      </trkpt>
      <trkpt lat="48.63211" lon="-0.55186">
        <ele>237.8</ele>
        <time>2014-05-27T16:34:06Z</time>
      </trkpt>
      <trkpt lat="48.63232" lon="-0.55176">
        <ele>238</ele>
        <time>2014-05-27T16:34:11Z</time>
      </trkpt>
      <trkpt lat="48.63246" lon="-0.55176">
        <ele>237.8</ele>
        <time>2014-05-27T16:34:14Z</time>
      </trkpt>
      <trkpt lat="48.6325" lon="-0.55178">
        <ele>237.8</ele>
        <time>2014-05-27T16:34:15Z</time>
      </trkpt>
      <trkpt lat="48.63272" lon="-0.55185">
        <ele>237.6</ele>
        <time>2014-05-27T16:34:21Z</time>
      </trkpt>
      <trkpt lat="48.63274" lon="-0.55188">
        <ele>237.8</ele>
        <time>2014-05-27T16:34:22Z</time>
      </trkpt>
      <trkpt lat="48.63275" lon="-0.55192">
        <ele>237.8</ele>
        <time>2014-05-27T16:34:23Z</time>
      </trkpt>
      <trkpt lat="48.63275" lon="-0.55197">
        <ele>237.8</ele>
        <time>2014-05-27T16:34:24Z</time>
      </trkpt>
      <trkpt lat="48.63275" lon="-0.55201">
        <ele>237.8</ele>
        <time>2014-05-27T16:34:25Z</time>
      </trkpt>
      <trkpt lat="48.63275" lon="-0.55205">
        <ele>237.8</ele>
        <time>2014-05-27T16:34:26Z</time>
      </trkpt>
      <trkpt lat="48.63276" lon="-0.55209">
        <ele>237.8</ele>
        <time>2014-05-27T16:34:27Z</time>
      </trkpt>
      <trkpt lat="48.63276" lon="-0.55212">
        <ele>237.8</ele>
        <time>2014-05-27T16:34:28Z</time>
      </trkpt>
      <trkpt lat="48.63276" lon="-0.55214">
        <ele>237.6</ele>
        <time>2014-05-27T16:34:29Z</time>
      </trkpt>
      <trkpt lat="48.63277" lon="-0.55215">
        <ele>237.6</ele>
        <time>2014-05-27T16:34:30Z</time>
      </trkpt>
      <trkpt lat="48.63278" lon="-0.55215">
        <ele>237.4</ele>
        <time>2014-05-27T16:34:34Z</time>
      </trkpt>
      <trkpt lat="48.63281" lon="-0.55216">
        <ele>237.2</ele>
        <time>2014-05-27T16:35:07Z</time>
      </trkpt>
      <trkpt lat="48.63297" lon="-0.55202">
        <ele>236.6</ele>
        <time>2014-05-27T16:35:12Z</time>
      </trkpt>
      <trkpt lat="48.63314" lon="-0.55192">
        <ele>235.6</ele>
        <time>2014-05-27T16:35:17Z</time>
      </trkpt>
      <trkpt lat="48.63349" lon="-0.55195">
        <ele>233.6</ele>
        <time>2014-05-27T16:35:23Z</time>
      </trkpt>
      <trkpt lat="48.63372" lon="-0.55204">
        <ele>232.6</ele>
        <time>2014-05-27T16:35:27Z</time>
      </trkpt>
      <trkpt lat="48.63377" lon="-0.55208">
        <ele>232.4</ele>
        <time>2014-05-27T16:35:28Z</time>
      </trkpt>
      <trkpt lat="48.63427" lon="-0.55245">
        <ele>229.4</ele>
        <time>2014-05-27T16:35:39Z</time>
      </trkpt>
      <trkpt lat="48.63431" lon="-0.55247">
        <ele>229</ele>
        <time>2014-05-27T16:35:40Z</time>
      </trkpt>
      <trkpt lat="48.63435" lon="-0.55249">
        <ele>228.8</ele>
        <time>2014-05-27T16:35:41Z</time>
      </trkpt>
      <trkpt lat="48.63451" lon="-0.55251">
        <ele>227.2</ele>
        <time>2014-05-27T16:35:45Z</time>
      </trkpt>
      <trkpt lat="48.63456" lon="-0.55251">
        <ele>226.8</ele>
        <time>2014-05-27T16:35:46Z</time>
      </trkpt>
      <trkpt lat="48.63468" lon="-0.55249">
        <ele>226.2</ele>
        <time>2014-05-27T16:35:48Z</time>
      </trkpt>
      <trkpt lat="48.63476" lon="-0.55245">
        <ele>225.6</ele>
        <time>2014-05-27T16:35:49Z</time>
      </trkpt>
      <trkpt lat="48.63484" lon="-0.55241">
        <ele>225</ele>
        <time>2014-05-27T16:35:50Z</time>
      </trkpt>
      <trkpt lat="48.63492" lon="-0.55235">
        <ele>224.6</ele>
        <time>2014-05-27T16:35:51Z</time>
      </trkpt>
      <trkpt lat="48.635" lon="-0.55228">
        <ele>224</ele>
        <time>2014-05-27T16:35:52Z</time>
      </trkpt>
      <trkpt lat="48.63506" lon="-0.55222">
        <ele>223.4</ele>
        <time>2014-05-27T16:35:53Z</time>
      </trkpt>
      <trkpt lat="48.63513" lon="-0.55215">
        <ele>223</ele>
        <time>2014-05-27T16:35:54Z</time>
      </trkpt>
      <trkpt lat="48.63519" lon="-0.55207">
        <ele>222.6</ele>
        <time>2014-05-27T16:35:55Z</time>
      </trkpt>
      <trkpt lat="48.63572" lon="-0.55109">
        <ele>219.4</ele>
        <time>2014-05-27T16:36:07Z</time>
      </trkpt>
      <trkpt lat="48.63623" lon="-0.55038">
        <ele>216.4</ele>
        <time>2014-05-27T16:36:19Z</time>
      </trkpt>
      <trkpt lat="48.63628" lon="-0.55036">
        <ele>216.2</ele>
        <time>2014-05-27T16:36:20Z</time>
      </trkpt>
      <trkpt lat="48.63633" lon="-0.55036">
        <ele>216.2</ele>
        <time>2014-05-27T16:36:21Z</time>
      </trkpt>
      <trkpt lat="48.63638" lon="-0.55038">
        <ele>216</ele>
        <time>2014-05-27T16:36:22Z</time>
      </trkpt>
      <trkpt lat="48.63644" lon="-0.5504">
        <ele>215.8</ele>
        <time>2014-05-27T16:36:23Z</time>
      </trkpt>
      <trkpt lat="48.6365" lon="-0.55043">
        <ele>215.4</ele>
        <time>2014-05-27T16:36:24Z</time>
      </trkpt>
      <trkpt lat="48.63728" lon="-0.55082">
        <ele>214.2</ele>
        <time>2014-05-27T16:36:37Z</time>
      </trkpt>
      <trkpt lat="48.63788" lon="-0.55112">
        <ele>214.6</ele>
        <time>2014-05-27T16:36:48Z</time>
      </trkpt>
      <trkpt lat="48.63853" lon="-0.55154">
        <ele>214.2</ele>
        <time>2014-05-27T16:37:00Z</time>
      </trkpt>
      <trkpt lat="48.63872" lon="-0.55164">
        <ele>213.8</ele>
        <time>2014-05-27T16:37:03Z</time>
      </trkpt>
      <trkpt lat="48.63877" lon="-0.55167">
        <ele>213.8</ele>
        <time>2014-05-27T16:37:04Z</time>
      </trkpt>
      <trkpt lat="48.63882" lon="-0.5517">
        <ele>213.6</ele>
        <time>2014-05-27T16:37:05Z</time>
      </trkpt>
      <trkpt lat="48.63934" lon="-0.55201">
        <ele>212.6</ele>
        <time>2014-05-27T16:37:14Z</time>
      </trkpt>
      <trkpt lat="48.63983" lon="-0.55253">
        <ele>211.8</ele>
        <time>2014-05-27T16:37:25Z</time>
      </trkpt>
      <trkpt lat="48.6401" lon="-0.55268">
        <ele>212</ele>
        <time>2014-05-27T16:37:30Z</time>
      </trkpt>
      <trkpt lat="48.64047" lon="-0.55279">
        <ele>212</ele>
        <time>2014-05-27T16:37:36Z</time>
      </trkpt>
      <trkpt lat="48.64054" lon="-0.5528">
        <ele>212</ele>
        <time>2014-05-27T16:37:37Z</time>
      </trkpt>
      <trkpt lat="48.64085" lon="-0.55291">
        <ele>211.8</ele>
        <time>2014-05-27T16:37:42Z</time>
      </trkpt>
      <trkpt lat="48.64124" lon="-0.55303">
        <ele>210.8</ele>
        <time>2014-05-27T16:37:48Z</time>
      </trkpt>
      <trkpt lat="48.64129" lon="-0.55304">
        <ele>210.8</ele>
        <time>2014-05-27T16:37:49Z</time>
      </trkpt>
      <trkpt lat="48.64135" lon="-0.55304">
        <ele>210.8</ele>
        <time>2014-05-27T16:37:50Z</time>
      </trkpt>
      <trkpt lat="48.64171" lon="-0.55306">
        <ele>212.2</ele>
        <time>2014-05-27T16:37:57Z</time>
      </trkpt>
      <trkpt lat="48.64175" lon="-0.55305">
        <ele>212.2</ele>
        <time>2014-05-27T16:37:58Z</time>
      </trkpt>
      <trkpt lat="48.6418" lon="-0.55303">
        <ele>212.4</ele>
        <time>2014-05-27T16:37:59Z</time>
      </trkpt>
      <trkpt lat="48.6425" lon="-0.55265">
        <ele>210.8</ele>
        <time>2014-05-27T16:38:11Z</time>
      </trkpt>
      <trkpt lat="48.64269" lon="-0.55258">
        <ele>209.8</ele>
        <time>2014-05-27T16:38:14Z</time>
      </trkpt>
      <trkpt lat="48.64276" lon="-0.55258">
        <ele>209.6</ele>
        <time>2014-05-27T16:38:15Z</time>
      </trkpt>
      <trkpt lat="48.64282" lon="-0.55258">
        <ele>209.2</ele>
        <time>2014-05-27T16:38:16Z</time>
      </trkpt>
      <trkpt lat="48.64289" lon="-0.55259">
        <ele>208.8</ele>
        <time>2014-05-27T16:38:17Z</time>
      </trkpt>
      <trkpt lat="48.64295" lon="-0.55261">
        <ele>208.4</ele>
        <time>2014-05-27T16:38:18Z</time>
      </trkpt>
      <trkpt lat="48.64303" lon="-0.55263">
        <ele>208.2</ele>
        <time>2014-05-27T16:38:19Z</time>
      </trkpt>
      <trkpt lat="48.64394" lon="-0.55307">
        <ele>206.6</ele>
        <time>2014-05-27T16:38:33Z</time>
      </trkpt>
      <trkpt lat="48.64466" lon="-0.55349">
        <ele>206</ele>
        <time>2014-05-27T16:38:45Z</time>
      </trkpt>
      <trkpt lat="48.64571" lon="-0.5542">
        <ele>203.8</ele>
        <time>2014-05-27T16:39:03Z</time>
      </trkpt>
      <trkpt lat="48.64655" lon="-0.5552">
        <ele>202.6</ele>
        <time>2014-05-27T16:39:20Z</time>
      </trkpt>
      <trkpt lat="48.64738" lon="-0.55617">
        <ele>201.6</ele>
        <time>2014-05-27T16:39:36Z</time>
      </trkpt>
      <trkpt lat="48.64788" lon="-0.5568">
        <ele>198.4</ele>
        <time>2014-05-27T16:39:45Z</time>
      </trkpt>
      <trkpt lat="48.64829" lon="-0.55729">
        <ele>195.4</ele>
        <time>2014-05-27T16:39:52Z</time>
      </trkpt>
      <trkpt lat="48.6491" lon="-0.55807">
        <ele>193.8</ele>
        <time>2014-05-27T16:40:07Z</time>
      </trkpt>
      <trkpt lat="48.64992" lon="-0.55857">
        <ele>194.6</ele>
        <time>2014-05-27T16:40:23Z</time>
      </trkpt>
      <trkpt lat="48.65083" lon="-0.55905">
        <ele>197</ele>
        <time>2014-05-27T16:40:41Z</time>
      </trkpt>
      <trkpt lat="48.65088" lon="-0.55907">
        <ele>197</ele>
        <time>2014-05-27T16:40:42Z</time>
      </trkpt>
      <trkpt lat="48.65093" lon="-0.5591">
        <ele>197.2</ele>
        <time>2014-05-27T16:40:43Z</time>
      </trkpt>
      <trkpt lat="48.65162" lon="-0.55946">
        <ele>199</ele>
        <time>2014-05-27T16:40:57Z</time>
      </trkpt>
      <trkpt lat="48.6525" lon="-0.55995">
        <ele>201.6</ele>
        <time>2014-05-27T16:41:15Z</time>
      </trkpt>
      <trkpt lat="48.6535" lon="-0.56047">
        <ele>203.6</ele>
        <time>2014-05-27T16:41:36Z</time>
      </trkpt>
      <trkpt lat="48.65402" lon="-0.56073">
        <ele>204.6</ele>
        <time>2014-05-27T16:41:47Z</time>
      </trkpt>
      <trkpt lat="48.65408" lon="-0.56074">
        <ele>204.6</ele>
        <time>2014-05-27T16:41:48Z</time>
      </trkpt>
      <trkpt lat="48.65413" lon="-0.56074">
        <ele>204.6</ele>
        <time>2014-05-27T16:41:49Z</time>
      </trkpt>
      <trkpt lat="48.65419" lon="-0.56074">
        <ele>204.4</ele>
        <time>2014-05-27T16:41:50Z</time>
      </trkpt>
      <trkpt lat="48.65425" lon="-0.56073">
        <ele>204.4</ele>
        <time>2014-05-27T16:41:51Z</time>
      </trkpt>
      <trkpt lat="48.65431" lon="-0.5607">
        <ele>204.2</ele>
        <time>2014-05-27T16:41:52Z</time>
      </trkpt>
      <trkpt lat="48.65437" lon="-0.56067">
        <ele>204.2</ele>
        <time>2014-05-27T16:41:53Z</time>
      </trkpt>
      <trkpt lat="48.65442" lon="-0.56063">
        <ele>204</ele>
        <time>2014-05-27T16:41:54Z</time>
      </trkpt>
      <trkpt lat="48.65448" lon="-0.56058">
        <ele>203.8</ele>
        <time>2014-05-27T16:41:55Z</time>
      </trkpt>
      <trkpt lat="48.65453" lon="-0.56053">
        <ele>203.6</ele>
        <time>2014-05-27T16:41:56Z</time>
      </trkpt>
      <trkpt lat="48.65475" lon="-0.56029">
        <ele>203</ele>
        <time>2014-05-27T16:42:00Z</time>
      </trkpt>
      <trkpt lat="48.65486" lon="-0.56017">
        <ele>202.8</ele>
        <time>2014-05-27T16:42:02Z</time>
      </trkpt>
      <trkpt lat="48.65567" lon="-0.55915">
        <ele>200.8</ele>
        <time>2014-05-27T16:42:19Z</time>
      </trkpt>
      <trkpt lat="48.65652" lon="-0.55816">
        <ele>203.6</ele>
        <time>2014-05-27T16:42:38Z</time>
      </trkpt>
      <trkpt lat="48.65722" lon="-0.55734">
        <ele>206.8</ele>
        <time>2014-05-27T16:42:55Z</time>
      </trkpt>
      <trkpt lat="48.65819" lon="-0.55637">
        <ele>209.8</ele>
        <time>2014-05-27T16:43:17Z</time>
      </trkpt>
      <trkpt lat="48.65905" lon="-0.55571">
        <ele>211.6</ele>
        <time>2014-05-27T16:43:36Z</time>
      </trkpt>
      <trkpt lat="48.66" lon="-0.55528">
        <ele>213.2</ele>
        <time>2014-05-27T16:43:55Z</time>
      </trkpt>
      <trkpt lat="48.66097" lon="-0.55476">
        <ele>215.4</ele>
        <time>2014-05-27T16:44:15Z</time>
      </trkpt>
      <trkpt lat="48.66167" lon="-0.55435">
        <ele>218</ele>
        <time>2014-05-27T16:44:32Z</time>
      </trkpt>
      <trkpt lat="48.66202" lon="-0.55428">
        <ele>221</ele>
        <time>2014-05-27T16:44:42Z</time>
      </trkpt>
      <trkpt lat="48.66247" lon="-0.55421">
        <ele>224</ele>
        <time>2014-05-27T16:44:54Z</time>
      </trkpt>
      <trkpt lat="48.6629" lon="-0.55415">
        <ele>227.2</ele>
        <time>2014-05-27T16:45:05Z</time>
      </trkpt>
      <trkpt lat="48.66328" lon="-0.554">
        <ele>230.4</ele>
        <time>2014-05-27T16:45:15Z</time>
      </trkpt>
      <trkpt lat="48.66347" lon="-0.55388">
        <ele>231.6</ele>
        <time>2014-05-27T16:45:20Z</time>
      </trkpt>
      <trkpt lat="48.6635" lon="-0.55385">
        <ele>232</ele>
        <time>2014-05-27T16:45:21Z</time>
      </trkpt>
      <trkpt lat="48.66354" lon="-0.55383">
        <ele>232.2</ele>
        <time>2014-05-27T16:45:22Z</time>
      </trkpt>
      <trkpt lat="48.66357" lon="-0.5538">
        <ele>232.4</ele>
        <time>2014-05-27T16:45:23Z</time>
      </trkpt>
      <trkpt lat="48.6636" lon="-0.55378">
        <ele>232.8</ele>
        <time>2014-05-27T16:45:24Z</time>
      </trkpt>
      <trkpt lat="48.66398" lon="-0.5535">
        <ele>236</ele>
        <time>2014-05-27T16:45:35Z</time>
      </trkpt>
      <trkpt lat="48.6643" lon="-0.55327">
        <ele>238.4</ele>
        <time>2014-05-27T16:45:45Z</time>
      </trkpt>
      <trkpt lat="48.66437" lon="-0.55322">
        <ele>239</ele>
        <time>2014-05-27T16:45:47Z</time>
      </trkpt>
      <trkpt lat="48.66482" lon="-0.55285">
        <ele>242.2</ele>
        <time>2014-05-27T16:45:58Z</time>
      </trkpt>
      <trkpt lat="48.665" lon="-0.55267">
        <ele>243.2</ele>
        <time>2014-05-27T16:46:03Z</time>
      </trkpt>
      <trkpt lat="48.66504" lon="-0.55265">
        <ele>243.4</ele>
        <time>2014-05-27T16:46:04Z</time>
      </trkpt>
      <trkpt lat="48.66509" lon="-0.55263">
        <ele>243.4</ele>
        <time>2014-05-27T16:46:05Z</time>
      </trkpt>
      <trkpt lat="48.66514" lon="-0.55259">
        <ele>243.6</ele>
        <time>2014-05-27T16:46:06Z</time>
      </trkpt>
      <trkpt lat="48.66517" lon="-0.55254">
        <ele>243.8</ele>
        <time>2014-05-27T16:46:07Z</time>
      </trkpt>
      <trkpt lat="48.6652" lon="-0.55248">
        <ele>244</ele>
        <time>2014-05-27T16:46:08Z</time>
      </trkpt>
      <trkpt lat="48.66522" lon="-0.55242">
        <ele>244.2</ele>
        <time>2014-05-27T16:46:09Z</time>
      </trkpt>
      <trkpt lat="48.66524" lon="-0.55235">
        <ele>244.2</ele>
        <time>2014-05-27T16:46:10Z</time>
      </trkpt>
      <trkpt lat="48.66527" lon="-0.55229">
        <ele>244.4</ele>
        <time>2014-05-27T16:46:11Z</time>
      </trkpt>
      <trkpt lat="48.6653" lon="-0.55222">
        <ele>244.4</ele>
        <time>2014-05-27T16:46:12Z</time>
      </trkpt>
      <trkpt lat="48.66533" lon="-0.55217">
        <ele>244.4</ele>
        <time>2014-05-27T16:46:13Z</time>
      </trkpt>
      <trkpt lat="48.66537" lon="-0.55214">
        <ele>244.4</ele>
        <time>2014-05-27T16:46:14Z</time>
      </trkpt>
      <trkpt lat="48.66542" lon="-0.55213">
        <ele>244.2</ele>
        <time>2014-05-27T16:46:15Z</time>
      </trkpt>
      <trkpt lat="48.66547" lon="-0.55214">
        <ele>244.2</ele>
        <time>2014-05-27T16:46:16Z</time>
      </trkpt>
      <trkpt lat="48.66551" lon="-0.55217">
        <ele>244</ele>
        <time>2014-05-27T16:46:17Z</time>
      </trkpt>
      <trkpt lat="48.66555" lon="-0.55221">
        <ele>243.8</ele>
        <time>2014-05-27T16:46:18Z</time>
      </trkpt>
      <trkpt lat="48.66624" lon="-0.55278">
        <ele>242.2</ele>
        <time>2014-05-27T16:46:31Z</time>
      </trkpt>
      <trkpt lat="48.66667" lon="-0.55327">
        <ele>238.8</ele>
        <time>2014-05-27T16:46:38Z</time>
      </trkpt>
      <trkpt lat="48.66698" lon="-0.55373">
        <ele>235</ele>
        <time>2014-05-27T16:46:43Z</time>
      </trkpt>
      <trkpt lat="48.66728" lon="-0.55408">
        <ele>232.2</ele>
        <time>2014-05-27T16:46:47Z</time>
      </trkpt>
      <trkpt lat="48.6677" lon="-0.55441">
        <ele>229</ele>
        <time>2014-05-27T16:46:52Z</time>
      </trkpt>
      <trkpt lat="48.66798" lon="-0.55475">
        <ele>226.4</ele>
        <time>2014-05-27T16:46:56Z</time>
      </trkpt>
      <trkpt lat="48.66804" lon="-0.55486">
        <ele>225.8</ele>
        <time>2014-05-27T16:46:57Z</time>
      </trkpt>
      <trkpt lat="48.6681" lon="-0.55498">
        <ele>225.2</ele>
        <time>2014-05-27T16:46:58Z</time>
      </trkpt>
      <trkpt lat="48.66814" lon="-0.5551">
        <ele>224.6</ele>
        <time>2014-05-27T16:46:59Z</time>
      </trkpt>
      <trkpt lat="48.66817" lon="-0.55524">
        <ele>224</ele>
        <time>2014-05-27T16:47:00Z</time>
      </trkpt>
      <trkpt lat="48.6682" lon="-0.55537">
        <ele>223.4</ele>
        <time>2014-05-27T16:47:01Z</time>
      </trkpt>
      <trkpt lat="48.66838" lon="-0.55617">
        <ele>220.8</ele>
        <time>2014-05-27T16:47:08Z</time>
      </trkpt>
      <trkpt lat="48.66841" lon="-0.55625">
        <ele>220.8</ele>
        <time>2014-05-27T16:47:09Z</time>
      </trkpt>
      <trkpt lat="48.66846" lon="-0.55632">
        <ele>220.8</ele>
        <time>2014-05-27T16:47:10Z</time>
      </trkpt>
      <trkpt lat="48.66851" lon="-0.55638">
        <ele>220.8</ele>
        <time>2014-05-27T16:47:11Z</time>
      </trkpt>
      <trkpt lat="48.66856" lon="-0.55643">
        <ele>220.8</ele>
        <time>2014-05-27T16:47:12Z</time>
      </trkpt>
      <trkpt lat="48.66861" lon="-0.55647">
        <ele>221</ele>
        <time>2014-05-27T16:47:13Z</time>
      </trkpt>
      <trkpt lat="48.66867" lon="-0.55651">
        <ele>221</ele>
        <time>2014-05-27T16:47:14Z</time>
      </trkpt>
      <trkpt lat="48.66924" lon="-0.55681">
        <ele>222.4</ele>
        <time>2014-05-27T16:47:24Z</time>
      </trkpt>
      <trkpt lat="48.66991" lon="-0.55715">
        <ele>223.6</ele>
        <time>2014-05-27T16:47:36Z</time>
      </trkpt>
      <trkpt lat="48.66997" lon="-0.55717">
        <ele>223.8</ele>
        <time>2014-05-27T16:47:37Z</time>
      </trkpt>
      <trkpt lat="48.67003" lon="-0.55719">
        <ele>223.8</ele>
        <time>2014-05-27T16:47:38Z</time>
      </trkpt>
      <trkpt lat="48.67041" lon="-0.55721">
        <ele>224.6</ele>
        <time>2014-05-27T16:47:44Z</time>
      </trkpt>
      <trkpt lat="48.67114" lon="-0.55685">
        <ele>226</ele>
        <time>2014-05-27T16:47:57Z</time>
      </trkpt>
      <trkpt lat="48.67124" lon="-0.55679">
        <ele>226.2</ele>
        <time>2014-05-27T16:47:59Z</time>
      </trkpt>
      <trkpt lat="48.67134" lon="-0.55673">
        <ele>226.2</ele>
        <time>2014-05-27T16:48:01Z</time>
      </trkpt>
      <trkpt lat="48.6715" lon="-0.55666">
        <ele>226.6</ele>
        <time>2014-05-27T16:48:04Z</time>
      </trkpt>
      <trkpt lat="48.67156" lon="-0.55665">
        <ele>226.6</ele>
        <time>2014-05-27T16:48:05Z</time>
      </trkpt>
      <trkpt lat="48.67162" lon="-0.55664">
        <ele>226.8</ele>
        <time>2014-05-27T16:48:06Z</time>
      </trkpt>
      <trkpt lat="48.67168" lon="-0.55662">
        <ele>226.8</ele>
        <time>2014-05-27T16:48:07Z</time>
      </trkpt>
      <trkpt lat="48.67174" lon="-0.55661">
        <ele>227</ele>
        <time>2014-05-27T16:48:08Z</time>
      </trkpt>
      <trkpt lat="48.6718" lon="-0.5566">
        <ele>227.2</ele>
        <time>2014-05-27T16:48:09Z</time>
      </trkpt>
      <trkpt lat="48.67259" lon="-0.55639">
        <ele>228</ele>
        <time>2014-05-27T16:48:22Z</time>
      </trkpt>
      <trkpt lat="48.67308" lon="-0.55611">
        <ele>229.6</ele>
        <time>2014-05-27T16:48:31Z</time>
      </trkpt>
      <trkpt lat="48.67373" lon="-0.55594">
        <ele>231</ele>
        <time>2014-05-27T16:48:43Z</time>
      </trkpt>
      <trkpt lat="48.67394" lon="-0.55593">
        <ele>231.2</ele>
        <time>2014-05-27T16:48:47Z</time>
      </trkpt>
      <trkpt lat="48.67399" lon="-0.55593">
        <ele>231.4</ele>
        <time>2014-05-27T16:48:48Z</time>
      </trkpt>
      <trkpt lat="48.67404" lon="-0.55592">
        <ele>231.4</ele>
        <time>2014-05-27T16:48:49Z</time>
      </trkpt>
      <trkpt lat="48.67427" lon="-0.55594">
        <ele>231.6</ele>
        <time>2014-05-27T16:48:53Z</time>
      </trkpt>
      <trkpt lat="48.67432" lon="-0.55595">
        <ele>231.8</ele>
        <time>2014-05-27T16:48:54Z</time>
      </trkpt>
      <trkpt lat="48.67484" lon="-0.55596">
        <ele>232.6</ele>
        <time>2014-05-27T16:49:03Z</time>
      </trkpt>
      <trkpt lat="48.67496" lon="-0.55595">
        <ele>232.8</ele>
        <time>2014-05-27T16:49:05Z</time>
      </trkpt>
      <trkpt lat="48.67514" lon="-0.55589">
        <ele>233</ele>
        <time>2014-05-27T16:49:08Z</time>
      </trkpt>
      <trkpt lat="48.6752" lon="-0.55586">
        <ele>233.2</ele>
        <time>2014-05-27T16:49:09Z</time>
      </trkpt>
      <trkpt lat="48.67556" lon="-0.55562">
        <ele>234</ele>
        <time>2014-05-27T16:49:15Z</time>
      </trkpt>
      <trkpt lat="48.67601" lon="-0.55528">
        <ele>235.2</ele>
        <time>2014-05-27T16:49:24Z</time>
      </trkpt>
      <trkpt lat="48.67605" lon="-0.55523">
        <ele>235.4</ele>
        <time>2014-05-27T16:49:25Z</time>
      </trkpt>
      <trkpt lat="48.6761" lon="-0.55519">
        <ele>235.6</ele>
        <time>2014-05-27T16:49:26Z</time>
      </trkpt>
      <trkpt lat="48.67615" lon="-0.55515">
        <ele>235.8</ele>
        <time>2014-05-27T16:49:27Z</time>
      </trkpt>
      <trkpt lat="48.67621" lon="-0.5551">
        <ele>235.8</ele>
        <time>2014-05-27T16:49:28Z</time>
      </trkpt>
      <trkpt lat="48.67627" lon="-0.55506">
        <ele>236</ele>
        <time>2014-05-27T16:49:29Z</time>
      </trkpt>
      <trkpt lat="48.67644" lon="-0.55493">
        <ele>236</ele>
        <time>2014-05-27T16:49:32Z</time>
      </trkpt>
      <trkpt lat="48.67726" lon="-0.55435">
        <ele>235.8</ele>
        <time>2014-05-27T16:49:46Z</time>
      </trkpt>
      <trkpt lat="48.67786" lon="-0.55386">
        <ele>236.8</ele>
        <time>2014-05-27T16:49:57Z</time>
      </trkpt>
      <trkpt lat="48.67837" lon="-0.55348">
        <ele>238</ele>
        <time>2014-05-27T16:50:06Z</time>
      </trkpt>
      <trkpt lat="48.67883" lon="-0.55316">
        <ele>239.8</ele>
        <time>2014-05-27T16:50:14Z</time>
      </trkpt>
      <trkpt lat="48.67888" lon="-0.55311">
        <ele>240</ele>
        <time>2014-05-27T16:50:15Z</time>
      </trkpt>
      <trkpt lat="48.67952" lon="-0.55264">
        <ele>243.2</ele>
        <time>2014-05-27T16:50:27Z</time>
      </trkpt>
      <trkpt lat="48.68004" lon="-0.55225">
        <ele>246.4</ele>
        <time>2014-05-27T16:50:37Z</time>
      </trkpt>
      <trkpt lat="48.68014" lon="-0.55217">
        <ele>247.2</ele>
        <time>2014-05-27T16:50:39Z</time>
      </trkpt>
      <trkpt lat="48.68048" lon="-0.5519">
        <ele>249.6</ele>
        <time>2014-05-27T16:50:46Z</time>
      </trkpt>
      <trkpt lat="48.68104" lon="-0.55147">
        <ele>252.8</ele>
        <time>2014-05-27T16:50:57Z</time>
      </trkpt>
      <trkpt lat="48.68124" lon="-0.55133">
        <ele>254.4</ele>
        <time>2014-05-27T16:51:01Z</time>
      </trkpt>
      <trkpt lat="48.6814" lon="-0.5512">
        <ele>255.4</ele>
        <time>2014-05-27T16:51:04Z</time>
      </trkpt>
      <trkpt lat="48.68145" lon="-0.55117">
        <ele>256</ele>
        <time>2014-05-27T16:51:05Z</time>
      </trkpt>
      <trkpt lat="48.6816" lon="-0.55106">
        <ele>256.8</ele>
        <time>2014-05-27T16:51:08Z</time>
      </trkpt>
      <trkpt lat="48.68166" lon="-0.55103">
        <ele>257</ele>
        <time>2014-05-27T16:51:09Z</time>
      </trkpt>
      <trkpt lat="48.68188" lon="-0.55094">
        <ele>258</ele>
        <time>2014-05-27T16:51:13Z</time>
      </trkpt>
      <trkpt lat="48.68194" lon="-0.55093">
        <ele>258.2</ele>
        <time>2014-05-27T16:51:14Z</time>
      </trkpt>
      <trkpt lat="48.68215" lon="-0.55093">
        <ele>258.8</ele>
        <time>2014-05-27T16:51:18Z</time>
      </trkpt>
      <trkpt lat="48.68239" lon="-0.55101">
        <ele>259.4</ele>
        <time>2014-05-27T16:51:22Z</time>
      </trkpt>
      <trkpt lat="48.68245" lon="-0.55105">
        <ele>259.6</ele>
        <time>2014-05-27T16:51:23Z</time>
      </trkpt>
      <trkpt lat="48.68257" lon="-0.55115">
        <ele>259.6</ele>
        <time>2014-05-27T16:51:25Z</time>
      </trkpt>
      <trkpt lat="48.68305" lon="-0.55201">
        <ele>259.6</ele>
        <time>2014-05-27T16:51:37Z</time>
      </trkpt>
      <trkpt lat="48.68353" lon="-0.55302">
        <ele>257.2</ele>
        <time>2014-05-27T16:51:49Z</time>
      </trkpt>
      <trkpt lat="48.68359" lon="-0.55309">
        <ele>257</ele>
        <time>2014-05-27T16:51:50Z</time>
      </trkpt>
      <trkpt lat="48.68407" lon="-0.55352">
        <ele>254.4</ele>
        <time>2014-05-27T16:51:57Z</time>
      </trkpt>
      <trkpt lat="48.68415" lon="-0.55359">
        <ele>254</ele>
        <time>2014-05-27T16:51:58Z</time>
      </trkpt>
      <trkpt lat="48.68431" lon="-0.55372">
        <ele>253</ele>
        <time>2014-05-27T16:52:00Z</time>
      </trkpt>
      <trkpt lat="48.68438" lon="-0.5538">
        <ele>252.8</ele>
        <time>2014-05-27T16:52:01Z</time>
      </trkpt>
      <trkpt lat="48.68447" lon="-0.55388">
        <ele>252.4</ele>
        <time>2014-05-27T16:52:02Z</time>
      </trkpt>
      <trkpt lat="48.6848" lon="-0.5542">
        <ele>250.2</ele>
        <time>2014-05-27T16:52:06Z</time>
      </trkpt>
      <trkpt lat="48.68488" lon="-0.55429">
        <ele>249.6</ele>
        <time>2014-05-27T16:52:07Z</time>
      </trkpt>
      <trkpt lat="48.68527" lon="-0.55475">
        <ele>246.6</ele>
        <time>2014-05-27T16:52:12Z</time>
      </trkpt>
      <trkpt lat="48.68566" lon="-0.55522">
        <ele>243.2</ele>
        <time>2014-05-27T16:52:17Z</time>
      </trkpt>
      <trkpt lat="48.68595" lon="-0.55563">
        <ele>239.8</ele>
        <time>2014-05-27T16:52:21Z</time>
      </trkpt>
      <trkpt lat="48.68612" lon="-0.55599">
        <ele>238.4</ele>
        <time>2014-05-27T16:52:24Z</time>
      </trkpt>
      <trkpt lat="48.68636" lon="-0.55664">
        <ele>236</ele>
        <time>2014-05-27T16:52:29Z</time>
      </trkpt>
      <trkpt lat="48.68669" lon="-0.55736">
        <ele>232.8</ele>
        <time>2014-05-27T16:52:35Z</time>
      </trkpt>
      <trkpt lat="48.68699" lon="-0.55794">
        <ele>229.6</ele>
        <time>2014-05-27T16:52:40Z</time>
      </trkpt>
      <trkpt lat="48.68729" lon="-0.55853">
        <ele>225.2</ele>
        <time>2014-05-27T16:52:45Z</time>
      </trkpt>
      <trkpt lat="48.68734" lon="-0.55867">
        <ele>224.6</ele>
        <time>2014-05-27T16:52:46Z</time>
      </trkpt>
      <trkpt lat="48.68753" lon="-0.55942">
        <ele>221.2</ele>
        <time>2014-05-27T16:52:51Z</time>
      </trkpt>
      <trkpt lat="48.6877" lon="-0.56016">
        <ele>217.6</ele>
        <time>2014-05-27T16:52:56Z</time>
      </trkpt>
      <trkpt lat="48.68775" lon="-0.56029">
        <ele>217</ele>
        <time>2014-05-27T16:52:57Z</time>
      </trkpt>
      <trkpt lat="48.68781" lon="-0.5604">
        <ele>216.4</ele>
        <time>2014-05-27T16:52:58Z</time>
      </trkpt>
      <trkpt lat="48.68787" lon="-0.56049">
        <ele>216</ele>
        <time>2014-05-27T16:52:59Z</time>
      </trkpt>
      <trkpt lat="48.68794" lon="-0.56058">
        <ele>215.6</ele>
        <time>2014-05-27T16:53:00Z</time>
      </trkpt>
      <trkpt lat="48.68801" lon="-0.56064">
        <ele>215.4</ele>
        <time>2014-05-27T16:53:01Z</time>
      </trkpt>
      <trkpt lat="48.68808" lon="-0.56066">
        <ele>215.2</ele>
        <time>2014-05-27T16:53:02Z</time>
      </trkpt>
      <trkpt lat="48.68816" lon="-0.56065">
        <ele>215</ele>
        <time>2014-05-27T16:53:03Z</time>
      </trkpt>
      <trkpt lat="48.68823" lon="-0.56062">
        <ele>215</ele>
        <time>2014-05-27T16:53:04Z</time>
      </trkpt>
      <trkpt lat="48.68829" lon="-0.56058">
        <ele>215</ele>
        <time>2014-05-27T16:53:05Z</time>
      </trkpt>
      <trkpt lat="48.68883" lon="-0.56024">
        <ele>216.6</ele>
        <time>2014-05-27T16:53:15Z</time>
      </trkpt>
      <trkpt lat="48.68889" lon="-0.56024">
        <ele>216.8</ele>
        <time>2014-05-27T16:53:16Z</time>
      </trkpt>
      <trkpt lat="48.68895" lon="-0.56023">
        <ele>216.8</ele>
        <time>2014-05-27T16:53:17Z</time>
      </trkpt>
      <trkpt lat="48.68913" lon="-0.56021">
        <ele>217.4</ele>
        <time>2014-05-27T16:53:20Z</time>
      </trkpt>
      <trkpt lat="48.6892" lon="-0.5602">
        <ele>217.6</ele>
        <time>2014-05-27T16:53:21Z</time>
      </trkpt>
      <trkpt lat="48.69019" lon="-0.56013">
        <ele>219.2</ele>
        <time>2014-05-27T16:53:36Z</time>
      </trkpt>
      <trkpt lat="48.69097" lon="-0.56009">
        <ele>220</ele>
        <time>2014-05-27T16:53:48Z</time>
      </trkpt>
      <trkpt lat="48.69129" lon="-0.56006">
        <ele>220</ele>
        <time>2014-05-27T16:53:53Z</time>
      </trkpt>
      <trkpt lat="48.69191" lon="-0.56002">
        <ele>220.2</ele>
        <time>2014-05-27T16:54:03Z</time>
      </trkpt>
      <trkpt lat="48.69297" lon="-0.55994">
        <ele>220</ele>
        <time>2014-05-27T16:54:20Z</time>
      </trkpt>
      <trkpt lat="48.69405" lon="-0.55987">
        <ele>219.2</ele>
        <time>2014-05-27T16:54:37Z</time>
      </trkpt>
      <trkpt lat="48.695" lon="-0.55981">
        <ele>218.6</ele>
        <time>2014-05-27T16:54:52Z</time>
      </trkpt>
      <trkpt lat="48.69617" lon="-0.55974">
        <ele>217.8</ele>
        <time>2014-05-27T16:55:11Z</time>
      </trkpt>
      <trkpt lat="48.69729" lon="-0.55967">
        <ele>216</ele>
        <time>2014-05-27T16:55:29Z</time>
      </trkpt>
      <trkpt lat="48.6976" lon="-0.55965">
        <ele>216</ele>
        <time>2014-05-27T16:55:35Z</time>
      </trkpt>
      <trkpt lat="48.69765" lon="-0.55965">
        <ele>216</ele>
        <time>2014-05-27T16:55:36Z</time>
      </trkpt>
      <trkpt lat="48.6983" lon="-0.5596">
        <ele>216</ele>
        <time>2014-05-27T16:55:47Z</time>
      </trkpt>
      <trkpt lat="48.69907" lon="-0.55953">
        <ele>216</ele>
        <time>2014-05-27T16:56:00Z</time>
      </trkpt>
      <trkpt lat="48.69938" lon="-0.55952">
        <ele>215.6</ele>
        <time>2014-05-27T16:56:05Z</time>
      </trkpt>
      <trkpt lat="48.69944" lon="-0.55952">
        <ele>215.4</ele>
        <time>2014-05-27T16:56:06Z</time>
      </trkpt>
      <trkpt lat="48.70016" lon="-0.55947">
        <ele>216.4</ele>
        <time>2014-05-27T16:56:19Z</time>
      </trkpt>
      <trkpt lat="48.70052" lon="-0.55942">
        <ele>217.8</ele>
        <time>2014-05-27T16:56:29Z</time>
      </trkpt>
      <trkpt lat="48.7008" lon="-0.5594">
        <ele>218</ele>
        <time>2014-05-27T16:56:34Z</time>
      </trkpt>
      <trkpt lat="48.70169" lon="-0.5592">
        <ele>216.8</ele>
        <time>2014-05-27T16:56:48Z</time>
      </trkpt>
      <trkpt lat="48.70256" lon="-0.55896">
        <ele>216.4</ele>
        <time>2014-05-27T16:57:02Z</time>
      </trkpt>
      <trkpt lat="48.70335" lon="-0.55878">
        <ele>216.6</ele>
        <time>2014-05-27T16:57:15Z</time>
      </trkpt>
      <trkpt lat="48.70414" lon="-0.55891">
        <ele>217.4</ele>
        <time>2014-05-27T16:57:28Z</time>
      </trkpt>
      <trkpt lat="48.7048" lon="-0.5591">
        <ele>218.2</ele>
        <time>2014-05-27T16:57:39Z</time>
      </trkpt>
      <trkpt lat="48.70569" lon="-0.55934">
        <ele>219.6</ele>
        <time>2014-05-27T16:57:54Z</time>
      </trkpt>
      <trkpt lat="48.70649" lon="-0.55954">
        <ele>221</ele>
        <time>2014-05-27T16:58:08Z</time>
      </trkpt>
      <trkpt lat="48.70653" lon="-0.55955">
        <ele>221.2</ele>
        <time>2014-05-27T16:58:09Z</time>
      </trkpt>
      <trkpt lat="48.70673" lon="-0.55958">
        <ele>222.2</ele>
        <time>2014-05-27T16:58:14Z</time>
      </trkpt>
      <trkpt lat="48.70741" lon="-0.55965">
        <ele>222.6</ele>
        <time>2014-05-27T16:58:25Z</time>
      </trkpt>
      <trkpt lat="48.70778" lon="-0.55971">
        <ele>223.2</ele>
        <time>2014-05-27T16:58:33Z</time>
      </trkpt>
      <trkpt lat="48.70783" lon="-0.55971">
        <ele>223.4</ele>
        <time>2014-05-27T16:58:34Z</time>
      </trkpt>
      <trkpt lat="48.70813" lon="-0.55975">
        <ele>223.2</ele>
        <time>2014-05-27T16:58:40Z</time>
      </trkpt>
      <trkpt lat="48.70825" lon="-0.55979">
        <ele>223.2</ele>
        <time>2014-05-27T16:58:42Z</time>
      </trkpt>
      <trkpt lat="48.70893" lon="-0.56031">
        <ele>222.6</ele>
        <time>2014-05-27T16:58:54Z</time>
      </trkpt>
      <trkpt lat="48.70897" lon="-0.56038">
        <ele>222.6</ele>
        <time>2014-05-27T16:58:55Z</time>
      </trkpt>
      <trkpt lat="48.70948" lon="-0.56127">
        <ele>224.4</ele>
        <time>2014-05-27T16:59:08Z</time>
      </trkpt>
      <trkpt lat="48.70984" lon="-0.56195">
        <ele>226.4</ele>
        <time>2014-05-27T16:59:21Z</time>
      </trkpt>
      <trkpt lat="48.71003" lon="-0.56216">
        <ele>227.2</ele>
        <time>2014-05-27T16:59:29Z</time>
      </trkpt>
      <trkpt lat="48.71008" lon="-0.56219">
        <ele>227.4</ele>
        <time>2014-05-27T16:59:30Z</time>
      </trkpt>
      <trkpt lat="48.71051" lon="-0.56234">
        <ele>226.8</ele>
        <time>2014-05-27T16:59:37Z</time>
      </trkpt>
      <trkpt lat="48.71056" lon="-0.56239">
        <ele>226.8</ele>
        <time>2014-05-27T16:59:38Z</time>
      </trkpt>
      <trkpt lat="48.71062" lon="-0.56244">
        <ele>226.6</ele>
        <time>2014-05-27T16:59:39Z</time>
      </trkpt>
      <trkpt lat="48.71109" lon="-0.56313">
        <ele>226.2</ele>
        <time>2014-05-27T16:59:51Z</time>
      </trkpt>
      <trkpt lat="48.71117" lon="-0.56325">
        <ele>226.2</ele>
        <time>2014-05-27T16:59:53Z</time>
      </trkpt>
      <trkpt lat="48.71122" lon="-0.5633">
        <ele>226.2</ele>
        <time>2014-05-27T16:59:54Z</time>
      </trkpt>
      <trkpt lat="48.71139" lon="-0.56344">
        <ele>226.4</ele>
        <time>2014-05-27T16:59:57Z</time>
      </trkpt>
      <trkpt lat="48.71145" lon="-0.56347">
        <ele>226.4</ele>
        <time>2014-05-27T16:59:58Z</time>
      </trkpt>
      <trkpt lat="48.71227" lon="-0.56371">
        <ele>227</ele>
        <time>2014-05-27T17:00:12Z</time>
      </trkpt>
      <trkpt lat="48.71309" lon="-0.56346">
        <ele>230.2</ele>
        <time>2014-05-27T17:00:26Z</time>
      </trkpt>
      <trkpt lat="48.71367" lon="-0.56321">
        <ele>233.4</ele>
        <time>2014-05-27T17:00:36Z</time>
      </trkpt>
      <trkpt lat="48.71436" lon="-0.56285">
        <ele>236.4</ele>
        <time>2014-05-27T17:00:49Z</time>
      </trkpt>
      <trkpt lat="48.71469" lon="-0.56273">
        <ele>237.4</ele>
        <time>2014-05-27T17:00:55Z</time>
      </trkpt>
      <trkpt lat="48.71544" lon="-0.56249">
        <ele>235.6</ele>
        <time>2014-05-27T17:01:07Z</time>
      </trkpt>
      <trkpt lat="48.71599" lon="-0.56217">
        <ele>232.6</ele>
        <time>2014-05-27T17:01:15Z</time>
      </trkpt>
      <trkpt lat="48.71635" lon="-0.56199">
        <ele>230.6</ele>
        <time>2014-05-27T17:01:20Z</time>
      </trkpt>
      <trkpt lat="48.71643" lon="-0.56199">
        <ele>230.2</ele>
        <time>2014-05-27T17:01:21Z</time>
      </trkpt>
      <trkpt lat="48.7165" lon="-0.56202">
        <ele>229.8</ele>
        <time>2014-05-27T17:01:22Z</time>
      </trkpt>
      <trkpt lat="48.71657" lon="-0.56206">
        <ele>229.4</ele>
        <time>2014-05-27T17:01:23Z</time>
      </trkpt>
      <trkpt lat="48.71663" lon="-0.56211">
        <ele>229.2</ele>
        <time>2014-05-27T17:01:24Z</time>
      </trkpt>
      <trkpt lat="48.71737" lon="-0.56273">
        <ele>230</ele>
        <time>2014-05-27T17:01:38Z</time>
      </trkpt>
      <trkpt lat="48.71811" lon="-0.56335">
        <ele>230.2</ele>
        <time>2014-05-27T17:01:51Z</time>
      </trkpt>
      <trkpt lat="48.71867" lon="-0.56381">
        <ele>227</ele>
        <time>2014-05-27T17:02:00Z</time>
      </trkpt>
      <trkpt lat="48.71873" lon="-0.56385">
        <ele>226.8</ele>
        <time>2014-05-27T17:02:01Z</time>
      </trkpt>
      <trkpt lat="48.71925" lon="-0.56426">
        <ele>226.4</ele>
        <time>2014-05-27T17:02:12Z</time>
      </trkpt>
      <trkpt lat="48.72012" lon="-0.56496">
        <ele>224</ele>
        <time>2014-05-27T17:02:26Z</time>
      </trkpt>
      <trkpt lat="48.72061" lon="-0.56537">
        <ele>220.8</ele>
        <time>2014-05-27T17:02:33Z</time>
      </trkpt>
      <trkpt lat="48.72125" lon="-0.56589">
        <ele>219</ele>
        <time>2014-05-27T17:02:44Z</time>
      </trkpt>
      <trkpt lat="48.72192" lon="-0.56647">
        <ele>220.4</ele>
        <time>2014-05-27T17:02:57Z</time>
      </trkpt>
      <trkpt lat="48.7221" lon="-0.56662">
        <ele>220.6</ele>
        <time>2014-05-27T17:03:01Z</time>
      </trkpt>
      <trkpt lat="48.72214" lon="-0.56666">
        <ele>220.8</ele>
        <time>2014-05-27T17:03:02Z</time>
      </trkpt>
      <trkpt lat="48.7227" lon="-0.56714">
        <ele>221</ele>
        <time>2014-05-27T17:03:13Z</time>
      </trkpt>
      <trkpt lat="48.72306" lon="-0.56746">
        <ele>219.6</ele>
        <time>2014-05-27T17:03:20Z</time>
      </trkpt>
      <trkpt lat="48.72317" lon="-0.56755">
        <ele>219</ele>
        <time>2014-05-27T17:03:22Z</time>
      </trkpt>
      <trkpt lat="48.72323" lon="-0.5676">
        <ele>218.6</ele>
        <time>2014-05-27T17:03:23Z</time>
      </trkpt>
      <trkpt lat="48.72329" lon="-0.56764">
        <ele>218.4</ele>
        <time>2014-05-27T17:03:24Z</time>
      </trkpt>
      <trkpt lat="48.72351" lon="-0.5678">
        <ele>217.2</ele>
        <time>2014-05-27T17:03:28Z</time>
      </trkpt>
      <trkpt lat="48.7242" lon="-0.56807">
        <ele>215</ele>
        <time>2014-05-27T17:03:39Z</time>
      </trkpt>
      <trkpt lat="48.72426" lon="-0.56811">
        <ele>214.8</ele>
        <time>2014-05-27T17:03:40Z</time>
      </trkpt>
      <trkpt lat="48.72432" lon="-0.56813">
        <ele>214.6</ele>
        <time>2014-05-27T17:03:41Z</time>
      </trkpt>
      <trkpt lat="48.72463" lon="-0.56821">
        <ele>214.6</ele>
        <time>2014-05-27T17:03:46Z</time>
      </trkpt>
      <trkpt lat="48.72468" lon="-0.56821">
        <ele>214.8</ele>
        <time>2014-05-27T17:03:47Z</time>
      </trkpt>
      <trkpt lat="48.72527" lon="-0.56809">
        <ele>217</ele>
        <time>2014-05-27T17:03:57Z</time>
      </trkpt>
      <trkpt lat="48.72533" lon="-0.56805">
        <ele>217.2</ele>
        <time>2014-05-27T17:03:58Z</time>
      </trkpt>
      <trkpt lat="48.72544" lon="-0.56797">
        <ele>217.6</ele>
        <time>2014-05-27T17:04:00Z</time>
      </trkpt>
      <trkpt lat="48.72594" lon="-0.56768">
        <ele>219.4</ele>
        <time>2014-05-27T17:04:09Z</time>
      </trkpt>
      <trkpt lat="48.726" lon="-0.56767">
        <ele>219.6</ele>
        <time>2014-05-27T17:04:10Z</time>
      </trkpt>
      <trkpt lat="48.72606" lon="-0.56768">
        <ele>219.8</ele>
        <time>2014-05-27T17:04:11Z</time>
      </trkpt>
      <trkpt lat="48.72629" lon="-0.56775">
        <ele>220.8</ele>
        <time>2014-05-27T17:04:15Z</time>
      </trkpt>
      <trkpt lat="48.72704" lon="-0.56824">
        <ele>223.8</ele>
        <time>2014-05-27T17:04:29Z</time>
      </trkpt>
      <trkpt lat="48.72805" lon="-0.56895">
        <ele>225.4</ele>
        <time>2014-05-27T17:04:47Z</time>
      </trkpt>
      <trkpt lat="48.72816" lon="-0.56902">
        <ele>225.4</ele>
        <time>2014-05-27T17:04:49Z</time>
      </trkpt>
      <trkpt lat="48.72907" lon="-0.56953">
        <ele>222.4</ele>
        <time>2014-05-27T17:05:05Z</time>
      </trkpt>
      <trkpt lat="48.72973" lon="-0.56981">
        <ele>219.2</ele>
        <time>2014-05-27T17:05:16Z</time>
      </trkpt>
      <trkpt lat="48.73045" lon="-0.57012">
        <ele>216.2</ele>
        <time>2014-05-27T17:05:28Z</time>
      </trkpt>
      <trkpt lat="48.73107" lon="-0.5704">
        <ele>215.2</ele>
        <time>2014-05-27T17:05:40Z</time>
      </trkpt>
      <trkpt lat="48.73173" lon="-0.57093">
        <ele>214.4</ele>
        <time>2014-05-27T17:05:52Z</time>
      </trkpt>
      <trkpt lat="48.73199" lon="-0.57121">
        <ele>214.4</ele>
        <time>2014-05-27T17:05:57Z</time>
      </trkpt>
      <trkpt lat="48.73282" lon="-0.57193">
        <ele>214</ele>
        <time>2014-05-27T17:06:12Z</time>
      </trkpt>
      <trkpt lat="48.73311" lon="-0.57209">
        <ele>214</ele>
        <time>2014-05-27T17:06:17Z</time>
      </trkpt>
      <trkpt lat="48.73403" lon="-0.57272">
        <ele>217.4</ele>
        <time>2014-05-27T17:06:35Z</time>
      </trkpt>
      <trkpt lat="48.73418" lon="-0.57284">
        <ele>218.2</ele>
        <time>2014-05-27T17:06:38Z</time>
      </trkpt>
      <trkpt lat="48.73422" lon="-0.57289">
        <ele>218.4</ele>
        <time>2014-05-27T17:06:39Z</time>
      </trkpt>
      <trkpt lat="48.73487" lon="-0.57373">
        <ele>220.4</ele>
        <time>2014-05-27T17:06:55Z</time>
      </trkpt>
      <trkpt lat="48.73494" lon="-0.57382">
        <ele>220.4</ele>
        <time>2014-05-27T17:06:57Z</time>
      </trkpt>
      <trkpt lat="48.73537" lon="-0.57454">
        <ele>218.8</ele>
        <time>2014-05-27T17:07:09Z</time>
      </trkpt>
      <trkpt lat="48.73569" lon="-0.57529">
        <ele>218.6</ele>
        <time>2014-05-27T17:07:21Z</time>
      </trkpt>
      <trkpt lat="48.73576" lon="-0.57534">
        <ele>218.8</ele>
        <time>2014-05-27T17:07:23Z</time>
      </trkpt>
      <trkpt lat="48.73581" lon="-0.57533">
        <ele>218.8</ele>
        <time>2014-05-27T17:07:24Z</time>
      </trkpt>
      <trkpt lat="48.73587" lon="-0.57532">
        <ele>219</ele>
        <time>2014-05-27T17:07:25Z</time>
      </trkpt>
      <trkpt lat="48.73664" lon="-0.57489">
        <ele>218.8</ele>
        <time>2014-05-27T17:07:38Z</time>
      </trkpt>
      <trkpt lat="48.7367" lon="-0.57485">
        <ele>218.8</ele>
        <time>2014-05-27T17:07:39Z</time>
      </trkpt>
      <trkpt lat="48.73676" lon="-0.57481">
        <ele>218.6</ele>
        <time>2014-05-27T17:07:40Z</time>
      </trkpt>
      <trkpt lat="48.73732" lon="-0.57444">
        <ele>218.2</ele>
        <time>2014-05-27T17:07:50Z</time>
      </trkpt>
      <trkpt lat="48.73744" lon="-0.57438">
        <ele>218.4</ele>
        <time>2014-05-27T17:07:52Z</time>
      </trkpt>
      <trkpt lat="48.73814" lon="-0.57395">
        <ele>218.8</ele>
        <time>2014-05-27T17:08:04Z</time>
      </trkpt>
      <trkpt lat="48.73831" lon="-0.57383">
        <ele>219</ele>
        <time>2014-05-27T17:08:07Z</time>
      </trkpt>
      <trkpt lat="48.73837" lon="-0.57379">
        <ele>219</ele>
        <time>2014-05-27T17:08:08Z</time>
      </trkpt>
      <trkpt lat="48.73849" lon="-0.57371">
        <ele>219.2</ele>
        <time>2014-05-27T17:08:10Z</time>
      </trkpt>
      <trkpt lat="48.73853" lon="-0.57367">
        <ele>219.4</ele>
        <time>2014-05-27T17:08:11Z</time>
      </trkpt>
      <trkpt lat="48.73862" lon="-0.57358">
        <ele>219.6</ele>
        <time>2014-05-27T17:08:13Z</time>
      </trkpt>
      <trkpt lat="48.73867" lon="-0.57356">
        <ele>219.8</ele>
        <time>2014-05-27T17:08:14Z</time>
      </trkpt>
      <trkpt lat="48.73871" lon="-0.57353">
        <ele>220</ele>
        <time>2014-05-27T17:08:15Z</time>
      </trkpt>
      <trkpt lat="48.73875" lon="-0.5735">
        <ele>220.2</ele>
        <time>2014-05-27T17:08:16Z</time>
      </trkpt>
      <trkpt lat="48.73879" lon="-0.57347">
        <ele>220.2</ele>
        <time>2014-05-27T17:08:17Z</time>
      </trkpt>
      <trkpt lat="48.73884" lon="-0.57344">
        <ele>220.4</ele>
        <time>2014-05-27T17:08:18Z</time>
      </trkpt>
      <trkpt lat="48.73914" lon="-0.57321">
        <ele>220.8</ele>
        <time>2014-05-27T17:08:24Z</time>
      </trkpt>
      <trkpt lat="48.73919" lon="-0.57317">
        <ele>221</ele>
        <time>2014-05-27T17:08:25Z</time>
      </trkpt>
      <trkpt lat="48.73971" lon="-0.57267">
        <ele>221.8</ele>
        <time>2014-05-27T17:08:35Z</time>
      </trkpt>
      <trkpt lat="48.73992" lon="-0.57241">
        <ele>222.2</ele>
        <time>2014-05-27T17:08:40Z</time>
      </trkpt>
      <trkpt lat="48.73997" lon="-0.57235">
        <ele>222.4</ele>
        <time>2014-05-27T17:08:41Z</time>
      </trkpt>
      <trkpt lat="48.74001" lon="-0.57228">
        <ele>222.4</ele>
        <time>2014-05-27T17:08:42Z</time>
      </trkpt>
      <trkpt lat="48.74006" lon="-0.57222">
        <ele>222.4</ele>
        <time>2014-05-27T17:08:43Z</time>
      </trkpt>
      <trkpt lat="48.74009" lon="-0.57215">
        <ele>222.4</ele>
        <time>2014-05-27T17:08:44Z</time>
      </trkpt>
      <trkpt lat="48.74013" lon="-0.57208">
        <ele>222.4</ele>
        <time>2014-05-27T17:08:45Z</time>
      </trkpt>
      <trkpt lat="48.74026" lon="-0.57189">
        <ele>222.4</ele>
        <time>2014-05-27T17:08:48Z</time>
      </trkpt>
      <trkpt lat="48.74042" lon="-0.5717">
        <ele>222.4</ele>
        <time>2014-05-27T17:08:52Z</time>
      </trkpt>
      <trkpt lat="48.74046" lon="-0.57164">
        <ele>222.4</ele>
        <time>2014-05-27T17:08:53Z</time>
      </trkpt>
      <trkpt lat="48.7405" lon="-0.57157">
        <ele>222.4</ele>
        <time>2014-05-27T17:08:54Z</time>
      </trkpt>
      <trkpt lat="48.74066" lon="-0.57131">
        <ele>222.2</ele>
        <time>2014-05-27T17:08:58Z</time>
      </trkpt>
      <trkpt lat="48.74069" lon="-0.57125">
        <ele>222.2</ele>
        <time>2014-05-27T17:08:59Z</time>
      </trkpt>
      <trkpt lat="48.74073" lon="-0.5712">
        <ele>222</ele>
        <time>2014-05-27T17:09:00Z</time>
      </trkpt>
      <trkpt lat="48.7414" lon="-0.57051">
        <ele>219.6</ele>
        <time>2014-05-27T17:09:13Z</time>
      </trkpt>
      <trkpt lat="48.74156" lon="-0.57039">
        <ele>219</ele>
        <time>2014-05-27T17:09:16Z</time>
      </trkpt>
      <trkpt lat="48.74167" lon="-0.57033">
        <ele>218.4</ele>
        <time>2014-05-27T17:09:18Z</time>
      </trkpt>
      <trkpt lat="48.74178" lon="-0.57027">
        <ele>218</ele>
        <time>2014-05-27T17:09:20Z</time>
      </trkpt>
      <trkpt lat="48.74184" lon="-0.57029">
        <ele>217.8</ele>
        <time>2014-05-27T17:09:21Z</time>
      </trkpt>
      <trkpt lat="48.74189" lon="-0.57034">
        <ele>217.6</ele>
        <time>2014-05-27T17:09:22Z</time>
      </trkpt>
      <trkpt lat="48.74191" lon="-0.57042">
        <ele>217.4</ele>
        <time>2014-05-27T17:09:23Z</time>
      </trkpt>
      <trkpt lat="48.74192" lon="-0.57052">
        <ele>217.2</ele>
        <time>2014-05-27T17:09:24Z</time>
      </trkpt>
      <trkpt lat="48.74193" lon="-0.57061">
        <ele>216.8</ele>
        <time>2014-05-27T17:09:25Z</time>
      </trkpt>
      <trkpt lat="48.74196" lon="-0.57071">
        <ele>216.8</ele>
        <time>2014-05-27T17:09:26Z</time>
      </trkpt>
      <trkpt lat="48.742" lon="-0.57079">
        <ele>216.4</ele>
        <time>2014-05-27T17:09:27Z</time>
      </trkpt>
      <trkpt lat="48.74246" lon="-0.57175">
        <ele>213.4</ele>
        <time>2014-05-27T17:09:37Z</time>
      </trkpt>
      <trkpt lat="48.74257" lon="-0.57195">
        <ele>212.6</ele>
        <time>2014-05-27T17:09:39Z</time>
      </trkpt>
      <trkpt lat="48.74294" lon="-0.57271">
        <ele>209.2</ele>
        <time>2014-05-27T17:09:46Z</time>
      </trkpt>
      <trkpt lat="48.7433" lon="-0.57336">
        <ele>205.6</ele>
        <time>2014-05-27T17:09:52Z</time>
      </trkpt>
      <trkpt lat="48.74342" lon="-0.57355">
        <ele>203.8</ele>
        <time>2014-05-27T17:09:54Z</time>
      </trkpt>
      <trkpt lat="48.74362" lon="-0.57389">
        <ele>202.6</ele>
        <time>2014-05-27T17:09:58Z</time>
      </trkpt>
      <trkpt lat="48.74423" lon="-0.57492">
        <ele>202.2</ele>
        <time>2014-05-27T17:10:13Z</time>
      </trkpt>
      <trkpt lat="48.74488" lon="-0.57591">
        <ele>203.2</ele>
        <time>2014-05-27T17:10:28Z</time>
      </trkpt>
      <trkpt lat="48.74567" lon="-0.5767">
        <ele>205.2</ele>
        <time>2014-05-27T17:10:44Z</time>
      </trkpt>
      <trkpt lat="48.74586" lon="-0.57686">
        <ele>206.2</ele>
        <time>2014-05-27T17:10:48Z</time>
      </trkpt>
      <trkpt lat="48.74591" lon="-0.57687">
        <ele>206.2</ele>
        <time>2014-05-27T17:10:49Z</time>
      </trkpt>
      <trkpt lat="48.74596" lon="-0.57685">
        <ele>206.4</ele>
        <time>2014-05-27T17:10:50Z</time>
      </trkpt>
      <trkpt lat="48.746" lon="-0.57682">
        <ele>206.6</ele>
        <time>2014-05-27T17:10:51Z</time>
      </trkpt>
      <trkpt lat="48.74604" lon="-0.57676">
        <ele>206.8</ele>
        <time>2014-05-27T17:10:52Z</time>
      </trkpt>
      <trkpt lat="48.74608" lon="-0.57669">
        <ele>207</ele>
        <time>2014-05-27T17:10:53Z</time>
      </trkpt>
      <trkpt lat="48.74611" lon="-0.57662">
        <ele>207.2</ele>
        <time>2014-05-27T17:10:54Z</time>
      </trkpt>
      <trkpt lat="48.74614" lon="-0.57655">
        <ele>207.4</ele>
        <time>2014-05-27T17:10:55Z</time>
      </trkpt>
      <trkpt lat="48.74631" lon="-0.57616">
        <ele>208.4</ele>
        <time>2014-05-27T17:11:01Z</time>
      </trkpt>
      <trkpt lat="48.74638" lon="-0.57601">
        <ele>208.6</ele>
        <time>2014-05-27T17:11:03Z</time>
      </trkpt>
      <trkpt lat="48.74654" lon="-0.5757">
        <ele>208.2</ele>
        <time>2014-05-27T17:11:07Z</time>
      </trkpt>
      <trkpt lat="48.74682" lon="-0.57503">
        <ele>206.6</ele>
        <time>2014-05-27T17:11:17Z</time>
      </trkpt>
      <trkpt lat="48.74685" lon="-0.57496">
        <ele>206.6</ele>
        <time>2014-05-27T17:11:18Z</time>
      </trkpt>
      <trkpt lat="48.74706" lon="-0.57443">
        <ele>206</ele>
        <time>2014-05-27T17:11:25Z</time>
      </trkpt>
      <trkpt lat="48.74709" lon="-0.57436">
        <ele>205.8</ele>
        <time>2014-05-27T17:11:26Z</time>
      </trkpt>
      <trkpt lat="48.74716" lon="-0.57421">
        <ele>205.6</ele>
        <time>2014-05-27T17:11:28Z</time>
      </trkpt>
      <trkpt lat="48.7474" lon="-0.57373">
        <ele>204.6</ele>
        <time>2014-05-27T17:11:34Z</time>
      </trkpt>
      <trkpt lat="48.74742" lon="-0.57365">
        <ele>204</ele>
        <time>2014-05-27T17:11:35Z</time>
      </trkpt>
      <trkpt lat="48.74745" lon="-0.57356">
        <ele>203.8</ele>
        <time>2014-05-27T17:11:36Z</time>
      </trkpt>
      <trkpt lat="48.74787" lon="-0.57247">
        <ele>200.8</ele>
        <time>2014-05-27T17:11:49Z</time>
      </trkpt>
      <trkpt lat="48.74789" lon="-0.57241">
        <ele>200.6</ele>
        <time>2014-05-27T17:11:50Z</time>
      </trkpt>
      <trkpt lat="48.74791" lon="-0.57233">
        <ele>200.6</ele>
        <time>2014-05-27T17:11:51Z</time>
      </trkpt>
      <trkpt lat="48.74793" lon="-0.57227">
        <ele>200.4</ele>
        <time>2014-05-27T17:11:52Z</time>
      </trkpt>
      <trkpt lat="48.74794" lon="-0.57222">
        <ele>200.4</ele>
        <time>2014-05-27T17:11:53Z</time>
      </trkpt>
      <trkpt lat="48.74795" lon="-0.57219">
        <ele>200.6</ele>
        <time>2014-05-27T17:11:54Z</time>
      </trkpt>
      <trkpt lat="48.74796" lon="-0.57215">
        <ele>200.6</ele>
        <time>2014-05-27T17:11:55Z</time>
      </trkpt>
      <trkpt lat="48.74797" lon="-0.57213">
        <ele>200.6</ele>
        <time>2014-05-27T17:11:56Z</time>
      </trkpt>
      <trkpt lat="48.74796" lon="-0.57211">
        <ele>201</ele>
        <time>2014-05-27T17:12:01Z</time>
      </trkpt>
    </trkseg>
  </trk>
</gpx>